<?xml version='1.0' encoding='UTF-8'?><gpx version="1.1" creator="JPX - https://github.com/jenetics/jpx" xmlns="http://www.topografix.com/GPX/1/1"><trk><trkseg><trkpt lat="44.1507338" lon="10.412396"><ele>546.0</ele><time>2026-04-14T11:26:06Z</time></trkpt><trkpt lat="44.1507708" lon="10.4122693"><ele>546.0</ele><time>2026-04-14T11:26:08Z</time></trkpt><trkpt lat="44.1508033" lon="10.412144"><ele>546.0</ele><time>2026-04-14T11:26:10Z</time></trkpt><trkpt lat="44.150866" lon="10.4120768"><ele>546.0</ele><time>2026-04-14T11:26:14Z</time></trkpt><trkpt lat="44.1509535" lon="10.4120789"><ele>546.0</ele><time>2026-04-14T11:26:17.999Z</time></trkpt><trkpt lat="44.1510161" lon="10.4120632"><ele>546.0</ele><time>2026-04-14T11:26:20Z</time></trkpt><trkpt lat="44.1510665" lon="10.4119686"><ele>543.5</ele><time>2026-04-14T11:26:22.999Z</time></trkpt><trkpt lat="44.1510065" lon="10.4118978"><ele>541.0</ele><time>2026-04-14T11:26:25Z</time></trkpt><trkpt lat="44.1509157" lon="10.4118312"><ele>538.5</ele><time>2026-04-14T11:26:27Z</time></trkpt><trkpt lat="44.1508568" lon="10.4117999"><ele>536.0</ele><time>2026-04-14T11:26:29Z</time></trkpt><trkpt lat="44.1507843" lon="10.4117849"><ele>533.5</ele><time>2026-04-14T11:26:31Z</time></trkpt><trkpt lat="44.1507023" lon="10.4117879"><ele>531.0</ele><time>2026-04-14T11:26:33Z</time></trkpt><trkpt lat="44.150588" lon="10.4117872"><ele>530.8333333333334</ele><time>2026-04-14T11:26:35Z</time></trkpt><trkpt lat="44.1504656" lon="10.4117462"><ele>530.6666666666666</ele><time>2026-04-14T11:26:37Z</time></trkpt><trkpt lat="44.1503984" lon="10.4117188"><ele>530.5</ele><time>2026-04-14T11:26:38Z</time></trkpt><trkpt lat="44.1503318" lon="10.4116736"><ele>530.3333333333333</ele><time>2026-04-14T11:26:39Z</time></trkpt><trkpt lat="44.1502596" lon="10.4116326"><ele>530.1666666666666</ele><time>2026-04-14T11:26:40Z</time></trkpt><trkpt lat="44.1501804" lon="10.4115942"><ele>530.0</ele><time>2026-04-14T11:26:40.999Z</time></trkpt><trkpt lat="44.1501037" lon="10.4115558"><ele>530.0</ele><time>2026-04-14T11:26:42Z</time></trkpt><trkpt lat="44.1500275" lon="10.411517"><ele>530.0</ele><time>2026-04-14T11:26:43Z</time></trkpt><trkpt lat="44.1499484" lon="10.4114753"><ele>530.0</ele><time>2026-04-14T11:26:44Z</time></trkpt><trkpt lat="44.1498683" lon="10.4114336"><ele>530.0</ele><time>2026-04-14T11:26:45Z</time></trkpt><trkpt lat="44.1497857" lon="10.4113948"><ele>530.0</ele><time>2026-04-14T11:26:45.999Z</time></trkpt><trkpt lat="44.149699" lon="10.4113586"><ele>530.0</ele><time>2026-04-14T11:26:47Z</time></trkpt><trkpt lat="44.1496217" lon="10.4113189"><ele>531.0</ele><time>2026-04-14T11:26:47.999Z</time></trkpt><trkpt lat="44.1495432" lon="10.4112758"><ele>532.0</ele><time>2026-04-14T11:26:49Z</time></trkpt><trkpt lat="44.1494653" lon="10.4112296"><ele>533.0</ele><time>2026-04-14T11:26:50Z</time></trkpt><trkpt lat="44.1493901" lon="10.4111911"><ele>534.0</ele><time>2026-04-14T11:26:51Z</time></trkpt><trkpt lat="44.1493171" lon="10.4111461"><ele>535.0</ele><time>2026-04-14T11:26:52Z</time></trkpt><trkpt lat="44.1492358" lon="10.4111208"><ele>536.0</ele><time>2026-04-14T11:26:53Z</time></trkpt><trkpt lat="44.149158" lon="10.4111231"><ele>536.0</ele><time>2026-04-14T11:26:53.999Z</time></trkpt><trkpt lat="44.1490881" lon="10.4111529"><ele>536.0</ele><time>2026-04-14T11:26:54.999Z</time></trkpt><trkpt lat="44.1490267" lon="10.4112011"><ele>536.0</ele><time>2026-04-14T11:26:55.999Z</time></trkpt><trkpt lat="44.148964" lon="10.4112537"><ele>536.0</ele><time>2026-04-14T11:26:56.999Z</time></trkpt><trkpt lat="44.1488581" lon="10.4113462"><ele>536.0</ele><time>2026-04-14T11:26:59Z</time></trkpt><trkpt lat="44.1487504" lon="10.4113887"><ele>533.8</ele><time>2026-04-14T11:27:00.999Z</time></trkpt><trkpt lat="44.1486579" lon="10.4113385"><ele>531.6</ele><time>2026-04-14T11:27:03Z</time></trkpt><trkpt lat="44.1485773" lon="10.4112345"><ele>529.4</ele><time>2026-04-14T11:27:05Z</time></trkpt><trkpt lat="44.148521" lon="10.4111151"><ele>527.2</ele><time>2026-04-14T11:27:06.999Z</time></trkpt><trkpt lat="44.1484786" lon="10.4109806"><ele>525.0</ele><time>2026-04-14T11:27:09Z</time></trkpt><trkpt lat="44.1484333" lon="10.4108501"><ele>525.0</ele><time>2026-04-14T11:27:11Z</time></trkpt><trkpt lat="44.1483914" lon="10.410723"><ele>525.0</ele><time>2026-04-14T11:27:12.999Z</time></trkpt><trkpt lat="44.1483429" lon="10.410586"><ele>525.0</ele><time>2026-04-14T11:27:15Z</time></trkpt><trkpt lat="44.1483016" lon="10.4104398"><ele>525.0</ele><time>2026-04-14T11:27:17Z</time></trkpt><trkpt lat="44.1482625" lon="10.410281"><ele>525.0</ele><time>2026-04-14T11:27:19Z</time></trkpt><trkpt lat="44.1482283" lon="10.4101221"><ele>521.8</ele><time>2026-04-14T11:27:20.999Z</time></trkpt><trkpt lat="44.1482038" lon="10.4099772"><ele>518.6</ele><time>2026-04-14T11:27:23Z</time></trkpt><trkpt lat="44.1481757" lon="10.4098187"><ele>515.4</ele><time>2026-04-14T11:27:25Z</time></trkpt><trkpt lat="44.1481549" lon="10.4096513"><ele>512.2</ele><time>2026-04-14T11:27:26.999Z</time></trkpt><trkpt lat="44.1481384" lon="10.4095592"><ele>509.0</ele><time>2026-04-14T11:27:28Z</time></trkpt><trkpt lat="44.1481263" lon="10.409469"><ele>508.99999999999994</ele><time>2026-04-14T11:27:29Z</time></trkpt><trkpt lat="44.1481075" lon="10.4092914"><ele>509.0</ele><time>2026-04-14T11:27:31Z</time></trkpt><trkpt lat="44.1481006" lon="10.409204"><ele>508.99999999999994</ele><time>2026-04-14T11:27:31.999Z</time></trkpt><trkpt lat="44.1480971" lon="10.4091161"><ele>508.99999999999994</ele><time>2026-04-14T11:27:33Z</time></trkpt><trkpt lat="44.1480894" lon="10.4090283"><ele>509.0</ele><time>2026-04-14T11:27:34Z</time></trkpt><trkpt lat="44.1480816" lon="10.4089387"><ele>508.99999999999994</ele><time>2026-04-14T11:27:35Z</time></trkpt><trkpt lat="44.1480721" lon="10.4088492"><ele>508.99999999999994</ele><time>2026-04-14T11:27:36Z</time></trkpt><trkpt lat="44.1480657" lon="10.4087563"><ele>510.16666666666663</ele><time>2026-04-14T11:27:36.999Z</time></trkpt><trkpt lat="44.1480468" lon="10.4085792"><ele>511.3333333333333</ele><time>2026-04-14T11:27:39Z</time></trkpt><trkpt lat="44.1480409" lon="10.4084889"><ele>512.5</ele><time>2026-04-14T11:27:39.999Z</time></trkpt><trkpt lat="44.1480412" lon="10.408393"><ele>513.6666666666666</ele><time>2026-04-14T11:27:40.999Z</time></trkpt><trkpt lat="44.1480337" lon="10.4083009"><ele>514.8333333333334</ele><time>2026-04-14T11:27:42Z</time></trkpt><trkpt lat="44.1480272" lon="10.4081973"><ele>516.0</ele><time>2026-04-14T11:27:43Z</time></trkpt><trkpt lat="44.1480195" lon="10.4081033"><ele>516.0</ele><time>2026-04-14T11:27:43.999Z</time></trkpt><trkpt lat="44.1480016" lon="10.4079976"><ele>516.0</ele><time>2026-04-14T11:27:44.999Z</time></trkpt><trkpt lat="44.1479684" lon="10.4078989"><ele>516.0</ele><time>2026-04-14T11:27:45.999Z</time></trkpt><trkpt lat="44.1479139" lon="10.4078322"><ele>516.0</ele><time>2026-04-14T11:27:46.999Z</time></trkpt><trkpt lat="44.1478412" lon="10.407792"><ele>516.0</ele><time>2026-04-14T11:27:47.999Z</time></trkpt><trkpt lat="44.1477573" lon="10.4077668"><ele>516.0</ele><time>2026-04-14T11:27:49Z</time></trkpt><trkpt lat="44.1476693" lon="10.4077415"><ele>514.6666666666666</ele><time>2026-04-14T11:27:50Z</time></trkpt><trkpt lat="44.1475755" lon="10.4077184"><ele>513.3333333333334</ele><time>2026-04-14T11:27:51Z</time></trkpt><trkpt lat="44.1474808" lon="10.4077091"><ele>512.0</ele><time>2026-04-14T11:27:51.999Z</time></trkpt><trkpt lat="44.1473942" lon="10.4077159"><ele>510.6666666666667</ele><time>2026-04-14T11:27:53Z</time></trkpt><trkpt lat="44.14732" lon="10.4077459"><ele>509.33333333333337</ele><time>2026-04-14T11:27:54Z</time></trkpt><trkpt lat="44.1472548" lon="10.4077907"><ele>508.0</ele><time>2026-04-14T11:27:54.999Z</time></trkpt><trkpt lat="44.1472041" lon="10.4078496"><ele>506.6666666666667</ele><time>2026-04-14T11:27:56Z</time></trkpt><trkpt lat="44.1471604" lon="10.4079859"><ele>505.33333333333337</ele><time>2026-04-14T11:27:58Z</time></trkpt><trkpt lat="44.1471944" lon="10.40807"><ele>504.0</ele><time>2026-04-14T11:27:59Z</time></trkpt><trkpt lat="44.1472359" lon="10.4081378"><ele>502.66666666666663</ele><time>2026-04-14T11:27:59.999Z</time></trkpt><trkpt lat="44.1472853" lon="10.4082056"><ele>501.3333333333333</ele><time>2026-04-14T11:28:01Z</time></trkpt><trkpt lat="44.1473356" lon="10.4082862"><ele>500.0</ele><time>2026-04-14T11:28:02Z</time></trkpt><trkpt lat="44.1473815" lon="10.4083737"><ele>501.49999999999994</ele><time>2026-04-14T11:28:03Z</time></trkpt><trkpt lat="44.1474215" lon="10.4084747"><ele>503.0</ele><time>2026-04-14T11:28:04Z</time></trkpt><trkpt lat="44.1474502" lon="10.4085869"><ele>504.5</ele><time>2026-04-14T11:28:05Z</time></trkpt><trkpt lat="44.147479" lon="10.4087036"><ele>506.0</ele><time>2026-04-14T11:28:05.999Z</time></trkpt><trkpt lat="44.1475029" lon="10.4088236"><ele>507.49999999999994</ele><time>2026-04-14T11:28:06.999Z</time></trkpt><trkpt lat="44.147519" lon="10.4089461"><ele>509.0</ele><time>2026-04-14T11:28:08Z</time></trkpt><trkpt lat="44.1475362" lon="10.4090727"><ele>509.0</ele><time>2026-04-14T11:28:09Z</time></trkpt><trkpt lat="44.1475544" lon="10.4092043"><ele>509.0</ele><time>2026-04-14T11:28:09.999Z</time></trkpt><trkpt lat="44.1475738" lon="10.4093368"><ele>509.0</ele><time>2026-04-14T11:28:10.999Z</time></trkpt><trkpt lat="44.1475915" lon="10.4094759"><ele>509.0</ele><time>2026-04-14T11:28:12Z</time></trkpt><trkpt lat="44.1476048" lon="10.4096188"><ele>509.0</ele><time>2026-04-14T11:28:12.999Z</time></trkpt><trkpt lat="44.1476246" lon="10.4097579"><ele>507.0</ele><time>2026-04-14T11:28:14Z</time></trkpt><trkpt lat="44.1476448" lon="10.4099048"><ele>505.0</ele><time>2026-04-14T11:28:15Z</time></trkpt><trkpt lat="44.1476643" lon="10.4100525"><ele>503.0</ele><time>2026-04-14T11:28:16Z</time></trkpt><trkpt lat="44.1476836" lon="10.4101965"><ele>501.0</ele><time>2026-04-14T11:28:17Z</time></trkpt><trkpt lat="44.1477035" lon="10.410341"><ele>499.0</ele><time>2026-04-14T11:28:17.999Z</time></trkpt><trkpt lat="44.1477273" lon="10.4104898"><ele>498.0</ele><time>2026-04-14T11:28:18.999Z</time></trkpt><trkpt lat="44.1477517" lon="10.4106394"><ele>497.0</ele><time>2026-04-14T11:28:19.999Z</time></trkpt><trkpt lat="44.1477789" lon="10.4107889"><ele>496.0</ele><time>2026-04-14T11:28:21Z</time></trkpt><trkpt lat="44.1478064" lon="10.410936"><ele>495.0</ele><time>2026-04-14T11:28:22Z</time></trkpt><trkpt lat="44.1478374" lon="10.4110851"><ele>494.0</ele><time>2026-04-14T11:28:23Z</time></trkpt><trkpt lat="44.1478655" lon="10.411229"><ele>493.2</ele><time>2026-04-14T11:28:23.999Z</time></trkpt><trkpt lat="44.1478923" lon="10.4113786"><ele>492.4</ele><time>2026-04-14T11:28:25Z</time></trkpt><trkpt lat="44.1479194" lon="10.4115243"><ele>491.6</ele><time>2026-04-14T11:28:26Z</time></trkpt><trkpt lat="44.1479458" lon="10.4116717"><ele>490.8</ele><time>2026-04-14T11:28:27Z</time></trkpt><trkpt lat="44.1479703" lon="10.4118155"><ele>490.0</ele><time>2026-04-14T11:28:28Z</time></trkpt><trkpt lat="44.1479978" lon="10.4119536"><ele>490.00000000000006</ele><time>2026-04-14T11:28:28.999Z</time></trkpt><trkpt lat="44.1480212" lon="10.4120832"><ele>490.0</ele><time>2026-04-14T11:28:29.999Z</time></trkpt><trkpt lat="44.1480439" lon="10.4121995"><ele>490.0</ele><time>2026-04-14T11:28:30.999Z</time></trkpt><trkpt lat="44.1480587" lon="10.4123036"><ele>490.0</ele><time>2026-04-14T11:28:31.999Z</time></trkpt><trkpt lat="44.1480736" lon="10.4124002"><ele>490.00000000000006</ele><time>2026-04-14T11:28:33Z</time></trkpt><trkpt lat="44.1480924" lon="10.4124867"><ele>490.0</ele><time>2026-04-14T11:28:33.999Z</time></trkpt><trkpt lat="44.1481181" lon="10.4126289"><ele>490.1666666666667</ele><time>2026-04-14T11:28:36Z</time></trkpt><trkpt lat="44.1481411" lon="10.4127391"><ele>490.33333333333337</ele><time>2026-04-14T11:28:38Z</time></trkpt><trkpt lat="44.1481629" lon="10.4128426"><ele>490.5</ele><time>2026-04-14T11:28:40Z</time></trkpt><trkpt lat="44.148186" lon="10.4129617"><ele>490.66666666666663</ele><time>2026-04-14T11:28:43Z</time></trkpt><trkpt lat="44.1481827" lon="10.4130966"><ele>490.8333333333333</ele><time>2026-04-14T11:28:45.999Z</time></trkpt><trkpt lat="44.148183" lon="10.4132064"><ele>491.0</ele><time>2026-04-14T11:28:48Z</time></trkpt><trkpt lat="44.1481926" lon="10.4132957"><ele>491.0</ele><time>2026-04-14T11:28:51Z</time></trkpt><trkpt lat="44.1482047" lon="10.4134023"><ele>490.99999999999994</ele><time>2026-04-14T11:28:55.999Z</time></trkpt><trkpt lat="44.1482756" lon="10.413401"><ele>491.0</ele><time>2026-04-14T11:29:22Z</time></trkpt><trkpt lat="44.1483323" lon="10.4133386"><ele>491.0</ele><time>2026-04-14T11:29:26Z</time></trkpt><trkpt lat="44.1484051" lon="10.4132976"><ele>490.99999999999994</ele><time>2026-04-14T11:29:30Z</time></trkpt><trkpt lat="44.1484689" lon="10.4132386"><ele>491.0</ele><time>2026-04-14T11:29:34.999Z</time></trkpt><trkpt lat="44.1485277" lon="10.413203"><ele>491.0</ele><time>2026-04-14T11:29:39.999Z</time></trkpt><trkpt lat="44.1485852" lon="10.4131416"><ele>491.57142857142856</ele><time>2026-04-14T11:29:46Z</time></trkpt><trkpt lat="44.1486388" lon="10.4130935"><ele>492.1428571428571</ele><time>2026-04-14T11:29:57.999Z</time></trkpt><trkpt lat="44.1487117" lon="10.4130791"><ele>492.71428571428567</ele><time>2026-04-14T11:30:36Z</time></trkpt><trkpt lat="44.1487807" lon="10.4130589"><ele>493.2857142857142</ele><time>2026-04-14T11:30:41Z</time></trkpt><trkpt lat="44.1488502" lon="10.4130667"><ele>493.85714285714283</ele><time>2026-04-14T11:30:47Z</time></trkpt><trkpt lat="44.1489251" lon="10.4130613"><ele>494.42857142857133</ele><time>2026-04-14T11:30:52.999Z</time></trkpt><trkpt lat="44.1489881" lon="10.4130688"><ele>494.99999999999994</ele><time>2026-04-14T11:30:57.999Z</time></trkpt><trkpt lat="44.1490497" lon="10.4130502"><ele>498.42857142857133</ele><time>2026-04-14T11:31:02.999Z</time></trkpt><trkpt lat="44.1490686" lon="10.4129534"><ele>501.85714285714283</ele><time>2026-04-14T11:31:09Z</time></trkpt><trkpt lat="44.1490679" lon="10.4128618"><ele>505.2857142857142</ele><time>2026-04-14T11:31:13.999Z</time></trkpt><trkpt lat="44.1490892" lon="10.4127722"><ele>508.71428571428567</ele><time>2026-04-14T11:31:19.999Z</time></trkpt><trkpt lat="44.1491356" lon="10.4126983"><ele>512.1428571428571</ele><time>2026-04-14T11:31:26Z</time></trkpt><trkpt lat="44.1491642" lon="10.4126148"><ele>515.5714285714286</ele><time>2026-04-14T11:31:32Z</time></trkpt><trkpt lat="44.1491186" lon="10.4125404"><ele>519.0</ele><time>2026-04-14T11:31:41Z</time></trkpt><trkpt lat="44.1491249" lon="10.4124493"><ele>519.0</ele><time>2026-04-14T11:31:46Z</time></trkpt><trkpt lat="44.1491194" lon="10.4123578"><ele>519.0</ele><time>2026-04-14T11:31:51Z</time></trkpt><trkpt lat="44.1491082" lon="10.4122526"><ele>519.0</ele><time>2026-04-14T11:31:55.999Z</time></trkpt><trkpt lat="44.1490994" lon="10.4121509"><ele>519.0</ele><time>2026-04-14T11:32:00.999Z</time></trkpt><trkpt lat="44.1491048" lon="10.412061"><ele>519.0</ele><time>2026-04-14T11:32:07Z</time></trkpt><trkpt lat="44.1491482" lon="10.4119972"><ele>519.0</ele><time>2026-04-14T11:32:13Z</time></trkpt><trkpt lat="44.1492117" lon="10.4119835"><ele>519.0</ele><time>2026-04-14T11:32:16Z</time></trkpt><trkpt lat="44.1492868" lon="10.4119696"><ele>519.7142857142857</ele><time>2026-04-14T11:32:20Z</time></trkpt><trkpt lat="44.1493525" lon="10.4119408"><ele>520.4285714285713</ele><time>2026-04-14T11:32:25Z</time></trkpt><trkpt lat="44.1494222" lon="10.4119168"><ele>521.1428571428571</ele><time>2026-04-14T11:32:29.999Z</time></trkpt><trkpt lat="44.1494873" lon="10.4118859"><ele>521.8571428571429</ele><time>2026-04-14T11:32:34.999Z</time></trkpt><trkpt lat="44.1495532" lon="10.4118572"><ele>522.5714285714287</ele><time>2026-04-14T11:32:40Z</time></trkpt><trkpt lat="44.1496197" lon="10.4118193"><ele>523.2857142857143</ele><time>2026-04-14T11:32:45.999Z</time></trkpt><trkpt lat="44.1496872" lon="10.4118025"><ele>524.0</ele><time>2026-04-14T11:32:51.999Z</time></trkpt><trkpt lat="44.1497507" lon="10.4117682"><ele>524.0</ele><time>2026-04-14T11:32:58.999Z</time></trkpt><trkpt lat="44.1498178" lon="10.4117371"><ele>524.0</ele><time>2026-04-14T11:33:06Z</time></trkpt><trkpt lat="44.1498954" lon="10.411712"><ele>524.0</ele><time>2026-04-14T11:33:12Z</time></trkpt><trkpt lat="44.1499636" lon="10.4117181"><ele>524.0</ele><time>2026-04-14T11:33:16Z</time></trkpt><trkpt lat="44.1500328" lon="10.4116944"><ele>524.0</ele><time>2026-04-14T11:33:21Z</time></trkpt><trkpt lat="44.150103" lon="10.4116638"><ele>524.0</ele><time>2026-04-14T11:33:26Z</time></trkpt><trkpt lat="44.1501719" lon="10.4116268"><ele>524.0</ele><time>2026-04-14T11:33:32Z</time></trkpt><trkpt lat="44.1502414" lon="10.4116676"><ele>524.8571428571429</ele><time>2026-04-14T11:33:38Z</time></trkpt><trkpt lat="44.1503086" lon="10.4117031"><ele>525.7142857142858</ele><time>2026-04-14T11:33:43.999Z</time></trkpt><trkpt lat="44.1503712" lon="10.4117384"><ele>526.5714285714286</ele><time>2026-04-14T11:33:49Z</time></trkpt><trkpt lat="44.1504358" lon="10.4117663"><ele>527.4285714285714</ele><time>2026-04-14T11:33:53.999Z</time></trkpt><trkpt lat="44.1505017" lon="10.411803"><ele>528.2857142857142</ele><time>2026-04-14T11:33:59Z</time></trkpt><trkpt lat="44.1505642" lon="10.411823"><ele>529.1428571428571</ele><time>2026-04-14T11:34:04Z</time></trkpt><trkpt lat="44.1506316" lon="10.4118564"><ele>530.0</ele><time>2026-04-14T11:34:10Z</time></trkpt><trkpt lat="44.1507011" lon="10.411853"><ele>530.1428571428571</ele><time>2026-04-14T11:34:14.999Z</time></trkpt><trkpt lat="44.1507698" lon="10.4118141"><ele>530.2857142857142</ele><time>2026-04-14T11:34:20Z</time></trkpt><trkpt lat="44.1508442" lon="10.4118037"><ele>530.4285714285714</ele><time>2026-04-14T11:34:24.999Z</time></trkpt><trkpt lat="44.1509146" lon="10.411837"><ele>530.5714285714286</ele><time>2026-04-14T11:34:29.999Z</time></trkpt><trkpt lat="44.1509736" lon="10.4118866"><ele>530.7142857142858</ele><time>2026-04-14T11:34:35Z</time></trkpt><trkpt lat="44.1510486" lon="10.4119138"><ele>530.8571428571429</ele><time>2026-04-14T11:34:40Z</time></trkpt><trkpt lat="44.1511026" lon="10.4119783"><ele>531.0</ele><time>2026-04-14T11:34:46Z</time></trkpt><trkpt lat="44.151062" lon="10.4120634"><ele>531.0</ele><time>2026-04-14T11:34:51.999Z</time></trkpt><trkpt lat="44.1509966" lon="10.4120889"><ele>531.0</ele><time>2026-04-14T11:34:56.999Z</time></trkpt><trkpt lat="44.1509249" lon="10.4121064"><ele>531.0</ele><time>2026-04-14T11:35:00.999Z</time></trkpt><trkpt lat="44.1508444" lon="10.4121296"><ele>531.0</ele><time>2026-04-14T11:35:04.999Z</time></trkpt><trkpt lat="44.1507996" lon="10.4122036"><ele>531.0</ele><time>2026-04-14T11:35:09Z</time></trkpt><trkpt lat="44.1507855" lon="10.4123017"><ele>531.0</ele><time>2026-04-14T11:35:14Z</time></trkpt><trkpt lat="44.1507683" lon="10.4123991"><ele>531.0</ele><time>2026-04-14T11:35:19Z</time></trkpt><trkpt lat="44.1507541" lon="10.4124997"><ele>533.1428571428571</ele><time>2026-04-14T11:35:22.999Z</time></trkpt><trkpt lat="44.1507924" lon="10.4125734"><ele>535.2857142857143</ele><time>2026-04-14T11:35:44.999Z</time></trkpt><trkpt lat="44.1507475" lon="10.4125087"><ele>537.4285714285714</ele><time>2026-04-14T11:38:08Z</time></trkpt><trkpt lat="44.150763" lon="10.4126001"><ele>539.5714285714286</ele><time>2026-04-14T11:38:16Z</time></trkpt><trkpt lat="44.1507157" lon="10.4126729"><ele>541.7142857142858</ele><time>2026-04-14T11:38:20Z</time></trkpt><trkpt lat="44.1507382" lon="10.4125873"><ele>543.8571428571429</ele><time>2026-04-14T11:38:26Z</time></trkpt><trkpt lat="44.1507558" lon="10.4125001"><ele>546.0</ele><time>2026-04-14T11:38:54.999Z</time></trkpt><trkpt lat="44.1507652" lon="10.4123845"><ele>546.0</ele><time>2026-04-14T11:38:58Z</time></trkpt><trkpt lat="44.1507921" lon="10.4122931"><ele>546.0</ele><time>2026-04-14T11:39:00Z</time></trkpt><trkpt lat="44.1507993" lon="10.4121703"><ele>546.0</ele><time>2026-04-14T11:39:02Z</time></trkpt><trkpt lat="44.1508848" lon="10.4121294"><ele>546.0</ele><time>2026-04-14T11:39:05Z</time></trkpt><trkpt lat="44.1509628" lon="10.4121371"><ele>546.0</ele><time>2026-04-14T11:39:07.999Z</time></trkpt><trkpt lat="44.1510415" lon="10.4121128"><ele>546.0</ele><time>2026-04-14T11:39:10.999Z</time></trkpt><trkpt lat="44.1511041" lon="10.4120818"><ele>543.8571428571429</ele><time>2026-04-14T11:39:13.999Z</time></trkpt><trkpt lat="44.1511566" lon="10.4120284"><ele>541.7142857142858</ele><time>2026-04-14T11:39:19.999Z</time></trkpt><trkpt lat="44.1510887" lon="10.411997"><ele>539.5714285714286</ele><time>2026-04-14T11:39:23Z</time></trkpt><trkpt lat="44.1510322" lon="10.4119229"><ele>537.4285714285714</ele><time>2026-04-14T11:39:24.999Z</time></trkpt><trkpt lat="44.1509656" lon="10.4118527"><ele>535.2857142857143</ele><time>2026-04-14T11:39:27Z</time></trkpt><trkpt lat="44.150913" lon="10.4118001"><ele>533.1428571428571</ele><time>2026-04-14T11:39:29Z</time></trkpt><trkpt lat="44.1508449" lon="10.4117709"><ele>531.0</ele><time>2026-04-14T11:39:31Z</time></trkpt><trkpt lat="44.1507655" lon="10.4117609"><ele>530.8</ele><time>2026-04-14T11:39:33Z</time></trkpt><trkpt lat="44.1506693" lon="10.4117641"><ele>530.6</ele><time>2026-04-14T11:39:34.999Z</time></trkpt><trkpt lat="44.1505516" lon="10.4117576"><ele>530.4</ele><time>2026-04-14T11:39:36.999Z</time></trkpt><trkpt lat="44.1504257" lon="10.4117075"><ele>530.2</ele><time>2026-04-14T11:39:38.999Z</time></trkpt><trkpt lat="44.1503594" lon="10.411672"><ele>530.0</ele><time>2026-04-14T11:39:40Z</time></trkpt><trkpt lat="44.1502896" lon="10.4116344"><ele>530.0</ele><time>2026-04-14T11:39:40.999Z</time></trkpt><trkpt lat="44.1502185" lon="10.4115987"><ele>530.0</ele><time>2026-04-14T11:39:42Z</time></trkpt><trkpt lat="44.1501445" lon="10.4115614"><ele>530.0</ele><time>2026-04-14T11:39:42.999Z</time></trkpt><trkpt lat="44.1500707" lon="10.4115262"><ele>530.0</ele><time>2026-04-14T11:39:44Z</time></trkpt><trkpt lat="44.1499936" lon="10.4114873"><ele>530.0</ele><time>2026-04-14T11:39:45Z</time></trkpt><trkpt lat="44.1499186" lon="10.411451"><ele>530.0</ele><time>2026-04-14T11:39:45.999Z</time></trkpt><trkpt lat="44.1498408" lon="10.4114092"><ele>529.0</ele><time>2026-04-14T11:39:46.999Z</time></trkpt><trkpt lat="44.14976" lon="10.4113725"><ele>528.0</ele><time>2026-04-14T11:39:47.999Z</time></trkpt><trkpt lat="44.1496814" lon="10.4113286"><ele>527.0</ele><time>2026-04-14T11:39:49Z</time></trkpt><trkpt lat="44.1496075" lon="10.411287"><ele>526.0</ele><time>2026-04-14T11:39:49.999Z</time></trkpt><trkpt lat="44.1495361" lon="10.41124"><ele>525.0</ele><time>2026-04-14T11:39:50.999Z</time></trkpt><trkpt lat="44.149461" lon="10.4112079"><ele>524.0</ele><time>2026-04-14T11:39:51.999Z</time></trkpt><trkpt lat="44.1493934" lon="10.4111673"><ele>524.1666666666666</ele><time>2026-04-14T11:39:53Z</time></trkpt><trkpt lat="44.1493233" lon="10.4111339"><ele>524.3333333333333</ele><time>2026-04-14T11:39:54Z</time></trkpt><trkpt lat="44.1492517" lon="10.4111203"><ele>524.5</ele><time>2026-04-14T11:39:55Z</time></trkpt><trkpt lat="44.1491834" lon="10.4111202"><ele>524.6666666666666</ele><time>2026-04-14T11:39:56Z</time></trkpt><trkpt lat="44.1491165" lon="10.4111444"><ele>524.8333333333334</ele><time>2026-04-14T11:39:57Z</time></trkpt><trkpt lat="44.1490494" lon="10.4111746"><ele>525.0</ele><time>2026-04-14T11:39:57.999Z</time></trkpt><trkpt lat="44.1489412" lon="10.4112472"><ele>525.0</ele><time>2026-04-14T11:40:00Z</time></trkpt><trkpt lat="44.1488397" lon="10.4113315"><ele>525.0</ele><time>2026-04-14T11:40:02Z</time></trkpt><trkpt lat="44.1487423" lon="10.4113583"><ele>525.0</ele><time>2026-04-14T11:40:04Z</time></trkpt><trkpt lat="44.1486572" lon="10.4113279"><ele>525.0</ele><time>2026-04-14T11:40:06Z</time></trkpt><trkpt lat="44.1486015" lon="10.4112672"><ele>525.0</ele><time>2026-04-14T11:40:08Z</time></trkpt><trkpt lat="44.1485671" lon="10.4111541"><ele>525.0</ele><time>2026-04-14T11:40:10Z</time></trkpt><trkpt lat="44.1485245" lon="10.4110359"><ele>525.0</ele><time>2026-04-14T11:40:12Z</time></trkpt><trkpt lat="44.148477" lon="10.4109225"><ele>525.0</ele><time>2026-04-14T11:40:13.999Z</time></trkpt><trkpt lat="44.1484344" lon="10.4108022"><ele>525.0</ele><time>2026-04-14T11:40:15.999Z</time></trkpt><trkpt lat="44.1483891" lon="10.4106692"><ele>525.0</ele><time>2026-04-14T11:40:18Z</time></trkpt><trkpt lat="44.1483343" lon="10.4105229"><ele>525.6666666666666</ele><time>2026-04-14T11:40:19.999Z</time></trkpt><trkpt lat="44.1482922" lon="10.4103728"><ele>526.3333333333334</ele><time>2026-04-14T11:40:22Z</time></trkpt><trkpt lat="44.1482718" lon="10.4102805"><ele>527.0</ele><time>2026-04-14T11:40:22.999Z</time></trkpt><trkpt lat="44.1482546" lon="10.4101911"><ele>527.6666666666667</ele><time>2026-04-14T11:40:24Z</time></trkpt><trkpt lat="44.1482369" lon="10.4101031"><ele>528.3333333333334</ele><time>2026-04-14T11:40:25Z</time></trkpt><trkpt lat="44.1482025" lon="10.4099337"><ele>529.0</ele><time>2026-04-14T11:40:26.999Z</time></trkpt><trkpt lat="44.1481877" lon="10.4098418"><ele>526.1428571428571</ele><time>2026-04-14T11:40:28Z</time></trkpt><trkpt lat="44.1481693" lon="10.4097526"><ele>523.2857142857142</ele><time>2026-04-14T11:40:29Z</time></trkpt><trkpt lat="44.1481549" lon="10.4096541"><ele>520.4285714285713</ele><time>2026-04-14T11:40:30Z</time></trkpt><trkpt lat="44.1481439" lon="10.4095522"><ele>517.5714285714286</ele><time>2026-04-14T11:40:31Z</time></trkpt><trkpt lat="44.1481341" lon="10.4094513"><ele>514.7142857142857</ele><time>2026-04-14T11:40:32Z</time></trkpt><trkpt lat="44.1481225" lon="10.4093546"><ele>511.8571428571428</ele><time>2026-04-14T11:40:33Z</time></trkpt><trkpt lat="44.1481163" lon="10.4092591"><ele>508.99999999999994</ele><time>2026-04-14T11:40:34Z</time></trkpt><trkpt lat="44.1481118" lon="10.4091588"><ele>508.99999999999994</ele><time>2026-04-14T11:40:35Z</time></trkpt><trkpt lat="44.1480997" lon="10.4090637"><ele>509.0</ele><time>2026-04-14T11:40:35.999Z</time></trkpt><trkpt lat="44.1480877" lon="10.4089683"><ele>508.99999999999994</ele><time>2026-04-14T11:40:36.999Z</time></trkpt><trkpt lat="44.1480762" lon="10.4088775"><ele>508.99999999999994</ele><time>2026-04-14T11:40:37.999Z</time></trkpt><trkpt lat="44.1480657" lon="10.4087801"><ele>509.0</ele><time>2026-04-14T11:40:38.999Z</time></trkpt><trkpt lat="44.148051" lon="10.4086827"><ele>508.99999999999994</ele><time>2026-04-14T11:40:40Z</time></trkpt><trkpt lat="44.1480439" lon="10.4085922"><ele>508.99999999999994</ele><time>2026-04-14T11:40:41Z</time></trkpt><trkpt lat="44.148041" lon="10.408498"><ele>508.8333333333333</ele><time>2026-04-14T11:40:42Z</time></trkpt><trkpt lat="44.1480363" lon="10.4083964"><ele>508.66666666666663</ele><time>2026-04-14T11:40:42.999Z</time></trkpt><trkpt lat="44.1480323" lon="10.4082949"><ele>508.5</ele><time>2026-04-14T11:40:44Z</time></trkpt><trkpt lat="44.1480255" lon="10.4081886"><ele>508.33333333333337</ele><time>2026-04-14T11:40:44.999Z</time></trkpt><trkpt lat="44.1480141" lon="10.4080811"><ele>508.1666666666667</ele><time>2026-04-14T11:40:46Z</time></trkpt><trkpt lat="44.1479936" lon="10.4079714"><ele>508.0</ele><time>2026-04-14T11:40:47Z</time></trkpt><trkpt lat="44.1479574" lon="10.4078783"><ele>508.00000000000006</ele><time>2026-04-14T11:40:48Z</time></trkpt><trkpt lat="44.1478993" lon="10.4078125"><ele>508.0</ele><time>2026-04-14T11:40:49Z</time></trkpt><trkpt lat="44.1478303" lon="10.4077771"><ele>508.0</ele><time>2026-04-14T11:40:50Z</time></trkpt><trkpt lat="44.1477549" lon="10.4077512"><ele>508.0</ele><time>2026-04-14T11:40:51Z</time></trkpt><trkpt lat="44.1476759" lon="10.4077292"><ele>508.00000000000006</ele><time>2026-04-14T11:40:52Z</time></trkpt><trkpt lat="44.1475925" lon="10.407709"><ele>508.0</ele><time>2026-04-14T11:40:52.999Z</time></trkpt><trkpt lat="44.147503" lon="10.4077025"><ele>508.00000000000006</ele><time>2026-04-14T11:40:53.999Z</time></trkpt><trkpt lat="44.1474138" lon="10.4077137"><ele>508.0</ele><time>2026-04-14T11:40:55Z</time></trkpt><trkpt lat="44.1473283" lon="10.4077424"><ele>508.0</ele><time>2026-04-14T11:40:56Z</time></trkpt><trkpt lat="44.1472566" lon="10.4077884"><ele>508.0</ele><time>2026-04-14T11:40:57Z</time></trkpt><trkpt lat="44.1472033" lon="10.4078413"><ele>508.00000000000006</ele><time>2026-04-14T11:40:58Z</time></trkpt><trkpt lat="44.1471501" lon="10.4079711"><ele>508.0</ele><time>2026-04-14T11:41:00Z</time></trkpt><trkpt lat="44.1472051" lon="10.4081186"><ele>506.6666666666667</ele><time>2026-04-14T11:41:02Z</time></trkpt><trkpt lat="44.1472569" lon="10.4081902"><ele>505.33333333333337</ele><time>2026-04-14T11:41:02.999Z</time></trkpt><trkpt lat="44.1473139" lon="10.4082621"><ele>504.0</ele><time>2026-04-14T11:41:04Z</time></trkpt><trkpt lat="44.1473638" lon="10.4083462"><ele>502.66666666666663</ele><time>2026-04-14T11:41:05Z</time></trkpt><trkpt lat="44.1474073" lon="10.4084395"><ele>501.3333333333333</ele><time>2026-04-14T11:41:05.999Z</time></trkpt><trkpt lat="44.147439" lon="10.4085467"><ele>500.0</ele><time>2026-04-14T11:41:07Z</time></trkpt><trkpt lat="44.1474705" lon="10.4086625"><ele>501.8</ele><time>2026-04-14T11:41:08Z</time></trkpt><trkpt lat="44.147492" lon="10.4087875"><ele>503.6</ele><time>2026-04-14T11:41:08.999Z</time></trkpt><trkpt lat="44.1475104" lon="10.4089126"><ele>505.4</ele><time>2026-04-14T11:41:09.999Z</time></trkpt><trkpt lat="44.1475257" lon="10.4090413"><ele>507.2</ele><time>2026-04-14T11:41:11Z</time></trkpt><trkpt lat="44.1475473" lon="10.409172"><ele>509.0</ele><time>2026-04-14T11:41:12Z</time></trkpt><trkpt lat="44.1475636" lon="10.4093005"><ele>509.0</ele><time>2026-04-14T11:41:13Z</time></trkpt><trkpt lat="44.1475817" lon="10.4094371"><ele>509.0</ele><time>2026-04-14T11:41:14Z</time></trkpt><trkpt lat="44.147602" lon="10.4095734"><ele>509.0</ele><time>2026-04-14T11:41:15Z</time></trkpt><trkpt lat="44.147618" lon="10.4097091"><ele>509.0</ele><time>2026-04-14T11:41:15.999Z</time></trkpt><trkpt lat="44.1476363" lon="10.4098424"><ele>509.0</ele><time>2026-04-14T11:41:16.999Z</time></trkpt><trkpt lat="44.1476584" lon="10.4099788"><ele>507.0</ele><time>2026-04-14T11:41:18Z</time></trkpt><trkpt lat="44.1476796" lon="10.4101161"><ele>505.0</ele><time>2026-04-14T11:41:18.999Z</time></trkpt><trkpt lat="44.1477024" lon="10.410254"><ele>503.0</ele><time>2026-04-14T11:41:19.999Z</time></trkpt><trkpt lat="44.1477243" lon="10.4103927"><ele>501.0</ele><time>2026-04-14T11:41:21Z</time></trkpt><trkpt lat="44.1477465" lon="10.4105334"><ele>499.0</ele><time>2026-04-14T11:41:21.999Z</time></trkpt><trkpt lat="44.14777" lon="10.4106756"><ele>498.0</ele><time>2026-04-14T11:41:22.999Z</time></trkpt><trkpt lat="44.1477985" lon="10.4108122"><ele>497.0</ele><time>2026-04-14T11:41:23.999Z</time></trkpt><trkpt lat="44.1478257" lon="10.4109527"><ele>496.0</ele><time>2026-04-14T11:41:25Z</time></trkpt><trkpt lat="44.14785" lon="10.4110932"><ele>495.0</ele><time>2026-04-14T11:41:26Z</time></trkpt><trkpt lat="44.1478728" lon="10.4112352"><ele>494.0</ele><time>2026-04-14T11:41:27Z</time></trkpt><trkpt lat="44.1478982" lon="10.4113796"><ele>493.2</ele><time>2026-04-14T11:41:27.999Z</time></trkpt><trkpt lat="44.1479221" lon="10.4115176"><ele>492.4</ele><time>2026-04-14T11:41:29Z</time></trkpt><trkpt lat="44.1479429" lon="10.4116525"><ele>491.6</ele><time>2026-04-14T11:41:30Z</time></trkpt><trkpt lat="44.1479658" lon="10.4117876"><ele>490.8</ele><time>2026-04-14T11:41:31Z</time></trkpt><trkpt lat="44.1479915" lon="10.4119203"><ele>490.0</ele><time>2026-04-14T11:41:32Z</time></trkpt><trkpt lat="44.1480187" lon="10.4120509"><ele>490.1666666666667</ele><time>2026-04-14T11:41:32.999Z</time></trkpt><trkpt lat="44.148043" lon="10.4121744"><ele>490.33333333333337</ele><time>2026-04-14T11:41:33.999Z</time></trkpt><trkpt lat="44.1480613" lon="10.4122868"><ele>490.5</ele><time>2026-04-14T11:41:35Z</time></trkpt><trkpt lat="44.1480777" lon="10.4123849"><ele>490.66666666666663</ele><time>2026-04-14T11:41:35.999Z</time></trkpt><trkpt lat="44.1480948" lon="10.412483"><ele>490.8333333333333</ele><time>2026-04-14T11:41:36.999Z</time></trkpt><trkpt lat="44.1481086" lon="10.4125786"><ele>491.0</ele><time>2026-04-14T11:41:38Z</time></trkpt><trkpt lat="44.148139" lon="10.4127349"><ele>490.99999999999994</ele><time>2026-04-14T11:41:39.999Z</time></trkpt><trkpt lat="44.1481664" lon="10.4128722"><ele>491.0</ele><time>2026-04-14T11:41:41.999Z</time></trkpt><trkpt lat="44.1481854" lon="10.4129746"><ele>491.0</ele><time>2026-04-14T11:41:44Z</time></trkpt><trkpt lat="44.1481864" lon="10.4130744"><ele>491.0</ele><time>2026-04-14T11:41:46.999Z</time></trkpt><trkpt lat="44.1481745" lon="10.4131618"><ele>490.99999999999994</ele><time>2026-04-14T11:41:48.999Z</time></trkpt><trkpt lat="44.1482024" lon="10.4132693"><ele>491.0</ele><time>2026-04-14T11:41:52Z</time></trkpt><trkpt lat="44.1482042" lon="10.4133788"><ele>490.99999999999994</ele><time>2026-04-14T11:41:55Z</time></trkpt><trkpt lat="44.1481442" lon="10.413412"><ele>491.0</ele><time>2026-04-14T11:41:56.999Z</time></trkpt><trkpt lat="44.1480666" lon="10.4133943"><ele>491.0</ele><time>2026-04-14T11:41:59Z</time></trkpt><trkpt lat="44.1479817" lon="10.4133489"><ele>491.0</ele><time>2026-04-14T11:42:01Z</time></trkpt><trkpt lat="44.1478899" lon="10.4132819"><ele>490.99999999999994</ele><time>2026-04-14T11:42:02.999Z</time></trkpt><trkpt lat="44.1478125" lon="10.4132117"><ele>491.0</ele><time>2026-04-14T11:42:05Z</time></trkpt><trkpt lat="44.1477425" lon="10.4131308"><ele>491.0</ele><time>2026-04-14T11:42:06.999Z</time></trkpt><trkpt lat="44.1476567" lon="10.4130655"><ele>491.0</ele><time>2026-04-14T11:42:08.999Z</time></trkpt><trkpt lat="44.1475569" lon="10.4130443"><ele>491.0</ele><time>2026-04-14T11:42:10.999Z</time></trkpt><trkpt lat="44.1474608" lon="10.4130666"><ele>491.0</ele><time>2026-04-14T11:42:13.999Z</time></trkpt><trkpt lat="44.1473721" lon="10.4131041"><ele>491.0</ele><time>2026-04-14T11:42:17Z</time></trkpt><trkpt lat="44.1473287" lon="10.4131682"><ele>490.3333333333333</ele><time>2026-04-14T11:42:19Z</time></trkpt><trkpt lat="44.1473062" lon="10.4132579"><ele>489.66666666666663</ele><time>2026-04-14T11:42:21Z</time></trkpt><trkpt lat="44.1472821" lon="10.4133571"><ele>489.0</ele><time>2026-04-14T11:42:22.999Z</time></trkpt><trkpt lat="44.1471907" lon="10.4133905"><ele>488.33333333333337</ele><time>2026-04-14T11:42:25Z</time></trkpt><trkpt lat="44.1471241" lon="10.4133991"><ele>487.6666666666667</ele><time>2026-04-14T11:42:26Z</time></trkpt><trkpt lat="44.1470436" lon="10.4134157"><ele>487.0</ele><time>2026-04-14T11:42:27Z</time></trkpt><trkpt lat="44.1469666" lon="10.4134336"><ele>487.00000000000006</ele><time>2026-04-14T11:42:28Z</time></trkpt><trkpt lat="44.1468916" lon="10.4134408"><ele>487.0</ele><time>2026-04-14T11:42:28.999Z</time></trkpt><trkpt lat="44.1467822" lon="10.4134456"><ele>487.0</ele><time>2026-04-14T11:42:31Z</time></trkpt><trkpt lat="44.1467152" lon="10.413465"><ele>487.0</ele><time>2026-04-14T11:42:33Z</time></trkpt><trkpt lat="44.1466764" lon="10.413564"><ele>487.00000000000006</ele><time>2026-04-14T11:42:35Z</time></trkpt><trkpt lat="44.1466323" lon="10.4136524"><ele>487.0</ele><time>2026-04-14T11:42:38Z</time></trkpt><trkpt lat="44.1465368" lon="10.4136835"><ele>484.00000000000006</ele><time>2026-04-14T11:42:40.999Z</time></trkpt><trkpt lat="44.1464349" lon="10.413647"><ele>481.0</ele><time>2026-04-14T11:42:43Z</time></trkpt><trkpt lat="44.1463715" lon="10.4136181"><ele>478.0</ele><time>2026-04-14T11:42:45Z</time></trkpt><trkpt lat="44.1462906" lon="10.4135943"><ele>475.0</ele><time>2026-04-14T11:42:48Z</time></trkpt><trkpt lat="44.1462128" lon="10.4136029"><ele>472.00000000000006</ele><time>2026-04-14T11:42:50Z</time></trkpt><trkpt lat="44.14615" lon="10.4135962"><ele>469.0</ele><time>2026-04-14T11:42:52Z</time></trkpt><trkpt lat="44.1460701" lon="10.4135906"><ele>469.00000000000006</ele><time>2026-04-14T11:42:55Z</time></trkpt><trkpt lat="44.146064" lon="10.4136911"><ele>469.0</ele><time>2026-04-14T11:42:59Z</time></trkpt><trkpt lat="44.1459932" lon="10.4137177"><ele>469.0</ele><time>2026-04-14T11:43:01.999Z</time></trkpt><trkpt lat="44.1459315" lon="10.4137466"><ele>469.0</ele><time>2026-04-14T11:43:05Z</time></trkpt><trkpt lat="44.1458442" lon="10.4137223"><ele>469.00000000000006</ele><time>2026-04-14T11:43:07.999Z</time></trkpt><trkpt lat="44.1457645" lon="10.4137151"><ele>469.0</ele><time>2026-04-14T11:43:10Z</time></trkpt><trkpt lat="44.1456963" lon="10.4137373"><ele>465.2</ele><time>2026-04-14T11:43:12Z</time></trkpt><trkpt lat="44.1456215" lon="10.4137906"><ele>461.4</ele><time>2026-04-14T11:43:14.999Z</time></trkpt><trkpt lat="44.1456221" lon="10.4139135"><ele>457.6</ele><time>2026-04-14T11:43:17.999Z</time></trkpt><trkpt lat="44.1456344" lon="10.4140001"><ele>453.8</ele><time>2026-04-14T11:43:19.999Z</time></trkpt><trkpt lat="44.1455808" lon="10.414172"><ele>450.0</ele><time>2026-04-14T11:43:23Z</time></trkpt><trkpt lat="44.1455299" lon="10.4142987"><ele>448.1666666666667</ele><time>2026-04-14T11:43:25Z</time></trkpt><trkpt lat="44.1454761" lon="10.4144301"><ele>446.33333333333337</ele><time>2026-04-14T11:43:27Z</time></trkpt><trkpt lat="44.1454303" lon="10.414549"><ele>444.5</ele><time>2026-04-14T11:43:28.999Z</time></trkpt><trkpt lat="44.145393" lon="10.4146537"><ele>442.6666666666667</ele><time>2026-04-14T11:43:31Z</time></trkpt><trkpt lat="44.1453322" lon="10.4147319"><ele>440.83333333333337</ele><time>2026-04-14T11:43:33Z</time></trkpt><trkpt lat="44.145282" lon="10.4148028"><ele>439.0</ele><time>2026-04-14T11:43:34.999Z</time></trkpt><trkpt lat="44.1452131" lon="10.4148457"><ele>437.33333333333337</ele><time>2026-04-14T11:43:36.999Z</time></trkpt><trkpt lat="44.1451372" lon="10.4149104"><ele>435.6666666666667</ele><time>2026-04-14T11:43:40Z</time></trkpt><trkpt lat="44.1450537" lon="10.4149588"><ele>434.0</ele><time>2026-04-14T11:43:42.999Z</time></trkpt><trkpt lat="44.1449898" lon="10.4150069"><ele>432.33333333333337</ele><time>2026-04-14T11:43:46Z</time></trkpt><trkpt lat="44.1449248" lon="10.4150124"><ele>430.6666666666667</ele><time>2026-04-14T11:43:50Z</time></trkpt><trkpt lat="44.1448467" lon="10.4149633"><ele>429.0</ele><time>2026-04-14T11:43:54Z</time></trkpt><trkpt lat="44.1447863" lon="10.4149314"><ele>427.3333333333333</ele><time>2026-04-14T11:43:55Z</time></trkpt><trkpt lat="44.1446929" lon="10.4148977"><ele>425.66666666666663</ele><time>2026-04-14T11:43:56.999Z</time></trkpt><trkpt lat="44.144621" lon="10.4148593"><ele>424.0</ele><time>2026-04-14T11:43:59Z</time></trkpt><trkpt lat="44.1445444" lon="10.4148344"><ele>422.3333333333333</ele><time>2026-04-14T11:44:01Z</time></trkpt><trkpt lat="44.1444654" lon="10.414795"><ele>420.66666666666663</ele><time>2026-04-14T11:44:03.999Z</time></trkpt><trkpt lat="44.1443876" lon="10.4147783"><ele>419.0</ele><time>2026-04-14T11:44:07.999Z</time></trkpt><trkpt lat="44.1443203" lon="10.4147503"><ele>418.99999999999994</ele><time>2026-04-14T11:44:10Z</time></trkpt><trkpt lat="44.1442436" lon="10.4147426"><ele>419.0</ele><time>2026-04-14T11:44:12.999Z</time></trkpt><trkpt lat="44.1442144" lon="10.4148255"><ele>419.0</ele><time>2026-04-14T11:44:15Z</time></trkpt><trkpt lat="44.1441658" lon="10.4148877"><ele>419.0</ele><time>2026-04-14T11:44:20Z</time></trkpt><trkpt lat="44.1441164" lon="10.4149603"><ele>418.99999999999994</ele><time>2026-04-14T11:44:22.999Z</time></trkpt><trkpt lat="44.1440648" lon="10.4150398"><ele>419.0</ele><time>2026-04-14T11:44:24.999Z</time></trkpt><trkpt lat="44.1439634" lon="10.4150576"><ele>418.2</ele><time>2026-04-14T11:44:27Z</time></trkpt><trkpt lat="44.1438443" lon="10.4150099"><ele>417.4</ele><time>2026-04-14T11:44:29Z</time></trkpt><trkpt lat="44.1437122" lon="10.4149582"><ele>416.6</ele><time>2026-04-14T11:44:30.999Z</time></trkpt><trkpt lat="44.1436363" lon="10.4149349"><ele>415.8</ele><time>2026-04-14T11:44:31.999Z</time></trkpt><trkpt lat="44.1435555" lon="10.4149075"><ele>415.0</ele><time>2026-04-14T11:44:33Z</time></trkpt><trkpt lat="44.1434718" lon="10.4148868"><ele>415.0</ele><time>2026-04-14T11:44:34Z</time></trkpt><trkpt lat="44.1433765" lon="10.4148767"><ele>415.0</ele><time>2026-04-14T11:44:35Z</time></trkpt><trkpt lat="44.1432835" lon="10.4148359"><ele>415.0</ele><time>2026-04-14T11:44:35.999Z</time></trkpt><trkpt lat="44.1431812" lon="10.4148408"><ele>415.0</ele><time>2026-04-14T11:44:37Z</time></trkpt><trkpt lat="44.1430731" lon="10.4148558"><ele>415.0</ele><time>2026-04-14T11:44:38Z</time></trkpt><trkpt lat="44.1429648" lon="10.4148846"><ele>412.0</ele><time>2026-04-14T11:44:39Z</time></trkpt><trkpt lat="44.1428513" lon="10.4149046"><ele>409.0</ele><time>2026-04-14T11:44:40Z</time></trkpt><trkpt lat="44.1427363" lon="10.4149168"><ele>406.0</ele><time>2026-04-14T11:44:40.999Z</time></trkpt><trkpt lat="44.1426152" lon="10.4149146"><ele>403.0</ele><time>2026-04-14T11:44:42Z</time></trkpt><trkpt lat="44.1424881" lon="10.4148989"><ele>401.5</ele><time>2026-04-14T11:44:43Z</time></trkpt><trkpt lat="44.14236" lon="10.4148761"><ele>400.0</ele><time>2026-04-14T11:44:44Z</time></trkpt><trkpt lat="44.14223" lon="10.4148453"><ele>398.5</ele><time>2026-04-14T11:44:45Z</time></trkpt><trkpt lat="44.1420986" lon="10.4148106"><ele>397.0</ele><time>2026-04-14T11:44:46Z</time></trkpt><trkpt lat="44.1419659" lon="10.4148098"><ele>397.0</ele><time>2026-04-14T11:44:47Z</time></trkpt><trkpt lat="44.1418381" lon="10.4148155"><ele>397.0</ele><time>2026-04-14T11:44:47.999Z</time></trkpt><trkpt lat="44.1417074" lon="10.4148331"><ele>397.0</ele><time>2026-04-14T11:44:48.999Z</time></trkpt><trkpt lat="44.1415845" lon="10.4148579"><ele>397.0</ele><time>2026-04-14T11:44:50Z</time></trkpt><trkpt lat="44.1414761" lon="10.4148801"><ele>396.20000000000005</ele><time>2026-04-14T11:44:51Z</time></trkpt><trkpt lat="44.1413793" lon="10.4149"><ele>395.4</ele><time>2026-04-14T11:44:52Z</time></trkpt><trkpt lat="44.1412893" lon="10.4148903"><ele>394.6</ele><time>2026-04-14T11:44:52.999Z</time></trkpt><trkpt lat="44.1412104" lon="10.4148398"><ele>393.79999999999995</ele><time>2026-04-14T11:44:53.999Z</time></trkpt><trkpt lat="44.1411431" lon="10.4147595"><ele>393.0</ele><time>2026-04-14T11:44:55Z</time></trkpt><trkpt lat="44.1411031" lon="10.4146433"><ele>393.0</ele><time>2026-04-14T11:44:56Z</time></trkpt><trkpt lat="44.1410883" lon="10.414514"><ele>393.0</ele><time>2026-04-14T11:44:56.999Z</time></trkpt><trkpt lat="44.1410729" lon="10.4143872"><ele>393.0</ele><time>2026-04-14T11:44:58Z</time></trkpt><trkpt lat="44.1410404" lon="10.414281"><ele>393.0</ele><time>2026-04-14T11:44:59Z</time></trkpt><trkpt lat="44.1409824" lon="10.4141957"><ele>393.0</ele><time>2026-04-14T11:45:00Z</time></trkpt><trkpt lat="44.1409053" lon="10.4141477"><ele>393.0</ele><time>2026-04-14T11:45:01Z</time></trkpt><trkpt lat="44.1408156" lon="10.4141484"><ele>393.0</ele><time>2026-04-14T11:45:02Z</time></trkpt><trkpt lat="44.1407398" lon="10.4141762"><ele>393.0</ele><time>2026-04-14T11:45:03Z</time></trkpt><trkpt lat="44.1406919" lon="10.4142978"><ele>393.0</ele><time>2026-04-14T11:45:04Z</time></trkpt><trkpt lat="44.1406648" lon="10.4144021"><ele>393.0</ele><time>2026-04-14T11:45:05Z</time></trkpt><trkpt lat="44.1406561" lon="10.4145224"><ele>393.0</ele><time>2026-04-14T11:45:05.999Z</time></trkpt><trkpt lat="44.1406561" lon="10.4146486"><ele>393.0</ele><time>2026-04-14T11:45:07Z</time></trkpt><trkpt lat="44.1406613" lon="10.4147721"><ele>390.0</ele><time>2026-04-14T11:45:07.999Z</time></trkpt><trkpt lat="44.1406678" lon="10.4148962"><ele>387.0</ele><time>2026-04-14T11:45:09Z</time></trkpt><trkpt lat="44.1406739" lon="10.4150233"><ele>384.0</ele><time>2026-04-14T11:45:10Z</time></trkpt><trkpt lat="44.140679" lon="10.41515"><ele>381.0</ele><time>2026-04-14T11:45:11Z</time></trkpt><trkpt lat="44.1406824" lon="10.4152772"><ele>378.0</ele><time>2026-04-14T11:45:12Z</time></trkpt><trkpt lat="44.140688" lon="10.415406"><ele>377.8333333333333</ele><time>2026-04-14T11:45:13Z</time></trkpt><trkpt lat="44.1406871" lon="10.4155297"><ele>377.6666666666667</ele><time>2026-04-14T11:45:14Z</time></trkpt><trkpt lat="44.1406813" lon="10.4156532"><ele>377.5</ele><time>2026-04-14T11:45:14.999Z</time></trkpt><trkpt lat="44.1406657" lon="10.4157716"><ele>377.33333333333337</ele><time>2026-04-14T11:45:16Z</time></trkpt><trkpt lat="44.1406518" lon="10.4158928"><ele>377.1666666666667</ele><time>2026-04-14T11:45:17Z</time></trkpt><trkpt lat="44.1406367" lon="10.4160114"><ele>377.0</ele><time>2026-04-14T11:45:17.999Z</time></trkpt><trkpt lat="44.1406208" lon="10.4161253"><ele>377.0</ele><time>2026-04-14T11:45:18.999Z</time></trkpt><trkpt lat="44.1406044" lon="10.4162394"><ele>377.0</ele><time>2026-04-14T11:45:20Z</time></trkpt><trkpt lat="44.1405887" lon="10.4163524"><ele>377.0</ele><time>2026-04-14T11:45:21Z</time></trkpt><trkpt lat="44.1405724" lon="10.4164672"><ele>377.0</ele><time>2026-04-14T11:45:22Z</time></trkpt><trkpt lat="44.1405554" lon="10.4165731"><ele>377.0</ele><time>2026-04-14T11:45:23Z</time></trkpt><trkpt lat="44.1405405" lon="10.4166783"><ele>377.0</ele><time>2026-04-14T11:45:24Z</time></trkpt><trkpt lat="44.1405261" lon="10.4167813"><ele>377.1428571428571</ele><time>2026-04-14T11:45:25Z</time></trkpt><trkpt lat="44.1405111" lon="10.4168824"><ele>377.2857142857143</ele><time>2026-04-14T11:45:26Z</time></trkpt><trkpt lat="44.1404984" lon="10.4169795"><ele>377.42857142857144</ele><time>2026-04-14T11:45:27Z</time></trkpt><trkpt lat="44.1404851" lon="10.4170801"><ele>377.57142857142856</ele><time>2026-04-14T11:45:28Z</time></trkpt><trkpt lat="44.1404699" lon="10.4171752"><ele>377.7142857142857</ele><time>2026-04-14T11:45:28.999Z</time></trkpt><trkpt lat="44.1404531" lon="10.4172753"><ele>377.85714285714283</ele><time>2026-04-14T11:45:30Z</time></trkpt><trkpt lat="44.1404412" lon="10.4173739"><ele>378.0</ele><time>2026-04-14T11:45:30.999Z</time></trkpt><trkpt lat="44.1404304" lon="10.4174715"><ele>378.8333333333333</ele><time>2026-04-14T11:45:31.999Z</time></trkpt><trkpt lat="44.1404178" lon="10.4175639"><ele>379.6666666666667</ele><time>2026-04-14T11:45:32.999Z</time></trkpt><trkpt lat="44.1403996" lon="10.4176553"><ele>380.5</ele><time>2026-04-14T11:45:34Z</time></trkpt><trkpt lat="44.1403831" lon="10.4177444"><ele>381.33333333333337</ele><time>2026-04-14T11:45:35Z</time></trkpt><trkpt lat="44.1403258" lon="10.4179025"><ele>382.1666666666667</ele><time>2026-04-14T11:45:37Z</time></trkpt><trkpt lat="44.1402511" lon="10.4180218"><ele>383.0</ele><time>2026-04-14T11:45:39Z</time></trkpt><trkpt lat="44.1401626" lon="10.4180839"><ele>385.1666666666667</ele><time>2026-04-14T11:45:40.999Z</time></trkpt><trkpt lat="44.1400736" lon="10.4181146"><ele>387.33333333333337</ele><time>2026-04-14T11:45:43Z</time></trkpt><trkpt lat="44.1399929" lon="10.4181217"><ele>389.5</ele><time>2026-04-14T11:45:44.999Z</time></trkpt><trkpt lat="44.1399148" lon="10.4181301"><ele>391.6666666666667</ele><time>2026-04-14T11:45:47Z</time></trkpt><trkpt lat="44.1398406" lon="10.4181372"><ele>393.8333333333333</ele><time>2026-04-14T11:45:49Z</time></trkpt><trkpt lat="44.1397643" lon="10.4181473"><ele>396.0</ele><time>2026-04-14T11:45:51Z</time></trkpt><trkpt lat="44.1396862" lon="10.4181571"><ele>396.0</ele><time>2026-04-14T11:45:53Z</time></trkpt><trkpt lat="44.1396137" lon="10.4181629"><ele>396.0</ele><time>2026-04-14T11:45:55Z</time></trkpt><trkpt lat="44.1395486" lon="10.4181707"><ele>396.0</ele><time>2026-04-14T11:45:56.999Z</time></trkpt><trkpt lat="44.1394625" lon="10.4181807"><ele>396.0</ele><time>2026-04-14T11:45:59.999Z</time></trkpt><trkpt lat="44.1394025" lon="10.418142"><ele>396.0</ele><time>2026-04-14T11:46:02.999Z</time></trkpt><trkpt lat="44.1394385" lon="10.4180441"><ele>396.0</ele><time>2026-04-14T11:46:05.999Z</time></trkpt><trkpt lat="44.1395004" lon="10.4180154"><ele>396.0</ele><time>2026-04-14T11:46:08Z</time></trkpt><trkpt lat="44.1395653" lon="10.4179902"><ele>394.1666666666667</ele><time>2026-04-14T11:46:10Z</time></trkpt><trkpt lat="44.1396559" lon="10.41793"><ele>392.33333333333337</ele><time>2026-04-14T11:46:12Z</time></trkpt><trkpt lat="44.1397151" lon="10.4178871"><ele>390.5</ele><time>2026-04-14T11:46:14Z</time></trkpt><trkpt lat="44.1397765" lon="10.4178156"><ele>388.6666666666667</ele><time>2026-04-14T11:46:15.999Z</time></trkpt><trkpt lat="44.139821" lon="10.4177451"><ele>386.83333333333337</ele><time>2026-04-14T11:46:18Z</time></trkpt><trkpt lat="44.1398362" lon="10.4176583"><ele>385.0</ele><time>2026-04-14T11:46:20Z</time></trkpt><trkpt lat="44.1397766" lon="10.4175343"><ele>385.0</ele><time>2026-04-14T11:46:22Z</time></trkpt><trkpt lat="44.1397077" lon="10.4174522"><ele>385.0</ele><time>2026-04-14T11:46:23.999Z</time></trkpt><trkpt lat="44.1395939" lon="10.4173706"><ele>385.0</ele><time>2026-04-14T11:46:25.999Z</time></trkpt><trkpt lat="44.1394724" lon="10.4173268"><ele>385.0</ele><time>2026-04-14T11:46:28Z</time></trkpt><trkpt lat="44.1394054" lon="10.4172926"><ele>385.0</ele><time>2026-04-14T11:46:29Z</time></trkpt><trkpt lat="44.1393346" lon="10.4172529"><ele>383.4</ele><time>2026-04-14T11:46:31Z</time></trkpt><trkpt lat="44.1393237" lon="10.4171231"><ele>381.8</ele><time>2026-04-14T11:46:32.999Z</time></trkpt><trkpt lat="44.1392583" lon="10.4170252"><ele>380.20000000000005</ele><time>2026-04-14T11:46:35Z</time></trkpt><trkpt lat="44.13917" lon="10.4169949"><ele>378.6</ele><time>2026-04-14T11:46:36.999Z</time></trkpt><trkpt lat="44.1391161" lon="10.4168797"><ele>377.0</ele><time>2026-04-14T11:46:39Z</time></trkpt><trkpt lat="44.1390703" lon="10.4167525"><ele>378.5</ele><time>2026-04-14T11:46:40.999Z</time></trkpt><trkpt lat="44.1390227" lon="10.4166795"><ele>380.0</ele><time>2026-04-14T11:46:42.999Z</time></trkpt><trkpt lat="44.1389397" lon="10.4166198"><ele>381.5</ele><time>2026-04-14T11:46:46Z</time></trkpt><trkpt lat="44.1388933" lon="10.4165554"><ele>383.0</ele><time>2026-04-14T11:46:48Z</time></trkpt><trkpt lat="44.1388383" lon="10.4164834"><ele>384.49999999999994</ele><time>2026-04-14T11:46:50Z</time></trkpt><trkpt lat="44.1387689" lon="10.4164404"><ele>386.0</ele><time>2026-04-14T11:46:51.999Z</time></trkpt><trkpt lat="44.1386934" lon="10.4164108"><ele>384.20000000000005</ele><time>2026-04-14T11:46:54Z</time></trkpt><trkpt lat="44.1386243" lon="10.4163089"><ele>382.40000000000003</ele><time>2026-04-14T11:46:56Z</time></trkpt><trkpt lat="44.1385624" lon="10.4162165"><ele>380.6</ele><time>2026-04-14T11:46:57.999Z</time></trkpt><trkpt lat="44.1385386" lon="10.4160995"><ele>378.8</ele><time>2026-04-14T11:46:59.999Z</time></trkpt><trkpt lat="44.1384901" lon="10.4159833"><ele>377.0</ele><time>2026-04-14T11:47:02Z</time></trkpt><trkpt lat="44.138433" lon="10.4159025"><ele>377.0</ele><time>2026-04-14T11:47:03.999Z</time></trkpt><trkpt lat="44.1383707" lon="10.4158143"><ele>377.0</ele><time>2026-04-14T11:47:05.999Z</time></trkpt><trkpt lat="44.1383082" lon="10.4157608"><ele>377.0</ele><time>2026-04-14T11:47:07.999Z</time></trkpt><trkpt lat="44.1382546" lon="10.4156781"><ele>377.0</ele><time>2026-04-14T11:47:10Z</time></trkpt><trkpt lat="44.138195" lon="10.4155904"><ele>377.0</ele><time>2026-04-14T11:47:12Z</time></trkpt><trkpt lat="44.1381429" lon="10.4155078"><ele>377.0</ele><time>2026-04-14T11:47:14Z</time></trkpt><trkpt lat="44.138087" lon="10.4154046"><ele>376.6</ele><time>2026-04-14T11:47:17Z</time></trkpt><trkpt lat="44.1380584" lon="10.4152727"><ele>376.20000000000005</ele><time>2026-04-14T11:47:19Z</time></trkpt><trkpt lat="44.1380396" lon="10.4151445"><ele>375.8</ele><time>2026-04-14T11:47:21Z</time></trkpt><trkpt lat="44.1379652" lon="10.4150382"><ele>375.4</ele><time>2026-04-14T11:47:23Z</time></trkpt><trkpt lat="44.1378929" lon="10.4149309"><ele>375.0</ele><time>2026-04-14T11:47:25Z</time></trkpt><trkpt lat="44.1378286" lon="10.4148271"><ele>375.0</ele><time>2026-04-14T11:47:26.999Z</time></trkpt><trkpt lat="44.1377395" lon="10.4147714"><ele>375.0</ele><time>2026-04-14T11:47:29Z</time></trkpt><trkpt lat="44.1376357" lon="10.4147416"><ele>375.0</ele><time>2026-04-14T11:47:31Z</time></trkpt><trkpt lat="44.1375538" lon="10.4147564"><ele>375.0</ele><time>2026-04-14T11:47:32.999Z</time></trkpt><trkpt lat="44.1374814" lon="10.4147209"><ele>375.0</ele><time>2026-04-14T11:47:37Z</time></trkpt><trkpt lat="44.1374171" lon="10.4147297"><ele>375.0</ele><time>2026-04-14T11:47:39Z</time></trkpt><trkpt lat="44.1373499" lon="10.4147075"><ele>376.42857142857144</ele><time>2026-04-14T11:47:42Z</time></trkpt><trkpt lat="44.1373185" lon="10.4146265"><ele>377.85714285714283</ele><time>2026-04-14T11:47:44Z</time></trkpt><trkpt lat="44.1372941" lon="10.4145227"><ele>379.2857142857143</ele><time>2026-04-14T11:47:46Z</time></trkpt><trkpt lat="44.1372722" lon="10.4144373"><ele>380.7142857142857</ele><time>2026-04-14T11:47:48Z</time></trkpt><trkpt lat="44.1372167" lon="10.414391"><ele>382.1428571428571</ele><time>2026-04-14T11:47:50Z</time></trkpt><trkpt lat="44.1371435" lon="10.4143787"><ele>383.57142857142856</ele><time>2026-04-14T11:47:52Z</time></trkpt><trkpt lat="44.1370673" lon="10.4143443"><ele>385.0</ele><time>2026-04-14T11:47:53.999Z</time></trkpt><trkpt lat="44.1369845" lon="10.41429"><ele>385.00000000000006</ele><time>2026-04-14T11:47:57Z</time></trkpt><trkpt lat="44.1369718" lon="10.4141945"><ele>385.0</ele><time>2026-04-14T11:48:01Z</time></trkpt><trkpt lat="44.1369898" lon="10.4141003"><ele>385.0</ele><time>2026-04-14T11:48:33.999Z</time></trkpt><trkpt lat="44.1369689" lon="10.4139884"><ele>385.0</ele><time>2026-04-14T11:48:54Z</time></trkpt><trkpt lat="44.136961" lon="10.4138738"><ele>385.00000000000006</ele><time>2026-04-14T11:49:01.999Z</time></trkpt><trkpt lat="44.1369259" lon="10.4137825"><ele>385.0</ele><time>2026-04-14T11:49:05Z</time></trkpt><trkpt lat="44.1368849" lon="10.413696"><ele>383.6666666666667</ele><time>2026-04-14T11:49:07.999Z</time></trkpt><trkpt lat="44.1368567" lon="10.4135972"><ele>382.33333333333337</ele><time>2026-04-14T11:49:11Z</time></trkpt><trkpt lat="44.1368296" lon="10.4135091"><ele>381.0</ele><time>2026-04-14T11:49:13Z</time></trkpt><trkpt lat="44.1367845" lon="10.4134414"><ele>379.6666666666667</ele><time>2026-04-14T11:49:15Z</time></trkpt><trkpt lat="44.1367918" lon="10.4133375"><ele>378.33333333333337</ele><time>2026-04-14T11:49:19Z</time></trkpt><trkpt lat="44.1367665" lon="10.4131683"><ele>377.0</ele><time>2026-04-14T11:49:22Z</time></trkpt><trkpt lat="44.1367203" lon="10.4130542"><ele>378.0</ele><time>2026-04-14T11:49:24Z</time></trkpt><trkpt lat="44.1366532" lon="10.4129708"><ele>379.0</ele><time>2026-04-14T11:49:26Z</time></trkpt><trkpt lat="44.1365877" lon="10.4128542"><ele>380.0</ele><time>2026-04-14T11:49:28Z</time></trkpt><trkpt lat="44.1365146" lon="10.4127231"><ele>381.0</ele><time>2026-04-14T11:49:30Z</time></trkpt><trkpt lat="44.1364438" lon="10.4126133"><ele>382.0</ele><time>2026-04-14T11:49:31.999Z</time></trkpt><trkpt lat="44.1364242" lon="10.4124781"><ele>382.0</ele><time>2026-04-14T11:49:34Z</time></trkpt><trkpt lat="44.136387" lon="10.4123737"><ele>382.0</ele><time>2026-04-14T11:49:36Z</time></trkpt><trkpt lat="44.1363825" lon="10.41228"><ele>382.0</ele><time>2026-04-14T11:49:38Z</time></trkpt><trkpt lat="44.136435" lon="10.412171"><ele>382.0</ele><time>2026-04-14T11:49:39.999Z</time></trkpt><trkpt lat="44.1364848" lon="10.412115"><ele>382.0</ele><time>2026-04-14T11:49:42Z</time></trkpt><trkpt lat="44.1365226" lon="10.4120368"><ele>382.0</ele><time>2026-04-14T11:49:43Z</time></trkpt><trkpt lat="44.13652" lon="10.4119357"><ele>380.8</ele><time>2026-04-14T11:49:43.999Z</time></trkpt><trkpt lat="44.1364691" lon="10.4118112"><ele>379.6</ele><time>2026-04-14T11:49:46Z</time></trkpt><trkpt lat="44.1363839" lon="10.4117061"><ele>378.40000000000003</ele><time>2026-04-14T11:49:48Z</time></trkpt><trkpt lat="44.1363327" lon="10.4115721"><ele>377.20000000000005</ele><time>2026-04-14T11:49:50Z</time></trkpt><trkpt lat="44.1363202" lon="10.4114283"><ele>376.0</ele><time>2026-04-14T11:49:51.999Z</time></trkpt><trkpt lat="44.1362933" lon="10.4113091"><ele>374.3333333333333</ele><time>2026-04-14T11:49:54Z</time></trkpt><trkpt lat="44.1362507" lon="10.411244"><ele>372.66666666666663</ele><time>2026-04-14T11:49:55Z</time></trkpt><trkpt lat="44.1362196" lon="10.4111289"><ele>371.0</ele><time>2026-04-14T11:49:57Z</time></trkpt><trkpt lat="44.1362596" lon="10.4110388"><ele>369.3333333333333</ele><time>2026-04-14T11:49:59Z</time></trkpt><trkpt lat="44.136262" lon="10.4109303"><ele>367.6666666666667</ele><time>2026-04-14T11:50:01Z</time></trkpt><trkpt lat="44.1362415" lon="10.410842"><ele>366.0</ele><time>2026-04-14T11:50:02.999Z</time></trkpt><trkpt lat="44.1361947" lon="10.4107337"><ele>366.0</ele><time>2026-04-14T11:50:06Z</time></trkpt><trkpt lat="44.1361522" lon="10.4106597"><ele>366.0</ele><time>2026-04-14T11:50:08Z</time></trkpt><trkpt lat="44.1361176" lon="10.4105722"><ele>366.0</ele><time>2026-04-14T11:50:10Z</time></trkpt><trkpt lat="44.1360987" lon="10.4104552"><ele>366.0</ele><time>2026-04-14T11:50:11.999Z</time></trkpt><trkpt lat="44.1360413" lon="10.4103463"><ele>366.0</ele><time>2026-04-14T11:50:13.999Z</time></trkpt><trkpt lat="44.1359731" lon="10.4102614"><ele>366.0</ele><time>2026-04-14T11:50:17Z</time></trkpt><trkpt lat="44.1359431" lon="10.4101522"><ele>364.0</ele><time>2026-04-14T11:50:18.999Z</time></trkpt><trkpt lat="44.13591" lon="10.4100108"><ele>362.0</ele><time>2026-04-14T11:50:21Z</time></trkpt><trkpt lat="44.1358929" lon="10.4098957"><ele>360.0</ele><time>2026-04-14T11:50:22.999Z</time></trkpt><trkpt lat="44.1359376" lon="10.4097733"><ele>358.0</ele><time>2026-04-14T11:50:25.999Z</time></trkpt><trkpt lat="44.1359897" lon="10.4096885"><ele>356.0</ele><time>2026-04-14T11:50:28Z</time></trkpt><trkpt lat="44.1359969" lon="10.409562"><ele>355.0</ele><time>2026-04-14T11:50:30Z</time></trkpt><trkpt lat="44.1359927" lon="10.4094597"><ele>354.0</ele><time>2026-04-14T11:50:31.999Z</time></trkpt><trkpt lat="44.136" lon="10.4093242"><ele>353.0</ele><time>2026-04-14T11:50:34Z</time></trkpt><trkpt lat="44.1359583" lon="10.4092058"><ele>352.0</ele><time>2026-04-14T11:50:36Z</time></trkpt><trkpt lat="44.1359308" lon="10.4090649"><ele>351.0</ele><time>2026-04-14T11:50:37.999Z</time></trkpt><trkpt lat="44.1359434" lon="10.4089583"><ele>350.0</ele><time>2026-04-14T11:50:39.999Z</time></trkpt><trkpt lat="44.1359987" lon="10.4088756"><ele>349.0</ele><time>2026-04-14T11:50:41.999Z</time></trkpt><trkpt lat="44.1360441" lon="10.4087771"><ele>348.0</ele><time>2026-04-14T11:50:44Z</time></trkpt><trkpt lat="44.136014" lon="10.408655"><ele>347.0</ele><time>2026-04-14T11:50:46.999Z</time></trkpt><trkpt lat="44.1359509" lon="10.4085531"><ele>346.0</ele><time>2026-04-14T11:50:50Z</time></trkpt><trkpt lat="44.1358897" lon="10.4084688"><ele>345.0</ele><time>2026-04-14T11:50:52Z</time></trkpt><trkpt lat="44.1358584" lon="10.4083601"><ele>344.0</ele><time>2026-04-14T11:50:54Z</time></trkpt><trkpt lat="44.1358691" lon="10.4082309"><ele>344.0</ele><time>2026-04-14T11:50:55.999Z</time></trkpt><trkpt lat="44.135858" lon="10.4081191"><ele>344.0</ele><time>2026-04-14T11:50:58Z</time></trkpt><trkpt lat="44.1357989" lon="10.4080513"><ele>344.0</ele><time>2026-04-14T11:51:00Z</time></trkpt><trkpt lat="44.1357416" lon="10.4079697"><ele>344.0</ele><time>2026-04-14T11:51:02Z</time></trkpt><trkpt lat="44.1356721" lon="10.4078484"><ele>344.0</ele><time>2026-04-14T11:51:04Z</time></trkpt><trkpt lat="44.1356098" lon="10.4077442"><ele>344.0</ele><time>2026-04-14T11:51:06Z</time></trkpt><trkpt lat="44.1355285" lon="10.4077251"><ele>344.0</ele><time>2026-04-14T11:51:07.999Z</time></trkpt><trkpt lat="44.1354434" lon="10.4077625"><ele>344.0</ele><time>2026-04-14T11:51:09.999Z</time></trkpt><trkpt lat="44.1353388" lon="10.4078065"><ele>344.0</ele><time>2026-04-14T11:51:11.999Z</time></trkpt><trkpt lat="44.135256" lon="10.407846"><ele>344.0</ele><time>2026-04-14T11:51:13.999Z</time></trkpt><trkpt lat="44.1351918" lon="10.4078642"><ele>344.0</ele><time>2026-04-14T11:51:16.999Z</time></trkpt><trkpt lat="44.1351166" lon="10.4079162"><ele>344.0</ele><time>2026-04-14T11:51:20Z</time></trkpt><trkpt lat="44.1350636" lon="10.4079935"><ele>344.5714285714286</ele><time>2026-04-14T11:51:23Z</time></trkpt><trkpt lat="44.1350279" lon="10.4080801"><ele>345.14285714285717</ele><time>2026-04-14T11:51:26Z</time></trkpt><trkpt lat="44.1349781" lon="10.4081553"><ele>345.7142857142857</ele><time>2026-04-14T11:51:29Z</time></trkpt><trkpt lat="44.1349691" lon="10.4082526"><ele>346.28571428571433</ele><time>2026-04-14T11:51:32Z</time></trkpt><trkpt lat="44.1349723" lon="10.4083658"><ele>346.8571428571429</ele><time>2026-04-14T11:51:36Z</time></trkpt><trkpt lat="44.1349493" lon="10.4084549"><ele>347.42857142857144</ele><time>2026-04-14T11:51:39Z</time></trkpt><trkpt lat="44.1348945" lon="10.4085122"><ele>348.0</ele><time>2026-04-14T11:51:41.999Z</time></trkpt><trkpt lat="44.1348284" lon="10.4085514"><ele>350.1666666666667</ele><time>2026-04-14T11:51:45Z</time></trkpt><trkpt lat="44.1347531" lon="10.4085594"><ele>352.3333333333333</ele><time>2026-04-14T11:51:47.999Z</time></trkpt><trkpt lat="44.1346873" lon="10.4085171"><ele>354.5</ele><time>2026-04-14T11:51:50.999Z</time></trkpt><trkpt lat="44.1346294" lon="10.4084546"><ele>356.66666666666663</ele><time>2026-04-14T11:51:54Z</time></trkpt><trkpt lat="44.1345647" lon="10.408411"><ele>358.8333333333333</ele><time>2026-04-14T11:51:56.999Z</time></trkpt><trkpt lat="44.1345001" lon="10.4083577"><ele>361.0</ele><time>2026-04-14T11:51:59.999Z</time></trkpt><trkpt lat="44.1344286" lon="10.4083033"><ele>361.0</ele><time>2026-04-14T11:52:02.999Z</time></trkpt><trkpt lat="44.1343593" lon="10.40824"><ele>361.0</ele><time>2026-04-14T11:52:06Z</time></trkpt><trkpt lat="44.1342905" lon="10.4081753"><ele>361.0</ele><time>2026-04-14T11:52:09Z</time></trkpt><trkpt lat="44.1342176" lon="10.4081099"><ele>361.0</ele><time>2026-04-14T11:52:12Z</time></trkpt><trkpt lat="44.1341377" lon="10.408045"><ele>361.0</ele><time>2026-04-14T11:52:15Z</time></trkpt><trkpt lat="44.1340615" lon="10.407976"><ele>361.0</ele><time>2026-04-14T11:52:18Z</time></trkpt><trkpt lat="44.1339956" lon="10.4078921"><ele>361.16666666666663</ele><time>2026-04-14T11:52:21Z</time></trkpt><trkpt lat="44.1339396" lon="10.407821"><ele>361.3333333333333</ele><time>2026-04-14T11:52:24.999Z</time></trkpt><trkpt lat="44.1338904" lon="10.4077584"><ele>361.5</ele><time>2026-04-14T11:52:28Z</time></trkpt><trkpt lat="44.1338351" lon="10.4076768"><ele>361.6666666666667</ele><time>2026-04-14T11:52:31Z</time></trkpt><trkpt lat="44.1337725" lon="10.4076009"><ele>361.83333333333337</ele><time>2026-04-14T11:52:34Z</time></trkpt><trkpt lat="44.1336996" lon="10.4075262"><ele>362.0</ele><time>2026-04-14T11:52:37Z</time></trkpt><trkpt lat="44.1336219" lon="10.4074498"><ele>362.0</ele><time>2026-04-14T11:52:39.999Z</time></trkpt><trkpt lat="44.1335663" lon="10.4073891"><ele>362.0</ele><time>2026-04-14T11:52:42Z</time></trkpt><trkpt lat="44.1335143" lon="10.4073292"><ele>362.0</ele><time>2026-04-14T11:52:44Z</time></trkpt><trkpt lat="44.1334399" lon="10.4072585"><ele>362.0</ele><time>2026-04-14T11:52:47Z</time></trkpt><trkpt lat="44.1333631" lon="10.4071889"><ele>362.0</ele><time>2026-04-14T11:52:50Z</time></trkpt><trkpt lat="44.1332799" lon="10.4071209"><ele>362.0</ele><time>2026-04-14T11:52:52.999Z</time></trkpt><trkpt lat="44.1332201" lon="10.407055"><ele>361.1428571428571</ele><time>2026-04-14T11:52:54.999Z</time></trkpt><trkpt lat="44.1331706" lon="10.4069895"><ele>360.2857142857143</ele><time>2026-04-14T11:52:56.999Z</time></trkpt><trkpt lat="44.133126" lon="10.4069191"><ele>359.42857142857144</ele><time>2026-04-14T11:52:59Z</time></trkpt><trkpt lat="44.1330833" lon="10.4068473"><ele>358.57142857142856</ele><time>2026-04-14T11:53:00.999Z</time></trkpt><trkpt lat="44.133044" lon="10.406774"><ele>357.7142857142857</ele><time>2026-04-14T11:53:02.999Z</time></trkpt><trkpt lat="44.1330026" lon="10.4067049"><ele>356.85714285714283</ele><time>2026-04-14T11:53:04.999Z</time></trkpt><trkpt lat="44.1329499" lon="10.406608"><ele>356.0</ele><time>2026-04-14T11:53:07.999Z</time></trkpt><trkpt lat="44.1329065" lon="10.4065101"><ele>355.99999999999994</ele><time>2026-04-14T11:53:10.999Z</time></trkpt><trkpt lat="44.1328716" lon="10.4064333"><ele>356.0</ele><time>2026-04-14T11:53:14Z</time></trkpt><trkpt lat="44.1328153" lon="10.4063836"><ele>356.0</ele><time>2026-04-14T11:53:17Z</time></trkpt><trkpt lat="44.1327361" lon="10.4064381"><ele>356.0</ele><time>2026-04-14T11:53:19.999Z</time></trkpt><trkpt lat="44.1326835" lon="10.4064992"><ele>356.0</ele><time>2026-04-14T11:53:22Z</time></trkpt><trkpt lat="44.1326373" lon="10.4065689"><ele>355.99999999999994</ele><time>2026-04-14T11:53:23.999Z</time></trkpt><trkpt lat="44.1325895" lon="10.4066329"><ele>356.0</ele><time>2026-04-14T11:53:25.999Z</time></trkpt><trkpt lat="44.1325231" lon="10.4067217"><ele>355.99999999999994</ele><time>2026-04-14T11:53:28.999Z</time></trkpt><trkpt lat="44.1324758" lon="10.4067865"><ele>356.0</ele><time>2026-04-14T11:53:31Z</time></trkpt><trkpt lat="44.1324319" lon="10.4068548"><ele>356.0</ele><time>2026-04-14T11:53:32.999Z</time></trkpt><trkpt lat="44.1323844" lon="10.406924"><ele>356.0</ele><time>2026-04-14T11:53:34.999Z</time></trkpt><trkpt lat="44.1323327" lon="10.4069875"><ele>356.0</ele><time>2026-04-14T11:53:37Z</time></trkpt><trkpt lat="44.1322775" lon="10.4070586"><ele>355.99999999999994</ele><time>2026-04-14T11:53:39Z</time></trkpt><trkpt lat="44.1322243" lon="10.4071301"><ele>356.0</ele><time>2026-04-14T11:53:41Z</time></trkpt><trkpt lat="44.1321749" lon="10.4072004"><ele>356.2857142857143</ele><time>2026-04-14T11:53:43Z</time></trkpt><trkpt lat="44.1321272" lon="10.407273"><ele>356.57142857142856</ele><time>2026-04-14T11:53:45Z</time></trkpt><trkpt lat="44.1320792" lon="10.4073397"><ele>356.8571428571429</ele><time>2026-04-14T11:53:47Z</time></trkpt><trkpt lat="44.1320307" lon="10.4074037"><ele>357.1428571428571</ele><time>2026-04-14T11:53:49Z</time></trkpt><trkpt lat="44.1319891" lon="10.4074702"><ele>357.42857142857144</ele><time>2026-04-14T11:53:50.999Z</time></trkpt><trkpt lat="44.1319495" lon="10.4075385"><ele>357.7142857142857</ele><time>2026-04-14T11:53:52.999Z</time></trkpt><trkpt lat="44.1319129" lon="10.4076105"><ele>358.0</ele><time>2026-04-14T11:53:55Z</time></trkpt><trkpt lat="44.1318631" lon="10.4077151"><ele>358.00000000000006</ele><time>2026-04-14T11:53:58Z</time></trkpt><trkpt lat="44.1318284" lon="10.4077925"><ele>358.0</ele><time>2026-04-14T11:53:59.999Z</time></trkpt><trkpt lat="44.1317881" lon="10.4078622"><ele>358.0</ele><time>2026-04-14T11:54:01.999Z</time></trkpt><trkpt lat="44.1317467" lon="10.4079364"><ele>358.0</ele><time>2026-04-14T11:54:04Z</time></trkpt><trkpt lat="44.1317067" lon="10.4080117"><ele>358.0</ele><time>2026-04-14T11:54:05.999Z</time></trkpt><trkpt lat="44.1316687" lon="10.4080823"><ele>358.00000000000006</ele><time>2026-04-14T11:54:08Z</time></trkpt><trkpt lat="44.1315993" lon="10.4081557"><ele>358.0</ele><time>2026-04-14T11:54:10.999Z</time></trkpt><trkpt lat="44.1315332" lon="10.4082271"><ele>358.0</ele><time>2026-04-14T11:54:14Z</time></trkpt><trkpt lat="44.1314767" lon="10.4082833"><ele>358.0</ele><time>2026-04-14T11:54:17Z</time></trkpt><trkpt lat="44.1314201" lon="10.4081921"><ele>358.0</ele><time>2026-04-14T11:54:20Z</time></trkpt><trkpt lat="44.1313864" lon="10.408111"><ele>358.0</ele><time>2026-04-14T11:54:22Z</time></trkpt><trkpt lat="44.1313355" lon="10.4080259"><ele>358.0</ele><time>2026-04-14T11:54:24Z</time></trkpt><trkpt lat="44.131274" lon="10.4079313"><ele>358.0</ele><time>2026-04-14T11:54:26Z</time></trkpt><trkpt lat="44.1312021" lon="10.4078332"><ele>357.66666666666663</ele><time>2026-04-14T11:54:27.999Z</time></trkpt><trkpt lat="44.1311289" lon="10.4077254"><ele>357.3333333333333</ele><time>2026-04-14T11:54:30Z</time></trkpt><trkpt lat="44.1310438" lon="10.4076002"><ele>357.0</ele><time>2026-04-14T11:54:32Z</time></trkpt><trkpt lat="44.1309984" lon="10.4075348"><ele>356.6666666666667</ele><time>2026-04-14T11:54:33Z</time></trkpt><trkpt lat="44.1309503" lon="10.4074683"><ele>356.33333333333337</ele><time>2026-04-14T11:54:33.999Z</time></trkpt><trkpt lat="44.1309007" lon="10.407402"><ele>356.0</ele><time>2026-04-14T11:54:35Z</time></trkpt><trkpt lat="44.1308525" lon="10.4073304"><ele>356.0</ele><time>2026-04-14T11:54:36Z</time></trkpt><trkpt lat="44.1308005" lon="10.4072622"><ele>356.0</ele><time>2026-04-14T11:54:36.999Z</time></trkpt><trkpt lat="44.1307486" lon="10.4071898"><ele>356.0</ele><time>2026-04-14T11:54:38Z</time></trkpt><trkpt lat="44.1306958" lon="10.4071139"><ele>356.0</ele><time>2026-04-14T11:54:39Z</time></trkpt><trkpt lat="44.1306424" lon="10.4070336"><ele>356.0</ele><time>2026-04-14T11:54:40Z</time></trkpt><trkpt lat="44.1305861" lon="10.4069509"><ele>356.0</ele><time>2026-04-14T11:54:41Z</time></trkpt><trkpt lat="44.1305288" lon="10.4068717"><ele>355.1666666666667</ele><time>2026-04-14T11:54:41.999Z</time></trkpt><trkpt lat="44.1304685" lon="10.4067873"><ele>354.33333333333337</ele><time>2026-04-14T11:54:42.999Z</time></trkpt><trkpt lat="44.1304094" lon="10.406704"><ele>353.5</ele><time>2026-04-14T11:54:44Z</time></trkpt><trkpt lat="44.1303457" lon="10.4066209"><ele>352.6666666666667</ele><time>2026-04-14T11:54:44.999Z</time></trkpt><trkpt lat="44.1302852" lon="10.4065379"><ele>351.8333333333333</ele><time>2026-04-14T11:54:46Z</time></trkpt><trkpt lat="44.1302229" lon="10.4064495"><ele>351.0</ele><time>2026-04-14T11:54:47Z</time></trkpt><trkpt lat="44.1301576" lon="10.4063608"><ele>350.8</ele><time>2026-04-14T11:54:47.999Z</time></trkpt><trkpt lat="44.1300919" lon="10.4062697"><ele>350.6</ele><time>2026-04-14T11:54:49Z</time></trkpt><trkpt lat="44.1300199" lon="10.4061861"><ele>350.4</ele><time>2026-04-14T11:54:50Z</time></trkpt><trkpt lat="44.1299465" lon="10.4061067"><ele>350.2</ele><time>2026-04-14T11:54:50.999Z</time></trkpt><trkpt lat="44.1298718" lon="10.4060226"><ele>350.0</ele><time>2026-04-14T11:54:51.999Z</time></trkpt><trkpt lat="44.1297952" lon="10.4059422"><ele>349.0</ele><time>2026-04-14T11:54:53Z</time></trkpt><trkpt lat="44.1297186" lon="10.40586"><ele>348.0</ele><time>2026-04-14T11:54:54Z</time></trkpt><trkpt lat="44.1296388" lon="10.4057696"><ele>347.0</ele><time>2026-04-14T11:54:55Z</time></trkpt><trkpt lat="44.1295603" lon="10.4056834"><ele>346.0</ele><time>2026-04-14T11:54:56Z</time></trkpt><trkpt lat="44.1294754" lon="10.4055955"><ele>345.0</ele><time>2026-04-14T11:54:56.999Z</time></trkpt><trkpt lat="44.1293861" lon="10.4055088"><ele>344.6</ele><time>2026-04-14T11:54:58Z</time></trkpt><trkpt lat="44.1293025" lon="10.4054175"><ele>344.2</ele><time>2026-04-14T11:54:59Z</time></trkpt><trkpt lat="44.1292173" lon="10.4053278"><ele>343.79999999999995</ele><time>2026-04-14T11:55:00Z</time></trkpt><trkpt lat="44.1291312" lon="10.4052297"><ele>343.4</ele><time>2026-04-14T11:55:01Z</time></trkpt><trkpt lat="44.1290454" lon="10.4051266"><ele>343.0</ele><time>2026-04-14T11:55:01.999Z</time></trkpt><trkpt lat="44.1289695" lon="10.4050202"><ele>342.75</ele><time>2026-04-14T11:55:03Z</time></trkpt><trkpt lat="44.1288886" lon="10.4049061"><ele>342.5</ele><time>2026-04-14T11:55:04Z</time></trkpt><trkpt lat="44.1288101" lon="10.4047918"><ele>342.25</ele><time>2026-04-14T11:55:05Z</time></trkpt><trkpt lat="44.1287293" lon="10.4046795"><ele>342.0</ele><time>2026-04-14T11:55:06Z</time></trkpt><trkpt lat="44.1286471" lon="10.404563"><ele>341.5</ele><time>2026-04-14T11:55:07Z</time></trkpt><trkpt lat="44.1285631" lon="10.4044483"><ele>341.0</ele><time>2026-04-14T11:55:08Z</time></trkpt><trkpt lat="44.1284851" lon="10.4043289"><ele>340.5</ele><time>2026-04-14T11:55:09Z</time></trkpt><trkpt lat="44.1284021" lon="10.4042075"><ele>340.0</ele><time>2026-04-14T11:55:09.999Z</time></trkpt><trkpt lat="44.1283142" lon="10.4040917"><ele>340.0</ele><time>2026-04-14T11:55:11Z</time></trkpt><trkpt lat="44.1282343" lon="10.4039637"><ele>340.0</ele><time>2026-04-14T11:55:11.999Z</time></trkpt><trkpt lat="44.1281447" lon="10.403843"><ele>340.0</ele><time>2026-04-14T11:55:13Z</time></trkpt><trkpt lat="44.128061" lon="10.4037175"><ele>340.0</ele><time>2026-04-14T11:55:14Z</time></trkpt><trkpt lat="44.1279752" lon="10.4035946"><ele>338.5</ele><time>2026-04-14T11:55:14.999Z</time></trkpt><trkpt lat="44.1278919" lon="10.403473"><ele>337.0</ele><time>2026-04-14T11:55:15.999Z</time></trkpt><trkpt lat="44.1278048" lon="10.4033552"><ele>335.5</ele><time>2026-04-14T11:55:17Z</time></trkpt><trkpt lat="44.1277225" lon="10.4032391"><ele>334.0</ele><time>2026-04-14T11:55:17.999Z</time></trkpt><trkpt lat="44.1276492" lon="10.4031333"><ele>334.0</ele><time>2026-04-14T11:55:19Z</time></trkpt><trkpt lat="44.1275797" lon="10.4030304"><ele>334.0</ele><time>2026-04-14T11:55:20Z</time></trkpt><trkpt lat="44.1275096" lon="10.402932"><ele>334.0</ele><time>2026-04-14T11:55:21Z</time></trkpt><trkpt lat="44.12744" lon="10.4028298"><ele>334.0</ele><time>2026-04-14T11:55:22Z</time></trkpt><trkpt lat="44.1273663" lon="10.4027273"><ele>334.0</ele><time>2026-04-14T11:55:22.999Z</time></trkpt><trkpt lat="44.1272952" lon="10.4026228"><ele>333.4</ele><time>2026-04-14T11:55:24Z</time></trkpt><trkpt lat="44.1272222" lon="10.402521"><ele>332.79999999999995</ele><time>2026-04-14T11:55:25Z</time></trkpt><trkpt lat="44.1271469" lon="10.4024189"><ele>332.20000000000005</ele><time>2026-04-14T11:55:26Z</time></trkpt><trkpt lat="44.1270705" lon="10.4023121"><ele>331.6</ele><time>2026-04-14T11:55:27Z</time></trkpt><trkpt lat="44.1270014" lon="10.4021844"><ele>331.0</ele><time>2026-04-14T11:55:28Z</time></trkpt><trkpt lat="44.1269333" lon="10.4020557"><ele>330.75</ele><time>2026-04-14T11:55:29Z</time></trkpt><trkpt lat="44.1268697" lon="10.4019301"><ele>330.5</ele><time>2026-04-14T11:55:30Z</time></trkpt><trkpt lat="44.1268065" lon="10.401796"><ele>330.25</ele><time>2026-04-14T11:55:30.999Z</time></trkpt><trkpt lat="44.1267428" lon="10.4016624"><ele>330.0</ele><time>2026-04-14T11:55:31.999Z</time></trkpt><trkpt lat="44.1266767" lon="10.4015274"><ele>330.0</ele><time>2026-04-14T11:55:33Z</time></trkpt><trkpt lat="44.1266068" lon="10.4013966"><ele>330.0</ele><time>2026-04-14T11:55:34Z</time></trkpt><trkpt lat="44.1265347" lon="10.4012747"><ele>330.0</ele><time>2026-04-14T11:55:35Z</time></trkpt><trkpt lat="44.1264705" lon="10.4011601"><ele>330.0</ele><time>2026-04-14T11:55:36Z</time></trkpt><trkpt lat="44.1264084" lon="10.4010535"><ele>330.0</ele><time>2026-04-14T11:55:37Z</time></trkpt><trkpt lat="44.1263506" lon="10.4009553"><ele>329.00000000000006</ele><time>2026-04-14T11:55:38Z</time></trkpt><trkpt lat="44.1263012" lon="10.4008635"><ele>328.0</ele><time>2026-04-14T11:55:38.999Z</time></trkpt><trkpt lat="44.1262539" lon="10.4007799"><ele>327.0</ele><time>2026-04-14T11:55:39.999Z</time></trkpt><trkpt lat="44.1262098" lon="10.4007116"><ele>326.0</ele><time>2026-04-14T11:55:41Z</time></trkpt><trkpt lat="44.1261625" lon="10.4006382"><ele>325.0</ele><time>2026-04-14T11:55:41.999Z</time></trkpt><trkpt lat="44.1261188" lon="10.4005588"><ele>324.00000000000006</ele><time>2026-04-14T11:55:43Z</time></trkpt><trkpt lat="44.1260694" lon="10.4004846"><ele>323.0</ele><time>2026-04-14T11:55:43.999Z</time></trkpt><trkpt lat="44.1260185" lon="10.4004143"><ele>322.4</ele><time>2026-04-14T11:55:44.999Z</time></trkpt><trkpt lat="44.1259697" lon="10.4003476"><ele>321.79999999999995</ele><time>2026-04-14T11:55:46Z</time></trkpt><trkpt lat="44.1258928" lon="10.4002336"><ele>321.2</ele><time>2026-04-14T11:55:48Z</time></trkpt><trkpt lat="44.1258634" lon="10.4001296"><ele>320.6</ele><time>2026-04-14T11:55:50Z</time></trkpt><trkpt lat="44.1259198" lon="10.4000429"><ele>320.0</ele><time>2026-04-14T11:55:52Z</time></trkpt><trkpt lat="44.1260071" lon="10.3999623"><ele>320.0</ele><time>2026-04-14T11:55:54Z</time></trkpt><trkpt lat="44.1261166" lon="10.3998854"><ele>320.0</ele><time>2026-04-14T11:55:56Z</time></trkpt><trkpt lat="44.1262345" lon="10.3998271"><ele>320.0</ele><time>2026-04-14T11:55:57.999Z</time></trkpt><trkpt lat="44.1263012" lon="10.3997895"><ele>320.0</ele><time>2026-04-14T11:55:59Z</time></trkpt><trkpt lat="44.1263637" lon="10.3997652"><ele>320.0</ele><time>2026-04-14T11:56:00Z</time></trkpt><trkpt lat="44.1264269" lon="10.3997382"><ele>320.0</ele><time>2026-04-14T11:56:01Z</time></trkpt><trkpt lat="44.1264918" lon="10.39971"><ele>320.0</ele><time>2026-04-14T11:56:02Z</time></trkpt><trkpt lat="44.126565" lon="10.3996945"><ele>320.0</ele><time>2026-04-14T11:56:03Z</time></trkpt><trkpt lat="44.1266342" lon="10.3996648"><ele>320.0</ele><time>2026-04-14T11:56:03.999Z</time></trkpt><trkpt lat="44.1267082" lon="10.3996387"><ele>320.0</ele><time>2026-04-14T11:56:04.999Z</time></trkpt><trkpt lat="44.1267788" lon="10.3996058"><ele>320.0</ele><time>2026-04-14T11:56:06Z</time></trkpt><trkpt lat="44.1268529" lon="10.399563"><ele>320.0</ele><time>2026-04-14T11:56:07Z</time></trkpt><trkpt lat="44.1269216" lon="10.399518"><ele>319.0</ele><time>2026-04-14T11:56:08Z</time></trkpt><trkpt lat="44.1269788" lon="10.3994563"><ele>318.0</ele><time>2026-04-14T11:56:09Z</time></trkpt><trkpt lat="44.1270256" lon="10.3993787"><ele>317.0</ele><time>2026-04-14T11:56:09.999Z</time></trkpt><trkpt lat="44.127047" lon="10.3992819"><ele>316.0</ele><time>2026-04-14T11:56:10.999Z</time></trkpt><trkpt lat="44.1270565" lon="10.3991854"><ele>315.0</ele><time>2026-04-14T11:56:12Z</time></trkpt><trkpt lat="44.1270192" lon="10.3991125"><ele>314.0</ele><time>2026-04-14T11:56:13Z</time></trkpt><trkpt lat="44.1269784" lon="10.3989775"><ele>314.0</ele><time>2026-04-14T11:56:15Z</time></trkpt><trkpt lat="44.1269256" lon="10.3988618"><ele>314.0</ele><time>2026-04-14T11:56:16.999Z</time></trkpt><trkpt lat="44.1268827" lon="10.3987595"><ele>314.0</ele><time>2026-04-14T11:56:19Z</time></trkpt><trkpt lat="44.1268415" lon="10.3986654"><ele>314.0</ele><time>2026-04-14T11:56:20.999Z</time></trkpt><trkpt lat="44.1268009" lon="10.3985678"><ele>314.0</ele><time>2026-04-14T11:56:22.999Z</time></trkpt><trkpt lat="44.1267698" lon="10.3984865"><ele>314.0</ele><time>2026-04-14T11:56:25Z</time></trkpt><trkpt lat="44.1267289" lon="10.3983805"><ele>315.1428571428571</ele><time>2026-04-14T11:56:27.999Z</time></trkpt><trkpt lat="44.1266956" lon="10.3983008"><ele>316.2857142857143</ele><time>2026-04-14T11:56:30Z</time></trkpt><trkpt lat="44.1266624" lon="10.3982183"><ele>317.42857142857144</ele><time>2026-04-14T11:56:32Z</time></trkpt><trkpt lat="44.126631" lon="10.3981369"><ele>318.57142857142856</ele><time>2026-04-14T11:56:34Z</time></trkpt><trkpt lat="44.1265876" lon="10.3980246"><ele>319.7142857142857</ele><time>2026-04-14T11:56:36.999Z</time></trkpt><trkpt lat="44.1265633" lon="10.3978998"><ele>320.85714285714283</ele><time>2026-04-14T11:56:39.999Z</time></trkpt><trkpt lat="44.1265706" lon="10.3978108"><ele>322.0</ele><time>2026-04-14T11:56:42Z</time></trkpt><trkpt lat="44.1265843" lon="10.3977227"><ele>322.42857142857144</ele><time>2026-04-14T11:56:43.999Z</time></trkpt><trkpt lat="44.1266139" lon="10.3976436"><ele>322.8571428571429</ele><time>2026-04-14T11:56:46Z</time></trkpt><trkpt lat="44.1266671" lon="10.3975336"><ele>323.2857142857143</ele><time>2026-04-14T11:56:48.999Z</time></trkpt><trkpt lat="44.1267104" lon="10.3974623"><ele>323.7142857142857</ele><time>2026-04-14T11:56:51Z</time></trkpt><trkpt lat="44.1267538" lon="10.3973912"><ele>324.14285714285717</ele><time>2026-04-14T11:56:53Z</time></trkpt><trkpt lat="44.1267884" lon="10.3973172"><ele>324.57142857142856</ele><time>2026-04-14T11:56:54.999Z</time></trkpt><trkpt lat="44.1268254" lon="10.3972421"><ele>325.0</ele><time>2026-04-14T11:56:57Z</time></trkpt><trkpt lat="44.1268615" lon="10.3971654"><ele>324.0</ele><time>2026-04-14T11:56:58.999Z</time></trkpt><trkpt lat="44.1268943" lon="10.3970882"><ele>323.0</ele><time>2026-04-14T11:57:01Z</time></trkpt><trkpt lat="44.1269259" lon="10.3970072"><ele>322.0</ele><time>2026-04-14T11:57:03Z</time></trkpt><trkpt lat="44.1269594" lon="10.3969305"><ele>321.0</ele><time>2026-04-14T11:57:04.999Z</time></trkpt><trkpt lat="44.1269908" lon="10.3968516"><ele>320.0</ele><time>2026-04-14T11:57:07Z</time></trkpt><trkpt lat="44.1270224" lon="10.3967717"><ele>319.0</ele><time>2026-04-14T11:57:09Z</time></trkpt><trkpt lat="44.1270623" lon="10.3966951"><ele>318.0</ele><time>2026-04-14T11:57:10.999Z</time></trkpt><trkpt lat="44.1271066" lon="10.3966235"><ele>318.0</ele><time>2026-04-14T11:57:12.999Z</time></trkpt><trkpt lat="44.1271492" lon="10.3965509"><ele>318.0</ele><time>2026-04-14T11:57:15Z</time></trkpt><trkpt lat="44.1271872" lon="10.3964772"><ele>318.0</ele><time>2026-04-14T11:57:16.999Z</time></trkpt><trkpt lat="44.1272264" lon="10.3964055"><ele>318.0</ele><time>2026-04-14T11:57:19Z</time></trkpt><trkpt lat="44.1272658" lon="10.3963299"><ele>318.0</ele><time>2026-04-14T11:57:21Z</time></trkpt><trkpt lat="44.1273041" lon="10.3962562"><ele>318.0</ele><time>2026-04-14T11:57:23Z</time></trkpt><trkpt lat="44.1273449" lon="10.3961849"><ele>318.0</ele><time>2026-04-14T11:57:25Z</time></trkpt><trkpt lat="44.1273831" lon="10.3961089"><ele>319.0</ele><time>2026-04-14T11:57:27Z</time></trkpt><trkpt lat="44.1274192" lon="10.3960283"><ele>320.0</ele><time>2026-04-14T11:57:28.999Z</time></trkpt><trkpt lat="44.1274517" lon="10.3959487"><ele>321.0</ele><time>2026-04-14T11:57:31Z</time></trkpt><trkpt lat="44.1274837" lon="10.3958683"><ele>322.0</ele><time>2026-04-14T11:57:33Z</time></trkpt><trkpt lat="44.1275069" lon="10.3957858"><ele>323.0</ele><time>2026-04-14T11:57:35Z</time></trkpt><trkpt lat="44.1275267" lon="10.3956989"><ele>324.0</ele><time>2026-04-14T11:57:36.999Z</time></trkpt><trkpt lat="44.1275428" lon="10.3956097"><ele>325.0</ele><time>2026-04-14T11:57:39Z</time></trkpt><trkpt lat="44.1275588" lon="10.3954772"><ele>325.0</ele><time>2026-04-14T11:57:42Z</time></trkpt><trkpt lat="44.1275727" lon="10.3953863"><ele>325.0</ele><time>2026-04-14T11:57:44Z</time></trkpt><trkpt lat="44.1275843" lon="10.3952906"><ele>325.0</ele><time>2026-04-14T11:57:46Z</time></trkpt><trkpt lat="44.1275904" lon="10.395196"><ele>325.0</ele><time>2026-04-14T11:57:47.999Z</time></trkpt><trkpt lat="44.1276002" lon="10.3950983"><ele>325.0</ele><time>2026-04-14T11:57:50Z</time></trkpt><trkpt lat="44.1276114" lon="10.3950056"><ele>325.0</ele><time>2026-04-14T11:57:52Z</time></trkpt><trkpt lat="44.1276191" lon="10.3949137"><ele>325.0</ele><time>2026-04-14T11:57:53.999Z</time></trkpt><trkpt lat="44.1276286" lon="10.3948259"><ele>325.0</ele><time>2026-04-14T11:57:56Z</time></trkpt><trkpt lat="44.1276376" lon="10.3947388"><ele>325.0</ele><time>2026-04-14T11:57:57.999Z</time></trkpt><trkpt lat="44.1276456" lon="10.3946494"><ele>325.0</ele><time>2026-04-14T11:57:59.999Z</time></trkpt><trkpt lat="44.127655" lon="10.3945618"><ele>325.0</ele><time>2026-04-14T11:58:02Z</time></trkpt><trkpt lat="44.1276722" lon="10.3944341"><ele>325.0</ele><time>2026-04-14T11:58:05Z</time></trkpt><trkpt lat="44.1276853" lon="10.3943477"><ele>325.0</ele><time>2026-04-14T11:58:07Z</time></trkpt><trkpt lat="44.1277016" lon="10.3942609"><ele>325.0</ele><time>2026-04-14T11:58:08.999Z</time></trkpt><trkpt lat="44.1277187" lon="10.3941739"><ele>324.85714285714283</ele><time>2026-04-14T11:58:10.999Z</time></trkpt><trkpt lat="44.1277423" lon="10.3940866"><ele>324.7142857142857</ele><time>2026-04-14T11:58:13Z</time></trkpt><trkpt lat="44.1277796" lon="10.3940067"><ele>324.57142857142856</ele><time>2026-04-14T11:58:15Z</time></trkpt><trkpt lat="44.1278201" lon="10.3939289"><ele>324.42857142857144</ele><time>2026-04-14T11:58:17Z</time></trkpt><trkpt lat="44.1278668" lon="10.3938586"><ele>324.2857142857143</ele><time>2026-04-14T11:58:19Z</time></trkpt><trkpt lat="44.1279443" lon="10.3937877"><ele>324.14285714285717</ele><time>2026-04-14T11:58:21.999Z</time></trkpt><trkpt lat="44.1280029" lon="10.3937501"><ele>324.0</ele><time>2026-04-14T11:58:24Z</time></trkpt><trkpt lat="44.1280694" lon="10.3937281"><ele>323.8571428571429</ele><time>2026-04-14T11:58:26Z</time></trkpt><trkpt lat="44.1281353" lon="10.3937025"><ele>323.7142857142857</ele><time>2026-04-14T11:58:28Z</time></trkpt><trkpt lat="44.1282008" lon="10.3936818"><ele>323.57142857142856</ele><time>2026-04-14T11:58:30Z</time></trkpt><trkpt lat="44.1282649" lon="10.3936566"><ele>323.42857142857144</ele><time>2026-04-14T11:58:32Z</time></trkpt><trkpt lat="44.1283287" lon="10.3936317"><ele>323.2857142857143</ele><time>2026-04-14T11:58:34Z</time></trkpt><trkpt lat="44.1283903" lon="10.3936054"><ele>323.14285714285717</ele><time>2026-04-14T11:58:36Z</time></trkpt><trkpt lat="44.1284516" lon="10.3935796"><ele>323.0</ele><time>2026-04-14T11:58:38Z</time></trkpt><trkpt lat="44.1285143" lon="10.3935577"><ele>324.42857142857144</ele><time>2026-04-14T11:58:39.999Z</time></trkpt><trkpt lat="44.1285764" lon="10.3935343"><ele>325.8571428571429</ele><time>2026-04-14T11:58:42Z</time></trkpt><trkpt lat="44.1286377" lon="10.3935089"><ele>327.28571428571433</ele><time>2026-04-14T11:58:43.999Z</time></trkpt><trkpt lat="44.1287243" lon="10.3934658"><ele>328.7142857142857</ele><time>2026-04-14T11:58:47Z</time></trkpt><trkpt lat="44.1288084" lon="10.3934115"><ele>330.1428571428571</ele><time>2026-04-14T11:58:50Z</time></trkpt><trkpt lat="44.128863" lon="10.3933655"><ele>331.5714285714286</ele><time>2026-04-14T11:58:51.999Z</time></trkpt><trkpt lat="44.1289192" lon="10.3933222"><ele>333.0</ele><time>2026-04-14T11:58:54Z</time></trkpt><trkpt lat="44.1289726" lon="10.3932736"><ele>333.0</ele><time>2026-04-14T11:58:55.999Z</time></trkpt><trkpt lat="44.1290507" lon="10.3932025"><ele>333.0</ele><time>2026-04-14T11:58:59Z</time></trkpt><trkpt lat="44.1291259" lon="10.3931219"><ele>333.0</ele><time>2026-04-14T11:59:02Z</time></trkpt><trkpt lat="44.1291748" lon="10.3930663"><ele>333.0</ele><time>2026-04-14T11:59:04Z</time></trkpt><trkpt lat="44.1292393" lon="10.392975"><ele>333.0</ele><time>2026-04-14T11:59:07Z</time></trkpt><trkpt lat="44.1292811" lon="10.3929074"><ele>333.0</ele><time>2026-04-14T11:59:08.999Z</time></trkpt><trkpt lat="44.1293238" lon="10.3928359"><ele>333.3333333333333</ele><time>2026-04-14T11:59:11Z</time></trkpt><trkpt lat="44.1293674" lon="10.3927651"><ele>333.6666666666667</ele><time>2026-04-14T11:59:13Z</time></trkpt><trkpt lat="44.129427" lon="10.3926653"><ele>334.0</ele><time>2026-04-14T11:59:16Z</time></trkpt><trkpt lat="44.1294718" lon="10.392596"><ele>334.33333333333337</ele><time>2026-04-14T11:59:18Z</time></trkpt><trkpt lat="44.1295122" lon="10.3925217"><ele>334.6666666666667</ele><time>2026-04-14T11:59:20Z</time></trkpt><trkpt lat="44.1295573" lon="10.3924542"><ele>335.0</ele><time>2026-04-14T11:59:21.999Z</time></trkpt><trkpt lat="44.1296219" lon="10.3923581"><ele>334.99999999999994</ele><time>2026-04-14T11:59:24.999Z</time></trkpt><trkpt lat="44.1296749" lon="10.3923002"><ele>335.0</ele><time>2026-04-14T11:59:26.999Z</time></trkpt><trkpt lat="44.1297318" lon="10.3922545"><ele>335.0</ele><time>2026-04-14T11:59:29Z</time></trkpt><trkpt lat="44.1297899" lon="10.3922169"><ele>335.0</ele><time>2026-04-14T11:59:30.999Z</time></trkpt><trkpt lat="44.1298583" lon="10.3921883"><ele>335.0</ele><time>2026-04-14T11:59:32.999Z</time></trkpt><trkpt lat="44.1299284" lon="10.3921699"><ele>334.99999999999994</ele><time>2026-04-14T11:59:34.999Z</time></trkpt><trkpt lat="44.1299974" lon="10.3921535"><ele>335.0</ele><time>2026-04-14T11:59:37Z</time></trkpt><trkpt lat="44.130064" lon="10.3921361"><ele>335.4285714285714</ele><time>2026-04-14T11:59:39Z</time></trkpt><trkpt lat="44.1301332" lon="10.3921158"><ele>335.85714285714283</ele><time>2026-04-14T11:59:41Z</time></trkpt><trkpt lat="44.1301958" lon="10.3921044"><ele>336.2857142857143</ele><time>2026-04-14T11:59:43Z</time></trkpt><trkpt lat="44.1302605" lon="10.392089"><ele>336.71428571428567</ele><time>2026-04-14T11:59:45Z</time></trkpt><trkpt lat="44.1303251" lon="10.3920743"><ele>337.1428571428571</ele><time>2026-04-14T11:59:47Z</time></trkpt><trkpt lat="44.1303883" lon="10.3920535"><ele>337.57142857142856</ele><time>2026-04-14T11:59:48.999Z</time></trkpt><trkpt lat="44.1304646" lon="10.392035"><ele>338.0</ele><time>2026-04-14T11:59:51.999Z</time></trkpt><trkpt lat="44.1305369" lon="10.3920252"><ele>338.0</ele><time>2026-04-14T11:59:54.999Z</time></trkpt><trkpt lat="44.1306103" lon="10.3920094"><ele>338.0</ele><time>2026-04-14T11:59:57.999Z</time></trkpt><trkpt lat="44.1306787" lon="10.3920021"><ele>338.0</ele><time>2026-04-14T12:00:00.999Z</time></trkpt><trkpt lat="44.130744" lon="10.3920082"><ele>338.0</ele><time>2026-04-14T12:00:04Z</time></trkpt><trkpt lat="44.1308147" lon="10.3920161"><ele>338.0</ele><time>2026-04-14T12:00:08Z</time></trkpt><trkpt lat="44.1308808" lon="10.3920322"><ele>338.0</ele><time>2026-04-14T12:00:13.999Z</time></trkpt><trkpt lat="44.1308777" lon="10.3919358"><ele>338.0</ele><time>2026-04-14T12:00:21Z</time></trkpt><trkpt lat="44.1308945" lon="10.3918367"><ele>337.59999999999997</ele><time>2026-04-14T12:00:23Z</time></trkpt><trkpt lat="44.1309228" lon="10.3917099"><ele>337.2</ele><time>2026-04-14T12:00:24.999Z</time></trkpt><trkpt lat="44.1309336" lon="10.3915679"><ele>336.8</ele><time>2026-04-14T12:00:27Z</time></trkpt><trkpt lat="44.1309241" lon="10.3914147"><ele>336.4</ele><time>2026-04-14T12:00:29Z</time></trkpt><trkpt lat="44.1308885" lon="10.3912488"><ele>336.0</ele><time>2026-04-14T12:00:31Z</time></trkpt><trkpt lat="44.1308603" lon="10.3911698"><ele>336.0</ele><time>2026-04-14T12:00:31.999Z</time></trkpt><trkpt lat="44.1308248" lon="10.3910867"><ele>336.0</ele><time>2026-04-14T12:00:33Z</time></trkpt><trkpt lat="44.1307792" lon="10.3910052"><ele>336.0</ele><time>2026-04-14T12:00:33.999Z</time></trkpt><trkpt lat="44.1307312" lon="10.3909247"><ele>336.0</ele><time>2026-04-14T12:00:35Z</time></trkpt><trkpt lat="44.130689" lon="10.3908351"><ele>336.0</ele><time>2026-04-14T12:00:35.999Z</time></trkpt><trkpt lat="44.1306577" lon="10.3907411"><ele>336.0</ele><time>2026-04-14T12:00:36.999Z</time></trkpt><trkpt lat="44.1306348" lon="10.3906345"><ele>335.3333333333333</ele><time>2026-04-14T12:00:38Z</time></trkpt><trkpt lat="44.1306266" lon="10.3905201"><ele>334.6666666666667</ele><time>2026-04-14T12:00:38.999Z</time></trkpt><trkpt lat="44.1306294" lon="10.3904005"><ele>334.0</ele><time>2026-04-14T12:00:40Z</time></trkpt><trkpt lat="44.1306347" lon="10.3902777"><ele>333.33333333333337</ele><time>2026-04-14T12:00:41Z</time></trkpt><trkpt lat="44.1306384" lon="10.3901715"><ele>332.6666666666667</ele><time>2026-04-14T12:00:42Z</time></trkpt><trkpt lat="44.1306563" lon="10.3900842"><ele>332.0</ele><time>2026-04-14T12:00:42.999Z</time></trkpt><trkpt lat="44.1306931" lon="10.3899989"><ele>331.57142857142856</ele><time>2026-04-14T12:00:43.999Z</time></trkpt><trkpt lat="44.1307316" lon="10.3899194"><ele>331.14285714285717</ele><time>2026-04-14T12:00:45Z</time></trkpt><trkpt lat="44.1307762" lon="10.3898388"><ele>330.7142857142857</ele><time>2026-04-14T12:00:45.999Z</time></trkpt><trkpt lat="44.1308277" lon="10.389768"><ele>330.2857142857143</ele><time>2026-04-14T12:00:46.999Z</time></trkpt><trkpt lat="44.1308834" lon="10.389704"><ele>329.8571428571429</ele><time>2026-04-14T12:00:48Z</time></trkpt><trkpt lat="44.1309404" lon="10.3896371"><ele>329.42857142857144</ele><time>2026-04-14T12:00:49Z</time></trkpt><trkpt lat="44.1310026" lon="10.3895745"><ele>329.0</ele><time>2026-04-14T12:00:50Z</time></trkpt><trkpt lat="44.1310623" lon="10.3895032"><ele>328.0</ele><time>2026-04-14T12:00:51Z</time></trkpt><trkpt lat="44.1311257" lon="10.3894314"><ele>327.0</ele><time>2026-04-14T12:00:52Z</time></trkpt><trkpt lat="44.1311892" lon="10.3893616"><ele>326.0</ele><time>2026-04-14T12:00:53Z</time></trkpt><trkpt lat="44.1312559" lon="10.3892951"><ele>325.0</ele><time>2026-04-14T12:00:53.999Z</time></trkpt><trkpt lat="44.1313245" lon="10.3892263"><ele>324.0</ele><time>2026-04-14T12:00:55Z</time></trkpt><trkpt lat="44.1314176" lon="10.3891574"><ele>323.0</ele><time>2026-04-14T12:00:57Z</time></trkpt><trkpt lat="44.1314878" lon="10.3891356"><ele>323.0</ele><time>2026-04-14T12:00:58.999Z</time></trkpt><trkpt lat="44.131576" lon="10.3890508"><ele>323.0</ele><time>2026-04-14T12:01:00.999Z</time></trkpt><trkpt lat="44.1316583" lon="10.3889789"><ele>323.0</ele><time>2026-04-14T12:01:02.999Z</time></trkpt><trkpt lat="44.1317135" lon="10.3889051"><ele>323.0</ele><time>2026-04-14T12:01:05Z</time></trkpt><trkpt lat="44.1317194" lon="10.3888055"><ele>323.0</ele><time>2026-04-14T12:01:06.999Z</time></trkpt><trkpt lat="44.1316965" lon="10.3887047"><ele>323.0</ele><time>2026-04-14T12:01:09Z</time></trkpt><trkpt lat="44.1316282" lon="10.3886458"><ele>321.59999999999997</ele><time>2026-04-14T12:01:11Z</time></trkpt><trkpt lat="44.1315677" lon="10.3885928"><ele>320.2</ele><time>2026-04-14T12:01:13Z</time></trkpt><trkpt lat="44.1315723" lon="10.3884842"><ele>318.8</ele><time>2026-04-14T12:01:14.999Z</time></trkpt><trkpt lat="44.1316496" lon="10.3884074"><ele>317.4</ele><time>2026-04-14T12:01:17Z</time></trkpt><trkpt lat="44.1317383" lon="10.3883139"><ele>316.0</ele><time>2026-04-14T12:01:19Z</time></trkpt><trkpt lat="44.1317814" lon="10.3881896"><ele>316.0</ele><time>2026-04-14T12:01:21Z</time></trkpt><trkpt lat="44.1318106" lon="10.3881114"><ele>316.0</ele><time>2026-04-14T12:01:23Z</time></trkpt><trkpt lat="44.1318356" lon="10.388018"><ele>316.0</ele><time>2026-04-14T12:01:27Z</time></trkpt><trkpt lat="44.1318669" lon="10.3879276"><ele>316.0</ele><time>2026-04-14T12:01:32Z</time></trkpt><trkpt lat="44.1318963" lon="10.3877864"><ele>316.0</ele><time>2026-04-14T12:01:35Z</time></trkpt><trkpt lat="44.131882" lon="10.3876732"><ele>316.0</ele><time>2026-04-14T12:01:37Z</time></trkpt><trkpt lat="44.131866" lon="10.3875299"><ele>315.6</ele><time>2026-04-14T12:01:38.999Z</time></trkpt><trkpt lat="44.1318323" lon="10.3874527"><ele>315.20000000000005</ele><time>2026-04-14T12:01:40Z</time></trkpt><trkpt lat="44.1317899" lon="10.3873675"><ele>314.79999999999995</ele><time>2026-04-14T12:01:40.999Z</time></trkpt><trkpt lat="44.1317012" lon="10.3872415"><ele>314.4</ele><time>2026-04-14T12:01:43Z</time></trkpt><trkpt lat="44.1316285" lon="10.3871541"><ele>314.0</ele><time>2026-04-14T12:01:44.999Z</time></trkpt><trkpt lat="44.1316197" lon="10.3870301"><ele>313.6666666666667</ele><time>2026-04-14T12:01:47.999Z</time></trkpt><trkpt lat="44.1316624" lon="10.3869358"><ele>313.33333333333337</ele><time>2026-04-14T12:01:51Z</time></trkpt><trkpt lat="44.1317168" lon="10.3868543"><ele>313.0</ele><time>2026-04-14T12:01:54Z</time></trkpt><trkpt lat="44.13177" lon="10.3867701"><ele>312.6666666666667</ele><time>2026-04-14T12:01:57Z</time></trkpt><trkpt lat="44.1318154" lon="10.3866889"><ele>312.3333333333333</ele><time>2026-04-14T12:01:59.999Z</time></trkpt><trkpt lat="44.1318679" lon="10.3866113"><ele>312.0</ele><time>2026-04-14T12:02:02.999Z</time></trkpt><trkpt lat="44.1319214" lon="10.3865269"><ele>312.0</ele><time>2026-04-14T12:02:05.999Z</time></trkpt><trkpt lat="44.131968" lon="10.3864373"><ele>312.0</ele><time>2026-04-14T12:02:09Z</time></trkpt><trkpt lat="44.1320128" lon="10.3863442"><ele>312.0</ele><time>2026-04-14T12:02:12Z</time></trkpt><trkpt lat="44.1320478" lon="10.3862493"><ele>312.0</ele><time>2026-04-14T12:02:14.999Z</time></trkpt><trkpt lat="44.1320825" lon="10.386162"><ele>312.0</ele><time>2026-04-14T12:02:18Z</time></trkpt><trkpt lat="44.1321141" lon="10.3860715"><ele>312.0</ele><time>2026-04-14T12:02:20.999Z</time></trkpt><trkpt lat="44.1321532" lon="10.3859795"><ele>311.7142857142857</ele><time>2026-04-14T12:02:24Z</time></trkpt><trkpt lat="44.1321902" lon="10.38589"><ele>311.4285714285714</ele><time>2026-04-14T12:02:27Z</time></trkpt><trkpt lat="44.1322214" lon="10.3858045"><ele>311.1428571428571</ele><time>2026-04-14T12:02:30Z</time></trkpt><trkpt lat="44.1322465" lon="10.3857175"><ele>310.8571428571429</ele><time>2026-04-14T12:02:33Z</time></trkpt><trkpt lat="44.1322734" lon="10.3856288"><ele>310.57142857142856</ele><time>2026-04-14T12:02:36Z</time></trkpt><trkpt lat="44.132307" lon="10.3855468"><ele>310.2857142857143</ele><time>2026-04-14T12:02:40.999Z</time></trkpt><trkpt lat="44.1323479" lon="10.3854577"><ele>310.0</ele><time>2026-04-14T12:03:29.999Z</time></trkpt><trkpt lat="44.1323472" lon="10.3853426"><ele>309.8333333333333</ele><time>2026-04-14T12:03:34.999Z</time></trkpt><trkpt lat="44.1323512" lon="10.3852402"><ele>309.66666666666663</ele><time>2026-04-14T12:03:38Z</time></trkpt><trkpt lat="44.1323547" lon="10.3851256"><ele>309.5</ele><time>2026-04-14T12:03:41Z</time></trkpt><trkpt lat="44.132361" lon="10.3850074"><ele>309.3333333333333</ele><time>2026-04-14T12:03:44Z</time></trkpt><trkpt lat="44.1323632" lon="10.3848919"><ele>309.1666666666667</ele><time>2026-04-14T12:03:46.999Z</time></trkpt><trkpt lat="44.1323592" lon="10.3847749"><ele>309.0</ele><time>2026-04-14T12:03:50Z</time></trkpt><trkpt lat="44.1323686" lon="10.3846635"><ele>309.0</ele><time>2026-04-14T12:03:53Z</time></trkpt><trkpt lat="44.1323817" lon="10.3845516"><ele>309.0</ele><time>2026-04-14T12:03:55.999Z</time></trkpt><trkpt lat="44.1323893" lon="10.3844341"><ele>309.0</ele><time>2026-04-14T12:03:58.999Z</time></trkpt><trkpt lat="44.1323908" lon="10.3843249"><ele>309.0</ele><time>2026-04-14T12:04:02Z</time></trkpt><trkpt lat="44.1323971" lon="10.3842173"><ele>309.0</ele><time>2026-04-14T12:04:05Z</time></trkpt><trkpt lat="44.1323996" lon="10.3841064"><ele>309.0</ele><time>2026-04-14T12:04:07.999Z</time></trkpt><trkpt lat="44.1323923" lon="10.3839967"><ele>309.0</ele><time>2026-04-14T12:04:11Z</time></trkpt><trkpt lat="44.1323856" lon="10.3838938"><ele>309.0</ele><time>2026-04-14T12:04:14Z</time></trkpt><trkpt lat="44.1323774" lon="10.3837979"><ele>309.0</ele><time>2026-04-14T12:04:16.999Z</time></trkpt><trkpt lat="44.1323731" lon="10.3836913"><ele>309.0</ele><time>2026-04-14T12:04:20.999Z</time></trkpt><trkpt lat="44.1323411" lon="10.3835935"><ele>309.0</ele><time>2026-04-14T12:04:25Z</time></trkpt><trkpt lat="44.1323159" lon="10.3834883"><ele>309.0</ele><time>2026-04-14T12:04:28Z</time></trkpt><trkpt lat="44.1322944" lon="10.3833795"><ele>309.42857142857144</ele><time>2026-04-14T12:04:31Z</time></trkpt><trkpt lat="44.1322659" lon="10.3832754"><ele>309.8571428571429</ele><time>2026-04-14T12:04:33.999Z</time></trkpt><trkpt lat="44.1322362" lon="10.3831673"><ele>310.28571428571433</ele><time>2026-04-14T12:04:37Z</time></trkpt><trkpt lat="44.1322011" lon="10.3830609"><ele>310.7142857142857</ele><time>2026-04-14T12:04:39.999Z</time></trkpt><trkpt lat="44.1321659" lon="10.3829781"><ele>311.1428571428571</ele><time>2026-04-14T12:04:42Z</time></trkpt><trkpt lat="44.1321334" lon="10.3828961"><ele>311.5714285714286</ele><time>2026-04-14T12:04:44Z</time></trkpt><trkpt lat="44.1321015" lon="10.3828159"><ele>312.0</ele><time>2026-04-14T12:04:46Z</time></trkpt><trkpt lat="44.1320479" lon="10.3827088"><ele>313.0</ele><time>2026-04-14T12:04:48.999Z</time></trkpt><trkpt lat="44.1320013" lon="10.3826058"><ele>314.0</ele><time>2026-04-14T12:04:52Z</time></trkpt><trkpt lat="44.1319622" lon="10.3825099"><ele>315.0</ele><time>2026-04-14T12:04:55Z</time></trkpt><trkpt lat="44.1319529" lon="10.3824132"><ele>316.0</ele><time>2026-04-14T12:04:59Z</time></trkpt><trkpt lat="44.132006" lon="10.382366"><ele>317.0</ele><time>2026-04-14T12:05:04Z</time></trkpt><trkpt lat="44.1320506" lon="10.3822927"><ele>318.0</ele><time>2026-04-14T12:05:10Z</time></trkpt><trkpt lat="44.1320517" lon="10.3821906"><ele>319.0</ele><time>2026-04-14T12:05:15.999Z</time></trkpt><trkpt lat="44.1320257" lon="10.3821078"><ele>320.14285714285717</ele><time>2026-04-14T12:05:22Z</time></trkpt><trkpt lat="44.1319941" lon="10.3820243"><ele>321.2857142857143</ele><time>2026-04-14T12:05:28Z</time></trkpt><trkpt lat="44.1319576" lon="10.3819345"><ele>322.42857142857144</ele><time>2026-04-14T12:05:34Z</time></trkpt><trkpt lat="44.1319173" lon="10.3818526"><ele>323.57142857142856</ele><time>2026-04-14T12:05:40Z</time></trkpt><trkpt lat="44.1318864" lon="10.3817753"><ele>324.7142857142857</ele><time>2026-04-14T12:05:46Z</time></trkpt><trkpt lat="44.1318469" lon="10.381704"><ele>325.85714285714283</ele><time>2026-04-14T12:05:52Z</time></trkpt><trkpt lat="44.1317908" lon="10.3816489"><ele>327.0</ele><time>2026-04-14T12:05:58Z</time></trkpt><trkpt lat="44.1317273" lon="10.3816122"><ele>327.0</ele><time>2026-04-14T12:06:42Z</time></trkpt><trkpt lat="44.1316671" lon="10.3816587"><ele>327.0</ele><time>2026-04-14T12:06:45.999Z</time></trkpt><trkpt lat="44.1316136" lon="10.3817096"><ele>327.0</ele><time>2026-04-14T12:06:51Z</time></trkpt><trkpt lat="44.1315401" lon="10.3816784"><ele>327.0</ele><time>2026-04-14T12:06:57Z</time></trkpt><trkpt lat="44.1314824" lon="10.3816163"><ele>327.0</ele><time>2026-04-14T12:07:03.999Z</time></trkpt><trkpt lat="44.1314124" lon="10.3815699"><ele>327.0</ele><time>2026-04-14T12:07:09.999Z</time></trkpt><trkpt lat="44.1313345" lon="10.3815514"><ele>327.0</ele><time>2026-04-14T12:07:15Z</time></trkpt><trkpt lat="44.1312718" lon="10.3815642"><ele>328.2857142857143</ele><time>2026-04-14T12:07:18.999Z</time></trkpt><trkpt lat="44.1312081" lon="10.3815794"><ele>329.57142857142856</ele><time>2026-04-14T12:07:23Z</time></trkpt><trkpt lat="44.1311434" lon="10.381588"><ele>330.8571428571429</ele><time>2026-04-14T12:07:26.999Z</time></trkpt><trkpt lat="44.1310711" lon="10.3816035"><ele>332.1428571428571</ele><time>2026-04-14T12:07:32Z</time></trkpt><trkpt lat="44.1310076" lon="10.3815918"><ele>333.42857142857144</ele><time>2026-04-14T12:07:35.999Z</time></trkpt><trkpt lat="44.130946" lon="10.3815654"><ele>334.7142857142857</ele><time>2026-04-14T12:07:40Z</time></trkpt><trkpt lat="44.13089" lon="10.381516"><ele>336.0</ele><time>2026-04-14T12:07:44Z</time></trkpt><trkpt lat="44.1308219" lon="10.3814785"><ele>336.0</ele><time>2026-04-14T12:07:47.999Z</time></trkpt><trkpt lat="44.1307508" lon="10.3814357"><ele>336.0</ele><time>2026-04-14T12:07:51.999Z</time></trkpt><trkpt lat="44.1306818" lon="10.3813911"><ele>336.0</ele><time>2026-04-14T12:07:56Z</time></trkpt><trkpt lat="44.1306123" lon="10.3813505"><ele>336.0</ele><time>2026-04-14T12:08:00Z</time></trkpt><trkpt lat="44.1305429" lon="10.3813003"><ele>336.0</ele><time>2026-04-14T12:08:04Z</time></trkpt><trkpt lat="44.1304774" lon="10.3812436"><ele>336.0</ele><time>2026-04-14T12:08:08Z</time></trkpt><trkpt lat="44.1304108" lon="10.3811892"><ele>339.1666666666667</ele><time>2026-04-14T12:08:11.999Z</time></trkpt><trkpt lat="44.1303349" lon="10.3811682"><ele>342.3333333333333</ele><time>2026-04-14T12:08:16Z</time></trkpt><trkpt lat="44.1302577" lon="10.3811812"><ele>345.5</ele><time>2026-04-14T12:08:20Z</time></trkpt><trkpt lat="44.1301759" lon="10.3812128"><ele>348.66666666666663</ele><time>2026-04-14T12:08:23.999Z</time></trkpt><trkpt lat="44.1301006" lon="10.3812526"><ele>351.8333333333333</ele><time>2026-04-14T12:08:28Z</time></trkpt><trkpt lat="44.1300243" lon="10.3812878"><ele>355.0</ele><time>2026-04-14T12:08:32Z</time></trkpt><trkpt lat="44.1299508" lon="10.3813347"><ele>356.66666666666663</ele><time>2026-04-14T12:08:36Z</time></trkpt><trkpt lat="44.1298814" lon="10.3814019"><ele>358.3333333333333</ele><time>2026-04-14T12:08:40Z</time></trkpt><trkpt lat="44.1298233" lon="10.381479"><ele>360.0</ele><time>2026-04-14T12:08:44Z</time></trkpt><trkpt lat="44.1297761" lon="10.381576"><ele>361.6666666666667</ele><time>2026-04-14T12:08:48Z</time></trkpt><trkpt lat="44.12974" lon="10.3816742"><ele>363.33333333333337</ele><time>2026-04-14T12:08:51.997Z</time></trkpt><trkpt lat="44.1297085" lon="10.3817758"><ele>365.0</ele><time>2026-04-14T12:08:56Z</time></trkpt><trkpt lat="44.1296765" lon="10.3818748"><ele>365.00000000000006</ele><time>2026-04-14T12:08:59.999Z</time></trkpt><trkpt lat="44.1296514" lon="10.3819568"><ele>365.0</ele><time>2026-04-14T12:09:02.999Z</time></trkpt><trkpt lat="44.1296173" lon="10.3820365"><ele>365.0</ele><time>2026-04-14T12:09:06Z</time></trkpt><trkpt lat="44.1295821" lon="10.3821355"><ele>365.0</ele><time>2026-04-14T12:09:09.999Z</time></trkpt><trkpt lat="44.1295491" lon="10.3822293"><ele>365.0</ele><time>2026-04-14T12:09:14Z</time></trkpt><trkpt lat="44.129497" lon="10.3822922"><ele>365.00000000000006</ele><time>2026-04-14T12:09:18Z</time></trkpt><trkpt lat="44.1294323" lon="10.3823166"><ele>365.0</ele><time>2026-04-14T12:09:22Z</time></trkpt><trkpt lat="44.1293797" lon="10.3823676"><ele>365.83333333333337</ele><time>2026-04-14T12:09:25Z</time></trkpt><trkpt lat="44.1293175" lon="10.3824356"><ele>366.6666666666667</ele><time>2026-04-14T12:09:28Z</time></trkpt><trkpt lat="44.1292486" lon="10.3825106"><ele>367.5</ele><time>2026-04-14T12:09:31Z</time></trkpt><trkpt lat="44.1291745" lon="10.3825826"><ele>368.3333333333333</ele><time>2026-04-14T12:09:34Z</time></trkpt><trkpt lat="44.1291208" lon="10.3826412"><ele>369.16666666666663</ele><time>2026-04-14T12:09:36Z</time></trkpt><trkpt lat="44.1290652" lon="10.3827046"><ele>370.0</ele><time>2026-04-14T12:09:37.999Z</time></trkpt><trkpt lat="44.1290113" lon="10.3827744"><ele>369.99999999999994</ele><time>2026-04-14T12:09:40Z</time></trkpt><trkpt lat="44.1289534" lon="10.3828366"><ele>370.0</ele><time>2026-04-14T12:09:42Z</time></trkpt><trkpt lat="44.1288984" lon="10.382906"><ele>370.0</ele><time>2026-04-14T12:09:43.999Z</time></trkpt><trkpt lat="44.1288431" lon="10.3829674"><ele>370.0</ele><time>2026-04-14T12:09:46Z</time></trkpt><trkpt lat="44.1287876" lon="10.3830256"><ele>370.0</ele><time>2026-04-14T12:09:47.999Z</time></trkpt><trkpt lat="44.1287317" lon="10.3830854"><ele>369.99999999999994</ele><time>2026-04-14T12:09:50Z</time></trkpt><trkpt lat="44.1286767" lon="10.3831444"><ele>370.0</ele><time>2026-04-14T12:09:51.999Z</time></trkpt><trkpt lat="44.1286356" lon="10.3832129"><ele>368.3333333333333</ele><time>2026-04-14T12:09:54Z</time></trkpt><trkpt lat="44.128578" lon="10.3832936"><ele>366.66666666666663</ele><time>2026-04-14T12:09:56.999Z</time></trkpt><trkpt lat="44.1285277" lon="10.3833627"><ele>365.0</ele><time>2026-04-14T12:09:59.999Z</time></trkpt><trkpt lat="44.1284794" lon="10.3834461"><ele>363.3333333333333</ele><time>2026-04-14T12:10:03Z</time></trkpt><trkpt lat="44.1284222" lon="10.3835367"><ele>361.6666666666667</ele><time>2026-04-14T12:10:06Z</time></trkpt><trkpt lat="44.1283775" lon="10.3836075"><ele>360.0</ele><time>2026-04-14T12:10:08Z</time></trkpt><trkpt lat="44.1283364" lon="10.3836916"><ele>360.0</ele><time>2026-04-14T12:10:10Z</time></trkpt><trkpt lat="44.1282959" lon="10.3837799"><ele>360.0</ele><time>2026-04-14T12:10:12Z</time></trkpt><trkpt lat="44.128252" lon="10.383869"><ele>360.0</ele><time>2026-04-14T12:10:13.999Z</time></trkpt><trkpt lat="44.1282087" lon="10.3839631"><ele>360.0</ele><time>2026-04-14T12:10:16Z</time></trkpt><trkpt lat="44.1281579" lon="10.3840487"><ele>360.0</ele><time>2026-04-14T12:10:17.999Z</time></trkpt><trkpt lat="44.1280982" lon="10.38413"><ele>360.0</ele><time>2026-04-14T12:10:19.999Z</time></trkpt><trkpt lat="44.1280329" lon="10.3842097"><ele>359.6</ele><time>2026-04-14T12:10:22Z</time></trkpt><trkpt lat="44.1279455" lon="10.3842784"><ele>359.2</ele><time>2026-04-14T12:10:24Z</time></trkpt><trkpt lat="44.1278376" lon="10.3843327"><ele>358.79999999999995</ele><time>2026-04-14T12:10:26Z</time></trkpt><trkpt lat="44.1277086" lon="10.3843718"><ele>358.4</ele><time>2026-04-14T12:10:27.999Z</time></trkpt><trkpt lat="44.1276377" lon="10.3843965"><ele>358.0</ele><time>2026-04-14T12:10:29Z</time></trkpt><trkpt lat="44.1275676" lon="10.3844322"><ele>358.00000000000006</ele><time>2026-04-14T12:10:30Z</time></trkpt><trkpt lat="44.1274992" lon="10.3844853"><ele>358.0</ele><time>2026-04-14T12:10:30.999Z</time></trkpt><trkpt lat="44.1274352" lon="10.3845411"><ele>358.0</ele><time>2026-04-14T12:10:32Z</time></trkpt><trkpt lat="44.1273755" lon="10.3846044"><ele>358.0</ele><time>2026-04-14T12:10:32.999Z</time></trkpt><trkpt lat="44.1273165" lon="10.3846692"><ele>358.0</ele><time>2026-04-14T12:10:33.999Z</time></trkpt><trkpt lat="44.1272628" lon="10.3847349"><ele>358.00000000000006</ele><time>2026-04-14T12:10:35Z</time></trkpt><trkpt lat="44.1272111" lon="10.3847953"><ele>358.0</ele><time>2026-04-14T12:10:36Z</time></trkpt><trkpt lat="44.1271295" lon="10.3849089"><ele>358.5</ele><time>2026-04-14T12:10:38Z</time></trkpt><trkpt lat="44.1270622" lon="10.3850088"><ele>359.0</ele><time>2026-04-14T12:10:39.999Z</time></trkpt><trkpt lat="44.1270086" lon="10.3850929"><ele>359.5</ele><time>2026-04-14T12:10:42Z</time></trkpt><trkpt lat="44.1269675" lon="10.3851741"><ele>360.0</ele><time>2026-04-14T12:10:43.999Z</time></trkpt><trkpt lat="44.1269254" lon="10.385274"><ele>360.5</ele><time>2026-04-14T12:10:46Z</time></trkpt><trkpt lat="44.1268837" lon="10.3853911"><ele>361.0</ele><time>2026-04-14T12:10:48Z</time></trkpt><trkpt lat="44.1268279" lon="10.3855236"><ele>358.8333333333333</ele><time>2026-04-14T12:10:50Z</time></trkpt><trkpt lat="44.126796" lon="10.3856012"><ele>356.66666666666663</ele><time>2026-04-14T12:10:51Z</time></trkpt><trkpt lat="44.1267598" lon="10.3856801"><ele>354.5</ele><time>2026-04-14T12:10:52Z</time></trkpt><trkpt lat="44.1267216" lon="10.385764"><ele>352.3333333333333</ele><time>2026-04-14T12:10:52.999Z</time></trkpt><trkpt lat="44.1266806" lon="10.3858572"><ele>350.1666666666667</ele><time>2026-04-14T12:10:53.999Z</time></trkpt><trkpt lat="44.1266394" lon="10.385961"><ele>348.0</ele><time>2026-04-14T12:10:55Z</time></trkpt><trkpt lat="44.1265965" lon="10.386069"><ele>347.79999999999995</ele><time>2026-04-14T12:10:56Z</time></trkpt><trkpt lat="44.1265401" lon="10.3861665"><ele>347.6</ele><time>2026-04-14T12:10:56.999Z</time></trkpt><trkpt lat="44.1264799" lon="10.3862669"><ele>347.4</ele><time>2026-04-14T12:10:58Z</time></trkpt><trkpt lat="44.126413" lon="10.386355"><ele>347.20000000000005</ele><time>2026-04-14T12:10:59Z</time></trkpt><trkpt lat="44.1263421" lon="10.3864376"><ele>347.0</ele><time>2026-04-14T12:10:59.999Z</time></trkpt><trkpt lat="44.1262659" lon="10.386516"><ele>347.0</ele><time>2026-04-14T12:11:01Z</time></trkpt><trkpt lat="44.1261863" lon="10.3865835"><ele>347.0</ele><time>2026-04-14T12:11:02Z</time></trkpt><trkpt lat="44.1261018" lon="10.3866476"><ele>347.0</ele><time>2026-04-14T12:11:02.999Z</time></trkpt><trkpt lat="44.1260174" lon="10.3867097"><ele>347.0</ele><time>2026-04-14T12:11:04Z</time></trkpt><trkpt lat="44.1259268" lon="10.3867666"><ele>347.0</ele><time>2026-04-14T12:11:05Z</time></trkpt><trkpt lat="44.1258391" lon="10.3868239"><ele>347.0</ele><time>2026-04-14T12:11:05.999Z</time></trkpt><trkpt lat="44.1257557" lon="10.3868971"><ele>347.0</ele><time>2026-04-14T12:11:07Z</time></trkpt><trkpt lat="44.1256643" lon="10.3869654"><ele>347.0</ele><time>2026-04-14T12:11:08Z</time></trkpt><trkpt lat="44.1255707" lon="10.387028"><ele>347.0</ele><time>2026-04-14T12:11:08.999Z</time></trkpt><trkpt lat="44.1254777" lon="10.3870768"><ele>347.0</ele><time>2026-04-14T12:11:10Z</time></trkpt><trkpt lat="44.125394" lon="10.38712"><ele>347.83333333333337</ele><time>2026-04-14T12:11:11Z</time></trkpt><trkpt lat="44.1253158" lon="10.3871525"><ele>348.6666666666667</ele><time>2026-04-14T12:11:11.999Z</time></trkpt><trkpt lat="44.1252382" lon="10.3871505"><ele>349.5</ele><time>2026-04-14T12:11:13Z</time></trkpt><trkpt lat="44.1251662" lon="10.3871276"><ele>350.3333333333333</ele><time>2026-04-14T12:11:13.999Z</time></trkpt><trkpt lat="44.1250992" lon="10.3870231"><ele>351.16666666666663</ele><time>2026-04-14T12:11:16Z</time></trkpt><trkpt lat="44.1250704" lon="10.3869412"><ele>352.0</ele><time>2026-04-14T12:11:19Z</time></trkpt><trkpt lat="44.1250617" lon="10.3868489"><ele>352.0</ele><time>2026-04-14T12:11:25Z</time></trkpt><trkpt lat="44.1251301" lon="10.3868228"><ele>352.0</ele><time>2026-04-14T12:11:29.999Z</time></trkpt><trkpt lat="44.1251919" lon="10.3868502"><ele>352.0</ele><time>2026-04-14T12:11:34Z</time></trkpt><trkpt lat="44.1252568" lon="10.3868584"><ele>352.0</ele><time>2026-04-14T12:11:37.999Z</time></trkpt><trkpt lat="44.1253196" lon="10.3868425"><ele>352.0</ele><time>2026-04-14T12:11:42Z</time></trkpt><trkpt lat="44.1253695" lon="10.386786"><ele>352.0</ele><time>2026-04-14T12:11:45.999Z</time></trkpt><trkpt lat="44.1253593" lon="10.3866839"><ele>352.0</ele><time>2026-04-14T12:11:50.999Z</time></trkpt><trkpt lat="44.1253095" lon="10.3866049"><ele>352.0</ele><time>2026-04-14T12:11:56Z</time></trkpt><trkpt lat="44.1252651" lon="10.3865203"><ele>352.0</ele><time>2026-04-14T12:12:01Z</time></trkpt><trkpt lat="44.125228" lon="10.3864321"><ele>352.0</ele><time>2026-04-14T12:12:06Z</time></trkpt><trkpt lat="44.1251919" lon="10.3863567"><ele>352.0</ele><time>2026-04-14T12:12:09.999Z</time></trkpt><trkpt lat="44.125155" lon="10.3862783"><ele>352.0</ele><time>2026-04-14T12:12:13.999Z</time></trkpt><trkpt lat="44.1251078" lon="10.3861929"><ele>352.0</ele><time>2026-04-14T12:12:19Z</time></trkpt><trkpt lat="44.1250546" lon="10.3861164"><ele>352.0</ele><time>2026-04-14T12:12:23.999Z</time></trkpt><trkpt lat="44.1249865" lon="10.3860742"><ele>354.42857142857144</ele><time>2026-04-14T12:12:29Z</time></trkpt><trkpt lat="44.1249226" lon="10.3860694"><ele>356.85714285714283</ele><time>2026-04-14T12:12:32.999Z</time></trkpt><trkpt lat="44.1248494" lon="10.3860994"><ele>359.2857142857143</ele><time>2026-04-14T12:12:37.999Z</time></trkpt><trkpt lat="44.1247713" lon="10.3861265"><ele>361.7142857142857</ele><time>2026-04-14T12:12:43Z</time></trkpt><trkpt lat="44.1247031" lon="10.3861477"><ele>364.1428571428571</ele><time>2026-04-14T12:12:46.999Z</time></trkpt><trkpt lat="44.1246365" lon="10.3861752"><ele>366.57142857142856</ele><time>2026-04-14T12:12:51Z</time></trkpt><trkpt lat="44.1245653" lon="10.3861882"><ele>369.0</ele><time>2026-04-14T12:12:55Z</time></trkpt><trkpt lat="44.1245049" lon="10.3861471"><ele>369.85714285714283</ele><time>2026-04-14T12:12:59Z</time></trkpt><trkpt lat="44.1244777" lon="10.3860582"><ele>370.71428571428567</ele><time>2026-04-14T12:13:03Z</time></trkpt><trkpt lat="44.12451" lon="10.385979"><ele>371.57142857142856</ele><time>2026-04-14T12:13:06.999Z</time></trkpt><trkpt lat="44.1245642" lon="10.3859215"><ele>372.42857142857144</ele><time>2026-04-14T12:13:11Z</time></trkpt><trkpt lat="44.124632" lon="10.3858841"><ele>373.2857142857143</ele><time>2026-04-14T12:13:15Z</time></trkpt><trkpt lat="44.1246978" lon="10.3858478"><ele>374.14285714285717</ele><time>2026-04-14T12:13:18.999Z</time></trkpt><trkpt lat="44.1247652" lon="10.3858054"><ele>375.0</ele><time>2026-04-14T12:13:24Z</time></trkpt><trkpt lat="44.1248285" lon="10.3857657"><ele>375.0</ele><time>2026-04-14T12:13:28Z</time></trkpt><trkpt lat="44.1248914" lon="10.3857193"><ele>375.0</ele><time>2026-04-14T12:13:32Z</time></trkpt><trkpt lat="44.1249531" lon="10.3856754"><ele>375.0</ele><time>2026-04-14T12:13:35.999Z</time></trkpt><trkpt lat="44.125014" lon="10.3856208"><ele>375.0</ele><time>2026-04-14T12:13:40Z</time></trkpt><trkpt lat="44.1250607" lon="10.3855585"><ele>375.0</ele><time>2026-04-14T12:13:43.999Z</time></trkpt><trkpt lat="44.1250932" lon="10.3854795"><ele>375.0</ele><time>2026-04-14T12:13:48Z</time></trkpt><trkpt lat="44.1251232" lon="10.3853814"><ele>375.0</ele><time>2026-04-14T12:13:53Z</time></trkpt><trkpt lat="44.1251417" lon="10.3852966"><ele>376.7142857142857</ele><time>2026-04-14T12:13:56.999Z</time></trkpt><trkpt lat="44.1251668" lon="10.3852037"><ele>378.4285714285714</ele><time>2026-04-14T12:14:01Z</time></trkpt><trkpt lat="44.1252029" lon="10.385108"><ele>380.1428571428571</ele><time>2026-04-14T12:14:04.999Z</time></trkpt><trkpt lat="44.1252363" lon="10.385023"><ele>381.8571428571429</ele><time>2026-04-14T12:14:08.999Z</time></trkpt><trkpt lat="44.1252589" lon="10.3849398"><ele>383.57142857142856</ele><time>2026-04-14T12:14:13Z</time></trkpt><trkpt lat="44.1252761" lon="10.3848523"><ele>385.2857142857143</ele><time>2026-04-14T12:14:17.999Z</time></trkpt><trkpt lat="44.1253175" lon="10.3847822"><ele>387.0</ele><time>2026-04-14T12:14:23Z</time></trkpt><trkpt lat="44.1253745" lon="10.3847259"><ele>387.0</ele><time>2026-04-14T12:14:27Z</time></trkpt><trkpt lat="44.1254355" lon="10.3846863"><ele>387.0</ele><time>2026-04-14T12:14:31Z</time></trkpt><trkpt lat="44.1254971" lon="10.3846615"><ele>387.0</ele><time>2026-04-14T12:14:35Z</time></trkpt><trkpt lat="44.1255612" lon="10.384648"><ele>387.0</ele><time>2026-04-14T12:14:40Z</time></trkpt><trkpt lat="44.125632" lon="10.3846299"><ele>387.0</ele><time>2026-04-14T12:14:44.999Z</time></trkpt><trkpt lat="44.1257073" lon="10.3846084"><ele>387.0</ele><time>2026-04-14T12:14:50Z</time></trkpt><trkpt lat="44.1257669" lon="10.3845735"><ele>387.0</ele><time>2026-04-14T12:14:53.999Z</time></trkpt><trkpt lat="44.1258344" lon="10.3845389"><ele>387.7142857142857</ele><time>2026-04-14T12:14:58Z</time></trkpt><trkpt lat="44.1258959" lon="10.3845013"><ele>388.42857142857144</ele><time>2026-04-14T12:15:02Z</time></trkpt><trkpt lat="44.1259465" lon="10.3844435"><ele>389.1428571428571</ele><time>2026-04-14T12:15:06Z</time></trkpt><trkpt lat="44.1259831" lon="10.3843716"><ele>389.8571428571429</ele><time>2026-04-14T12:15:10Z</time></trkpt><trkpt lat="44.1260076" lon="10.3842905"><ele>390.57142857142856</ele><time>2026-04-14T12:15:13.999Z</time></trkpt><trkpt lat="44.1260203" lon="10.3841997"><ele>391.2857142857143</ele><time>2026-04-14T12:15:18Z</time></trkpt><trkpt lat="44.12602" lon="10.3841081"><ele>392.0</ele><time>2026-04-14T12:15:22Z</time></trkpt><trkpt lat="44.1260152" lon="10.3840196"><ele>392.0</ele><time>2026-04-14T12:15:26Z</time></trkpt><trkpt lat="44.1260066" lon="10.3839308"><ele>392.0</ele><time>2026-04-14T12:15:30Z</time></trkpt><trkpt lat="44.1259845" lon="10.3838469"><ele>392.0</ele><time>2026-04-14T12:15:33.999Z</time></trkpt><trkpt lat="44.1259426" lon="10.3837792"><ele>392.0</ele><time>2026-04-14T12:15:38Z</time></trkpt><trkpt lat="44.1258869" lon="10.3837267"><ele>392.0</ele><time>2026-04-14T12:15:42Z</time></trkpt><trkpt lat="44.1258265" lon="10.3836872"><ele>392.0</ele><time>2026-04-14T12:15:46Z</time></trkpt><trkpt lat="44.1257573" lon="10.3836456"><ele>392.0</ele><time>2026-04-14T12:15:51Z</time></trkpt><trkpt lat="44.125698" lon="10.3835739"><ele>393.2857142857143</ele><time>2026-04-14T12:15:56Z</time></trkpt><trkpt lat="44.1256455" lon="10.3835116"><ele>394.57142857142856</ele><time>2026-04-14T12:15:59.999Z</time></trkpt><trkpt lat="44.1256247" lon="10.3834212"><ele>395.8571428571429</ele><time>2026-04-14T12:16:04Z</time></trkpt><trkpt lat="44.1256228" lon="10.3833246"><ele>397.1428571428571</ele><time>2026-04-14T12:16:08Z</time></trkpt><trkpt lat="44.1256264" lon="10.3832292"><ele>398.42857142857144</ele><time>2026-04-14T12:16:12Z</time></trkpt><trkpt lat="44.1256356" lon="10.3831409"><ele>399.7142857142857</ele><time>2026-04-14T12:16:16Z</time></trkpt><trkpt lat="44.1256587" lon="10.3830378"><ele>401.0</ele><time>2026-04-14T12:16:20.999Z</time></trkpt><trkpt lat="44.125689" lon="10.3829488"><ele>402.57142857142856</ele><time>2026-04-14T12:16:24.999Z</time></trkpt><trkpt lat="44.1257424" lon="10.3828766"><ele>404.14285714285717</ele><time>2026-04-14T12:16:29.999Z</time></trkpt><trkpt lat="44.1258163" lon="10.3828357"><ele>405.71428571428567</ele><time>2026-04-14T12:16:35.015Z</time></trkpt><trkpt lat="44.1258841" lon="10.382786"><ele>407.2857142857143</ele><time>2026-04-14T12:16:39Z</time></trkpt><trkpt lat="44.1259509" lon="10.382736"><ele>408.85714285714283</ele><time>2026-04-14T12:16:44Z</time></trkpt><trkpt lat="44.1260228" lon="10.3826969"><ele>410.4285714285714</ele><time>2026-04-14T12:16:49Z</time></trkpt><trkpt lat="44.1260773" lon="10.3826506"><ele>412.0</ele><time>2026-04-14T12:16:53Z</time></trkpt><trkpt lat="44.1261349" lon="10.3825889"><ele>411.99999999999994</ele><time>2026-04-14T12:16:58Z</time></trkpt><trkpt lat="44.1261619" lon="10.3824989"><ele>412.0</ele><time>2026-04-14T12:17:03Z</time></trkpt><trkpt lat="44.126179" lon="10.3824008"><ele>412.0</ele><time>2026-04-14T12:17:07.999Z</time></trkpt><trkpt lat="44.1261942" lon="10.3822979"><ele>412.0</ele><time>2026-04-14T12:17:13.019Z</time></trkpt><trkpt lat="44.1261692" lon="10.3821944"><ele>412.0</ele><time>2026-04-14T12:17:18Z</time></trkpt><trkpt lat="44.1261497" lon="10.3820923"><ele>411.99999999999994</ele><time>2026-04-14T12:17:22.999Z</time></trkpt><trkpt lat="44.1261374" lon="10.3819976"><ele>412.0</ele><time>2026-04-14T12:17:27.999Z</time></trkpt><trkpt lat="44.1261152" lon="10.3819002"><ele>413.71428571428567</ele><time>2026-04-14T12:17:33Z</time></trkpt><trkpt lat="44.1260965" lon="10.3818012"><ele>415.42857142857144</ele><time>2026-04-14T12:17:38Z</time></trkpt><trkpt lat="44.1260781" lon="10.3817029"><ele>417.1428571428571</ele><time>2026-04-14T12:17:43Z</time></trkpt><trkpt lat="44.126051" lon="10.3816009"><ele>418.85714285714283</ele><time>2026-04-14T12:17:48Z</time></trkpt><trkpt lat="44.1260113" lon="10.3815125"><ele>420.57142857142856</ele><time>2026-04-14T12:17:52.999Z</time></trkpt><trkpt lat="44.1259666" lon="10.3814248"><ele>422.2857142857143</ele><time>2026-04-14T12:17:57.999Z</time></trkpt><trkpt lat="44.1259251" lon="10.3813569"><ele>424.0</ele><time>2026-04-14T12:18:02Z</time></trkpt><trkpt lat="44.1258883" lon="10.3812855"><ele>424.2857142857143</ele><time>2026-04-14T12:18:06Z</time></trkpt><trkpt lat="44.1258424" lon="10.3812227"><ele>424.57142857142856</ele><time>2026-04-14T12:18:10Z</time></trkpt><trkpt lat="44.1257918" lon="10.3811684"><ele>424.85714285714283</ele><time>2026-04-14T12:18:14Z</time></trkpt><trkpt lat="44.1257285" lon="10.3811731"><ele>425.1428571428571</ele><time>2026-04-14T12:18:18Z</time></trkpt><trkpt lat="44.1256834" lon="10.3812417"><ele>425.42857142857144</ele><time>2026-04-14T12:18:22Z</time></trkpt><trkpt lat="44.1256548" lon="10.3813341"><ele>425.71428571428567</ele><time>2026-04-14T12:18:27Z</time></trkpt><trkpt lat="44.1255991" lon="10.3813981"><ele>426.0</ele><time>2026-04-14T12:18:32Z</time></trkpt><trkpt lat="44.1255338" lon="10.3813614"><ele>427.99999999999994</ele><time>2026-04-14T12:18:36.999Z</time></trkpt><trkpt lat="44.125498" lon="10.3812657"><ele>430.0</ele><time>2026-04-14T12:18:42Z</time></trkpt><trkpt lat="44.1254465" lon="10.3811952"><ele>432.0</ele><time>2026-04-14T12:18:46.999Z</time></trkpt><trkpt lat="44.1253842" lon="10.3811672"><ele>434.0</ele><time>2026-04-14T12:18:51Z</time></trkpt><trkpt lat="44.1253219" lon="10.3811533"><ele>436.0</ele><time>2026-04-14T12:18:55Z</time></trkpt><trkpt lat="44.1252554" lon="10.3811427"><ele>437.99999999999994</ele><time>2026-04-14T12:18:59Z</time></trkpt><trkpt lat="44.1251924" lon="10.3811227"><ele>440.0</ele><time>2026-04-14T12:19:03Z</time></trkpt><trkpt lat="44.125129" lon="10.381094"><ele>439.99999999999994</ele><time>2026-04-14T12:19:06.999Z</time></trkpt><trkpt lat="44.1250663" lon="10.3810637"><ele>440.0</ele><time>2026-04-14T12:19:11Z</time></trkpt><trkpt lat="44.1250065" lon="10.3810362"><ele>440.0</ele><time>2026-04-14T12:19:15Z</time></trkpt><trkpt lat="44.1249462" lon="10.3810008"><ele>440.0</ele><time>2026-04-14T12:19:19Z</time></trkpt><trkpt lat="44.1248828" lon="10.3809922"><ele>440.0</ele><time>2026-04-14T12:19:22.999Z</time></trkpt><trkpt lat="44.1248067" lon="10.3810038"><ele>439.99999999999994</ele><time>2026-04-14T12:19:28Z</time></trkpt><trkpt lat="44.1247321" lon="10.3810091"><ele>440.0</ele><time>2026-04-14T12:19:32Z</time></trkpt><trkpt lat="44.1246689" lon="10.3809914"><ele>441.57142857142856</ele><time>2026-04-14T12:19:35.999Z</time></trkpt><trkpt lat="44.1245924" lon="10.3809651"><ele>443.1428571428571</ele><time>2026-04-14T12:19:41Z</time></trkpt><trkpt lat="44.1245322" lon="10.3809384"><ele>444.71428571428567</ele><time>2026-04-14T12:19:45Z</time></trkpt><trkpt lat="44.1244621" lon="10.3808919"><ele>446.2857142857143</ele><time>2026-04-14T12:19:50Z</time></trkpt><trkpt lat="44.1244077" lon="10.3808426"><ele>447.8571428571429</ele><time>2026-04-14T12:19:53.999Z</time></trkpt><trkpt lat="44.1243449" lon="10.380782"><ele>449.4285714285714</ele><time>2026-04-14T12:19:59Z</time></trkpt><trkpt lat="44.1242915" lon="10.3807044"><ele>451.0</ele><time>2026-04-14T12:20:03.999Z</time></trkpt><trkpt lat="44.1242537" lon="10.3806284"><ele>451.0</ele><time>2026-04-14T12:20:08Z</time></trkpt><trkpt lat="44.1242179" lon="10.3805512"><ele>451.0</ele><time>2026-04-14T12:20:11.999Z</time></trkpt><trkpt lat="44.12418" lon="10.3804771"><ele>451.0</ele><time>2026-04-14T12:20:16Z</time></trkpt><trkpt lat="44.1241327" lon="10.3804121"><ele>451.0</ele><time>2026-04-14T12:20:20Z</time></trkpt><trkpt lat="44.1240837" lon="10.3803506"><ele>451.0</ele><time>2026-04-14T12:20:24Z</time></trkpt><trkpt lat="44.1240345" lon="10.3802871"><ele>451.0</ele><time>2026-04-14T12:20:27.999Z</time></trkpt><trkpt lat="44.1239852" lon="10.3802323"><ele>451.0</ele><time>2026-04-14T12:20:31.999Z</time></trkpt><trkpt lat="44.1239218" lon="10.3801754"><ele>452.85714285714283</ele><time>2026-04-14T12:20:37Z</time></trkpt><trkpt lat="44.1238705" lon="10.3800953"><ele>454.7142857142858</ele><time>2026-04-14T12:20:42Z</time></trkpt><trkpt lat="44.123848" lon="10.3800071"><ele>456.5714285714286</ele><time>2026-04-14T12:20:46Z</time></trkpt><trkpt lat="44.1238351" lon="10.379916"><ele>458.42857142857144</ele><time>2026-04-14T12:20:50Z</time></trkpt><trkpt lat="44.1238465" lon="10.3798281"><ele>460.28571428571433</ele><time>2026-04-14T12:20:53.999Z</time></trkpt><trkpt lat="44.1238418" lon="10.3797365"><ele>462.1428571428572</ele><time>2026-04-14T12:20:58Z</time></trkpt><trkpt lat="44.1238484" lon="10.3796332"><ele>464.00000000000006</ele><time>2026-04-14T12:21:03Z</time></trkpt><trkpt lat="44.1238308" lon="10.3795344"><ele>465.1428571428572</ele><time>2026-04-14T12:21:08Z</time></trkpt><trkpt lat="44.1237949" lon="10.3794614"><ele>466.28571428571433</ele><time>2026-04-14T12:21:12Z</time></trkpt><trkpt lat="44.1237519" lon="10.3793903"><ele>467.42857142857144</ele><time>2026-04-14T12:21:15.999Z</time></trkpt><trkpt lat="44.1237014" lon="10.3793107"><ele>468.5714285714286</ele><time>2026-04-14T12:21:20.999Z</time></trkpt><trkpt lat="44.123652" lon="10.3792533"><ele>469.7142857142858</ele><time>2026-04-14T12:21:25Z</time></trkpt><trkpt lat="44.1235971" lon="10.3792022"><ele>470.85714285714283</ele><time>2026-04-14T12:21:29Z</time></trkpt><trkpt lat="44.1235414" lon="10.3791489"><ele>472.0</ele><time>2026-04-14T12:21:32.999Z</time></trkpt><trkpt lat="44.123479" lon="10.3791002"><ele>472.0</ele><time>2026-04-14T12:21:37Z</time></trkpt><trkpt lat="44.1234153" lon="10.3790482"><ele>472.0</ele><time>2026-04-14T12:21:40.999Z</time></trkpt><trkpt lat="44.1233659" lon="10.3789749"><ele>472.0</ele><time>2026-04-14T12:21:45Z</time></trkpt><trkpt lat="44.1233621" lon="10.378867"><ele>472.0</ele><time>2026-04-14T12:21:48.999Z</time></trkpt><trkpt lat="44.1233805" lon="10.3787692"><ele>472.0</ele><time>2026-04-14T12:21:53Z</time></trkpt><trkpt lat="44.1234103" lon="10.3786794"><ele>472.0</ele><time>2026-04-14T12:21:56.999Z</time></trkpt><trkpt lat="44.1234259" lon="10.3785731"><ele>472.0</ele><time>2026-04-14T12:22:01Z</time></trkpt><trkpt lat="44.1234263" lon="10.3784603"><ele>472.85714285714283</ele><time>2026-04-14T12:22:05Z</time></trkpt><trkpt lat="44.1234014" lon="10.3783549"><ele>473.7142857142858</ele><time>2026-04-14T12:22:08.999Z</time></trkpt><trkpt lat="44.1233697" lon="10.3782601"><ele>474.5714285714286</ele><time>2026-04-14T12:22:12.999Z</time></trkpt><trkpt lat="44.1233414" lon="10.3781655"><ele>475.42857142857144</ele><time>2026-04-14T12:22:17Z</time></trkpt><trkpt lat="44.1233281" lon="10.3780786"><ele>476.28571428571433</ele><time>2026-04-14T12:22:19.999Z</time></trkpt><trkpt lat="44.1233096" lon="10.37797"><ele>477.1428571428572</ele><time>2026-04-14T12:22:24Z</time></trkpt><trkpt lat="44.1232992" lon="10.3778699"><ele>478.00000000000006</ele><time>2026-04-14T12:22:27.999Z</time></trkpt><trkpt lat="44.123292" lon="10.3777604"><ele>478.6666666666667</ele><time>2026-04-14T12:22:32Z</time></trkpt><trkpt lat="44.1232901" lon="10.3776617"><ele>479.33333333333337</ele><time>2026-04-14T12:22:36Z</time></trkpt><trkpt lat="44.1232798" lon="10.3775538"><ele>480.0</ele><time>2026-04-14T12:22:40Z</time></trkpt><trkpt lat="44.1232815" lon="10.3774504"><ele>480.66666666666663</ele><time>2026-04-14T12:22:44Z</time></trkpt><trkpt lat="44.123302" lon="10.3773481"><ele>481.3333333333333</ele><time>2026-04-14T12:22:48Z</time></trkpt><trkpt lat="44.1233171" lon="10.3772446"><ele>482.0</ele><time>2026-04-14T12:22:51.999Z</time></trkpt><trkpt lat="44.1233253" lon="10.3771347"><ele>483.49999999999994</ele><time>2026-04-14T12:22:56Z</time></trkpt><trkpt lat="44.1233044" lon="10.3770513"><ele>485.0</ele><time>2026-04-14T12:23:00Z</time></trkpt><trkpt lat="44.1232301" lon="10.377014"><ele>486.5</ele><time>2026-04-14T12:23:04Z</time></trkpt><trkpt lat="44.1231518" lon="10.3769856"><ele>488.0</ele><time>2026-04-14T12:23:08Z</time></trkpt><trkpt lat="44.1230729" lon="10.3769649"><ele>489.49999999999994</ele><time>2026-04-14T12:23:11.999Z</time></trkpt><trkpt lat="44.1229963" lon="10.3769289"><ele>491.0</ele><time>2026-04-14T12:23:15.999Z</time></trkpt><trkpt lat="44.122918" lon="10.3768907"><ele>490.99999999999994</ele><time>2026-04-14T12:23:20Z</time></trkpt><trkpt lat="44.1228395" lon="10.3768625"><ele>491.0</ele><time>2026-04-14T12:23:23.999Z</time></trkpt><trkpt lat="44.1227645" lon="10.376827"><ele>491.0</ele><time>2026-04-14T12:23:28Z</time></trkpt><trkpt lat="44.1226923" lon="10.3767947"><ele>491.0</ele><time>2026-04-14T12:23:31.999Z</time></trkpt><trkpt lat="44.1226231" lon="10.3767568"><ele>490.99999999999994</ele><time>2026-04-14T12:23:36Z</time></trkpt><trkpt lat="44.1225489" lon="10.3767205"><ele>491.0</ele><time>2026-04-14T12:23:39.999Z</time></trkpt><trkpt lat="44.1224837" lon="10.3766668"><ele>490.99999999999994</ele><time>2026-04-14T12:23:44Z</time></trkpt><trkpt lat="44.1224188" lon="10.3766104"><ele>491.0</ele><time>2026-04-14T12:23:47.999Z</time></trkpt><trkpt lat="44.1223557" lon="10.3765545"><ele>491.0</ele><time>2026-04-14T12:23:52Z</time></trkpt><trkpt lat="44.1222978" lon="10.376488"><ele>491.0</ele><time>2026-04-14T12:23:55.999Z</time></trkpt><trkpt lat="44.1222424" lon="10.3764157"><ele>490.99999999999994</ele><time>2026-04-14T12:24:00Z</time></trkpt><trkpt lat="44.1221833" lon="10.3763392"><ele>491.0</ele><time>2026-04-14T12:24:03.999Z</time></trkpt><trkpt lat="44.1221283" lon="10.3762618"><ele>493.0</ele><time>2026-04-14T12:24:08Z</time></trkpt><trkpt lat="44.1220775" lon="10.3761938"><ele>494.99999999999994</ele><time>2026-04-14T12:24:11.999Z</time></trkpt><trkpt lat="44.1220234" lon="10.3761185"><ele>497.0</ele><time>2026-04-14T12:24:16Z</time></trkpt><trkpt lat="44.1219796" lon="10.3760532"><ele>499.0</ele><time>2026-04-14T12:24:19Z</time></trkpt><trkpt lat="44.1219252" lon="10.3759717"><ele>500.99999999999994</ele><time>2026-04-14T12:24:23Z</time></trkpt><trkpt lat="44.121878" lon="10.3758891"><ele>503.0</ele><time>2026-04-14T12:24:26.999Z</time></trkpt><trkpt lat="44.1218201" lon="10.3758102"><ele>505.0</ele><time>2026-04-14T12:24:31Z</time></trkpt><trkpt lat="44.1217655" lon="10.3757311"><ele>505.00000000000006</ele><time>2026-04-14T12:24:35Z</time></trkpt><trkpt lat="44.1217138" lon="10.3756606"><ele>505.0</ele><time>2026-04-14T12:24:38.999Z</time></trkpt><trkpt lat="44.1216844" lon="10.3755591"><ele>505.0</ele><time>2026-04-14T12:24:43Z</time></trkpt><trkpt lat="44.1216898" lon="10.3754507"><ele>505.0</ele><time>2026-04-14T12:24:47Z</time></trkpt><trkpt lat="44.1217176" lon="10.3753524"><ele>505.00000000000006</ele><time>2026-04-14T12:24:51Z</time></trkpt><trkpt lat="44.1217657" lon="10.3752666"><ele>505.0</ele><time>2026-04-14T12:24:54.999Z</time></trkpt><trkpt lat="44.1218382" lon="10.3752372"><ele>507.4285714285714</ele><time>2026-04-14T12:24:58.999Z</time></trkpt><trkpt lat="44.121918" lon="10.3752431"><ele>509.8571428571428</ele><time>2026-04-14T12:25:03Z</time></trkpt><trkpt lat="44.1219797" lon="10.3752622"><ele>512.2857142857142</ele><time>2026-04-14T12:25:06Z</time></trkpt><trkpt lat="44.1220516" lon="10.3752944"><ele>514.7142857142857</ele><time>2026-04-14T12:25:10Z</time></trkpt><trkpt lat="44.1221251" lon="10.3753229"><ele>517.1428571428571</ele><time>2026-04-14T12:25:14Z</time></trkpt><trkpt lat="44.1222013" lon="10.3753567"><ele>519.5714285714286</ele><time>2026-04-14T12:25:17.999Z</time></trkpt><trkpt lat="44.1222651" lon="10.3753737"><ele>522.0</ele><time>2026-04-14T12:25:21Z</time></trkpt><trkpt lat="44.1223422" lon="10.3754123"><ele>521.3333333333334</ele><time>2026-04-14T12:25:24.999Z</time></trkpt><trkpt lat="44.1224128" lon="10.3754491"><ele>520.6666666666666</ele><time>2026-04-14T12:25:29Z</time></trkpt><trkpt lat="44.1224902" lon="10.3754732"><ele>520.0</ele><time>2026-04-14T12:25:33Z</time></trkpt><trkpt lat="44.1225655" lon="10.3754913"><ele>519.3333333333333</ele><time>2026-04-14T12:25:36.999Z</time></trkpt><trkpt lat="44.1226347" lon="10.3754725"><ele>518.6666666666666</ele><time>2026-04-14T12:25:41Z</time></trkpt><trkpt lat="44.1227077" lon="10.3754255"><ele>518.0</ele><time>2026-04-14T12:25:44.999Z</time></trkpt><trkpt lat="44.1227411" lon="10.3753433"><ele>518.0</ele><time>2026-04-14T12:25:49Z</time></trkpt><trkpt lat="44.1227377" lon="10.3752445"><ele>518.0</ele><time>2026-04-14T12:25:53Z</time></trkpt><trkpt lat="44.122719" lon="10.3751471"><ele>518.0</ele><time>2026-04-14T12:25:57Z</time></trkpt><trkpt lat="44.1227057" lon="10.375058"><ele>518.0</ele><time>2026-04-14T12:26:00Z</time></trkpt><trkpt lat="44.1226842" lon="10.374961"><ele>518.0</ele><time>2026-04-14T12:26:03Z</time></trkpt><trkpt lat="44.1226654" lon="10.3748579"><ele>518.0</ele><time>2026-04-14T12:26:06Z</time></trkpt><trkpt lat="44.1226464" lon="10.3747426"><ele>518.0</ele><time>2026-04-14T12:26:08.999Z</time></trkpt><trkpt lat="44.1226278" lon="10.3746303"><ele>520.1666666666666</ele><time>2026-04-14T12:26:12Z</time></trkpt><trkpt lat="44.122603" lon="10.3745195"><ele>522.3333333333333</ele><time>2026-04-14T12:26:15Z</time></trkpt><trkpt lat="44.1225926" lon="10.3743987"><ele>524.5</ele><time>2026-04-14T12:26:18Z</time></trkpt><trkpt lat="44.1225952" lon="10.3742774"><ele>526.6666666666666</ele><time>2026-04-14T12:26:21Z</time></trkpt><trkpt lat="44.122633" lon="10.3741621"><ele>528.8333333333334</ele><time>2026-04-14T12:26:23.999Z</time></trkpt><trkpt lat="44.1226797" lon="10.3740616"><ele>531.0</ele><time>2026-04-14T12:26:27Z</time></trkpt><trkpt lat="44.1227305" lon="10.3739646"><ele>531.0</ele><time>2026-04-14T12:26:30Z</time></trkpt><trkpt lat="44.1227858" lon="10.3738638"><ele>531.0</ele><time>2026-04-14T12:26:33.011Z</time></trkpt><trkpt lat="44.1228307" lon="10.373788"><ele>531.0</ele><time>2026-04-14T12:26:36Z</time></trkpt><trkpt lat="44.1228773" lon="10.3737069"><ele>531.0</ele><time>2026-04-14T12:26:39.006Z</time></trkpt><trkpt lat="44.1229009" lon="10.3736206"><ele>531.0</ele><time>2026-04-14T12:26:41.999Z</time></trkpt><trkpt lat="44.1229264" lon="10.3735224"><ele>531.0</ele><time>2026-04-14T12:26:45Z</time></trkpt><trkpt lat="44.1229221" lon="10.37341"><ele>532.0</ele><time>2026-04-14T12:26:47.999Z</time></trkpt><trkpt lat="44.12289" lon="10.3733008"><ele>533.0</ele><time>2026-04-14T12:26:50.999Z</time></trkpt><trkpt lat="44.1228554" lon="10.3732048"><ele>534.0</ele><time>2026-04-14T12:26:53.999Z</time></trkpt><trkpt lat="44.1228437" lon="10.3731005"><ele>535.0</ele><time>2026-04-14T12:26:56.999Z</time></trkpt><trkpt lat="44.1228708" lon="10.3730151"><ele>536.0</ele><time>2026-04-14T12:26:59.999Z</time></trkpt><trkpt lat="44.122927" lon="10.3729481"><ele>537.0</ele><time>2026-04-14T12:27:03Z</time></trkpt><trkpt lat="44.1229863" lon="10.3729054"><ele>538.0</ele><time>2026-04-14T12:27:05.999Z</time></trkpt><trkpt lat="44.1230583" lon="10.3728727"><ele>539.0</ele><time>2026-04-14T12:27:10Z</time></trkpt><trkpt lat="44.1231175" lon="10.3728393"><ele>540.0</ele><time>2026-04-14T12:27:12.999Z</time></trkpt><trkpt lat="44.1231881" lon="10.3728035"><ele>541.0</ele><time>2026-04-14T12:27:16.999Z</time></trkpt><trkpt lat="44.1232494" lon="10.3727569"><ele>542.0</ele><time>2026-04-14T12:27:21Z</time></trkpt><trkpt lat="44.1233142" lon="10.3726882"><ele>543.0</ele><time>2026-04-14T12:27:25Z</time></trkpt><trkpt lat="44.123354" lon="10.3726201"><ele>544.0</ele><time>2026-04-14T12:27:28Z</time></trkpt><trkpt lat="44.1233867" lon="10.3725409"><ele>545.0</ele><time>2026-04-14T12:27:30.999Z</time></trkpt><trkpt lat="44.1234082" lon="10.3724572"><ele>545.0</ele><time>2026-04-14T12:27:34.999Z</time></trkpt><trkpt lat="44.1234153" lon="10.3723609"><ele>545.0</ele><time>2026-04-14T12:27:39Z</time></trkpt><trkpt lat="44.1234355" lon="10.3722519"><ele>545.0</ele><time>2026-04-14T12:27:43Z</time></trkpt><trkpt lat="44.1234545" lon="10.3721635"><ele>545.0</ele><time>2026-04-14T12:27:45.999Z</time></trkpt><trkpt lat="44.1234757" lon="10.3720498"><ele>545.0</ele><time>2026-04-14T12:27:50Z</time></trkpt><trkpt lat="44.1234986" lon="10.3719517"><ele>545.0</ele><time>2026-04-14T12:27:53.999Z</time></trkpt><trkpt lat="44.1235092" lon="10.3718498"><ele>545.0</ele><time>2026-04-14T12:27:57.999Z</time></trkpt><trkpt lat="44.1235257" lon="10.3717401"><ele>545.0</ele><time>2026-04-14T12:28:02Z</time></trkpt><trkpt lat="44.1235468" lon="10.3716294"><ele>545.0</ele><time>2026-04-14T12:28:06Z</time></trkpt><trkpt lat="44.1235608" lon="10.3715428"><ele>545.0</ele><time>2026-04-14T12:28:09Z</time></trkpt><trkpt lat="44.1235851" lon="10.371437"><ele>545.0</ele><time>2026-04-14T12:28:13Z</time></trkpt><trkpt lat="44.1236092" lon="10.3713271"><ele>545.0</ele><time>2026-04-14T12:28:17Z</time></trkpt><trkpt lat="44.1236334" lon="10.3712163"><ele>545.0</ele><time>2026-04-14T12:28:21Z</time></trkpt><trkpt lat="44.1236606" lon="10.3711087"><ele>548.8333333333333</ele><time>2026-04-14T12:28:24.999Z</time></trkpt><trkpt lat="44.1236918" lon="10.3710056"><ele>552.6666666666666</ele><time>2026-04-14T12:28:28.999Z</time></trkpt><trkpt lat="44.1237238" lon="10.3709076"><ele>556.5</ele><time>2026-04-14T12:28:32.999Z</time></trkpt><trkpt lat="44.1237471" lon="10.3708153"><ele>560.3333333333334</ele><time>2026-04-14T12:28:36.999Z</time></trkpt><trkpt lat="44.1237654" lon="10.370731"><ele>564.1666666666667</ele><time>2026-04-14T12:28:40Z</time></trkpt><trkpt lat="44.123802" lon="10.3706304"><ele>568.0</ele><time>2026-04-14T12:28:44Z</time></trkpt><trkpt lat="44.1238446" lon="10.3705305"><ele>568.4285714285714</ele><time>2026-04-14T12:28:48Z</time></trkpt><trkpt lat="44.1238872" lon="10.3704389"><ele>568.8571428571428</ele><time>2026-04-14T12:28:51.999Z</time></trkpt><trkpt lat="44.1239279" lon="10.370371"><ele>569.2857142857142</ele><time>2026-04-14T12:28:54.999Z</time></trkpt><trkpt lat="44.1239604" lon="10.370293"><ele>569.7142857142857</ele><time>2026-04-14T12:28:58Z</time></trkpt><trkpt lat="44.1239707" lon="10.3701878"><ele>570.1428571428571</ele><time>2026-04-14T12:29:02Z</time></trkpt><trkpt lat="44.1239274" lon="10.3700887"><ele>570.5714285714286</ele><time>2026-04-14T12:29:05.999Z</time></trkpt><trkpt lat="44.1238725" lon="10.3700188"><ele>571.0</ele><time>2026-04-14T12:29:10Z</time></trkpt><trkpt lat="44.123807" lon="10.3699541"><ele>571.0</ele><time>2026-04-14T12:29:14Z</time></trkpt><trkpt lat="44.1237449" lon="10.369886"><ele>571.0</ele><time>2026-04-14T12:29:17.999Z</time></trkpt><trkpt lat="44.1236918" lon="10.3698218"><ele>571.0</ele><time>2026-04-14T12:29:22Z</time></trkpt><trkpt lat="44.1236397" lon="10.3697683"><ele>571.0</ele><time>2026-04-14T12:29:25.999Z</time></trkpt><trkpt lat="44.1235819" lon="10.369694"><ele>571.0</ele><time>2026-04-14T12:29:30.016Z</time></trkpt><trkpt lat="44.1235324" lon="10.3696332"><ele>571.0</ele><time>2026-04-14T12:29:34Z</time></trkpt><trkpt lat="44.1234873" lon="10.3695695"><ele>571.0</ele><time>2026-04-14T12:29:38Z</time></trkpt><trkpt lat="44.1234313" lon="10.3695104"><ele>573.1428571428571</ele><time>2026-04-14T12:29:43Z</time></trkpt><trkpt lat="44.1233811" lon="10.3694451"><ele>575.2857142857142</ele><time>2026-04-14T12:29:47Z</time></trkpt><trkpt lat="44.1233301" lon="10.3693792"><ele>577.4285714285713</ele><time>2026-04-14T12:29:50.999Z</time></trkpt><trkpt lat="44.1232724" lon="10.3693051"><ele>579.5714285714286</ele><time>2026-04-14T12:29:55Z</time></trkpt><trkpt lat="44.1232247" lon="10.369238"><ele>581.7142857142857</ele><time>2026-04-14T12:29:58.999Z</time></trkpt><trkpt lat="44.1231698" lon="10.3691759"><ele>583.8571428571428</ele><time>2026-04-14T12:30:03Z</time></trkpt><trkpt lat="44.1231305" lon="10.3691003"><ele>586.0</ele><time>2026-04-14T12:30:07.001Z</time></trkpt><trkpt lat="44.1231177" lon="10.3690091"><ele>585.9999999999999</ele><time>2026-04-14T12:30:11Z</time></trkpt><trkpt lat="44.1231018" lon="10.3689078"><ele>586.0</ele><time>2026-04-14T12:30:14.999Z</time></trkpt><trkpt lat="44.1230867" lon="10.3688104"><ele>586.0</ele><time>2026-04-14T12:30:19Z</time></trkpt><trkpt lat="44.1230555" lon="10.3687169"><ele>586.0</ele><time>2026-04-14T12:30:23Z</time></trkpt><trkpt lat="44.123019" lon="10.368629"><ele>586.0</ele><time>2026-04-14T12:30:27Z</time></trkpt><trkpt lat="44.1229767" lon="10.3685477"><ele>585.9999999999999</ele><time>2026-04-14T12:30:31Z</time></trkpt><trkpt lat="44.1229372" lon="10.3684698"><ele>586.0</ele><time>2026-04-14T12:30:34.999Z</time></trkpt><trkpt lat="44.1228896" lon="10.3683964"><ele>583.2857142857142</ele><time>2026-04-14T12:30:39Z</time></trkpt><trkpt lat="44.1228496" lon="10.3683257"><ele>580.5714285714286</ele><time>2026-04-14T12:30:43Z</time></trkpt><trkpt lat="44.1228119" lon="10.3682495"><ele>577.8571428571429</ele><time>2026-04-14T12:30:46.999Z</time></trkpt><trkpt lat="44.1227669" lon="10.3681716"><ele>575.1428571428571</ele><time>2026-04-14T12:30:51Z</time></trkpt><trkpt lat="44.1227175" lon="10.3681065"><ele>572.4285714285714</ele><time>2026-04-14T12:30:55Z</time></trkpt><trkpt lat="44.1226494" lon="10.368067"><ele>569.7142857142857</ele><time>2026-04-14T12:30:58.999Z</time></trkpt><trkpt lat="44.1225778" lon="10.3680671"><ele>567.0</ele><time>2026-04-14T12:31:02.999Z</time></trkpt><trkpt lat="44.1225065" lon="10.3680934"><ele>567.0</ele><time>2026-04-14T12:31:07Z</time></trkpt><trkpt lat="44.1224369" lon="10.3681227"><ele>567.0</ele><time>2026-04-14T12:31:10.999Z</time></trkpt><trkpt lat="44.1223669" lon="10.3681432"><ele>567.0</ele><time>2026-04-14T12:31:15Z</time></trkpt><trkpt lat="44.1223016" lon="10.3681553"><ele>567.0</ele><time>2026-04-14T12:31:18.999Z</time></trkpt><trkpt lat="44.1222298" lon="10.3681538"><ele>567.0</ele><time>2026-04-14T12:31:23Z</time></trkpt><trkpt lat="44.1221565" lon="10.3681491"><ele>567.0</ele><time>2026-04-14T12:31:27Z</time></trkpt><trkpt lat="44.1220885" lon="10.3681487"><ele>567.0</ele><time>2026-04-14T12:31:30.999Z</time></trkpt><trkpt lat="44.1220168" lon="10.3681504"><ele>568.5714285714286</ele><time>2026-04-14T12:31:35Z</time></trkpt><trkpt lat="44.1219531" lon="10.368149"><ele>570.1428571428571</ele><time>2026-04-14T12:31:39Z</time></trkpt><trkpt lat="44.1218817" lon="10.3681683"><ele>571.7142857142858</ele><time>2026-04-14T12:31:43Z</time></trkpt><trkpt lat="44.1218164" lon="10.3681913"><ele>573.2857142857142</ele><time>2026-04-14T12:31:47Z</time></trkpt><trkpt lat="44.1217439" lon="10.3682082"><ele>574.8571428571429</ele><time>2026-04-14T12:31:51Z</time></trkpt><trkpt lat="44.1216742" lon="10.3682347"><ele>576.4285714285714</ele><time>2026-04-14T12:31:55Z</time></trkpt><trkpt lat="44.1216046" lon="10.368244"><ele>578.0</ele><time>2026-04-14T12:31:59Z</time></trkpt><trkpt lat="44.1215325" lon="10.3682558"><ele>578.7142857142858</ele><time>2026-04-14T12:32:02.999Z</time></trkpt><trkpt lat="44.1214548" lon="10.3682519"><ele>579.4285714285714</ele><time>2026-04-14T12:32:06.999Z</time></trkpt><trkpt lat="44.1213873" lon="10.3682306"><ele>580.1428571428571</ele><time>2026-04-14T12:32:10Z</time></trkpt><trkpt lat="44.1213228" lon="10.3682022"><ele>580.8571428571429</ele><time>2026-04-14T12:32:13Z</time></trkpt><trkpt lat="44.1212572" lon="10.3681605"><ele>581.5714285714286</ele><time>2026-04-14T12:32:16Z</time></trkpt><trkpt lat="44.1212022" lon="10.3681028"><ele>582.2857142857143</ele><time>2026-04-14T12:32:19Z</time></trkpt><trkpt lat="44.1211592" lon="10.3680372"><ele>583.0</ele><time>2026-04-14T12:32:22Z</time></trkpt><trkpt lat="44.1211211" lon="10.3679646"><ele>583.0</ele><time>2026-04-14T12:32:25Z</time></trkpt><trkpt lat="44.1210824" lon="10.3678775"><ele>583.0</ele><time>2026-04-14T12:32:28Z</time></trkpt><trkpt lat="44.1210333" lon="10.3677979"><ele>583.0</ele><time>2026-04-14T12:32:30.999Z</time></trkpt><trkpt lat="44.120977" lon="10.3677291"><ele>583.0</ele><time>2026-04-14T12:32:33.999Z</time></trkpt><trkpt lat="44.1209207" lon="10.3676594"><ele>583.0</ele><time>2026-04-14T12:32:36.999Z</time></trkpt><trkpt lat="44.120861" lon="10.3675925"><ele>583.0</ele><time>2026-04-14T12:32:39.999Z</time></trkpt><trkpt lat="44.1208002" lon="10.367525"><ele>583.0</ele><time>2026-04-14T12:32:43Z</time></trkpt><trkpt lat="44.1207444" lon="10.3674558"><ele>583.0</ele><time>2026-04-14T12:32:45.999Z</time></trkpt><trkpt lat="44.1206782" lon="10.3673855"><ele>583.0</ele><time>2026-04-14T12:32:48.999Z</time></trkpt><trkpt lat="44.1206115" lon="10.3673199"><ele>583.0</ele><time>2026-04-14T12:32:52Z</time></trkpt><trkpt lat="44.1205444" lon="10.3672589"><ele>583.0</ele><time>2026-04-14T12:32:55Z</time></trkpt><trkpt lat="44.1204737" lon="10.3671968"><ele>583.0</ele><time>2026-04-14T12:32:57.999Z</time></trkpt><trkpt lat="44.1204032" lon="10.3671399"><ele>582.6666666666667</ele><time>2026-04-14T12:33:00.999Z</time></trkpt><trkpt lat="44.1203308" lon="10.3670802"><ele>582.3333333333334</ele><time>2026-04-14T12:33:03.999Z</time></trkpt><trkpt lat="44.1202495" lon="10.3670251"><ele>582.0</ele><time>2026-04-14T12:33:07Z</time></trkpt><trkpt lat="44.1201631" lon="10.3669785"><ele>581.6666666666666</ele><time>2026-04-14T12:33:10Z</time></trkpt><trkpt lat="44.1200796" lon="10.3669224"><ele>581.3333333333333</ele><time>2026-04-14T12:33:12.999Z</time></trkpt><trkpt lat="44.119999" lon="10.3668695"><ele>581.0</ele><time>2026-04-14T12:33:15.999Z</time></trkpt><trkpt lat="44.1199221" lon="10.3668067"><ele>583.8333333333333</ele><time>2026-04-14T12:33:19Z</time></trkpt><trkpt lat="44.119845" lon="10.3667372"><ele>586.6666666666666</ele><time>2026-04-14T12:33:22Z</time></trkpt><trkpt lat="44.1197718" lon="10.3666795"><ele>589.5</ele><time>2026-04-14T12:33:24.999Z</time></trkpt><trkpt lat="44.1197033" lon="10.3666107"><ele>592.3333333333334</ele><time>2026-04-14T12:33:28Z</time></trkpt><trkpt lat="44.1196289" lon="10.3665502"><ele>595.1666666666667</ele><time>2026-04-14T12:33:31Z</time></trkpt><trkpt lat="44.119554" lon="10.3664853"><ele>598.0</ele><time>2026-04-14T12:33:34Z</time></trkpt><trkpt lat="44.1194872" lon="10.3664115"><ele>596.5</ele><time>2026-04-14T12:33:36.999Z</time></trkpt><trkpt lat="44.1194154" lon="10.3663355"><ele>595.0</ele><time>2026-04-14T12:33:40Z</time></trkpt><trkpt lat="44.1193388" lon="10.3662748"><ele>593.5</ele><time>2026-04-14T12:33:43Z</time></trkpt><trkpt lat="44.1192484" lon="10.3662598"><ele>592.0</ele><time>2026-04-14T12:33:46Z</time></trkpt><trkpt lat="44.1191585" lon="10.3662667"><ele>590.5</ele><time>2026-04-14T12:33:49Z</time></trkpt><trkpt lat="44.119077" lon="10.3662778"><ele>589.0</ele><time>2026-04-14T12:33:51.999Z</time></trkpt><trkpt lat="44.1189854" lon="10.3662984"><ele>589.0</ele><time>2026-04-14T12:33:54.999Z</time></trkpt><trkpt lat="44.1188952" lon="10.3663058"><ele>589.0</ele><time>2026-04-14T12:33:58Z</time></trkpt><trkpt lat="44.1188085" lon="10.3663257"><ele>589.0</ele><time>2026-04-14T12:34:00.999Z</time></trkpt><trkpt lat="44.1187277" lon="10.3663111"><ele>589.0</ele><time>2026-04-14T12:34:03.999Z</time></trkpt><trkpt lat="44.1186633" lon="10.3662697"><ele>589.0</ele><time>2026-04-14T12:34:07Z</time></trkpt><trkpt lat="44.1186053" lon="10.3661956"><ele>589.0</ele><time>2026-04-14T12:34:10Z</time></trkpt><trkpt lat="44.1185469" lon="10.3661089"><ele>589.0</ele><time>2026-04-14T12:34:13Z</time></trkpt><trkpt lat="44.1184926" lon="10.3660111"><ele>589.0</ele><time>2026-04-14T12:34:16Z</time></trkpt><trkpt lat="44.1184412" lon="10.3659193"><ele>589.0</ele><time>2026-04-14T12:34:18.999Z</time></trkpt><trkpt lat="44.1183892" lon="10.3658322"><ele>589.0</ele><time>2026-04-14T12:34:22Z</time></trkpt><trkpt lat="44.1183371" lon="10.3657517"><ele>589.0</ele><time>2026-04-14T12:34:25Z</time></trkpt><trkpt lat="44.1182801" lon="10.3656762"><ele>589.0</ele><time>2026-04-14T12:34:28Z</time></trkpt><trkpt lat="44.1182188" lon="10.3656009"><ele>589.8333333333334</ele><time>2026-04-14T12:34:31Z</time></trkpt><trkpt lat="44.1181592" lon="10.365533"><ele>590.6666666666667</ele><time>2026-04-14T12:34:33.999Z</time></trkpt><trkpt lat="44.1180995" lon="10.3654574"><ele>591.5</ele><time>2026-04-14T12:34:37Z</time></trkpt><trkpt lat="44.1180331" lon="10.3653786"><ele>592.3333333333334</ele><time>2026-04-14T12:34:40Z</time></trkpt><trkpt lat="44.1179675" lon="10.3653109"><ele>593.1666666666666</ele><time>2026-04-14T12:34:43Z</time></trkpt><trkpt lat="44.1179004" lon="10.3652289"><ele>594.0</ele><time>2026-04-14T12:34:46Z</time></trkpt><trkpt lat="44.1178264" lon="10.3651642"><ele>594.0</ele><time>2026-04-14T12:34:48.999Z</time></trkpt><trkpt lat="44.1177552" lon="10.3651105"><ele>594.0</ele><time>2026-04-14T12:34:51.999Z</time></trkpt><trkpt lat="44.1176842" lon="10.3650462"><ele>594.0</ele><time>2026-04-14T12:34:54.999Z</time></trkpt><trkpt lat="44.1176143" lon="10.3649982"><ele>594.0</ele><time>2026-04-14T12:34:57.999Z</time></trkpt><trkpt lat="44.1175472" lon="10.3649464"><ele>594.0</ele><time>2026-04-14T12:35:01Z</time></trkpt><trkpt lat="44.1174774" lon="10.3649007"><ele>594.0</ele><time>2026-04-14T12:35:04Z</time></trkpt><trkpt lat="44.1174017" lon="10.364856"><ele>597.0</ele><time>2026-04-14T12:35:06.999Z</time></trkpt><trkpt lat="44.1173252" lon="10.3648389"><ele>600.0</ele><time>2026-04-14T12:35:10Z</time></trkpt><trkpt lat="44.1172412" lon="10.3648413"><ele>603.0</ele><time>2026-04-14T12:35:13.955Z</time></trkpt><trkpt lat="44.1171715" lon="10.3647973"><ele>606.0</ele><time>2026-04-14T12:35:16.999Z</time></trkpt><trkpt lat="44.1171173" lon="10.364735"><ele>609.0</ele><time>2026-04-14T12:35:19.999Z</time></trkpt><trkpt lat="44.1171093" lon="10.3646349"><ele>612.0</ele><time>2026-04-14T12:35:23Z</time></trkpt><trkpt lat="44.1171422" lon="10.3645445"><ele>611.0</ele><time>2026-04-14T12:35:26Z</time></trkpt><trkpt lat="44.1171923" lon="10.3644616"><ele>610.0</ele><time>2026-04-14T12:35:29.002Z</time></trkpt><trkpt lat="44.1172587" lon="10.3644296"><ele>609.0</ele><time>2026-04-14T12:35:32Z</time></trkpt><trkpt lat="44.1173264" lon="10.364427"><ele>608.0</ele><time>2026-04-14T12:35:34.999Z</time></trkpt><trkpt lat="44.1174081" lon="10.3643994"><ele>607.0</ele><time>2026-04-14T12:35:39Z</time></trkpt><trkpt lat="44.1174709" lon="10.3643579"><ele>606.0</ele><time>2026-04-14T12:35:42Z</time></trkpt><trkpt lat="44.1175395" lon="10.3643359"><ele>605.0</ele><time>2026-04-14T12:35:44.999Z</time></trkpt><trkpt lat="44.1176079" lon="10.3642908"><ele>605.0</ele><time>2026-04-14T12:35:48Z</time></trkpt><trkpt lat="44.117675" lon="10.3642364"><ele>605.0</ele><time>2026-04-14T12:35:51Z</time></trkpt><trkpt lat="44.1177398" lon="10.3641799"><ele>605.0</ele><time>2026-04-14T12:35:54Z</time></trkpt><trkpt lat="44.1178009" lon="10.3641201"><ele>605.0</ele><time>2026-04-14T12:35:57Z</time></trkpt><trkpt lat="44.1178633" lon="10.3640532"><ele>605.0</ele><time>2026-04-14T12:36:00Z</time></trkpt><trkpt lat="44.117921" lon="10.363996"><ele>605.0</ele><time>2026-04-14T12:36:03Z</time></trkpt><trkpt lat="44.1179918" lon="10.3639357"><ele>605.0</ele><time>2026-04-14T12:36:06Z</time></trkpt><trkpt lat="44.1180845" lon="10.3639088"><ele>605.0</ele><time>2026-04-14T12:36:08.999Z</time></trkpt><trkpt lat="44.1181755" lon="10.3639078"><ele>605.0</ele><time>2026-04-14T12:36:11.999Z</time></trkpt><trkpt lat="44.1182585" lon="10.3638814"><ele>605.0</ele><time>2026-04-14T12:36:15Z</time></trkpt><trkpt lat="44.1183206" lon="10.3638182"><ele>605.0</ele><time>2026-04-14T12:36:16.999Z</time></trkpt><trkpt lat="44.118381" lon="10.3637251"><ele>605.0</ele><time>2026-04-14T12:36:19Z</time></trkpt><trkpt lat="44.1184199" lon="10.363655"><ele>606.8333333333333</ele><time>2026-04-14T12:36:20Z</time></trkpt><trkpt lat="44.1184666" lon="10.3635931"><ele>608.6666666666666</ele><time>2026-04-14T12:36:21Z</time></trkpt><trkpt lat="44.1185206" lon="10.3635388"><ele>610.5</ele><time>2026-04-14T12:36:22Z</time></trkpt><trkpt lat="44.1185845" lon="10.3634877"><ele>612.3333333333334</ele><time>2026-04-14T12:36:22.999Z</time></trkpt><trkpt lat="44.1186572" lon="10.3634478"><ele>614.1666666666667</ele><time>2026-04-14T12:36:23.999Z</time></trkpt><trkpt lat="44.1187396" lon="10.3634141"><ele>616.0</ele><time>2026-04-14T12:36:25Z</time></trkpt><trkpt lat="44.1188243" lon="10.3633898"><ele>616.0</ele><time>2026-04-14T12:36:26Z</time></trkpt><trkpt lat="44.1189113" lon="10.3633704"><ele>616.0</ele><time>2026-04-14T12:36:27Z</time></trkpt><trkpt lat="44.1190008" lon="10.363355"><ele>616.0</ele><time>2026-04-14T12:36:27.999Z</time></trkpt><trkpt lat="44.1190915" lon="10.3633456"><ele>616.0</ele><time>2026-04-14T12:36:29Z</time></trkpt><trkpt lat="44.1191834" lon="10.3633352"><ele>616.0</ele><time>2026-04-14T12:36:30Z</time></trkpt><trkpt lat="44.1192798" lon="10.3633227"><ele>612.0</ele><time>2026-04-14T12:36:31Z</time></trkpt><trkpt lat="44.1193756" lon="10.3633138"><ele>608.0</ele><time>2026-04-14T12:36:32Z</time></trkpt><trkpt lat="44.1194783" lon="10.3633066"><ele>604.0</ele><time>2026-04-14T12:36:32.999Z</time></trkpt><trkpt lat="44.1195795" lon="10.3632927"><ele>600.0</ele><time>2026-04-14T12:36:33.999Z</time></trkpt><trkpt lat="44.1196765" lon="10.363264"><ele>596.0</ele><time>2026-04-14T12:36:35Z</time></trkpt><trkpt lat="44.1197649" lon="10.3632278"><ele>596.0</ele><time>2026-04-14T12:36:36Z</time></trkpt><trkpt lat="44.119849" lon="10.3631763"><ele>596.0</ele><time>2026-04-14T12:36:37Z</time></trkpt><trkpt lat="44.1199191" lon="10.3631046"><ele>596.0</ele><time>2026-04-14T12:36:38Z</time></trkpt><trkpt lat="44.119976" lon="10.3630135"><ele>596.0</ele><time>2026-04-14T12:36:39Z</time></trkpt><trkpt lat="44.1200227" lon="10.3629232"><ele>596.0</ele><time>2026-04-14T12:36:40Z</time></trkpt><trkpt lat="44.120069" lon="10.3628399"><ele>596.0</ele><time>2026-04-14T12:36:41Z</time></trkpt><trkpt lat="44.1201103" lon="10.3627574"><ele>595.0</ele><time>2026-04-14T12:36:42Z</time></trkpt><trkpt lat="44.12015" lon="10.3626755"><ele>594.0</ele><time>2026-04-14T12:36:43Z</time></trkpt><trkpt lat="44.1201795" lon="10.3625932"><ele>593.0</ele><time>2026-04-14T12:36:44Z</time></trkpt><trkpt lat="44.1201895" lon="10.3624291"><ele>592.0</ele><time>2026-04-14T12:36:45.999Z</time></trkpt><trkpt lat="44.120163" lon="10.3622804"><ele>591.0</ele><time>2026-04-14T12:36:47.999Z</time></trkpt><trkpt lat="44.1201319" lon="10.362144"><ele>593.1666666666666</ele><time>2026-04-14T12:36:50Z</time></trkpt><trkpt lat="44.1201013" lon="10.3620289"><ele>595.3333333333334</ele><time>2026-04-14T12:36:51.999Z</time></trkpt><trkpt lat="44.1200786" lon="10.3619145"><ele>597.5</ele><time>2026-04-14T12:36:53.999Z</time></trkpt><trkpt lat="44.1200828" lon="10.3617959"><ele>599.6666666666667</ele><time>2026-04-14T12:36:56Z</time></trkpt><trkpt lat="44.1201538" lon="10.361714"><ele>601.8333333333334</ele><time>2026-04-14T12:36:58Z</time></trkpt><trkpt lat="44.120233" lon="10.3616984"><ele>604.0</ele><time>2026-04-14T12:36:59.999Z</time></trkpt><trkpt lat="44.120295" lon="10.3617503"><ele>604.0000000000001</ele><time>2026-04-14T12:37:02Z</time></trkpt><trkpt lat="44.1203578" lon="10.361831"><ele>604.0</ele><time>2026-04-14T12:37:05Z</time></trkpt><trkpt lat="44.1203817" lon="10.3619141"><ele>604.0</ele><time>2026-04-14T12:37:57Z</time></trkpt><trkpt lat="44.1204433" lon="10.3619658"><ele>604.0</ele><time>2026-04-14T12:38:06Z</time></trkpt><trkpt lat="44.1205008" lon="10.3620086"><ele>604.0</ele><time>2026-04-14T12:38:15Z</time></trkpt><trkpt lat="44.1205671" lon="10.3620012"><ele>604.0000000000001</ele><time>2026-04-14T12:39:59.999Z</time></trkpt><trkpt lat="44.1206293" lon="10.3620373"><ele>604.0</ele><time>2026-04-14T12:40:02.999Z</time></trkpt><trkpt lat="44.1207069" lon="10.3620778"><ele>604.7142857142858</ele><time>2026-04-14T12:40:07Z</time></trkpt><trkpt lat="44.1207694" lon="10.3621068"><ele>605.4285714285714</ele><time>2026-04-14T12:40:09.999Z</time></trkpt><trkpt lat="44.1208449" lon="10.3621513"><ele>606.1428571428571</ele><time>2026-04-14T12:40:14.999Z</time></trkpt><trkpt lat="44.1209184" lon="10.362199"><ele>606.8571428571429</ele><time>2026-04-14T12:40:18.999Z</time></trkpt><trkpt lat="44.1209919" lon="10.3622228"><ele>607.5714285714286</ele><time>2026-04-14T12:40:22.999Z</time></trkpt><trkpt lat="44.1210548" lon="10.3622684"><ele>608.2857142857143</ele><time>2026-04-14T12:40:27Z</time></trkpt><trkpt lat="44.1211147" lon="10.3623067"><ele>609.0</ele><time>2026-04-14T12:40:30.999Z</time></trkpt><trkpt lat="44.1211907" lon="10.3623232"><ele>609.0</ele><time>2026-04-14T12:40:36Z</time></trkpt><trkpt lat="44.1212537" lon="10.3622948"><ele>609.0</ele><time>2026-04-14T12:40:40.999Z</time></trkpt><trkpt lat="44.1213022" lon="10.3622214"><ele>609.0</ele><time>2026-04-14T12:40:46Z</time></trkpt><trkpt lat="44.1213345" lon="10.3621294"><ele>609.0</ele><time>2026-04-14T12:40:51Z</time></trkpt><trkpt lat="44.1213606" lon="10.3620371"><ele>609.0</ele><time>2026-04-14T12:40:55.999Z</time></trkpt><trkpt lat="44.1213719" lon="10.3619466"><ele>609.0</ele><time>2026-04-14T12:41:00.999Z</time></trkpt><trkpt lat="44.1213912" lon="10.3618487"><ele>609.0</ele><time>2026-04-14T12:41:05.999Z</time></trkpt><trkpt lat="44.1214013" lon="10.3617518"><ele>609.0</ele><time>2026-04-14T12:41:11Z</time></trkpt><trkpt lat="44.1214256" lon="10.3616592"><ele>609.0</ele><time>2026-04-14T12:41:15.999Z</time></trkpt><trkpt lat="44.1214657" lon="10.3615734"><ele>609.0</ele><time>2026-04-14T12:41:21Z</time></trkpt><trkpt lat="44.121507" lon="10.3614954"><ele>609.0</ele><time>2026-04-14T12:41:25.999Z</time></trkpt><trkpt lat="44.1215453" lon="10.3614047"><ele>609.0</ele><time>2026-04-14T12:41:31Z</time></trkpt><trkpt lat="44.1215948" lon="10.3613323"><ele>609.0</ele><time>2026-04-14T12:41:37Z</time></trkpt><trkpt lat="44.121657" lon="10.3612753"><ele>609.0</ele><time>2026-04-14T12:41:41.999Z</time></trkpt><trkpt lat="44.1217199" lon="10.3612181"><ele>611.2857142857143</ele><time>2026-04-14T12:41:46.999Z</time></trkpt><trkpt lat="44.1217766" lon="10.3611591"><ele>613.5714285714286</ele><time>2026-04-14T12:41:51.999Z</time></trkpt><trkpt lat="44.1218427" lon="10.3611015"><ele>615.8571428571429</ele><time>2026-04-14T12:41:57Z</time></trkpt><trkpt lat="44.1219018" lon="10.3610458"><ele>618.1428571428571</ele><time>2026-04-14T12:42:02Z</time></trkpt><trkpt lat="44.1219629" lon="10.3609909"><ele>620.4285714285714</ele><time>2026-04-14T12:42:07Z</time></trkpt><trkpt lat="44.122024" lon="10.3609472"><ele>622.7142857142858</ele><time>2026-04-14T12:42:12Z</time></trkpt><trkpt lat="44.1220784" lon="10.360895"><ele>625.0</ele><time>2026-04-14T12:42:16.999Z</time></trkpt><trkpt lat="44.1221369" lon="10.3608286"><ele>625.0000000000001</ele><time>2026-04-14T12:42:21.999Z</time></trkpt><trkpt lat="44.1221974" lon="10.3607636"><ele>625.0</ele><time>2026-04-14T12:42:27Z</time></trkpt><trkpt lat="44.122254" lon="10.3607104"><ele>625.0</ele><time>2026-04-14T12:42:32Z</time></trkpt><trkpt lat="44.1223178" lon="10.3606646"><ele>625.0</ele><time>2026-04-14T12:42:36.999Z</time></trkpt><trkpt lat="44.122372" lon="10.360617"><ele>625.0</ele><time>2026-04-14T12:42:40.999Z</time></trkpt><trkpt lat="44.1224415" lon="10.3605635"><ele>625.0000000000001</ele><time>2026-04-14T12:42:46Z</time></trkpt><trkpt lat="44.1225029" lon="10.3605113"><ele>625.0</ele><time>2026-04-14T12:42:50.999Z</time></trkpt><trkpt lat="44.1225688" lon="10.3604725"><ele>625.7142857142858</ele><time>2026-04-14T12:42:55.999Z</time></trkpt><trkpt lat="44.1225311" lon="10.3603955"><ele>626.4285714285714</ele><time>2026-04-14T12:43:01.999Z</time></trkpt><trkpt lat="44.1224626" lon="10.3603652"><ele>627.1428571428571</ele><time>2026-04-14T12:43:06.999Z</time></trkpt><trkpt lat="44.1223925" lon="10.3603566"><ele>627.8571428571429</ele><time>2026-04-14T12:43:11.999Z</time></trkpt><trkpt lat="44.1223219" lon="10.3603497"><ele>628.5714285714286</ele><time>2026-04-14T12:43:17Z</time></trkpt><trkpt lat="44.1222492" lon="10.3603379"><ele>629.2857142857143</ele><time>2026-04-14T12:43:22Z</time></trkpt><trkpt lat="44.1221831" lon="10.3603323"><ele>630.0</ele><time>2026-04-14T12:43:27Z</time></trkpt><trkpt lat="44.1221139" lon="10.3603271"><ele>632.7142857142857</ele><time>2026-04-14T12:43:32Z</time></trkpt><trkpt lat="44.1220463" lon="10.3603271"><ele>635.4285714285714</ele><time>2026-04-14T12:43:37Z</time></trkpt><trkpt lat="44.1219722" lon="10.3603072"><ele>638.1428571428571</ele><time>2026-04-14T12:43:42Z</time></trkpt><trkpt lat="44.1218999" lon="10.3602865"><ele>640.8571428571429</ele><time>2026-04-14T12:43:47Z</time></trkpt><trkpt lat="44.1218296" lon="10.360272"><ele>643.5714285714286</ele><time>2026-04-14T12:43:51.999Z</time></trkpt><trkpt lat="44.1218393" lon="10.3601679"><ele>646.2857142857142</ele><time>2026-04-14T12:43:59Z</time></trkpt><trkpt lat="44.1218627" lon="10.3600731"><ele>649.0</ele><time>2026-04-14T12:44:03.999Z</time></trkpt><trkpt lat="44.1218879" lon="10.359983"><ele>648.9999999999999</ele><time>2026-04-14T12:44:09Z</time></trkpt><trkpt lat="44.1219161" lon="10.359903"><ele>649.0</ele><time>2026-04-14T12:44:14Z</time></trkpt><trkpt lat="44.1219452" lon="10.3598175"><ele>649.0</ele><time>2026-04-14T12:44:18.999Z</time></trkpt><trkpt lat="44.1219797" lon="10.3597425"><ele>649.0</ele><time>2026-04-14T12:44:23.999Z</time></trkpt><trkpt lat="44.1220511" lon="10.359744"><ele>649.0</ele><time>2026-04-14T12:44:28.999Z</time></trkpt><trkpt lat="44.1221193" lon="10.3597419"><ele>648.9999999999999</ele><time>2026-04-14T12:44:34Z</time></trkpt><trkpt lat="44.1221892" lon="10.3597293"><ele>649.0</ele><time>2026-04-14T12:44:41Z</time></trkpt><trkpt lat="44.1222542" lon="10.3597121"><ele>650.1428571428571</ele><time>2026-04-14T12:44:46Z</time></trkpt><trkpt lat="44.1223186" lon="10.3596993"><ele>651.2857142857142</ele><time>2026-04-14T12:44:50.999Z</time></trkpt><trkpt lat="44.1223873" lon="10.3596642"><ele>652.4285714285713</ele><time>2026-04-14T12:44:54.999Z</time></trkpt><trkpt lat="44.1224523" lon="10.3596301"><ele>653.5714285714286</ele><time>2026-04-14T12:44:58.999Z</time></trkpt><trkpt lat="44.1225135" lon="10.3595783"><ele>654.7142857142858</ele><time>2026-04-14T12:45:02.999Z</time></trkpt><trkpt lat="44.1225562" lon="10.3595132"><ele>655.8571428571428</ele><time>2026-04-14T12:45:06Z</time></trkpt><trkpt lat="44.1226018" lon="10.3593996"><ele>657.0</ele><time>2026-04-14T12:45:08.999Z</time></trkpt><trkpt lat="44.122685" lon="10.3593528"><ele>657.0</ele><time>2026-04-14T12:45:10.999Z</time></trkpt><trkpt lat="44.1227941" lon="10.3594168"><ele>657.0</ele><time>2026-04-14T12:45:12.999Z</time></trkpt><trkpt lat="44.1228771" lon="10.3594769"><ele>657.0</ele><time>2026-04-14T12:45:15Z</time></trkpt><trkpt lat="44.1229356" lon="10.3595167"><ele>657.0</ele><time>2026-04-14T12:45:16.999Z</time></trkpt><trkpt lat="44.1230039" lon="10.3595633"><ele>657.0</ele><time>2026-04-14T12:45:22Z</time></trkpt><trkpt lat="44.1230729" lon="10.3595987"><ele>657.0</ele><time>2026-04-14T12:45:27Z</time></trkpt><trkpt lat="44.1231362" lon="10.3596095"><ele>657.0</ele><time>2026-04-14T12:45:30.999Z</time></trkpt><trkpt lat="44.123199" lon="10.3595952"><ele>657.0</ele><time>2026-04-14T12:45:35.999Z</time></trkpt><trkpt lat="44.1232548" lon="10.3595474"><ele>657.0</ele><time>2026-04-14T12:45:42Z</time></trkpt><trkpt lat="44.1233044" lon="10.3594909"><ele>657.0</ele><time>2026-04-14T12:45:47Z</time></trkpt><trkpt lat="44.1233386" lon="10.3594066"><ele>657.0</ele><time>2026-04-14T12:45:50.999Z</time></trkpt><trkpt lat="44.1233548" lon="10.3593084"><ele>657.0</ele><time>2026-04-14T12:45:56Z</time></trkpt><trkpt lat="44.1233578" lon="10.3592102"><ele>657.0</ele><time>2026-04-14T12:46:00.999Z</time></trkpt><trkpt lat="44.1233565" lon="10.3591101"><ele>657.7142857142857</ele><time>2026-04-14T12:46:05.999Z</time></trkpt><trkpt lat="44.1233589" lon="10.3590087"><ele>658.4285714285714</ele><time>2026-04-14T12:46:11Z</time></trkpt><trkpt lat="44.1233614" lon="10.3589009"><ele>659.1428571428571</ele><time>2026-04-14T12:46:16Z</time></trkpt><trkpt lat="44.1233552" lon="10.3588119"><ele>659.8571428571429</ele><time>2026-04-14T12:46:20Z</time></trkpt><trkpt lat="44.1233427" lon="10.3587213"><ele>660.5714285714286</ele><time>2026-04-14T12:46:24Z</time></trkpt><trkpt lat="44.1233038" lon="10.3586447"><ele>661.2857142857143</ele><time>2026-04-14T12:46:28Z</time></trkpt><trkpt lat="44.1232623" lon="10.3585722"><ele>662.0</ele><time>2026-04-14T12:46:34Z</time></trkpt><trkpt lat="44.1232323" lon="10.3584931"><ele>664.2857142857143</ele><time>2026-04-14T12:46:38.999Z</time></trkpt><trkpt lat="44.1232154" lon="10.3584086"><ele>666.5714285714286</ele><time>2026-04-14T12:46:43Z</time></trkpt><trkpt lat="44.1231771" lon="10.3583155"><ele>668.8571428571429</ele><time>2026-04-14T12:46:47Z</time></trkpt><trkpt lat="44.1231323" lon="10.3582361"><ele>671.1428571428571</ele><time>2026-04-14T12:46:50.999Z</time></trkpt><trkpt lat="44.1230899" lon="10.3581534"><ele>673.4285714285714</ele><time>2026-04-14T12:46:56Z</time></trkpt><trkpt lat="44.1230538" lon="10.3580592"><ele>675.7142857142857</ele><time>2026-04-14T12:47:02.02Z</time></trkpt><trkpt lat="44.1230957" lon="10.3579814"><ele>678.0</ele><time>2026-04-14T12:47:07Z</time></trkpt><trkpt lat="44.123149" lon="10.3579185"><ele>677.5714285714286</ele><time>2026-04-14T12:47:13Z</time></trkpt><trkpt lat="44.1231863" lon="10.3578418"><ele>677.1428571428572</ele><time>2026-04-14T12:47:17.999Z</time></trkpt><trkpt lat="44.1232318" lon="10.3577612"><ele>676.7142857142858</ele><time>2026-04-14T12:47:22.999Z</time></trkpt><trkpt lat="44.1233019" lon="10.3577256"><ele>676.2857142857142</ele><time>2026-04-14T12:47:27Z</time></trkpt><trkpt lat="44.1233706" lon="10.3577327"><ele>675.8571428571429</ele><time>2026-04-14T12:47:30.957Z</time></trkpt><trkpt lat="44.1234196" lon="10.3578043"><ele>675.4285714285714</ele><time>2026-04-14T12:47:35Z</time></trkpt><trkpt lat="44.1234628" lon="10.3578942"><ele>675.0</ele><time>2026-04-14T12:47:40Z</time></trkpt><trkpt lat="44.1235079" lon="10.3579592"><ele>672.8333333333334</ele><time>2026-04-14T12:47:43Z</time></trkpt><trkpt lat="44.1235707" lon="10.3580355"><ele>670.6666666666666</ele><time>2026-04-14T12:47:45.999Z</time></trkpt><trkpt lat="44.1236425" lon="10.3580962"><ele>668.5</ele><time>2026-04-14T12:47:48.999Z</time></trkpt><trkpt lat="44.1237067" lon="10.3581475"><ele>666.3333333333333</ele><time>2026-04-14T12:47:51Z</time></trkpt><trkpt lat="44.1237608" lon="10.3582077"><ele>664.1666666666666</ele><time>2026-04-14T12:47:53Z</time></trkpt><trkpt lat="44.1238366" lon="10.3582692"><ele>662.0</ele><time>2026-04-14T12:47:55.999Z</time></trkpt><trkpt lat="44.1239234" lon="10.3582717"><ele>662.0</ele><time>2026-04-14T12:47:58.999Z</time></trkpt><trkpt lat="44.1239887" lon="10.3582536"><ele>662.0</ele><time>2026-04-14T12:48:02Z</time></trkpt><trkpt lat="44.1240577" lon="10.358238"><ele>662.0</ele><time>2026-04-14T12:48:07Z</time></trkpt><trkpt lat="44.1241235" lon="10.3582154"><ele>662.0</ele><time>2026-04-14T12:48:12Z</time></trkpt><trkpt lat="44.1241925" lon="10.3582023"><ele>662.0</ele><time>2026-04-14T12:48:16Z</time></trkpt><trkpt lat="44.1242723" lon="10.3581754"><ele>662.0</ele><time>2026-04-14T12:48:18.999Z</time></trkpt><trkpt lat="44.1243496" lon="10.3581522"><ele>662.0</ele><time>2026-04-14T12:48:23Z</time></trkpt><trkpt lat="44.1244197" lon="10.3581235"><ele>661.5714285714286</ele><time>2026-04-14T12:48:27Z</time></trkpt><trkpt lat="44.1244865" lon="10.3580848"><ele>661.1428571428571</ele><time>2026-04-14T12:48:31Z</time></trkpt><trkpt lat="44.1245477" lon="10.3580377"><ele>660.7142857142858</ele><time>2026-04-14T12:48:35.999Z</time></trkpt><trkpt lat="44.1246018" lon="10.3579871"><ele>660.2857142857142</ele><time>2026-04-14T12:48:40Z</time></trkpt><trkpt lat="44.1246435" lon="10.3579022"><ele>659.8571428571428</ele><time>2026-04-14T12:48:45Z</time></trkpt><trkpt lat="44.1246636" lon="10.3578157"><ele>659.4285714285714</ele><time>2026-04-14T12:48:49Z</time></trkpt><trkpt lat="44.1246658" lon="10.3577264"><ele>659.0</ele><time>2026-04-14T12:48:53Z</time></trkpt><trkpt lat="44.1246922" lon="10.3576409"><ele>660.8571428571429</ele><time>2026-04-14T12:48:57.999Z</time></trkpt><trkpt lat="44.1247458" lon="10.3575902"><ele>662.7142857142857</ele><time>2026-04-14T12:49:04Z</time></trkpt><trkpt lat="44.1247864" lon="10.3575115"><ele>664.5714285714286</ele><time>2026-04-14T12:49:11Z</time></trkpt><trkpt lat="44.1248296" lon="10.3574427"><ele>666.4285714285714</ele><time>2026-04-14T12:49:18Z</time></trkpt><trkpt lat="44.1247751" lon="10.357501"><ele>668.2857142857142</ele><time>2026-04-14T12:49:30.999Z</time></trkpt><trkpt lat="44.124734" lon="10.3575903"><ele>670.1428571428571</ele><time>2026-04-14T12:49:34.999Z</time></trkpt><trkpt lat="44.1246893" lon="10.3575193"><ele>672.0</ele><time>2026-04-14T12:49:44Z</time></trkpt><trkpt lat="44.124694" lon="10.3574271"><ele>672.0</ele><time>2026-04-14T12:49:48.999Z</time></trkpt><trkpt lat="44.1247126" lon="10.3573322"><ele>672.0</ele><time>2026-04-14T12:49:59.999Z</time></trkpt><trkpt lat="44.124687" lon="10.3574148"><ele>672.0</ele><time>2026-04-14T12:50:43Z</time></trkpt><trkpt lat="44.1246947" lon="10.3575048"><ele>672.0</ele><time>2026-04-14T12:50:46.999Z</time></trkpt><trkpt lat="44.1246858" lon="10.3576"><ele>672.0</ele><time>2026-04-14T12:50:52Z</time></trkpt><trkpt lat="44.1246315" lon="10.3576691"><ele>672.0</ele><time>2026-04-14T12:50:57.999Z</time></trkpt><trkpt lat="44.1246544" lon="10.3577674"><ele>672.0</ele><time>2026-04-14T12:51:03.999Z</time></trkpt><trkpt lat="44.1247051" lon="10.3578475"><ele>672.0</ele><time>2026-04-14T12:51:08Z</time></trkpt><trkpt lat="44.1246669" lon="10.3577627"><ele>672.0</ele><time>2026-04-14T12:51:30.999Z</time></trkpt><trkpt lat="44.1246449" lon="10.3576701"><ele>672.0</ele><time>2026-04-14T12:51:35.999Z</time></trkpt><trkpt lat="44.1246179" lon="10.357576"><ele>672.0</ele><time>2026-04-14T12:51:41Z</time></trkpt><trkpt lat="44.1245988" lon="10.3574799"><ele>672.0</ele><time>2026-04-14T12:51:46Z</time></trkpt><trkpt lat="44.1245721" lon="10.3573914"><ele>672.0</ele><time>2026-04-14T12:51:51Z</time></trkpt><trkpt lat="44.1245411" lon="10.3573065"><ele>672.0</ele><time>2026-04-14T12:51:56Z</time></trkpt><trkpt lat="44.1244929" lon="10.3572427"><ele>672.0</ele><time>2026-04-14T12:52:00Z</time></trkpt><trkpt lat="44.1244338" lon="10.357204"><ele>672.0</ele><time>2026-04-14T12:52:04.999Z</time></trkpt><trkpt lat="44.1243709" lon="10.3572204"><ele>672.0</ele><time>2026-04-14T12:52:09.999Z</time></trkpt><trkpt lat="44.124308" lon="10.3572545"><ele>672.0</ele><time>2026-04-14T12:52:15Z</time></trkpt><trkpt lat="44.1242467" lon="10.3572986"><ele>672.0</ele><time>2026-04-14T12:52:19.999Z</time></trkpt><trkpt lat="44.1241762" lon="10.3573355"><ele>672.0</ele><time>2026-04-14T12:52:26Z</time></trkpt><trkpt lat="44.1241107" lon="10.3573246"><ele>672.0</ele><time>2026-04-14T12:52:30Z</time></trkpt><trkpt lat="44.124043" lon="10.3572775"><ele>672.4285714285714</ele><time>2026-04-14T12:52:36Z</time></trkpt><trkpt lat="44.1239982" lon="10.3572091"><ele>672.8571428571429</ele><time>2026-04-14T12:52:42Z</time></trkpt><trkpt lat="44.123975" lon="10.3571162"><ele>673.2857142857142</ele><time>2026-04-14T12:52:47Z</time></trkpt><trkpt lat="44.1239988" lon="10.3570347"><ele>673.7142857142858</ele><time>2026-04-14T12:52:52Z</time></trkpt><trkpt lat="44.1240118" lon="10.3569422"><ele>674.1428571428571</ele><time>2026-04-14T12:52:58Z</time></trkpt><trkpt lat="44.1240007" lon="10.3568518"><ele>674.5714285714286</ele><time>2026-04-14T12:53:03Z</time></trkpt><trkpt lat="44.1239854" lon="10.3567573"><ele>675.0</ele><time>2026-04-14T12:53:08Z</time></trkpt><trkpt lat="44.1239774" lon="10.3566544"><ele>677.7142857142857</ele><time>2026-04-14T12:53:13Z</time></trkpt><trkpt lat="44.1239602" lon="10.3565613"><ele>680.4285714285714</ele><time>2026-04-14T12:53:18Z</time></trkpt><trkpt lat="44.1239295" lon="10.356474"><ele>683.1428571428571</ele><time>2026-04-14T12:53:23Z</time></trkpt><trkpt lat="44.1238879" lon="10.3564075"><ele>685.8571428571429</ele><time>2026-04-14T12:53:27.999Z</time></trkpt><trkpt lat="44.1238352" lon="10.3563526"><ele>688.5714285714286</ele><time>2026-04-14T12:53:33Z</time></trkpt><trkpt lat="44.1237927" lon="10.3562738"><ele>691.2857142857143</ele><time>2026-04-14T12:53:39Z</time></trkpt><trkpt lat="44.1237539" lon="10.3562039"><ele>694.0</ele><time>2026-04-14T12:53:44Z</time></trkpt><trkpt lat="44.1237171" lon="10.3561312"><ele>696.0</ele><time>2026-04-14T12:53:48Z</time></trkpt><trkpt lat="44.1236919" lon="10.3560354"><ele>698.0</ele><time>2026-04-14T12:53:54Z</time></trkpt><trkpt lat="44.1236579" lon="10.3559569"><ele>700.0</ele><time>2026-04-14T12:53:58Z</time></trkpt><trkpt lat="44.1236282" lon="10.3558664"><ele>702.0</ele><time>2026-04-14T12:54:01.999Z</time></trkpt><trkpt lat="44.1235956" lon="10.3557806"><ele>704.0</ele><time>2026-04-14T12:54:06Z</time></trkpt><trkpt lat="44.1235593" lon="10.355701"><ele>706.0</ele><time>2026-04-14T12:54:09.999Z</time></trkpt><trkpt lat="44.1234961" lon="10.3556402"><ele>708.0</ele><time>2026-04-14T12:54:14Z</time></trkpt><trkpt lat="44.1234342" lon="10.3555882"><ele>709.7142857142858</ele><time>2026-04-14T12:54:17.999Z</time></trkpt><trkpt lat="44.1233921" lon="10.3555007"><ele>711.4285714285713</ele><time>2026-04-14T12:54:21.999Z</time></trkpt><trkpt lat="44.1233651" lon="10.355413"><ele>713.1428571428571</ele><time>2026-04-14T12:54:25.999Z</time></trkpt><trkpt lat="44.1233513" lon="10.3553174"><ele>714.8571428571429</ele><time>2026-04-14T12:54:32Z</time></trkpt><trkpt lat="44.12332" lon="10.3552209"><ele>716.5714285714287</ele><time>2026-04-14T12:54:37Z</time></trkpt><trkpt lat="44.1232957" lon="10.3551303"><ele>718.2857142857142</ele><time>2026-04-14T12:54:41Z</time></trkpt><trkpt lat="44.1232658" lon="10.3550443"><ele>720.0</ele><time>2026-04-14T12:54:45Z</time></trkpt><trkpt lat="44.1232297" lon="10.3549466"><ele>723.5714285714286</ele><time>2026-04-14T12:54:48.999Z</time></trkpt><trkpt lat="44.1232055" lon="10.35486"><ele>727.1428571428572</ele><time>2026-04-14T12:54:53Z</time></trkpt><trkpt lat="44.1231659" lon="10.3547554"><ele>730.7142857142858</ele><time>2026-04-14T12:54:57Z</time></trkpt><trkpt lat="44.1231419" lon="10.3546666"><ele>734.2857142857142</ele><time>2026-04-14T12:55:01Z</time></trkpt><trkpt lat="44.1231492" lon="10.3545671"><ele>737.8571428571429</ele><time>2026-04-14T12:55:06Z</time></trkpt><trkpt lat="44.1231359" lon="10.3544626"><ele>741.4285714285714</ele><time>2026-04-14T12:55:09.999Z</time></trkpt><trkpt lat="44.1231374" lon="10.3543673"><ele>745.0</ele><time>2026-04-14T12:55:14Z</time></trkpt><trkpt lat="44.12313" lon="10.3542798"><ele>747.4285714285714</ele><time>2026-04-14T12:55:17.999Z</time></trkpt><trkpt lat="44.1231194" lon="10.3541927"><ele>749.8571428571429</ele><time>2026-04-14T12:55:21.999Z</time></trkpt><trkpt lat="44.1230985" lon="10.3540918"><ele>752.2857142857142</ele><time>2026-04-14T12:55:27Z</time></trkpt><trkpt lat="44.1230765" lon="10.3539906"><ele>754.7142857142858</ele><time>2026-04-14T12:55:31.999Z</time></trkpt><trkpt lat="44.1230595" lon="10.3539026"><ele>757.1428571428572</ele><time>2026-04-14T12:55:35.999Z</time></trkpt><trkpt lat="44.1230533" lon="10.3538037"><ele>759.5714285714286</ele><time>2026-04-14T12:55:40Z</time></trkpt><trkpt lat="44.1230675" lon="10.3536973"><ele>762.0</ele><time>2026-04-14T12:55:43.999Z</time></trkpt><trkpt lat="44.1230693" lon="10.3536083"><ele>763.0</ele><time>2026-04-14T12:55:46.999Z</time></trkpt><trkpt lat="44.1230729" lon="10.3535012"><ele>764.0</ele><time>2026-04-14T12:55:50.999Z</time></trkpt><trkpt lat="44.1230588" lon="10.3534116"><ele>765.0</ele><time>2026-04-14T12:55:55Z</time></trkpt><trkpt lat="44.1230388" lon="10.3533132"><ele>766.0</ele><time>2026-04-14T12:55:59.999Z</time></trkpt><trkpt lat="44.123013" lon="10.3532152"><ele>767.0</ele><time>2026-04-14T12:56:04Z</time></trkpt><trkpt lat="44.1229975" lon="10.3531208"><ele>768.0</ele><time>2026-04-14T12:56:08Z</time></trkpt><trkpt lat="44.1229964" lon="10.3530126"><ele>769.0</ele><time>2026-04-14T12:56:13Z</time></trkpt><trkpt lat="44.1229694" lon="10.352919"><ele>769.0</ele><time>2026-04-14T12:56:17Z</time></trkpt><trkpt lat="44.122931" lon="10.3528239"><ele>769.0</ele><time>2026-04-14T12:56:21Z</time></trkpt><trkpt lat="44.122887" lon="10.3527516"><ele>769.0</ele><time>2026-04-14T12:56:25Z</time></trkpt><trkpt lat="44.122837" lon="10.3526784"><ele>769.0</ele><time>2026-04-14T12:56:29.999Z</time></trkpt><trkpt lat="44.1227905" lon="10.3526078"><ele>769.0</ele><time>2026-04-14T12:56:34Z</time></trkpt><trkpt lat="44.1227605" lon="10.3525218"><ele>769.0</ele><time>2026-04-14T12:56:39Z</time></trkpt><trkpt lat="44.1226858" lon="10.3524959"><ele>769.0</ele><time>2026-04-14T12:56:45Z</time></trkpt><trkpt lat="44.1226109" lon="10.3525435"><ele>769.0</ele><time>2026-04-14T12:56:49.999Z</time></trkpt><trkpt lat="44.1225682" lon="10.3526117"><ele>769.0</ele><time>2026-04-14T12:56:54Z</time></trkpt><trkpt lat="44.1225113" lon="10.3526887"><ele>769.0</ele><time>2026-04-14T12:56:58Z</time></trkpt><trkpt lat="44.1224718" lon="10.3527734"><ele>769.0</ele><time>2026-04-14T12:57:02Z</time></trkpt><trkpt lat="44.1224125" lon="10.3528542"><ele>769.0</ele><time>2026-04-14T12:57:07Z</time></trkpt><trkpt lat="44.1223879" lon="10.3529481"><ele>769.0</ele><time>2026-04-14T12:57:12Z</time></trkpt><trkpt lat="44.1223626" lon="10.3530425"><ele>769.0</ele><time>2026-04-14T12:57:17Z</time></trkpt><trkpt lat="44.1223385" lon="10.3531341"><ele>771.4285714285714</ele><time>2026-04-14T12:57:22Z</time></trkpt><trkpt lat="44.1223104" lon="10.353215"><ele>773.8571428571429</ele><time>2026-04-14T12:57:25.999Z</time></trkpt><trkpt lat="44.1223011" lon="10.3533112"><ele>776.2857142857143</ele><time>2026-04-14T12:57:30Z</time></trkpt><trkpt lat="44.1223185" lon="10.3534113"><ele>778.7142857142858</ele><time>2026-04-14T12:57:35Z</time></trkpt><trkpt lat="44.1223133" lon="10.3535016"><ele>781.1428571428571</ele><time>2026-04-14T12:57:39Z</time></trkpt><trkpt lat="44.1223035" lon="10.3535994"><ele>783.5714285714287</ele><time>2026-04-14T12:57:42.999Z</time></trkpt><trkpt lat="44.1222978" lon="10.3536925"><ele>786.0</ele><time>2026-04-14T12:57:46.999Z</time></trkpt><trkpt lat="44.1223041" lon="10.3537982"><ele>785.2857142857143</ele><time>2026-04-14T12:57:51.999Z</time></trkpt><trkpt lat="44.1222711" lon="10.353879"><ele>784.5714285714286</ele><time>2026-04-14T12:57:56.999Z</time></trkpt><trkpt lat="44.1222398" lon="10.3539617"><ele>783.8571428571429</ele><time>2026-04-14T12:58:01.999Z</time></trkpt><trkpt lat="44.1222088" lon="10.354044"><ele>783.1428571428571</ele><time>2026-04-14T12:58:06Z</time></trkpt><trkpt lat="44.1221668" lon="10.3541316"><ele>782.4285714285714</ele><time>2026-04-14T12:58:11Z</time></trkpt><trkpt lat="44.1221222" lon="10.35421"><ele>781.7142857142858</ele><time>2026-04-14T12:58:15.999Z</time></trkpt><trkpt lat="44.1220704" lon="10.3542761"><ele>781.0</ele><time>2026-04-14T12:58:20Z</time></trkpt><trkpt lat="44.1220166" lon="10.3543491"><ele>781.0</ele><time>2026-04-14T12:58:25Z</time></trkpt><trkpt lat="44.1219644" lon="10.3544147"><ele>781.0</ele><time>2026-04-14T12:58:29.999Z</time></trkpt><trkpt lat="44.1219126" lon="10.3544849"><ele>781.0</ele><time>2026-04-14T12:58:34.999Z</time></trkpt><trkpt lat="44.1218686" lon="10.3545641"><ele>781.0</ele><time>2026-04-14T12:58:40Z</time></trkpt><trkpt lat="44.1218182" lon="10.3546378"><ele>781.0</ele><time>2026-04-14T12:58:45Z</time></trkpt><trkpt lat="44.1217646" lon="10.3546989"><ele>781.0</ele><time>2026-04-14T12:58:50.004Z</time></trkpt><trkpt lat="44.1217247" lon="10.3547687"><ele>781.0</ele><time>2026-04-14T12:58:53.999Z</time></trkpt><trkpt lat="44.1216824" lon="10.3548343"><ele>779.8571428571429</ele><time>2026-04-14T12:58:57.999Z</time></trkpt><trkpt lat="44.121629" lon="10.3548873"><ele>778.7142857142858</ele><time>2026-04-14T12:59:02Z</time></trkpt><trkpt lat="44.1215741" lon="10.3549402"><ele>777.5714285714286</ele><time>2026-04-14T12:59:05.999Z</time></trkpt><trkpt lat="44.1215153" lon="10.3550129"><ele>776.4285714285714</ele><time>2026-04-14T12:59:11Z</time></trkpt><trkpt lat="44.1214722" lon="10.3550877"><ele>775.2857142857142</ele><time>2026-04-14T12:59:16Z</time></trkpt><trkpt lat="44.1214173" lon="10.3551514"><ele>774.1428571428571</ele><time>2026-04-14T12:59:21Z</time></trkpt><trkpt lat="44.1213502" lon="10.3551819"><ele>773.0</ele><time>2026-04-14T12:59:26Z</time></trkpt><trkpt lat="44.1212764" lon="10.3551751"><ele>777.1428571428571</ele><time>2026-04-14T12:59:29.999Z</time></trkpt><trkpt lat="44.121204" lon="10.3551371"><ele>781.2857142857142</ele><time>2026-04-14T12:59:34Z</time></trkpt><trkpt lat="44.121141" lon="10.3551043"><ele>785.4285714285714</ele><time>2026-04-14T12:59:38Z</time></trkpt><trkpt lat="44.1210718" lon="10.355074"><ele>789.5714285714286</ele><time>2026-04-14T12:59:41.999Z</time></trkpt><trkpt lat="44.1210025" lon="10.3550787"><ele>793.7142857142858</ele><time>2026-04-14T12:59:47Z</time></trkpt><trkpt lat="44.1209421" lon="10.3551078"><ele>797.8571428571429</ele><time>2026-04-14T12:59:51Z</time></trkpt><trkpt lat="44.1208807" lon="10.3551407"><ele>802.0</ele><time>2026-04-14T12:59:55Z</time></trkpt><trkpt lat="44.1208175" lon="10.3551727"><ele>802.0</ele><time>2026-04-14T12:59:57.999Z</time></trkpt><trkpt lat="44.1207536" lon="10.3552302"><ele>802.0</ele><time>2026-04-14T13:00:02Z</time></trkpt><trkpt lat="44.1207083" lon="10.3553166"><ele>802.0</ele><time>2026-04-14T13:00:06Z</time></trkpt><trkpt lat="44.1206627" lon="10.3553827"><ele>802.0</ele><time>2026-04-14T13:00:09Z</time></trkpt><trkpt lat="44.1206125" lon="10.355455"><ele>802.0</ele><time>2026-04-14T13:00:12.999Z</time></trkpt><trkpt lat="44.1205642" lon="10.3555281"><ele>802.0</ele><time>2026-04-14T13:00:17Z</time></trkpt><trkpt lat="44.1205173" lon="10.3556009"><ele>802.0</ele><time>2026-04-14T13:00:20.999Z</time></trkpt><trkpt lat="44.120474" lon="10.3556734"><ele>801.8571428571429</ele><time>2026-04-14T13:00:25Z</time></trkpt><trkpt lat="44.1204144" lon="10.355733"><ele>801.7142857142858</ele><time>2026-04-14T13:00:29Z</time></trkpt><trkpt lat="44.1203506" lon="10.3558001"><ele>801.5714285714286</ele><time>2026-04-14T13:00:33Z</time></trkpt><trkpt lat="44.120297" lon="10.3558701"><ele>801.4285714285714</ele><time>2026-04-14T13:00:37Z</time></trkpt><trkpt lat="44.1202336" lon="10.3559321"><ele>801.2857142857142</ele><time>2026-04-14T13:00:41.999Z</time></trkpt><trkpt lat="44.1201672" lon="10.3559767"><ele>801.1428571428571</ele><time>2026-04-14T13:00:47Z</time></trkpt><trkpt lat="44.1201111" lon="10.3560201"><ele>801.0</ele><time>2026-04-14T13:00:51Z</time></trkpt><trkpt lat="44.1200405" lon="10.3560351"><ele>801.0</ele><time>2026-04-14T13:00:55Z</time></trkpt><trkpt lat="44.119977" lon="10.3560293"><ele>801.0</ele><time>2026-04-14T13:01:00Z</time></trkpt><trkpt lat="44.1198986" lon="10.3560458"><ele>801.0</ele><time>2026-04-14T13:01:03.999Z</time></trkpt><trkpt lat="44.1198309" lon="10.3560324"><ele>801.0</ele><time>2026-04-14T13:01:08.999Z</time></trkpt><trkpt lat="44.1197659" lon="10.3560552"><ele>801.0</ele><time>2026-04-14T13:01:13Z</time></trkpt><trkpt lat="44.1196958" lon="10.3560683"><ele>801.0</ele><time>2026-04-14T13:01:17Z</time></trkpt><trkpt lat="44.1196306" lon="10.3560825"><ele>801.0</ele><time>2026-04-14T13:01:21Z</time></trkpt><trkpt lat="44.1195579" lon="10.3560798"><ele>799.8571428571429</ele><time>2026-04-14T13:01:25Z</time></trkpt><trkpt lat="44.1194891" lon="10.3560384"><ele>798.7142857142857</ele><time>2026-04-14T13:01:28.999Z</time></trkpt><trkpt lat="44.1194433" lon="10.355961"><ele>797.5714285714287</ele><time>2026-04-14T13:01:33Z</time></trkpt><trkpt lat="44.1194134" lon="10.3558715"><ele>796.4285714285714</ele><time>2026-04-14T13:01:36.999Z</time></trkpt><trkpt lat="44.1193902" lon="10.3557895"><ele>795.2857142857143</ele><time>2026-04-14T13:01:41Z</time></trkpt><trkpt lat="44.1193813" lon="10.3556998"><ele>794.1428571428572</ele><time>2026-04-14T13:01:45Z</time></trkpt><trkpt lat="44.1193926" lon="10.3555957"><ele>793.0</ele><time>2026-04-14T13:01:50Z</time></trkpt><trkpt lat="44.1194072" lon="10.3554937"><ele>795.4285714285714</ele><time>2026-04-14T13:01:55Z</time></trkpt><trkpt lat="44.1193982" lon="10.3554005"><ele>797.8571428571429</ele><time>2026-04-14T13:01:58.999Z</time></trkpt><trkpt lat="44.1193827" lon="10.3553045"><ele>800.2857142857142</ele><time>2026-04-14T13:02:03Z</time></trkpt><trkpt lat="44.1193435" lon="10.355212"><ele>802.7142857142858</ele><time>2026-04-14T13:02:07Z</time></trkpt><trkpt lat="44.1192813" lon="10.3551353"><ele>805.1428571428571</ele><time>2026-04-14T13:02:10.999Z</time></trkpt><trkpt lat="44.1192234" lon="10.3550778"><ele>807.5714285714286</ele><time>2026-04-14T13:02:14Z</time></trkpt><trkpt lat="44.1191536" lon="10.3550299"><ele>810.0</ele><time>2026-04-14T13:02:17.999Z</time></trkpt><trkpt lat="44.1190983" lon="10.3549861"><ele>807.6666666666666</ele><time>2026-04-14T13:02:21Z</time></trkpt><trkpt lat="44.1190249" lon="10.3549309"><ele>805.3333333333333</ele><time>2026-04-14T13:02:25Z</time></trkpt><trkpt lat="44.1189607" lon="10.3548783"><ele>803.0</ele><time>2026-04-14T13:02:28Z</time></trkpt><trkpt lat="44.1189035" lon="10.3548287"><ele>800.6666666666666</ele><time>2026-04-14T13:02:30.999Z</time></trkpt><trkpt lat="44.1188423" lon="10.3547709"><ele>798.3333333333333</ele><time>2026-04-14T13:02:33.999Z</time></trkpt><trkpt lat="44.1187729" lon="10.354705"><ele>796.0</ele><time>2026-04-14T13:02:36.999Z</time></trkpt><trkpt lat="44.1187009" lon="10.3546423"><ele>796.9999999999999</ele><time>2026-04-14T13:02:40Z</time></trkpt><trkpt lat="44.1186378" lon="10.3546016"><ele>798.0</ele><time>2026-04-14T13:02:43Z</time></trkpt><trkpt lat="44.1185533" lon="10.3545711"><ele>799.0</ele><time>2026-04-14T13:02:46Z</time></trkpt><trkpt lat="44.1184842" lon="10.354579"><ele>800.0</ele><time>2026-04-14T13:02:49Z</time></trkpt><trkpt lat="44.1184158" lon="10.3545628"><ele>801.0</ele><time>2026-04-14T13:02:52Z</time></trkpt><trkpt lat="44.1183456" lon="10.354528"><ele>801.9999999999999</ele><time>2026-04-14T13:02:55Z</time></trkpt><trkpt lat="44.1182911" lon="10.3544739"><ele>803.0</ele><time>2026-04-14T13:02:58Z</time></trkpt><trkpt lat="44.1182321" lon="10.3543923"><ele>803.0000000000001</ele><time>2026-04-14T13:03:01Z</time></trkpt><trkpt lat="44.1181666" lon="10.3543385"><ele>803.0</ele><time>2026-04-14T13:03:03Z</time></trkpt><trkpt lat="44.1181013" lon="10.3543175"><ele>803.0</ele><time>2026-04-14T13:03:05Z</time></trkpt><trkpt lat="44.1180242" lon="10.3542961"><ele>803.0</ele><time>2026-04-14T13:03:09Z</time></trkpt><trkpt lat="44.117957" lon="10.354224"><ele>803.0000000000001</ele><time>2026-04-14T13:03:14Z</time></trkpt><trkpt lat="44.1179161" lon="10.3541416"><ele>803.0</ele><time>2026-04-14T13:03:17Z</time></trkpt><trkpt lat="44.1178562" lon="10.354072"><ele>802.9999999999999</ele><time>2026-04-14T13:03:20Z</time></trkpt><trkpt lat="44.1177837" lon="10.3540628"><ele>803.0</ele><time>2026-04-14T13:03:23Z</time></trkpt><trkpt lat="44.1177146" lon="10.3540609"><ele>803.0</ele><time>2026-04-14T13:03:26Z</time></trkpt><trkpt lat="44.117646" lon="10.3540422"><ele>803.0</ele><time>2026-04-14T13:03:29Z</time></trkpt><trkpt lat="44.1175832" lon="10.3539935"><ele>803.0</ele><time>2026-04-14T13:03:31.999Z</time></trkpt><trkpt lat="44.1175225" lon="10.3539331"><ele>802.9999999999999</ele><time>2026-04-14T13:03:35Z</time></trkpt><trkpt lat="44.1174468" lon="10.353897"><ele>803.0</ele><time>2026-04-14T13:03:37.999Z</time></trkpt><trkpt lat="44.1173602" lon="10.3539063"><ele>803.5714285714286</ele><time>2026-04-14T13:03:42Z</time></trkpt><trkpt lat="44.1172904" lon="10.3539113"><ele>804.1428571428571</ele><time>2026-04-14T13:03:44.999Z</time></trkpt><trkpt lat="44.117221" lon="10.3539095"><ele>804.7142857142858</ele><time>2026-04-14T13:03:47.999Z</time></trkpt><trkpt lat="44.1171496" lon="10.3539233"><ele>805.2857142857142</ele><time>2026-04-14T13:03:51Z</time></trkpt><trkpt lat="44.117081" lon="10.3539352"><ele>805.8571428571429</ele><time>2026-04-14T13:03:54Z</time></trkpt><trkpt lat="44.1170025" lon="10.3539587"><ele>806.4285714285714</ele><time>2026-04-14T13:03:58Z</time></trkpt><trkpt lat="44.11694" lon="10.3539436"><ele>807.0</ele><time>2026-04-14T13:04:01Z</time></trkpt><trkpt lat="44.1168634" lon="10.3539193"><ele>807.0000000000001</ele><time>2026-04-14T13:04:05Z</time></trkpt><trkpt lat="44.1167931" lon="10.3539187"><ele>807.0</ele><time>2026-04-14T13:04:08Z</time></trkpt><trkpt lat="44.1167311" lon="10.3538825"><ele>807.0</ele><time>2026-04-14T13:04:12Z</time></trkpt><trkpt lat="44.1166647" lon="10.3538597"><ele>807.0</ele><time>2026-04-14T13:04:15Z</time></trkpt><trkpt lat="44.1166001" lon="10.3538659"><ele>807.0</ele><time>2026-04-14T13:04:18Z</time></trkpt><trkpt lat="44.1165229" lon="10.3538964"><ele>807.0000000000001</ele><time>2026-04-14T13:04:21.999Z</time></trkpt><trkpt lat="44.1164717" lon="10.3539792"><ele>807.0</ele><time>2026-04-14T13:04:27Z</time></trkpt><trkpt lat="44.1164754" lon="10.3540873"><ele>807.0000000000001</ele><time>2026-04-14T13:04:31.999Z</time></trkpt><trkpt lat="44.1165066" lon="10.3541852"><ele>807.0</ele><time>2026-04-14T13:04:37Z</time></trkpt><trkpt lat="44.1165484" lon="10.35427"><ele>807.0</ele><time>2026-04-14T13:04:41.999Z</time></trkpt><trkpt lat="44.1165856" lon="10.354365"><ele>807.0</ele><time>2026-04-14T13:04:46.999Z</time></trkpt><trkpt lat="44.1165933" lon="10.3544544"><ele>807.0</ele><time>2026-04-14T13:04:51Z</time></trkpt><trkpt lat="44.1165684" lon="10.3545432"><ele>807.0000000000001</ele><time>2026-04-14T13:04:55Z</time></trkpt><trkpt lat="44.1165436" lon="10.3546385"><ele>807.0</ele><time>2026-04-14T13:05:00Z</time></trkpt><trkpt lat="44.1165201" lon="10.3547283"><ele>810.4285714285714</ele><time>2026-04-14T13:05:04Z</time></trkpt><trkpt lat="44.116512" lon="10.3548197"><ele>813.8571428571429</ele><time>2026-04-14T13:05:08Z</time></trkpt><trkpt lat="44.1164864" lon="10.3549146"><ele>817.2857142857142</ele><time>2026-04-14T13:05:11.999Z</time></trkpt><trkpt lat="44.1164477" lon="10.3550009"><ele>820.7142857142858</ele><time>2026-04-14T13:05:16Z</time></trkpt><trkpt lat="44.116397" lon="10.3550946"><ele>824.1428571428571</ele><time>2026-04-14T13:05:20Z</time></trkpt><trkpt lat="44.1163524" lon="10.3551848"><ele>827.5714285714286</ele><time>2026-04-14T13:05:24Z</time></trkpt><trkpt lat="44.1163073" lon="10.3552599"><ele>831.0</ele><time>2026-04-14T13:05:28Z</time></trkpt><trkpt lat="44.1162658" lon="10.355328"><ele>830.9999999999999</ele><time>2026-04-14T13:05:31.999Z</time></trkpt><trkpt lat="44.1162326" lon="10.355411"><ele>831.0</ele><time>2026-04-14T13:05:36Z</time></trkpt><trkpt lat="44.1161863" lon="10.3554923"><ele>831.0</ele><time>2026-04-14T13:05:40.999Z</time></trkpt><trkpt lat="44.1161609" lon="10.355582"><ele>831.0</ele><time>2026-04-14T13:05:45Z</time></trkpt><trkpt lat="44.1161255" lon="10.3556842"><ele>831.0</ele><time>2026-04-14T13:05:49Z</time></trkpt><trkpt lat="44.1161005" lon="10.3557655"><ele>830.9999999999999</ele><time>2026-04-14T13:05:52Z</time></trkpt><trkpt lat="44.1160645" lon="10.3558581"><ele>831.0</ele><time>2026-04-14T13:05:56Z</time></trkpt><trkpt lat="44.1160272" lon="10.3559323"><ele>829.9999999999999</ele><time>2026-04-14T13:06:00Z</time></trkpt><trkpt lat="44.1159826" lon="10.356003"><ele>829.0</ele><time>2026-04-14T13:06:04Z</time></trkpt><trkpt lat="44.1159217" lon="10.3560495"><ele>828.0</ele><time>2026-04-14T13:06:08Z</time></trkpt><trkpt lat="44.1158553" lon="10.3560616"><ele>827.0</ele><time>2026-04-14T13:06:12Z</time></trkpt><trkpt lat="44.1157831" lon="10.3560833"><ele>826.0</ele><time>2026-04-14T13:06:16Z</time></trkpt><trkpt lat="44.1157388" lon="10.3561628"><ele>824.9999999999999</ele><time>2026-04-14T13:06:21Z</time></trkpt><trkpt lat="44.1157443" lon="10.3562544"><ele>824.0</ele><time>2026-04-14T13:06:24.999Z</time></trkpt><trkpt lat="44.1157746" lon="10.3563507"><ele>821.8571428571428</ele><time>2026-04-14T13:06:29Z</time></trkpt><trkpt lat="44.1158006" lon="10.3564529"><ele>819.7142857142857</ele><time>2026-04-14T13:06:32.999Z</time></trkpt><trkpt lat="44.1158034" lon="10.3565462"><ele>817.5714285714286</ele><time>2026-04-14T13:06:36.999Z</time></trkpt><trkpt lat="44.1157779" lon="10.3566286"><ele>815.4285714285713</ele><time>2026-04-14T13:06:41Z</time></trkpt><trkpt lat="44.1157313" lon="10.3566921"><ele>813.2857142857143</ele><time>2026-04-14T13:06:44Z</time></trkpt><trkpt lat="44.1156802" lon="10.3567729"><ele>811.1428571428571</ele><time>2026-04-14T13:06:49Z</time></trkpt><trkpt lat="44.1156279" lon="10.3568423"><ele>809.0</ele><time>2026-04-14T13:06:53.999Z</time></trkpt><trkpt lat="44.1155847" lon="10.3569206"><ele>813.2857142857143</ele><time>2026-04-14T13:06:58Z</time></trkpt><trkpt lat="44.1155317" lon="10.3569975"><ele>817.5714285714287</ele><time>2026-04-14T13:07:01.999Z</time></trkpt><trkpt lat="44.115492" lon="10.3570755"><ele>821.8571428571429</ele><time>2026-04-14T13:07:05.999Z</time></trkpt><trkpt lat="44.1154554" lon="10.3571611"><ele>826.1428571428571</ele><time>2026-04-14T13:07:10Z</time></trkpt><trkpt lat="44.1154329" lon="10.3572603"><ele>830.4285714285714</ele><time>2026-04-14T13:07:14Z</time></trkpt><trkpt lat="44.1154121" lon="10.35736"><ele>834.7142857142857</ele><time>2026-04-14T13:07:17.999Z</time></trkpt><trkpt lat="44.1153831" lon="10.3574448"><ele>839.0</ele><time>2026-04-14T13:07:22Z</time></trkpt><trkpt lat="44.1153584" lon="10.3575384"><ele>839.0</ele><time>2026-04-14T13:07:25.999Z</time></trkpt><trkpt lat="44.1153455" lon="10.3576411"><ele>839.0</ele><time>2026-04-14T13:07:30.999Z</time></trkpt><trkpt lat="44.115346" lon="10.357755"><ele>839.0</ele><time>2026-04-14T13:07:36Z</time></trkpt><trkpt lat="44.1153395" lon="10.3578566"><ele>839.0</ele><time>2026-04-14T13:07:40Z</time></trkpt><trkpt lat="44.115338" lon="10.3579573"><ele>839.0</ele><time>2026-04-14T13:07:44Z</time></trkpt><trkpt lat="44.1153396" lon="10.3580559"><ele>839.0</ele><time>2026-04-14T13:07:47.999Z</time></trkpt><trkpt lat="44.1153412" lon="10.3581512"><ele>839.0</ele><time>2026-04-14T13:07:52Z</time></trkpt><trkpt lat="44.1153436" lon="10.3582593"><ele>839.0</ele><time>2026-04-14T13:07:56Z</time></trkpt><trkpt lat="44.1153453" lon="10.3583486"><ele>839.0</ele><time>2026-04-14T13:08:00Z</time></trkpt><trkpt lat="44.1153237" lon="10.358439"><ele>839.0</ele><time>2026-04-14T13:08:05Z</time></trkpt><trkpt lat="44.1153122" lon="10.3585284"><ele>839.0</ele><time>2026-04-14T13:08:34Z</time></trkpt><trkpt lat="44.1153679" lon="10.3586207"><ele>839.0</ele><time>2026-04-14T13:08:38Z</time></trkpt><trkpt lat="44.1154276" lon="10.3586535"><ele>839.0</ele><time>2026-04-14T13:08:40Z</time></trkpt><trkpt lat="44.1154915" lon="10.358683"><ele>839.0</ele><time>2026-04-14T13:08:41.999Z</time></trkpt><trkpt lat="44.1155608" lon="10.3586939"><ele>839.0</ele><time>2026-04-14T13:08:44Z</time></trkpt><trkpt lat="44.1156218" lon="10.3587294"><ele>839.0</ele><time>2026-04-14T13:08:45.999Z</time></trkpt><trkpt lat="44.1156807" lon="10.3588297"><ele>839.0</ele><time>2026-04-14T13:08:49Z</time></trkpt><trkpt lat="44.1156793" lon="10.3589402"><ele>839.0</ele><time>2026-04-14T13:08:52.999Z</time></trkpt><trkpt lat="44.1156511" lon="10.3590335"><ele>839.0</ele><time>2026-04-14T13:08:57Z</time></trkpt><trkpt lat="44.1156176" lon="10.3591173"><ele>839.0</ele><time>2026-04-14T13:09:01Z</time></trkpt><trkpt lat="44.1155948" lon="10.3592062"><ele>839.0</ele><time>2026-04-14T13:09:05Z</time></trkpt><trkpt lat="44.1155723" lon="10.3593063"><ele>839.0000000000001</ele><time>2026-04-14T13:09:09Z</time></trkpt><trkpt lat="44.1155599" lon="10.359399"><ele>839.0</ele><time>2026-04-14T13:09:12.999Z</time></trkpt><trkpt lat="44.1155548" lon="10.3595029"><ele>839.0</ele><time>2026-04-14T13:09:17Z</time></trkpt><trkpt lat="44.1155506" lon="10.3596112"><ele>839.0</ele><time>2026-04-14T13:09:21Z</time></trkpt><trkpt lat="44.1155447" lon="10.3597106"><ele>839.0000000000001</ele><time>2026-04-14T13:09:25Z</time></trkpt><trkpt lat="44.1155225" lon="10.3598167"><ele>839.0</ele><time>2026-04-14T13:09:29Z</time></trkpt><trkpt lat="44.1154753" lon="10.3599135"><ele>838.2857142857142</ele><time>2026-04-14T13:09:33Z</time></trkpt><trkpt lat="44.1154206" lon="10.3599741"><ele>837.5714285714287</ele><time>2026-04-14T13:09:37Z</time></trkpt><trkpt lat="44.1153531" lon="10.3600128"><ele>836.8571428571429</ele><time>2026-04-14T13:09:40.999Z</time></trkpt><trkpt lat="44.115279" lon="10.3600492"><ele>836.1428571428571</ele><time>2026-04-14T13:09:44.999Z</time></trkpt><trkpt lat="44.1152006" lon="10.3600771"><ele>835.4285714285713</ele><time>2026-04-14T13:09:49Z</time></trkpt><trkpt lat="44.1151389" lon="10.3600957"><ele>834.7142857142858</ele><time>2026-04-14T13:09:51.999Z</time></trkpt><trkpt lat="44.1150581" lon="10.3601141"><ele>834.0</ele><time>2026-04-14T13:09:56Z</time></trkpt><trkpt lat="44.1149911" lon="10.3601195"><ele>834.0</ele><time>2026-04-14T13:09:58.999Z</time></trkpt><trkpt lat="44.1149275" lon="10.3601249"><ele>834.0</ele><time>2026-04-14T13:10:02Z</time></trkpt><trkpt lat="44.1148498" lon="10.3601097"><ele>834.0</ele><time>2026-04-14T13:10:06Z</time></trkpt><trkpt lat="44.1147803" lon="10.3600886"><ele>834.0</ele><time>2026-04-14T13:10:09.999Z</time></trkpt><trkpt lat="44.1147083" lon="10.3600604"><ele>834.0</ele><time>2026-04-14T13:10:13.999Z</time></trkpt><trkpt lat="44.1146409" lon="10.3600348"><ele>834.0</ele><time>2026-04-14T13:10:17.999Z</time></trkpt><trkpt lat="44.1145602" lon="10.3600113"><ele>834.0</ele><time>2026-04-14T13:10:22Z</time></trkpt><trkpt lat="44.1144784" lon="10.3599905"><ele>836.0</ele><time>2026-04-14T13:10:26Z</time></trkpt><trkpt lat="44.1143982" lon="10.3599755"><ele>838.0</ele><time>2026-04-14T13:10:29.999Z</time></trkpt><trkpt lat="44.1143226" lon="10.359985"><ele>840.0</ele><time>2026-04-14T13:10:33.999Z</time></trkpt><trkpt lat="44.1142575" lon="10.3599938"><ele>842.0</ele><time>2026-04-14T13:10:37Z</time></trkpt><trkpt lat="44.1141942" lon="10.3600167"><ele>844.0</ele><time>2026-04-14T13:10:40Z</time></trkpt><trkpt lat="44.1141155" lon="10.3600156"><ele>846.0</ele><time>2026-04-14T13:10:44Z</time></trkpt><trkpt lat="44.1140323" lon="10.3600213"><ele>848.7142857142857</ele><time>2026-04-14T13:10:48Z</time></trkpt><trkpt lat="44.1139665" lon="10.3600304"><ele>851.4285714285714</ele><time>2026-04-14T13:10:51Z</time></trkpt><trkpt lat="44.1138837" lon="10.3600441"><ele>854.1428571428571</ele><time>2026-04-14T13:10:55Z</time></trkpt><trkpt lat="44.1138213" lon="10.3600617"><ele>856.8571428571429</ele><time>2026-04-14T13:10:58Z</time></trkpt><trkpt lat="44.1137454" lon="10.3600916"><ele>859.5714285714287</ele><time>2026-04-14T13:11:01.999Z</time></trkpt><trkpt lat="44.1136722" lon="10.3601288"><ele>862.2857142857143</ele><time>2026-04-14T13:11:05.999Z</time></trkpt><trkpt lat="44.1136176" lon="10.3602038"><ele>865.0</ele><time>2026-04-14T13:11:10Z</time></trkpt><trkpt lat="44.1135804" lon="10.3602937"><ele>865.0</ele><time>2026-04-14T13:11:14Z</time></trkpt><trkpt lat="44.1135272" lon="10.3603775"><ele>865.0</ele><time>2026-04-14T13:11:17.999Z</time></trkpt><trkpt lat="44.1134641" lon="10.3604463"><ele>865.0</ele><time>2026-04-14T13:11:22Z</time></trkpt><trkpt lat="44.113392" lon="10.3604977"><ele>865.0</ele><time>2026-04-14T13:11:25.999Z</time></trkpt><trkpt lat="44.113331" lon="10.3605207"><ele>865.0</ele><time>2026-04-14T13:11:29Z</time></trkpt><trkpt lat="44.1132695" lon="10.3605407"><ele>865.0</ele><time>2026-04-14T13:11:31.999Z</time></trkpt><trkpt lat="44.1131953" lon="10.3605338"><ele>865.0</ele><time>2026-04-14T13:11:35.999Z</time></trkpt><trkpt lat="44.1131302" lon="10.3605181"><ele>865.8571428571429</ele><time>2026-04-14T13:11:40Z</time></trkpt><trkpt lat="44.1130499" lon="10.3604958"><ele>866.7142857142858</ele><time>2026-04-14T13:11:44Z</time></trkpt><trkpt lat="44.1129853" lon="10.3604891"><ele>867.5714285714286</ele><time>2026-04-14T13:11:47Z</time></trkpt><trkpt lat="44.1129085" lon="10.3604824"><ele>868.4285714285714</ele><time>2026-04-14T13:11:51Z</time></trkpt><trkpt lat="44.1128423" lon="10.3604487"><ele>869.2857142857142</ele><time>2026-04-14T13:11:55Z</time></trkpt><trkpt lat="44.1127879" lon="10.36039"><ele>870.1428571428571</ele><time>2026-04-14T13:11:58.999Z</time></trkpt><trkpt lat="44.1127343" lon="10.3603076"><ele>871.0</ele><time>2026-04-14T13:12:03Z</time></trkpt><trkpt lat="44.1126942" lon="10.3602269"><ele>871.0</ele><time>2026-04-14T13:12:07Z</time></trkpt><trkpt lat="44.1126523" lon="10.3601556"><ele>871.0</ele><time>2026-04-14T13:12:10Z</time></trkpt><trkpt lat="44.1126076" lon="10.3600935"><ele>871.0</ele><time>2026-04-14T13:12:13Z</time></trkpt><trkpt lat="44.1125373" lon="10.3600395"><ele>871.0</ele><time>2026-04-14T13:12:17Z</time></trkpt><trkpt lat="44.1124755" lon="10.3600054"><ele>871.0</ele><time>2026-04-14T13:12:20Z</time></trkpt><trkpt lat="44.1124126" lon="10.3599874"><ele>871.0</ele><time>2026-04-14T13:12:23Z</time></trkpt><trkpt lat="44.1123487" lon="10.359989"><ele>871.0</ele><time>2026-04-14T13:12:26Z</time></trkpt><trkpt lat="44.112287" lon="10.3600282"><ele>873.3333333333333</ele><time>2026-04-14T13:12:28.999Z</time></trkpt><trkpt lat="44.1122183" lon="10.3600914"><ele>875.6666666666666</ele><time>2026-04-14T13:12:33Z</time></trkpt><trkpt lat="44.1121629" lon="10.3601568"><ele>878.0</ele><time>2026-04-14T13:12:37Z</time></trkpt><trkpt lat="44.1121078" lon="10.3602074"><ele>880.3333333333333</ele><time>2026-04-14T13:12:41Z</time></trkpt><trkpt lat="44.1120349" lon="10.3602449"><ele>882.6666666666666</ele><time>2026-04-14T13:12:44.999Z</time></trkpt><trkpt lat="44.1119587" lon="10.360274"><ele>885.0</ele><time>2026-04-14T13:12:48.999Z</time></trkpt><trkpt lat="44.1118742" lon="10.3602812"><ele>885.0</ele><time>2026-04-14T13:12:52.999Z</time></trkpt><trkpt lat="44.1118012" lon="10.3602902"><ele>885.0</ele><time>2026-04-14T13:12:57Z</time></trkpt><trkpt lat="44.1117211" lon="10.3602974"><ele>885.0</ele><time>2026-04-14T13:13:00.999Z</time></trkpt><trkpt lat="44.1116513" lon="10.3602888"><ele>885.0</ele><time>2026-04-14T13:13:04.999Z</time></trkpt><trkpt lat="44.1115752" lon="10.3602745"><ele>885.0</ele><time>2026-04-14T13:13:08.999Z</time></trkpt><trkpt lat="44.1114998" lon="10.3602646"><ele>885.0</ele><time>2026-04-14T13:13:13Z</time></trkpt><trkpt lat="44.1114234" lon="10.3602607"><ele>885.5714285714286</ele><time>2026-04-14T13:13:17Z</time></trkpt><trkpt lat="44.111356" lon="10.3602593"><ele>886.1428571428571</ele><time>2026-04-14T13:13:21Z</time></trkpt><trkpt lat="44.1112863" lon="10.3602556"><ele>886.7142857142858</ele><time>2026-04-14T13:13:24Z</time></trkpt><trkpt lat="44.1112101" lon="10.3602531"><ele>887.2857142857142</ele><time>2026-04-14T13:13:28Z</time></trkpt><trkpt lat="44.1111318" lon="10.3602489"><ele>887.8571428571429</ele><time>2026-04-14T13:13:32Z</time></trkpt><trkpt lat="44.1110644" lon="10.3602422"><ele>888.4285714285714</ele><time>2026-04-14T13:13:35Z</time></trkpt><trkpt lat="44.110982" lon="10.3602264"><ele>889.0</ele><time>2026-04-14T13:13:39Z</time></trkpt><trkpt lat="44.1109177" lon="10.3601997"><ele>889.0</ele><time>2026-04-14T13:13:42Z</time></trkpt><trkpt lat="44.1108586" lon="10.3601516"><ele>889.0</ele><time>2026-04-14T13:13:45Z</time></trkpt><trkpt lat="44.110807" lon="10.3600927"><ele>889.0</ele><time>2026-04-14T13:13:48Z</time></trkpt><trkpt lat="44.1107732" lon="10.3600176"><ele>889.0</ele><time>2026-04-14T13:13:51Z</time></trkpt><trkpt lat="44.1107504" lon="10.3599161"><ele>889.0</ele><time>2026-04-14T13:13:54.999Z</time></trkpt><trkpt lat="44.110736" lon="10.3598214"><ele>889.0</ele><time>2026-04-14T13:13:58Z</time></trkpt><trkpt lat="44.1107222" lon="10.3597242"><ele>889.0</ele><time>2026-04-14T13:14:00.999Z</time></trkpt><trkpt lat="44.1107053" lon="10.3596174"><ele>892.0</ele><time>2026-04-14T13:14:05Z</time></trkpt><trkpt lat="44.1106816" lon="10.3595243"><ele>895.0</ele><time>2026-04-14T13:14:08Z</time></trkpt><trkpt lat="44.1106287" lon="10.3594695"><ele>898.0</ele><time>2026-04-14T13:14:11Z</time></trkpt><trkpt lat="44.1105523" lon="10.3594649"><ele>901.0</ele><time>2026-04-14T13:14:14.999Z</time></trkpt><trkpt lat="44.1104709" lon="10.3594808"><ele>904.0</ele><time>2026-04-14T13:14:17.999Z</time></trkpt><trkpt lat="44.1104026" lon="10.3594956"><ele>907.0</ele><time>2026-04-14T13:14:20.999Z</time></trkpt><trkpt lat="44.1103377" lon="10.3594912"><ele>910.0</ele><time>2026-04-14T13:14:23.999Z</time></trkpt><trkpt lat="44.1102684" lon="10.3594696"><ele>910.0</ele><time>2026-04-14T13:14:29Z</time></trkpt><trkpt lat="44.1101988" lon="10.359451"><ele>910.0</ele><time>2026-04-14T13:14:36Z</time></trkpt><trkpt lat="44.1101151" lon="10.3594415"><ele>910.0</ele><time>2026-04-14T13:16:36Z</time></trkpt><trkpt lat="44.1100606" lon="10.359488"><ele>910.0</ele><time>2026-04-14T13:16:48.999Z</time></trkpt><trkpt lat="44.1100046" lon="10.3595346"><ele>910.0</ele><time>2026-04-14T13:16:51.999Z</time></trkpt><trkpt lat="44.1099265" lon="10.3595875"><ele>910.0</ele><time>2026-04-14T13:16:54.999Z</time></trkpt><trkpt lat="44.1098575" lon="10.3596154"><ele>910.0</ele><time>2026-04-14T13:16:57Z</time></trkpt><trkpt lat="44.1097823" lon="10.3596311"><ele>908.4999999999999</ele><time>2026-04-14T13:16:59Z</time></trkpt><trkpt lat="44.1097005" lon="10.35964"><ele>907.0</ele><time>2026-04-14T13:17:01Z</time></trkpt><trkpt lat="44.109622" lon="10.3596888"><ele>905.5</ele><time>2026-04-14T13:17:03Z</time></trkpt><trkpt lat="44.1095775" lon="10.3597884"><ele>904.0</ele><time>2026-04-14T13:17:05Z</time></trkpt><trkpt lat="44.1095447" lon="10.3598755"><ele>902.4999999999999</ele><time>2026-04-14T13:17:07Z</time></trkpt><trkpt lat="44.1095144" lon="10.3599865"><ele>901.0</ele><time>2026-04-14T13:17:09.999Z</time></trkpt><trkpt lat="44.1094745" lon="10.3600813"><ele>900.9999999999999</ele><time>2026-04-14T13:17:13Z</time></trkpt><trkpt lat="44.1094381" lon="10.3601787"><ele>901.0</ele><time>2026-04-14T13:17:15.999Z</time></trkpt><trkpt lat="44.1093857" lon="10.3602611"><ele>901.0</ele><time>2026-04-14T13:17:19Z</time></trkpt><trkpt lat="44.1093157" lon="10.3603147"><ele>901.0</ele><time>2026-04-14T13:17:22Z</time></trkpt><trkpt lat="44.1092379" lon="10.3603365"><ele>900.9999999999999</ele><time>2026-04-14T13:17:24.999Z</time></trkpt><trkpt lat="44.1091491" lon="10.3603339"><ele>901.0</ele><time>2026-04-14T13:17:28Z</time></trkpt><trkpt lat="44.1090646" lon="10.3603245"><ele>901.8333333333333</ele><time>2026-04-14T13:17:30.999Z</time></trkpt><trkpt lat="44.1089855" lon="10.3603082"><ele>902.6666666666666</ele><time>2026-04-14T13:17:33.999Z</time></trkpt><trkpt lat="44.108902" lon="10.3603048"><ele>903.5</ele><time>2026-04-14T13:17:37Z</time></trkpt><trkpt lat="44.1088245" lon="10.3602927"><ele>904.3333333333333</ele><time>2026-04-14T13:17:39.999Z</time></trkpt><trkpt lat="44.1087464" lon="10.3602784"><ele>905.1666666666666</ele><time>2026-04-14T13:17:43Z</time></trkpt><trkpt lat="44.1086655" lon="10.3602654"><ele>906.0</ele><time>2026-04-14T13:17:46Z</time></trkpt><trkpt lat="44.1085843" lon="10.3602486"><ele>906.0</ele><time>2026-04-14T13:17:48.999Z</time></trkpt><trkpt lat="44.1085056" lon="10.3602352"><ele>906.0</ele><time>2026-04-14T13:17:51.999Z</time></trkpt><trkpt lat="44.1084233" lon="10.3602344"><ele>906.0</ele><time>2026-04-14T13:17:55Z</time></trkpt><trkpt lat="44.108337" lon="10.360236"><ele>906.0</ele><time>2026-04-14T13:17:57.999Z</time></trkpt><trkpt lat="44.1082505" lon="10.3602568"><ele>906.0</ele><time>2026-04-14T13:18:01Z</time></trkpt><trkpt lat="44.1081578" lon="10.3602832"><ele>906.0</ele><time>2026-04-14T13:18:04Z</time></trkpt><trkpt lat="44.1080976" lon="10.3603095"><ele>906.1666666666666</ele><time>2026-04-14T13:18:05.999Z</time></trkpt><trkpt lat="44.1080234" lon="10.3603934"><ele>906.3333333333333</ele><time>2026-04-14T13:18:08.999Z</time></trkpt><trkpt lat="44.1079832" lon="10.360464"><ele>906.5</ele><time>2026-04-14T13:18:11Z</time></trkpt><trkpt lat="44.1079551" lon="10.3605429"><ele>906.6666666666666</ele><time>2026-04-14T13:18:13Z</time></trkpt><trkpt lat="44.1079139" lon="10.3606596"><ele>906.8333333333333</ele><time>2026-04-14T13:18:16Z</time></trkpt><trkpt lat="44.1078827" lon="10.3607411"><ele>907.0</ele><time>2026-04-14T13:18:18Z</time></trkpt><trkpt lat="44.1078373" lon="10.3608532"><ele>907.0000000000001</ele><time>2026-04-14T13:18:21Z</time></trkpt><trkpt lat="44.1078014" lon="10.3609346"><ele>907.0</ele><time>2026-04-14T13:18:23Z</time></trkpt><trkpt lat="44.1077619" lon="10.3610156"><ele>907.0000000000001</ele><time>2026-04-14T13:18:25Z</time></trkpt><trkpt lat="44.1077191" lon="10.3610883"><ele>907.0000000000001</ele><time>2026-04-14T13:18:27Z</time></trkpt><trkpt lat="44.1076584" lon="10.3611888"><ele>907.0</ele><time>2026-04-14T13:18:30Z</time></trkpt><trkpt lat="44.1076155" lon="10.3612596"><ele>907.0000000000001</ele><time>2026-04-14T13:18:31.999Z</time></trkpt><trkpt lat="44.1075742" lon="10.3613336"><ele>907.0000000000001</ele><time>2026-04-14T13:18:34Z</time></trkpt><trkpt lat="44.1075335" lon="10.3614024"><ele>905.0000000000001</ele><time>2026-04-14T13:18:36Z</time></trkpt><trkpt lat="44.1074907" lon="10.3614728"><ele>903.0</ele><time>2026-04-14T13:18:37.999Z</time></trkpt><trkpt lat="44.1074396" lon="10.3615492"><ele>901.0</ele><time>2026-04-14T13:18:39.999Z</time></trkpt><trkpt lat="44.1073889" lon="10.361623"><ele>899.0</ele><time>2026-04-14T13:18:42Z</time></trkpt><trkpt lat="44.1073378" lon="10.3616971"><ele>897.0</ele><time>2026-04-14T13:18:44Z</time></trkpt><trkpt lat="44.1072885" lon="10.3617651"><ele>895.0</ele><time>2026-04-14T13:18:45.999Z</time></trkpt><trkpt lat="44.1072382" lon="10.3618331"><ele>893.0</ele><time>2026-04-14T13:18:47.999Z</time></trkpt><trkpt lat="44.1071818" lon="10.3618905"><ele>893.0</ele><time>2026-04-14T13:18:49.999Z</time></trkpt><trkpt lat="44.1071189" lon="10.361926"><ele>893.0</ele><time>2026-04-14T13:18:51.999Z</time></trkpt><trkpt lat="44.1070524" lon="10.3619408"><ele>893.0</ele><time>2026-04-14T13:18:54Z</time></trkpt><trkpt lat="44.1069875" lon="10.3619386"><ele>893.0</ele><time>2026-04-14T13:18:56Z</time></trkpt><trkpt lat="44.1069237" lon="10.3619243"><ele>893.0</ele><time>2026-04-14T13:18:57.999Z</time></trkpt><trkpt lat="44.1068611" lon="10.361903"><ele>893.0</ele><time>2026-04-14T13:19:00Z</time></trkpt><trkpt lat="44.1067952" lon="10.3618797"><ele>893.0</ele><time>2026-04-14T13:19:02Z</time></trkpt><trkpt lat="44.1067301" lon="10.3618509"><ele>893.0</ele><time>2026-04-14T13:19:03.999Z</time></trkpt><trkpt lat="44.1066698" lon="10.3618067"><ele>893.0</ele><time>2026-04-14T13:19:05.999Z</time></trkpt><trkpt lat="44.1065967" lon="10.3617221"><ele>893.0</ele><time>2026-04-14T13:19:09Z</time></trkpt><trkpt lat="44.1065558" lon="10.3616479"><ele>893.0</ele><time>2026-04-14T13:19:11Z</time></trkpt><trkpt lat="44.10653" lon="10.3615657"><ele>893.0</ele><time>2026-04-14T13:19:13Z</time></trkpt><trkpt lat="44.1065092" lon="10.3614772"><ele>893.0</ele><time>2026-04-14T13:19:15Z</time></trkpt><trkpt lat="44.1064842" lon="10.3613886"><ele>893.0</ele><time>2026-04-14T13:19:17Z</time></trkpt><trkpt lat="44.1064515" lon="10.3612678"><ele>893.4285714285714</ele><time>2026-04-14T13:19:19.999Z</time></trkpt><trkpt lat="44.106434" lon="10.3611796"><ele>893.8571428571429</ele><time>2026-04-14T13:19:22Z</time></trkpt><trkpt lat="44.1064169" lon="10.3610895"><ele>894.2857142857142</ele><time>2026-04-14T13:19:24Z</time></trkpt><trkpt lat="44.1063897" lon="10.3609959"><ele>894.7142857142858</ele><time>2026-04-14T13:19:25.999Z</time></trkpt><trkpt lat="44.1063479" lon="10.3609131"><ele>895.1428571428571</ele><time>2026-04-14T13:19:28Z</time></trkpt><trkpt lat="44.1063015" lon="10.3608472"><ele>895.5714285714286</ele><time>2026-04-14T13:19:30Z</time></trkpt><trkpt lat="44.1062516" lon="10.3607925"><ele>896.0</ele><time>2026-04-14T13:19:32Z</time></trkpt><trkpt lat="44.1061929" lon="10.3607553"><ele>896.0</ele><time>2026-04-14T13:19:33.999Z</time></trkpt><trkpt lat="44.1061027" lon="10.3607124"><ele>896.0</ele><time>2026-04-14T13:19:36.999Z</time></trkpt><trkpt lat="44.1060417" lon="10.3606873"><ele>896.0</ele><time>2026-04-14T13:19:38.999Z</time></trkpt><trkpt lat="44.105978" lon="10.3606674"><ele>896.0</ele><time>2026-04-14T13:19:41Z</time></trkpt><trkpt lat="44.1059121" lon="10.3606497"><ele>896.0</ele><time>2026-04-14T13:19:42.999Z</time></trkpt><trkpt lat="44.1058478" lon="10.3606282"><ele>896.0</ele><time>2026-04-14T13:19:45Z</time></trkpt><trkpt lat="44.1057825" lon="10.3606079"><ele>896.0</ele><time>2026-04-14T13:19:47Z</time></trkpt><trkpt lat="44.1057185" lon="10.3605903"><ele>896.0000000000001</ele><time>2026-04-14T13:19:48.999Z</time></trkpt><trkpt lat="44.1056545" lon="10.3605737"><ele>896.0</ele><time>2026-04-14T13:19:51Z</time></trkpt><trkpt lat="44.1055923" lon="10.3605511"><ele>896.0</ele><time>2026-04-14T13:19:53Z</time></trkpt><trkpt lat="44.1055066" lon="10.3604971"><ele>896.0</ele><time>2026-04-14T13:19:56Z</time></trkpt><trkpt lat="44.1054243" lon="10.3604366"><ele>896.0000000000001</ele><time>2026-04-14T13:19:59Z</time></trkpt><trkpt lat="44.1053434" lon="10.3603771"><ele>896.0</ele><time>2026-04-14T13:20:01.999Z</time></trkpt><trkpt lat="44.105267" lon="10.3603303"><ele>896.6666666666667</ele><time>2026-04-14T13:20:05Z</time></trkpt><trkpt lat="44.1051894" lon="10.3602784"><ele>897.3333333333334</ele><time>2026-04-14T13:20:07.999Z</time></trkpt><trkpt lat="44.1051162" lon="10.3602231"><ele>898.0</ele><time>2026-04-14T13:20:11Z</time></trkpt><trkpt lat="44.1050619" lon="10.3601446"><ele>898.6666666666667</ele><time>2026-04-14T13:20:14Z</time></trkpt><trkpt lat="44.1050497" lon="10.3600326"><ele>899.3333333333334</ele><time>2026-04-14T13:20:17Z</time></trkpt><trkpt lat="44.1050606" lon="10.3599443"><ele>900.0</ele><time>2026-04-14T13:20:19Z</time></trkpt><trkpt lat="44.1050743" lon="10.3598517"><ele>900.0000000000001</ele><time>2026-04-14T13:20:20.999Z</time></trkpt><trkpt lat="44.1050864" lon="10.3597546"><ele>900.0</ele><time>2026-04-14T13:20:23Z</time></trkpt><trkpt lat="44.1050997" lon="10.3596496"><ele>900.0000000000001</ele><time>2026-04-14T13:20:25Z</time></trkpt><trkpt lat="44.1051145" lon="10.3595478"><ele>900.0000000000001</ele><time>2026-04-14T13:20:27Z</time></trkpt><trkpt lat="44.1051271" lon="10.3594473"><ele>900.0</ele><time>2026-04-14T13:20:29Z</time></trkpt><trkpt lat="44.1051319" lon="10.3593569"><ele>900.0000000000001</ele><time>2026-04-14T13:20:31Z</time></trkpt><trkpt lat="44.1051402" lon="10.3592358"><ele>900.0000000000001</ele><time>2026-04-14T13:20:33.999Z</time></trkpt><trkpt lat="44.1051471" lon="10.3591477"><ele>900.0000000000001</ele><time>2026-04-14T13:20:36Z</time></trkpt><trkpt lat="44.1051608" lon="10.3590619"><ele>900.0</ele><time>2026-04-14T13:20:37.999Z</time></trkpt><trkpt lat="44.1051786" lon="10.3589718"><ele>900.0000000000001</ele><time>2026-04-14T13:20:39.999Z</time></trkpt><trkpt lat="44.1051947" lon="10.3588831"><ele>900.0000000000001</ele><time>2026-04-14T13:20:41.999Z</time></trkpt><trkpt lat="44.1052153" lon="10.358792"><ele>900.0</ele><time>2026-04-14T13:20:44Z</time></trkpt><trkpt lat="44.1052381" lon="10.3587035"><ele>900.0000000000001</ele><time>2026-04-14T13:20:46Z</time></trkpt><trkpt lat="44.1052628" lon="10.3586188"><ele>900.0000000000001</ele><time>2026-04-14T13:20:47.999Z</time></trkpt><trkpt lat="44.1052906" lon="10.35853"><ele>900.0</ele><time>2026-04-14T13:20:50Z</time></trkpt><trkpt lat="44.1053169" lon="10.3584404"><ele>900.0</ele><time>2026-04-14T13:20:52Z</time></trkpt><trkpt lat="44.1053546" lon="10.3583182"><ele>900.0</ele><time>2026-04-14T13:20:54.999Z</time></trkpt><trkpt lat="44.1053787" lon="10.3582285"><ele>900.0</ele><time>2026-04-14T13:20:56.999Z</time></trkpt><trkpt lat="44.1053955" lon="10.3581377"><ele>900.0</ele><time>2026-04-14T13:20:59Z</time></trkpt><trkpt lat="44.1054083" lon="10.3580484"><ele>900.0</ele><time>2026-04-14T13:21:00.999Z</time></trkpt><trkpt lat="44.1054186" lon="10.3579311"><ele>899.3333333333334</ele><time>2026-04-14T13:21:04Z</time></trkpt><trkpt lat="44.1054185" lon="10.3578345"><ele>898.6666666666667</ele><time>2026-04-14T13:21:06.999Z</time></trkpt><trkpt lat="44.1054451" lon="10.3577215"><ele>898.0</ele><time>2026-04-14T13:21:11Z</time></trkpt><trkpt lat="44.1054916" lon="10.357616"><ele>897.3333333333334</ele><time>2026-04-14T13:21:14Z</time></trkpt><trkpt lat="44.1055275" lon="10.3575172"><ele>896.6666666666667</ele><time>2026-04-14T13:21:16Z</time></trkpt><trkpt lat="44.1055689" lon="10.3573824"><ele>896.0</ele><time>2026-04-14T13:21:18Z</time></trkpt><trkpt lat="44.1056149" lon="10.3572261"><ele>896.8571428571429</ele><time>2026-04-14T13:21:20Z</time></trkpt><trkpt lat="44.1056343" lon="10.3571355"><ele>897.7142857142858</ele><time>2026-04-14T13:21:21Z</time></trkpt><trkpt lat="44.1056503" lon="10.3570427"><ele>898.5714285714286</ele><time>2026-04-14T13:21:21.999Z</time></trkpt><trkpt lat="44.1056575" lon="10.3569432"><ele>899.4285714285714</ele><time>2026-04-14T13:21:23Z</time></trkpt><trkpt lat="44.1056461" lon="10.3568411"><ele>900.2857142857143</ele><time>2026-04-14T13:21:24Z</time></trkpt><trkpt lat="44.1056222" lon="10.356729"><ele>901.1428571428571</ele><time>2026-04-14T13:21:24.999Z</time></trkpt><trkpt lat="44.1055774" lon="10.3566361"><ele>902.0</ele><time>2026-04-14T13:21:25.999Z</time></trkpt><trkpt lat="44.1055261" lon="10.3565718"><ele>902.0000000000001</ele><time>2026-04-14T13:21:26.999Z</time></trkpt><trkpt lat="44.1054594" lon="10.3565203"><ele>902.0</ele><time>2026-04-14T13:21:28Z</time></trkpt><trkpt lat="44.1054" lon="10.3564899"><ele>902.0</ele><time>2026-04-14T13:21:29Z</time></trkpt><trkpt lat="44.1052879" lon="10.3564337"><ele>902.0</ele><time>2026-04-14T13:21:30.999Z</time></trkpt><trkpt lat="44.1052157" lon="10.3563769"><ele>902.0000000000001</ele><time>2026-04-14T13:21:32.999Z</time></trkpt><trkpt lat="44.1051667" lon="10.3563112"><ele>902.0</ele><time>2026-04-14T13:21:35Z</time></trkpt><trkpt lat="44.1051307" lon="10.356239"><ele>903.5000000000001</ele><time>2026-04-14T13:21:37Z</time></trkpt><trkpt lat="44.1051075" lon="10.356131"><ele>905.0</ele><time>2026-04-14T13:21:40Z</time></trkpt><trkpt lat="44.1050887" lon="10.3560449"><ele>906.5</ele><time>2026-04-14T13:21:42Z</time></trkpt><trkpt lat="44.1050689" lon="10.3559595"><ele>908.0</ele><time>2026-04-14T13:21:44Z</time></trkpt><trkpt lat="44.1050369" lon="10.3558329"><ele>909.5000000000001</ele><time>2026-04-14T13:21:46.999Z</time></trkpt><trkpt lat="44.1050164" lon="10.3557215"><ele>911.0</ele><time>2026-04-14T13:21:49.999Z</time></trkpt><trkpt lat="44.1049944" lon="10.35562"><ele>912.5714285714287</ele><time>2026-04-14T13:21:52Z</time></trkpt><trkpt lat="44.1049668" lon="10.3555244"><ele>914.1428571428571</ele><time>2026-04-14T13:21:53.999Z</time></trkpt><trkpt lat="44.1049435" lon="10.3554346"><ele>915.7142857142858</ele><time>2026-04-14T13:21:57Z</time></trkpt><trkpt lat="44.1049241" lon="10.3553453"><ele>917.2857142857143</ele><time>2026-04-14T13:21:59Z</time></trkpt><trkpt lat="44.1049056" lon="10.3552605"><ele>918.8571428571429</ele><time>2026-04-14T13:22:01Z</time></trkpt><trkpt lat="44.1048808" lon="10.3551566"><ele>920.4285714285714</ele><time>2026-04-14T13:22:04Z</time></trkpt><trkpt lat="44.1048606" lon="10.3550702"><ele>922.0</ele><time>2026-04-14T13:22:07Z</time></trkpt><trkpt lat="44.1048553" lon="10.3549813"><ele>916.8333333333333</ele><time>2026-04-14T13:22:10Z</time></trkpt><trkpt lat="44.1048516" lon="10.3548437"><ele>911.6666666666666</ele><time>2026-04-14T13:22:12.999Z</time></trkpt><trkpt lat="44.1048534" lon="10.3547215"><ele>906.5</ele><time>2026-04-14T13:22:15Z</time></trkpt><trkpt lat="44.1048404" lon="10.3546228"><ele>901.3333333333333</ele><time>2026-04-14T13:22:16Z</time></trkpt><trkpt lat="44.1048175" lon="10.3544595"><ele>896.1666666666666</ele><time>2026-04-14T13:22:18Z</time></trkpt><trkpt lat="44.1048091" lon="10.354371"><ele>891.0</ele><time>2026-04-14T13:22:19Z</time></trkpt><trkpt lat="44.1047992" lon="10.354273"><ele>891.0</ele><time>2026-04-14T13:22:20Z</time></trkpt><trkpt lat="44.1047926" lon="10.3541669"><ele>891.0</ele><time>2026-04-14T13:22:21Z</time></trkpt><trkpt lat="44.104788" lon="10.3540666"><ele>891.0</ele><time>2026-04-14T13:22:22Z</time></trkpt><trkpt lat="44.104777" lon="10.3539548"><ele>891.0</ele><time>2026-04-14T13:22:23Z</time></trkpt><trkpt lat="44.1047618" lon="10.353837"><ele>891.0</ele><time>2026-04-14T13:22:23.999Z</time></trkpt><trkpt lat="44.1047475" lon="10.3537299"><ele>891.0</ele><time>2026-04-14T13:22:25Z</time></trkpt><trkpt lat="44.1047375" lon="10.3536139"><ele>892.6666666666666</ele><time>2026-04-14T13:22:25.999Z</time></trkpt><trkpt lat="44.1047278" lon="10.3535018"><ele>894.3333333333333</ele><time>2026-04-14T13:22:26.999Z</time></trkpt><trkpt lat="44.1047226" lon="10.3533788"><ele>896.0</ele><time>2026-04-14T13:22:28Z</time></trkpt><trkpt lat="44.1047145" lon="10.3532603"><ele>897.6666666666666</ele><time>2026-04-14T13:22:29Z</time></trkpt><trkpt lat="44.1047044" lon="10.3531505"><ele>899.3333333333333</ele><time>2026-04-14T13:22:30Z</time></trkpt><trkpt lat="44.1046816" lon="10.3530544"><ele>901.0</ele><time>2026-04-14T13:22:31Z</time></trkpt><trkpt lat="44.1046297" lon="10.3529783"><ele>905.8333333333333</ele><time>2026-04-14T13:22:32Z</time></trkpt><trkpt lat="44.1045725" lon="10.3529204"><ele>910.6666666666666</ele><time>2026-04-14T13:22:32.999Z</time></trkpt><trkpt lat="44.1045101" lon="10.3528894"><ele>915.5</ele><time>2026-04-14T13:22:34Z</time></trkpt><trkpt lat="44.1044324" lon="10.3528946"><ele>920.3333333333333</ele><time>2026-04-14T13:22:34.999Z</time></trkpt><trkpt lat="44.1043689" lon="10.3528991"><ele>925.1666666666666</ele><time>2026-04-14T13:22:36Z</time></trkpt><trkpt lat="44.1042611" lon="10.3528852"><ele>930.0</ele><time>2026-04-14T13:22:38Z</time></trkpt><trkpt lat="44.1041656" lon="10.3528664"><ele>930.0</ele><time>2026-04-14T13:22:40Z</time></trkpt><trkpt lat="44.1040975" lon="10.3528441"><ele>930.0</ele><time>2026-04-14T13:22:42Z</time></trkpt><trkpt lat="44.1040246" lon="10.3528187"><ele>930.0</ele><time>2026-04-14T13:22:44Z</time></trkpt><trkpt lat="44.1039604" lon="10.3527892"><ele>930.0</ele><time>2026-04-14T13:22:46Z</time></trkpt><trkpt lat="44.1038915" lon="10.3527673"><ele>930.0</ele><time>2026-04-14T13:22:47.999Z</time></trkpt><trkpt lat="44.1038158" lon="10.3527586"><ele>930.0</ele><time>2026-04-14T13:22:50Z</time></trkpt><trkpt lat="44.1037338" lon="10.3527661"><ele>930.0</ele><time>2026-04-14T13:22:52Z</time></trkpt><trkpt lat="44.1036403" lon="10.3527885"><ele>929.6666666666666</ele><time>2026-04-14T13:22:54Z</time></trkpt><trkpt lat="44.1035542" lon="10.3527958"><ele>929.3333333333333</ele><time>2026-04-14T13:22:56Z</time></trkpt><trkpt lat="44.1034753" lon="10.3527981"><ele>929.0</ele><time>2026-04-14T13:22:57.999Z</time></trkpt><trkpt lat="44.1034001" lon="10.3527959"><ele>928.6666666666666</ele><time>2026-04-14T13:22:59.999Z</time></trkpt><trkpt lat="44.1033198" lon="10.3527845"><ele>928.3333333333333</ele><time>2026-04-14T13:23:03Z</time></trkpt><trkpt lat="44.103251" lon="10.3527763"><ele>928.0</ele><time>2026-04-14T13:23:05.999Z</time></trkpt><trkpt lat="44.1031816" lon="10.3527593"><ele>928.0000000000001</ele><time>2026-04-14T13:23:09Z</time></trkpt><trkpt lat="44.103107" lon="10.3527508"><ele>928.0</ele><time>2026-04-14T13:23:13Z</time></trkpt><trkpt lat="44.1030418" lon="10.3527474"><ele>928.0000000000001</ele><time>2026-04-14T13:23:15.999Z</time></trkpt><trkpt lat="44.102963" lon="10.3527542"><ele>928.0000000000001</ele><time>2026-04-14T13:23:19Z</time></trkpt><trkpt lat="44.1028855" lon="10.3527669"><ele>928.0</ele><time>2026-04-14T13:23:22Z</time></trkpt><trkpt lat="44.1028154" lon="10.3527955"><ele>928.0000000000001</ele><time>2026-04-14T13:23:25Z</time></trkpt><trkpt lat="44.1027564" lon="10.3528306"><ele>928.0000000000001</ele><time>2026-04-14T13:23:28Z</time></trkpt><trkpt lat="44.102691" lon="10.3528555"><ele>928.0000000000001</ele><time>2026-04-14T13:23:30.999Z</time></trkpt><trkpt lat="44.1026268" lon="10.3528846"><ele>928.0</ele><time>2026-04-14T13:23:33.999Z</time></trkpt><trkpt lat="44.1025649" lon="10.3529107"><ele>928.0000000000001</ele><time>2026-04-14T13:23:37Z</time></trkpt><trkpt lat="44.1025033" lon="10.3529341"><ele>928.0000000000001</ele><time>2026-04-14T13:23:40Z</time></trkpt><trkpt lat="44.1024337" lon="10.3529345"><ele>928.0</ele><time>2026-04-14T13:23:44Z</time></trkpt><trkpt lat="44.1023678" lon="10.3529159"><ele>928.0000000000001</ele><time>2026-04-14T13:23:47Z</time></trkpt><trkpt lat="44.1023065" lon="10.3528825"><ele>928.0000000000001</ele><time>2026-04-14T13:23:50Z</time></trkpt><trkpt lat="44.102248" lon="10.3528229"><ele>930.5714285714287</ele><time>2026-04-14T13:23:53.999Z</time></trkpt><trkpt lat="44.1022075" lon="10.3527412"><ele>933.1428571428571</ele><time>2026-04-14T13:23:58Z</time></trkpt><trkpt lat="44.1021748" lon="10.3526547"><ele>935.7142857142858</ele><time>2026-04-14T13:24:02Z</time></trkpt><trkpt lat="44.1021315" lon="10.3525842"><ele>938.2857142857143</ele><time>2026-04-14T13:24:07Z</time></trkpt><trkpt lat="44.1020576" lon="10.3525523"><ele>940.8571428571429</ele><time>2026-04-14T13:24:11Z</time></trkpt><trkpt lat="44.1019707" lon="10.3525699"><ele>943.4285714285714</ele><time>2026-04-14T13:24:14.999Z</time></trkpt><trkpt lat="44.1019004" lon="10.3526055"><ele>946.0</ele><time>2026-04-14T13:24:18Z</time></trkpt><trkpt lat="44.1018461" lon="10.352661"><ele>946.0</ele><time>2026-04-14T13:24:21Z</time></trkpt><trkpt lat="44.1017917" lon="10.3527205"><ele>946.0</ele><time>2026-04-14T13:24:25Z</time></trkpt><trkpt lat="44.1017427" lon="10.3527869"><ele>946.0</ele><time>2026-04-14T13:24:28.999Z</time></trkpt><trkpt lat="44.1016889" lon="10.352868"><ele>946.0</ele><time>2026-04-14T13:24:33Z</time></trkpt><trkpt lat="44.1016465" lon="10.3529408"><ele>946.0</ele><time>2026-04-14T13:24:37Z</time></trkpt><trkpt lat="44.1016115" lon="10.3530157"><ele>946.0</ele><time>2026-04-14T13:24:41Z</time></trkpt><trkpt lat="44.1015626" lon="10.3530876"><ele>946.0</ele><time>2026-04-14T13:24:45Z</time></trkpt><trkpt lat="44.1015104" lon="10.3531478"><ele>946.0</ele><time>2026-04-14T13:24:49Z</time></trkpt><trkpt lat="44.1014609" lon="10.3532151"><ele>946.0</ele><time>2026-04-14T13:24:53Z</time></trkpt><trkpt lat="44.1014127" lon="10.3532793"><ele>946.0</ele><time>2026-04-14T13:24:57Z</time></trkpt><trkpt lat="44.1013595" lon="10.3533464"><ele>946.0</ele><time>2026-04-14T13:25:01Z</time></trkpt><trkpt lat="44.1019707" lon="10.3525699"><ele>946.0</ele><time>2026-04-14T13:24:14.999Z</time></trkpt><trkpt lat="44.1019004" lon="10.3526055"><ele>946.0</ele><time>2026-04-14T13:24:18Z</time></trkpt><trkpt lat="44.1018461" lon="10.352661"><ele>946.0</ele><time>2026-04-14T13:24:21Z</time></trkpt><trkpt lat="44.1017917" lon="10.3527205"><ele>946.0</ele><time>2026-04-14T13:24:25Z</time></trkpt><trkpt lat="44.1017427" lon="10.3527869"><ele>946.0</ele><time>2026-04-14T13:24:28.999Z</time></trkpt><trkpt lat="44.1016889" lon="10.352868"><ele>946.0</ele><time>2026-04-14T13:24:33Z</time></trkpt><trkpt lat="44.1016465" lon="10.3529408"><ele>946.0</ele><time>2026-04-14T13:24:37Z</time></trkpt><trkpt lat="44.1016115" lon="10.3530157"><ele>945.4285714285714</ele><time>2026-04-14T13:24:41Z</time></trkpt><trkpt lat="44.1015626" lon="10.3530876"><ele>944.8571428571429</ele><time>2026-04-14T13:24:45Z</time></trkpt><trkpt lat="44.1015104" lon="10.3531478"><ele>944.2857142857143</ele><time>2026-04-14T13:24:49Z</time></trkpt><trkpt lat="44.1014609" lon="10.3532151"><ele>943.7142857142858</ele><time>2026-04-14T13:24:53Z</time></trkpt><trkpt lat="44.1014127" lon="10.3532793"><ele>943.1428571428571</ele><time>2026-04-14T13:24:57Z</time></trkpt><trkpt lat="44.1013595" lon="10.3533464"><ele>942.5714285714287</ele><time>2026-04-14T13:25:01Z</time></trkpt><trkpt lat="44.1013089" lon="10.3534273"><ele>942.0000000000001</ele><time>2026-04-14T13:25:05Z</time></trkpt><trkpt lat="44.1012529" lon="10.3535119"><ele>942.0000000000001</ele><time>2026-04-14T13:25:08.999Z</time></trkpt><trkpt lat="44.1011985" lon="10.3535823"><ele>942.0</ele><time>2026-04-14T13:25:13Z</time></trkpt><trkpt lat="44.1011308" lon="10.3536276"><ele>942.0000000000001</ele><time>2026-04-14T13:25:17Z</time></trkpt><trkpt lat="44.1010599" lon="10.3536662"><ele>942.0000000000001</ele><time>2026-04-14T13:25:20.999Z</time></trkpt><trkpt lat="44.1009849" lon="10.353693"><ele>942.0</ele><time>2026-04-14T13:25:25Z</time></trkpt><trkpt lat="44.1009175" lon="10.3536879"><ele>942.0000000000001</ele><time>2026-04-14T13:25:29Z</time></trkpt><trkpt lat="44.1008447" lon="10.3536535"><ele>942.0000000000001</ele><time>2026-04-14T13:25:34Z</time></trkpt><trkpt lat="44.1007965" lon="10.3535842"><ele>942.0000000000001</ele><time>2026-04-14T13:25:37.999Z</time></trkpt><trkpt lat="44.1007558" lon="10.3535042"><ele>942.0</ele><time>2026-04-14T13:25:43Z</time></trkpt><trkpt lat="44.1007343" lon="10.3534124"><ele>942.0000000000001</ele><time>2026-04-14T13:25:48Z</time></trkpt><trkpt lat="44.1006961" lon="10.353317"><ele>942.0000000000001</ele><time>2026-04-14T13:25:52Z</time></trkpt><trkpt lat="44.1006579" lon="10.3532436"><ele>942.0</ele><time>2026-04-14T13:25:56Z</time></trkpt><trkpt lat="44.1006025" lon="10.3531761"><ele>942.0000000000001</ele><time>2026-04-14T13:26:00Z</time></trkpt><trkpt lat="44.1005422" lon="10.3531"><ele>942.0000000000001</ele><time>2026-04-14T13:26:05Z</time></trkpt><trkpt lat="44.1004891" lon="10.3530337"><ele>942.857142857143</ele><time>2026-04-14T13:26:08.999Z</time></trkpt><trkpt lat="44.1004337" lon="10.3529776"><ele>943.7142857142858</ele><time>2026-04-14T13:26:13Z</time></trkpt><trkpt lat="44.100381" lon="10.3529097"><ele>944.5714285714286</ele><time>2026-04-14T13:26:17Z</time></trkpt><trkpt lat="44.100323" lon="10.3528335"><ele>945.4285714285714</ele><time>2026-04-14T13:26:22Z</time></trkpt><trkpt lat="44.1002762" lon="10.3527723"><ele>946.2857142857142</ele><time>2026-04-14T13:26:26Z</time></trkpt><trkpt lat="44.1002203" lon="10.352695"><ele>947.142857142857</ele><time>2026-04-14T13:26:30Z</time></trkpt><trkpt lat="44.1001893" lon="10.3526096"><ele>947.9999999999999</ele><time>2026-04-14T13:26:34Z</time></trkpt><trkpt lat="44.1001865" lon="10.3525059"><ele>947.9999999999999</ele><time>2026-04-14T13:26:38Z</time></trkpt><trkpt lat="44.100213" lon="10.3524228"><ele>948.0</ele><time>2026-04-14T13:26:41.999Z</time></trkpt><trkpt lat="44.1002586" lon="10.35235"><ele>947.9999999999999</ele><time>2026-04-14T13:26:46Z</time></trkpt><trkpt lat="44.1003061" lon="10.3522729"><ele>947.9999999999999</ele><time>2026-04-14T13:26:50Z</time></trkpt><trkpt lat="44.1003652" lon="10.352191"><ele>948.0</ele><time>2026-04-14T13:26:54Z</time></trkpt><trkpt lat="44.1004178" lon="10.3521128"><ele>947.9999999999999</ele><time>2026-04-14T13:26:58.999Z</time></trkpt><trkpt lat="44.1004663" lon="10.3520484"><ele>947.9999999999999</ele><time>2026-04-14T13:27:03Z</time></trkpt><trkpt lat="44.1005202" lon="10.351972"><ele>947.5714285714284</ele><time>2026-04-14T13:27:07Z</time></trkpt><trkpt lat="44.100575" lon="10.3518882"><ele>947.1428571428571</ele><time>2026-04-14T13:27:10.999Z</time></trkpt><trkpt lat="44.100623" lon="10.3518164"><ele>946.7142857142857</ele><time>2026-04-14T13:27:14.999Z</time></trkpt><trkpt lat="44.1006706" lon="10.3517511"><ele>946.2857142857142</ele><time>2026-04-14T13:27:19Z</time></trkpt><trkpt lat="44.1007311" lon="10.3516768"><ele>945.8571428571429</ele><time>2026-04-14T13:27:24Z</time></trkpt><trkpt lat="44.1007878" lon="10.3516211"><ele>945.4285714285714</ele><time>2026-04-14T13:27:28Z</time></trkpt><trkpt lat="44.1008489" lon="10.3515795"><ele>945.0</ele><time>2026-04-14T13:27:31.999Z</time></trkpt><trkpt lat="44.1009109" lon="10.3515526"><ele>947.5714285714286</ele><time>2026-04-14T13:27:36Z</time></trkpt><trkpt lat="44.1009758" lon="10.351517"><ele>950.1428571428571</ele><time>2026-04-14T13:27:39.999Z</time></trkpt><trkpt lat="44.1010411" lon="10.3514937"><ele>952.7142857142858</ele><time>2026-04-14T13:27:44Z</time></trkpt><trkpt lat="44.101104" lon="10.3514815"><ele>955.2857142857143</ele><time>2026-04-14T13:27:48Z</time></trkpt><trkpt lat="44.1011682" lon="10.3514696"><ele>957.8571428571429</ele><time>2026-04-14T13:27:51.999Z</time></trkpt><trkpt lat="44.1012361" lon="10.3514625"><ele>960.4285714285716</ele><time>2026-04-14T13:27:56Z</time></trkpt><trkpt lat="44.1013116" lon="10.3514428"><ele>963.0000000000001</ele><time>2026-04-14T13:28:00Z</time></trkpt><trkpt lat="44.1013832" lon="10.3514236"><ele>963.0000000000001</ele><time>2026-04-14T13:28:03.999Z</time></trkpt><trkpt lat="44.1014604" lon="10.3513998"><ele>963.0</ele><time>2026-04-14T13:28:07.999Z</time></trkpt><trkpt lat="44.1015374" lon="10.3513646"><ele>963.0000000000001</ele><time>2026-04-14T13:28:12Z</time></trkpt><trkpt lat="44.1015949" lon="10.3513283"><ele>963.0000000000001</ele><time>2026-04-14T13:28:14.999Z</time></trkpt><trkpt lat="44.1016494" lon="10.3512796"><ele>963.0</ele><time>2026-04-14T13:28:18Z</time></trkpt><trkpt lat="44.1016971" lon="10.3512171"><ele>963.0000000000001</ele><time>2026-04-14T13:28:21Z</time></trkpt><trkpt lat="44.1017406" lon="10.3511469"><ele>963.0000000000001</ele><time>2026-04-14T13:28:24Z</time></trkpt><trkpt lat="44.1017812" lon="10.3510791"><ele>964.1428571428573</ele><time>2026-04-14T13:28:26.999Z</time></trkpt><trkpt lat="44.1018226" lon="10.3510031"><ele>965.2857142857143</ele><time>2026-04-14T13:28:29.999Z</time></trkpt><trkpt lat="44.1018601" lon="10.3509254"><ele>966.4285714285716</ele><time>2026-04-14T13:28:32.999Z</time></trkpt><trkpt lat="44.1018958" lon="10.350846"><ele>967.5714285714287</ele><time>2026-04-14T13:28:36Z</time></trkpt><trkpt lat="44.1019366" lon="10.3507741"><ele>968.7142857142858</ele><time>2026-04-14T13:28:39Z</time></trkpt><trkpt lat="44.1019702" lon="10.3506984"><ele>969.8571428571429</ele><time>2026-04-14T13:28:41.999Z</time></trkpt><trkpt lat="44.1019982" lon="10.3506178"><ele>971.0</ele><time>2026-04-14T13:28:45Z</time></trkpt><trkpt lat="44.101996" lon="10.3505248"><ele>971.0</ele><time>2026-04-14T13:28:48Z</time></trkpt><trkpt lat="44.1019543" lon="10.3504229"><ele>971.0000000000001</ele><time>2026-04-14T13:28:52Z</time></trkpt><trkpt lat="44.1019114" lon="10.3503578"><ele>971.0</ele><time>2026-04-14T13:28:55Z</time></trkpt><trkpt lat="44.1018612" lon="10.3503027"><ele>971.0</ele><time>2026-04-14T13:28:57.999Z</time></trkpt><trkpt lat="44.1018123" lon="10.3502434"><ele>971.0000000000001</ele><time>2026-04-14T13:29:00.999Z</time></trkpt><trkpt lat="44.1017813" lon="10.350139"><ele>971.0</ele><time>2026-04-14T13:29:05Z</time></trkpt><trkpt lat="44.1017931" lon="10.350028"><ele>971.0</ele><time>2026-04-14T13:29:09Z</time></trkpt><trkpt lat="44.101815" lon="10.3499422"><ele>971.0</ele><time>2026-04-14T13:29:12Z</time></trkpt><trkpt lat="44.1018493" lon="10.3498412"><ele>971.0000000000001</ele><time>2026-04-14T13:29:16Z</time></trkpt><trkpt lat="44.1018779" lon="10.3497623"><ele>971.0</ele><time>2026-04-14T13:29:19Z</time></trkpt><trkpt lat="44.1019006" lon="10.349676"><ele>971.0</ele><time>2026-04-14T13:29:21.999Z</time></trkpt><trkpt lat="44.1019255" lon="10.3495877"><ele>971.0000000000001</ele><time>2026-04-14T13:29:24.999Z</time></trkpt><trkpt lat="44.101951" lon="10.3495067"><ele>971.0</ele><time>2026-04-14T13:29:28Z</time></trkpt><trkpt lat="44.1019696" lon="10.3494197"><ele>971.0</ele><time>2026-04-14T13:29:31Z</time></trkpt><trkpt lat="44.1019873" lon="10.3493103"><ele>971.2857142857143</ele><time>2026-04-14T13:29:34.999Z</time></trkpt><trkpt lat="44.1020039" lon="10.3492252"><ele>971.5714285714287</ele><time>2026-04-14T13:29:38Z</time></trkpt><trkpt lat="44.1020185" lon="10.3491378"><ele>971.8571428571429</ele><time>2026-04-14T13:29:40.999Z</time></trkpt><trkpt lat="44.1020286" lon="10.349047"><ele>972.1428571428571</ele><time>2026-04-14T13:29:44Z</time></trkpt><trkpt lat="44.1020306" lon="10.3489365"><ele>972.4285714285714</ele><time>2026-04-14T13:29:48Z</time></trkpt><trkpt lat="44.1020324" lon="10.348834"><ele>972.7142857142858</ele><time>2026-04-14T13:29:52Z</time></trkpt><trkpt lat="44.1020407" lon="10.3487327"><ele>973.0</ele><time>2026-04-14T13:29:56Z</time></trkpt><trkpt lat="44.102064" lon="10.3486319"><ele>973.0</ele><time>2026-04-14T13:30:00Z</time></trkpt><trkpt lat="44.1020973" lon="10.3485328"><ele>973.0</ele><time>2026-04-14T13:30:03.999Z</time></trkpt><trkpt lat="44.1021273" lon="10.3484509"><ele>973.0</ele><time>2026-04-14T13:30:06.999Z</time></trkpt><trkpt lat="44.1021682" lon="10.3483452"><ele>973.0</ele><time>2026-04-14T13:30:10.999Z</time></trkpt><trkpt lat="44.1021997" lon="10.3482628"><ele>973.0</ele><time>2026-04-14T13:30:14Z</time></trkpt><trkpt lat="44.1022341" lon="10.348186"><ele>973.0</ele><time>2026-04-14T13:30:17Z</time></trkpt><trkpt lat="44.1022732" lon="10.3480819"><ele>973.0</ele><time>2026-04-14T13:30:21Z</time></trkpt><trkpt lat="44.1023126" lon="10.3479938"><ele>971.0</ele><time>2026-04-14T13:30:24Z</time></trkpt><trkpt lat="44.1023694" lon="10.3479086"><ele>969.0</ele><time>2026-04-14T13:30:28Z</time></trkpt><trkpt lat="44.1024287" lon="10.3478547"><ele>967.0</ele><time>2026-04-14T13:30:31.999Z</time></trkpt><trkpt lat="44.1024909" lon="10.3478186"><ele>965.0</ele><time>2026-04-14T13:30:35.999Z</time></trkpt><trkpt lat="44.1025531" lon="10.3477879"><ele>963.0</ele><time>2026-04-14T13:30:42Z</time></trkpt><trkpt lat="44.1026114" lon="10.347732"><ele>961.0</ele><time>2026-04-14T13:31:04Z</time></trkpt><trkpt lat="44.1026743" lon="10.3476638"><ele>959.0</ele><time>2026-04-14T13:31:07.999Z</time></trkpt><trkpt lat="44.1027297" lon="10.3475793"><ele>966.3333333333334</ele><time>2026-04-14T13:31:12Z</time></trkpt><trkpt lat="44.102767" lon="10.3474787"><ele>973.6666666666667</ele><time>2026-04-14T13:31:16Z</time></trkpt><trkpt lat="44.1027916" lon="10.347387"><ele>981.0</ele><time>2026-04-14T13:31:20Z</time></trkpt><trkpt lat="44.1028033" lon="10.347286"><ele>988.3333333333333</ele><time>2026-04-14T13:31:24Z</time></trkpt><trkpt lat="44.1028131" lon="10.3471781"><ele>995.6666666666666</ele><time>2026-04-14T13:31:27.999Z</time></trkpt><trkpt lat="44.1028038" lon="10.3470737"><ele>1003.0</ele><time>2026-04-14T13:31:32Z</time></trkpt><trkpt lat="44.1028065" lon="10.3469722"><ele>1003.2857142857142</ele><time>2026-04-14T13:31:36Z</time></trkpt><trkpt lat="44.102812" lon="10.3468618"><ele>1003.5714285714284</ele><time>2026-04-14T13:31:39.999Z</time></trkpt><trkpt lat="44.1027993" lon="10.3467587"><ele>1003.8571428571429</ele><time>2026-04-14T13:31:43.999Z</time></trkpt><trkpt lat="44.1027925" lon="10.3466469"><ele>1004.1428571428571</ele><time>2026-04-14T13:31:47.999Z</time></trkpt><trkpt lat="44.1027742" lon="10.3465607"><ele>1004.4285714285714</ele><time>2026-04-14T13:31:51Z</time></trkpt><trkpt lat="44.1027557" lon="10.3464693"><ele>1004.7142857142858</ele><time>2026-04-14T13:31:54Z</time></trkpt><trkpt lat="44.1027342" lon="10.3463621"><ele>1005.0000000000001</ele><time>2026-04-14T13:31:58Z</time></trkpt><trkpt lat="44.102711" lon="10.3462529"><ele>1006.5</ele><time>2026-04-14T13:32:01.999Z</time></trkpt><trkpt lat="44.1026953" lon="10.3461413"><ele>1008.0</ele><time>2026-04-14T13:32:06Z</time></trkpt><trkpt lat="44.1026946" lon="10.3460289"><ele>1009.5</ele><time>2026-04-14T13:32:09.999Z</time></trkpt><trkpt lat="44.1027009" lon="10.3459399"><ele>1011.0</ele><time>2026-04-14T13:32:14Z</time></trkpt><trkpt lat="44.1027166" lon="10.3458453"><ele>1012.5</ele><time>2026-04-14T13:32:18Z</time></trkpt><trkpt lat="44.1027423" lon="10.3457366"><ele>1014.0</ele><time>2026-04-14T13:32:22Z</time></trkpt><trkpt lat="44.102767" lon="10.3456344"><ele>1015.5714285714286</ele><time>2026-04-14T13:32:26Z</time></trkpt><trkpt lat="44.1027961" lon="10.3455292"><ele>1017.1428571428571</ele><time>2026-04-14T13:32:30Z</time></trkpt><trkpt lat="44.1028216" lon="10.3454476"><ele>1018.7142857142857</ele><time>2026-04-14T13:32:33Z</time></trkpt><trkpt lat="44.1028277" lon="10.345353"><ele>1020.2857142857142</ele><time>2026-04-14T13:32:37Z</time></trkpt><trkpt lat="44.1028082" lon="10.3452673"><ele>1021.8571428571429</ele><time>2026-04-14T13:32:42Z</time></trkpt><trkpt lat="44.1027445" lon="10.3451999"><ele>1023.4285714285713</ele><time>2026-04-14T13:34:43.999Z</time></trkpt><trkpt lat="44.1026902" lon="10.3451524"><ele>1025.0</ele><time>2026-04-14T13:34:47Z</time></trkpt><trkpt lat="44.1026214" lon="10.3451341"><ele>1025.0</ele><time>2026-04-14T13:34:49.999Z</time></trkpt><trkpt lat="44.1025458" lon="10.345086"><ele>1025.0</ele><time>2026-04-14T13:34:54Z</time></trkpt><trkpt lat="44.1024674" lon="10.3450514"><ele>1025.0</ele><time>2026-04-14T13:34:58Z</time></trkpt><trkpt lat="44.1024068" lon="10.3450236"><ele>1025.0</ele><time>2026-04-14T13:35:00.999Z</time></trkpt><trkpt lat="44.1023369" lon="10.3449671"><ele>1025.0</ele><time>2026-04-14T13:35:04.999Z</time></trkpt><trkpt lat="44.1022899" lon="10.3448815"><ele>1025.0</ele><time>2026-04-14T13:35:08.999Z</time></trkpt><trkpt lat="44.1022748" lon="10.344776"><ele>1021.1666666666667</ele><time>2026-04-14T13:35:13Z</time></trkpt><trkpt lat="44.1022722" lon="10.3446661"><ele>1017.3333333333334</ele><time>2026-04-14T13:35:17Z</time></trkpt><trkpt lat="44.1022709" lon="10.344552"><ele>1013.5</ele><time>2026-04-14T13:35:21Z</time></trkpt><trkpt lat="44.1022917" lon="10.344444"><ele>1009.6666666666667</ele><time>2026-04-14T13:35:25Z</time></trkpt><trkpt lat="44.1023194" lon="10.3443608"><ele>1005.8333333333334</ele><time>2026-04-14T13:35:28Z</time></trkpt><trkpt lat="44.1023537" lon="10.3442817"><ele>1002.0</ele><time>2026-04-14T13:35:31Z</time></trkpt><trkpt lat="44.1024005" lon="10.3441974"><ele>1006.5714285714287</ele><time>2026-04-14T13:35:34.999Z</time></trkpt><trkpt lat="44.1024404" lon="10.3441258"><ele>1011.1428571428571</ele><time>2026-04-14T13:35:37.999Z</time></trkpt><trkpt lat="44.1024948" lon="10.3440428"><ele>1015.7142857142858</ele><time>2026-04-14T13:35:42Z</time></trkpt><trkpt lat="44.1025388" lon="10.3439576"><ele>1020.2857142857143</ele><time>2026-04-14T13:35:45.999Z</time></trkpt><trkpt lat="44.1025943" lon="10.3438781"><ele>1024.857142857143</ele><time>2026-04-14T13:35:49.999Z</time></trkpt><trkpt lat="44.1026417" lon="10.3438144"><ele>1029.4285714285716</ele><time>2026-04-14T13:35:52.999Z</time></trkpt><trkpt lat="44.1026947" lon="10.3437669"><ele>1034.0</ele><time>2026-04-14T13:35:56Z</time></trkpt><trkpt lat="44.1027543" lon="10.3437309"><ele>1034.0</ele><time>2026-04-14T13:35:59Z</time></trkpt><trkpt lat="44.102828" lon="10.3436816"><ele>1034.0</ele><time>2026-04-14T13:36:02.999Z</time></trkpt><trkpt lat="44.1029004" lon="10.3436246"><ele>1034.0</ele><time>2026-04-14T13:36:07Z</time></trkpt><trkpt lat="44.1029622" lon="10.3435796"><ele>1034.0</ele><time>2026-04-14T13:36:11.999Z</time></trkpt><trkpt lat="44.1030311" lon="10.343536"><ele>1034.0</ele><time>2026-04-14T13:36:15.999Z</time></trkpt><trkpt lat="44.1030987" lon="10.3434957"><ele>1034.0</ele><time>2026-04-14T13:36:18.999Z</time></trkpt><trkpt lat="44.1031542" lon="10.3434469"><ele>1034.0</ele><time>2026-04-14T13:36:22Z</time></trkpt><trkpt lat="44.1032148" lon="10.3434111"><ele>1034.0</ele><time>2026-04-14T13:36:25Z</time></trkpt><trkpt lat="44.1032693" lon="10.3433619"><ele>1034.0</ele><time>2026-04-14T13:36:28Z</time></trkpt><trkpt lat="44.1033237" lon="10.3433087"><ele>1034.0</ele><time>2026-04-14T13:36:30.999Z</time></trkpt><trkpt lat="44.1033891" lon="10.343258"><ele>1034.0</ele><time>2026-04-14T13:36:35Z</time></trkpt><trkpt lat="44.1034481" lon="10.3432272"><ele>1034.0</ele><time>2026-04-14T13:36:38Z</time></trkpt><trkpt lat="44.1035234" lon="10.3431822"><ele>1034.0</ele><time>2026-04-14T13:36:41.999Z</time></trkpt><trkpt lat="44.1035832" lon="10.3431508"><ele>1034.0</ele><time>2026-04-14T13:36:45.999Z</time></trkpt><trkpt lat="44.1036444" lon="10.3431037"><ele>1034.0</ele><time>2026-04-14T13:36:49Z</time></trkpt><trkpt lat="44.1037065" lon="10.3430645"><ele>1034.0</ele><time>2026-04-14T13:36:52Z</time></trkpt><trkpt lat="44.1037598" lon="10.3430085"><ele>1034.0</ele><time>2026-04-14T13:36:54.999Z</time></trkpt><trkpt lat="44.1038056" lon="10.3429217"><ele>1034.0</ele><time>2026-04-14T13:36:57.999Z</time></trkpt><trkpt lat="44.1038419" lon="10.3428451"><ele>1034.0</ele><time>2026-04-14T13:37:01Z</time></trkpt><trkpt lat="44.1038755" lon="10.3427431"><ele>1034.0</ele><time>2026-04-14T13:37:05Z</time></trkpt><trkpt lat="44.1039058" lon="10.3426576"><ele>1034.0</ele><time>2026-04-14T13:37:07.999Z</time></trkpt><trkpt lat="44.103952" lon="10.3425692"><ele>1034.0</ele><time>2026-04-14T13:37:11Z</time></trkpt><trkpt lat="44.1040084" lon="10.3424929"><ele>1034.0</ele><time>2026-04-14T13:37:14Z</time></trkpt><trkpt lat="44.1040769" lon="10.3424266"><ele>1034.0</ele><time>2026-04-14T13:37:17Z</time></trkpt><trkpt lat="44.1041482" lon="10.3423875"><ele>1034.0</ele><time>2026-04-14T13:37:20Z</time></trkpt><trkpt lat="44.1042079" lon="10.3423514"><ele>1034.0</ele><time>2026-04-14T13:37:23.024Z</time></trkpt><trkpt lat="44.1042672" lon="10.342316"><ele>1034.0</ele><time>2026-04-14T13:37:26Z</time></trkpt><trkpt lat="44.1043379" lon="10.3422658"><ele>1035.5714285714287</ele><time>2026-04-14T13:37:30Z</time></trkpt><trkpt lat="44.1044094" lon="10.3422163"><ele>1037.1428571428573</ele><time>2026-04-14T13:37:33Z</time></trkpt><trkpt lat="44.1044732" lon="10.342161"><ele>1038.7142857142858</ele><time>2026-04-14T13:37:36Z</time></trkpt><trkpt lat="44.1045242" lon="10.3420849"><ele>1040.2857142857142</ele><time>2026-04-14T13:37:39Z</time></trkpt><trkpt lat="44.104552" lon="10.3419992"><ele>1041.8571428571427</ele><time>2026-04-14T13:37:42Z</time></trkpt><trkpt lat="44.1045692" lon="10.3418948"><ele>1043.4285714285713</ele><time>2026-04-14T13:37:45.999Z</time></trkpt><trkpt lat="44.1045731" lon="10.3418015"><ele>1045.0</ele><time>2026-04-14T13:37:48.999Z</time></trkpt><trkpt lat="44.1045676" lon="10.3417077"><ele>1045.0</ele><time>2026-04-14T13:37:52Z</time></trkpt><trkpt lat="44.1045723" lon="10.3416198"><ele>1045.0</ele><time>2026-04-14T13:37:55Z</time></trkpt><trkpt lat="44.1045731" lon="10.3415317"><ele>1045.0</ele><time>2026-04-14T13:37:58Z</time></trkpt><trkpt lat="44.1045585" lon="10.3414407"><ele>1045.0</ele><time>2026-04-14T13:38:01Z</time></trkpt><trkpt lat="44.1045392" lon="10.3413556"><ele>1045.0</ele><time>2026-04-14T13:38:04Z</time></trkpt><trkpt lat="44.1045346" lon="10.3412616"><ele>1045.0</ele><time>2026-04-14T13:38:07Z</time></trkpt><trkpt lat="44.1045422" lon="10.3411619"><ele>1045.0</ele><time>2026-04-14T13:38:10Z</time></trkpt><trkpt lat="44.104585" lon="10.3410575"><ele>1045.0</ele><time>2026-04-14T13:38:14Z</time></trkpt><trkpt lat="44.1046248" lon="10.3409849"><ele>1045.0</ele><time>2026-04-14T13:38:17Z</time></trkpt><trkpt lat="44.104664" lon="10.3408982"><ele>1045.0</ele><time>2026-04-14T13:38:19.999Z</time></trkpt><trkpt lat="44.1047113" lon="10.3408007"><ele>1045.0</ele><time>2026-04-14T13:38:23.999Z</time></trkpt><trkpt lat="44.1047603" lon="10.3407089"><ele>1045.0</ele><time>2026-04-14T13:38:28.019Z</time></trkpt><trkpt lat="44.1048036" lon="10.3406451"><ele>1045.0</ele><time>2026-04-14T13:38:32Z</time></trkpt><trkpt lat="44.1048466" lon="10.3405468"><ele>1046.7142857142858</ele><time>2026-04-14T13:38:35Z</time></trkpt><trkpt lat="44.1048983" lon="10.3404712"><ele>1048.4285714285713</ele><time>2026-04-14T13:38:38Z</time></trkpt><trkpt lat="44.1049595" lon="10.3404091"><ele>1050.142857142857</ele><time>2026-04-14T13:38:41Z</time></trkpt><trkpt lat="44.1050238" lon="10.340372"><ele>1051.857142857143</ele><time>2026-04-14T13:38:43.999Z</time></trkpt><trkpt lat="44.1050871" lon="10.3403334"><ele>1053.5714285714284</ele><time>2026-04-14T13:38:46.999Z</time></trkpt><trkpt lat="44.105143" lon="10.3402769"><ele>1055.2857142857142</ele><time>2026-04-14T13:38:50Z</time></trkpt><trkpt lat="44.1051788" lon="10.3401929"><ele>1057.0</ele><time>2026-04-14T13:38:53Z</time></trkpt><trkpt lat="44.1051768" lon="10.3400908"><ele>1059.3333333333333</ele><time>2026-04-14T13:38:56Z</time></trkpt><trkpt lat="44.1051442" lon="10.3400016"><ele>1061.6666666666665</ele><time>2026-04-14T13:38:59Z</time></trkpt><trkpt lat="44.1050878" lon="10.3399155"><ele>1064.0</ele><time>2026-04-14T13:39:01.999Z</time></trkpt><trkpt lat="44.1050298" lon="10.3398403"><ele>1066.3333333333333</ele><time>2026-04-14T13:39:04.999Z</time></trkpt><trkpt lat="44.1049749" lon="10.3397713"><ele>1068.6666666666667</ele><time>2026-04-14T13:39:07.999Z</time></trkpt><trkpt lat="44.104927" lon="10.3396951"><ele>1071.0</ele><time>2026-04-14T13:39:11Z</time></trkpt><trkpt lat="44.1048784" lon="10.3396226"><ele>1071.0</ele><time>2026-04-14T13:39:14Z</time></trkpt><trkpt lat="44.1048306" lon="10.3395524"><ele>1071.0</ele><time>2026-04-14T13:39:17Z</time></trkpt><trkpt lat="44.1047844" lon="10.339483"><ele>1071.0</ele><time>2026-04-14T13:39:20Z</time></trkpt><trkpt lat="44.1047333" lon="10.3394311"><ele>1071.0</ele><time>2026-04-14T13:39:23Z</time></trkpt><trkpt lat="44.1046822" lon="10.3393778"><ele>1071.0</ele><time>2026-04-14T13:39:27Z</time></trkpt><trkpt lat="44.1046026" lon="10.3393297"><ele>1071.0</ele><time>2026-04-14T13:39:31Z</time></trkpt><trkpt lat="44.1045344" lon="10.339307"><ele>1071.0</ele><time>2026-04-14T13:39:33.999Z</time></trkpt><trkpt lat="44.1044741" lon="10.3392787"><ele>1071.0</ele><time>2026-04-14T13:39:37Z</time></trkpt><trkpt lat="44.1044116" lon="10.3392251"><ele>1071.0</ele><time>2026-04-14T13:39:40.999Z</time></trkpt><trkpt lat="44.1043586" lon="10.3391582"><ele>1071.0</ele><time>2026-04-14T13:39:44.999Z</time></trkpt><trkpt lat="44.1043248" lon="10.3390652"><ele>1071.0</ele><time>2026-04-14T13:39:49.999Z</time></trkpt><trkpt lat="44.1043232" lon="10.338965"><ele>1071.0</ele><time>2026-04-14T13:39:54Z</time></trkpt><trkpt lat="44.1043341" lon="10.3388779"><ele>1071.0</ele><time>2026-04-14T13:39:56.999Z</time></trkpt><trkpt lat="44.1043484" lon="10.3387919"><ele>1071.0</ele><time>2026-04-14T13:40:00Z</time></trkpt><trkpt lat="44.1043574" lon="10.3386821"><ele>1071.7142857142858</ele><time>2026-04-14T13:40:03.999Z</time></trkpt><trkpt lat="44.104362" lon="10.3385743"><ele>1072.4285714285716</ele><time>2026-04-14T13:40:08Z</time></trkpt><trkpt lat="44.1043562" lon="10.3384865"><ele>1073.142857142857</ele><time>2026-04-14T13:40:11Z</time></trkpt><trkpt lat="44.1043411" lon="10.3383956"><ele>1073.857142857143</ele><time>2026-04-14T13:40:13.999Z</time></trkpt><trkpt lat="44.1043232" lon="10.3382812"><ele>1074.5714285714287</ele><time>2026-04-14T13:40:18Z</time></trkpt><trkpt lat="44.104302" lon="10.3381965"><ele>1075.2857142857142</ele><time>2026-04-14T13:40:21Z</time></trkpt><trkpt lat="44.1042793" lon="10.338112"><ele>1076.0</ele><time>2026-04-14T13:40:24Z</time></trkpt><trkpt lat="44.1042591" lon="10.3380288"><ele>1076.142857142857</ele><time>2026-04-14T13:40:27Z</time></trkpt><trkpt lat="44.1042354" lon="10.3379438"><ele>1076.2857142857144</ele><time>2026-04-14T13:40:30Z</time></trkpt><trkpt lat="44.1042106" lon="10.3378558"><ele>1076.4285714285716</ele><time>2026-04-14T13:40:33Z</time></trkpt><trkpt lat="44.104189" lon="10.3377632"><ele>1076.5714285714287</ele><time>2026-04-14T13:40:36Z</time></trkpt><trkpt lat="44.1041577" lon="10.3376819"><ele>1076.7142857142858</ele><time>2026-04-14T13:40:39Z</time></trkpt><trkpt lat="44.1041213" lon="10.3376045"><ele>1076.857142857143</ele><time>2026-04-14T13:40:41.999Z</time></trkpt><trkpt lat="44.1040758" lon="10.3375338"><ele>1077.0</ele><time>2026-04-14T13:40:44.999Z</time></trkpt><trkpt lat="44.1040324" lon="10.3374677"><ele>1077.0</ele><time>2026-04-14T13:40:48Z</time></trkpt><trkpt lat="44.1039842" lon="10.3374112"><ele>1077.0</ele><time>2026-04-14T13:40:51Z</time></trkpt><trkpt lat="44.1039328" lon="10.3373499"><ele>1077.0</ele><time>2026-04-14T13:40:53.999Z</time></trkpt><trkpt lat="44.1038671" lon="10.3372952"><ele>1077.0</ele><time>2026-04-14T13:40:56.999Z</time></trkpt><trkpt lat="44.1038159" lon="10.3372364"><ele>1077.0</ele><time>2026-04-14T13:40:59.999Z</time></trkpt><trkpt lat="44.1037534" lon="10.3371662"><ele>1077.0</ele><time>2026-04-14T13:41:04.004Z</time></trkpt><trkpt lat="44.1036934" lon="10.3371339"><ele>1077.0</ele><time>2026-04-14T13:41:06.999Z</time></trkpt><trkpt lat="44.1036306" lon="10.3371011"><ele>1078.0</ele><time>2026-04-14T13:41:10.999Z</time></trkpt><trkpt lat="44.1035637" lon="10.3370691"><ele>1079.0</ele><time>2026-04-14T13:41:15Z</time></trkpt><trkpt lat="44.103483" lon="10.3370665"><ele>1080.0</ele><time>2026-04-14T13:41:19Z</time></trkpt><trkpt lat="44.1034108" lon="10.3369804"><ele>1081.0</ele><time>2026-04-14T13:41:21.999Z</time></trkpt><trkpt lat="44.1033651" lon="10.3368682"><ele>1082.0</ele><time>2026-04-14T13:41:24Z</time></trkpt><trkpt lat="44.1033185" lon="10.3367164"><ele>1082.0</ele><time>2026-04-14T13:41:26Z</time></trkpt><trkpt lat="44.1032969" lon="10.3366278"><ele>1082.0</ele><time>2026-04-14T13:41:26.999Z</time></trkpt><trkpt lat="44.1032676" lon="10.3365324"><ele>1082.0</ele><time>2026-04-14T13:41:28Z</time></trkpt><trkpt lat="44.1032263" lon="10.3364341"><ele>1082.0</ele><time>2026-04-14T13:41:28.999Z</time></trkpt><trkpt lat="44.1031815" lon="10.3363279"><ele>1082.0</ele><time>2026-04-14T13:41:30Z</time></trkpt><trkpt lat="44.1031254" lon="10.3362224"><ele>1082.0</ele><time>2026-04-14T13:41:31Z</time></trkpt><trkpt lat="44.1030554" lon="10.3361308"><ele>1082.0</ele><time>2026-04-14T13:41:31.999Z</time></trkpt><trkpt lat="44.1029713" lon="10.336054"><ele>1082.0</ele><time>2026-04-14T13:41:33Z</time></trkpt><trkpt lat="44.1028837" lon="10.3359895"><ele>1082.0</ele><time>2026-04-14T13:41:33.999Z</time></trkpt><trkpt lat="44.1028054" lon="10.3359248"><ele>1082.0</ele><time>2026-04-14T13:41:34.999Z</time></trkpt><trkpt lat="44.102739" lon="10.3358381"><ele>1082.0</ele><time>2026-04-14T13:41:36Z</time></trkpt><trkpt lat="44.1026728" lon="10.3357049"><ele>1082.0</ele><time>2026-04-14T13:41:37Z</time></trkpt><trkpt lat="44.1025965" lon="10.3355837"><ele>1082.0</ele><time>2026-04-14T13:41:37.999Z</time></trkpt><trkpt lat="44.102508" lon="10.3354749"><ele>1082.0</ele><time>2026-04-14T13:41:39Z</time></trkpt><trkpt lat="44.1024233" lon="10.3353868"><ele>1082.0</ele><time>2026-04-14T13:41:39.999Z</time></trkpt><trkpt lat="44.1023478" lon="10.3353134"><ele>1082.0</ele><time>2026-04-14T13:41:41Z</time></trkpt><trkpt lat="44.1022805" lon="10.3352377"><ele>1081.6666666666667</ele><time>2026-04-14T13:41:42Z</time></trkpt><trkpt lat="44.1022234" lon="10.3351653"><ele>1081.3333333333335</ele><time>2026-04-14T13:41:43Z</time></trkpt><trkpt lat="44.1021758" lon="10.3350664"><ele>1081.0</ele><time>2026-04-14T13:41:44Z</time></trkpt><trkpt lat="44.1021471" lon="10.3349622"><ele>1080.6666666666667</ele><time>2026-04-14T13:41:44.999Z</time></trkpt><trkpt lat="44.1021202" lon="10.3348473"><ele>1080.3333333333333</ele><time>2026-04-14T13:41:46Z</time></trkpt><trkpt lat="44.1021308" lon="10.3347148"><ele>1080.0</ele><time>2026-04-14T13:41:47Z</time></trkpt><trkpt lat="44.1021228" lon="10.3345926"><ele>1080.8</ele><time>2026-04-14T13:41:47.999Z</time></trkpt><trkpt lat="44.1021139" lon="10.3344524"><ele>1081.6</ele><time>2026-04-14T13:41:49Z</time></trkpt><trkpt lat="44.1021127" lon="10.3342672"><ele>1082.4</ele><time>2026-04-14T13:41:49.999Z</time></trkpt><trkpt lat="44.102091" lon="10.3341428"><ele>1083.2</ele><time>2026-04-14T13:41:51Z</time></trkpt><trkpt lat="44.1020724" lon="10.3339871"><ele>1084.0</ele><time>2026-04-14T13:41:51.999Z</time></trkpt><trkpt lat="44.1020256" lon="10.3338266"><ele>1084.5</ele><time>2026-04-14T13:41:52.999Z</time></trkpt><trkpt lat="44.1019813" lon="10.3336794"><ele>1085.0</ele><time>2026-04-14T13:41:53.999Z</time></trkpt><trkpt lat="44.1019597" lon="10.3335211"><ele>1085.5</ele><time>2026-04-14T13:41:55Z</time></trkpt><trkpt lat="44.1019718" lon="10.3333547"><ele>1086.0</ele><time>2026-04-14T13:41:56Z</time></trkpt><trkpt lat="44.1019874" lon="10.3331898"><ele>1083.75</ele><time>2026-04-14T13:41:56.999Z</time></trkpt><trkpt lat="44.1020142" lon="10.3330196"><ele>1081.5</ele><time>2026-04-14T13:41:58Z</time></trkpt><trkpt lat="44.1020565" lon="10.3328548"><ele>1079.25</ele><time>2026-04-14T13:41:59Z</time></trkpt><trkpt lat="44.1021067" lon="10.3326902"><ele>1077.0</ele><time>2026-04-14T13:42:00Z</time></trkpt><trkpt lat="44.1021585" lon="10.3325451"><ele>1077.0</ele><time>2026-04-14T13:42:00.999Z</time></trkpt><trkpt lat="44.1022072" lon="10.3324082"><ele>1077.0</ele><time>2026-04-14T13:42:02Z</time></trkpt><trkpt lat="44.1022164" lon="10.3322792"><ele>1077.0</ele><time>2026-04-14T13:42:03Z</time></trkpt><trkpt lat="44.1022146" lon="10.3321723"><ele>1077.0</ele><time>2026-04-14T13:42:04Z</time></trkpt><trkpt lat="44.1022146" lon="10.3320559"><ele>1077.0</ele><time>2026-04-14T13:42:04.999Z</time></trkpt><trkpt lat="44.1021637" lon="10.3319707"><ele>1077.0</ele><time>2026-04-14T13:42:06Z</time></trkpt><trkpt lat="44.1021601" lon="10.331837"><ele>1077.0</ele><time>2026-04-14T13:42:07.999Z</time></trkpt><trkpt lat="44.1022403" lon="10.3318913"><ele>1077.0</ele><time>2026-04-14T13:42:11Z</time></trkpt><trkpt lat="44.1022762" lon="10.3320015"><ele>1077.0</ele><time>2026-04-14T13:42:13Z</time></trkpt><trkpt lat="44.1023387" lon="10.3321234"><ele>1077.0</ele><time>2026-04-14T13:42:15Z</time></trkpt><trkpt lat="44.1023997" lon="10.3322441"><ele>1077.0</ele><time>2026-04-14T13:42:17Z</time></trkpt><trkpt lat="44.1024854" lon="10.3323427"><ele>1072.1666666666667</ele><time>2026-04-14T13:42:19Z</time></trkpt><trkpt lat="44.1025948" lon="10.3324091"><ele>1067.3333333333333</ele><time>2026-04-14T13:42:21Z</time></trkpt><trkpt lat="44.1026516" lon="10.3324574"><ele>1062.5</ele><time>2026-04-14T13:42:21.999Z</time></trkpt><trkpt lat="44.1027112" lon="10.3325001"><ele>1057.6666666666665</ele><time>2026-04-14T13:42:23Z</time></trkpt><trkpt lat="44.1027596" lon="10.3325634"><ele>1052.8333333333333</ele><time>2026-04-14T13:42:23.999Z</time></trkpt><trkpt lat="44.102801" lon="10.332639"><ele>1048.0</ele><time>2026-04-14T13:42:25Z</time></trkpt><trkpt lat="44.1027824" lon="10.3327568"><ele>1048.0</ele><time>2026-04-14T13:42:26Z</time></trkpt><trkpt lat="44.102791" lon="10.33285"><ele>1048.0</ele><time>2026-04-14T13:42:26.999Z</time></trkpt><trkpt lat="44.1027934" lon="10.3329622"><ele>1048.0</ele><time>2026-04-14T13:42:28Z</time></trkpt><trkpt lat="44.1028159" lon="10.3330653"><ele>1048.0</ele><time>2026-04-14T13:42:29Z</time></trkpt><trkpt lat="44.1028464" lon="10.3331624"><ele>1048.0</ele><time>2026-04-14T13:42:29.999Z</time></trkpt><trkpt lat="44.1028892" lon="10.3332597"><ele>1048.0</ele><time>2026-04-14T13:42:31Z</time></trkpt><trkpt lat="44.102934" lon="10.3333557"><ele>1048.5</ele><time>2026-04-14T13:42:32Z</time></trkpt><trkpt lat="44.1029845" lon="10.3334316"><ele>1049.0</ele><time>2026-04-14T13:42:33Z</time></trkpt><trkpt lat="44.1030615" lon="10.3334846"><ele>1049.5</ele><time>2026-04-14T13:42:33.999Z</time></trkpt><trkpt lat="44.1031323" lon="10.3335404"><ele>1050.0</ele><time>2026-04-14T13:42:35Z</time></trkpt><trkpt lat="44.103195" lon="10.3335904"><ele>1050.5</ele><time>2026-04-14T13:42:36Z</time></trkpt><trkpt lat="44.1032724" lon="10.3336391"><ele>1051.0</ele><time>2026-04-14T13:42:37Z</time></trkpt><trkpt lat="44.1033417" lon="10.3336939"><ele>1048.1666666666665</ele><time>2026-04-14T13:42:38Z</time></trkpt><trkpt lat="44.1034152" lon="10.3337354"><ele>1045.3333333333333</ele><time>2026-04-14T13:42:39Z</time></trkpt><trkpt lat="44.1034923" lon="10.3337817"><ele>1042.5</ele><time>2026-04-14T13:42:40Z</time></trkpt><trkpt lat="44.1035787" lon="10.3337965"><ele>1039.6666666666667</ele><time>2026-04-14T13:42:41Z</time></trkpt><trkpt lat="44.1036665" lon="10.3337827"><ele>1036.8333333333335</ele><time>2026-04-14T13:42:42Z</time></trkpt><trkpt lat="44.1037502" lon="10.3337339"><ele>1034.0</ele><time>2026-04-14T13:42:42.999Z</time></trkpt><trkpt lat="44.1038241" lon="10.3336555"><ele>1034.0</ele><time>2026-04-14T13:42:43.999Z</time></trkpt><trkpt lat="44.1038923" lon="10.3335599"><ele>1034.0</ele><time>2026-04-14T13:42:45Z</time></trkpt><trkpt lat="44.1039602" lon="10.3334485"><ele>1034.0</ele><time>2026-04-14T13:42:46Z</time></trkpt><trkpt lat="44.1040234" lon="10.3333312"><ele>1034.0</ele><time>2026-04-14T13:42:47Z</time></trkpt><trkpt lat="44.1040894" lon="10.3332083"><ele>1034.0</ele><time>2026-04-14T13:42:48Z</time></trkpt><trkpt lat="44.1041442" lon="10.3331071"><ele>1032.0</ele><time>2026-04-14T13:42:49Z</time></trkpt><trkpt lat="44.1041917" lon="10.3330235"><ele>1030.0</ele><time>2026-04-14T13:42:50Z</time></trkpt><trkpt lat="44.1042378" lon="10.3329556"><ele>1028.0</ele><time>2026-04-14T13:42:51Z</time></trkpt><trkpt lat="44.1042981" lon="10.3329091"><ele>1026.0</ele><time>2026-04-14T13:42:52Z</time></trkpt><trkpt lat="44.104365" lon="10.3328934"><ele>1024.0</ele><time>2026-04-14T13:42:53Z</time></trkpt><trkpt lat="44.1044624" lon="10.3329557"><ele>1022.0</ele><time>2026-04-14T13:42:55Z</time></trkpt><trkpt lat="44.1045151" lon="10.3330073"><ele>1022.0000000000001</ele><time>2026-04-14T13:42:57Z</time></trkpt><trkpt lat="44.1045866" lon="10.33302"><ele>1022.0</ele><time>2026-04-14T13:43:45.999Z</time></trkpt><trkpt lat="44.1046602" lon="10.3330109"><ele>1022.0</ele><time>2026-04-14T13:43:49Z</time></trkpt><trkpt lat="44.1047483" lon="10.3330498"><ele>1022.0</ele><time>2026-04-14T13:43:51.999Z</time></trkpt><trkpt lat="44.1048281" lon="10.3330977"><ele>1022.0000000000001</ele><time>2026-04-14T13:43:54Z</time></trkpt><trkpt lat="44.1049216" lon="10.3331793"><ele>1022.0</ele><time>2026-04-14T13:43:55.999Z</time></trkpt><trkpt lat="44.1049936" lon="10.3332878"><ele>1023.0</ele><time>2026-04-14T13:43:58Z</time></trkpt><trkpt lat="44.1050757" lon="10.3334145"><ele>1024.0</ele><time>2026-04-14T13:43:59.999Z</time></trkpt><trkpt lat="44.1051821" lon="10.3335038"><ele>1025.0</ele><time>2026-04-14T13:44:01.999Z</time></trkpt><trkpt lat="44.1052476" lon="10.3335303"><ele>1026.0</ele><time>2026-04-14T13:44:03Z</time></trkpt><trkpt lat="44.1053188" lon="10.3335336"><ele>1027.0</ele><time>2026-04-14T13:44:03.999Z</time></trkpt><trkpt lat="44.1053985" lon="10.333532"><ele>1027.0</ele><time>2026-04-14T13:44:05Z</time></trkpt><trkpt lat="44.1054825" lon="10.3335204"><ele>1027.0</ele><time>2026-04-14T13:44:05.999Z</time></trkpt><trkpt lat="44.1055564" lon="10.3334908"><ele>1027.0</ele><time>2026-04-14T13:44:07Z</time></trkpt><trkpt lat="44.105629" lon="10.3334652"><ele>1027.0</ele><time>2026-04-14T13:44:08Z</time></trkpt><trkpt lat="44.1057082" lon="10.3334104"><ele>1027.0</ele><time>2026-04-14T13:44:09Z</time></trkpt><trkpt lat="44.105784" lon="10.3333538"><ele>1027.0</ele><time>2026-04-14T13:44:10Z</time></trkpt><trkpt lat="44.1058609" lon="10.3332776"><ele>1025.0</ele><time>2026-04-14T13:44:11Z</time></trkpt><trkpt lat="44.1059303" lon="10.3331831"><ele>1023.0</ele><time>2026-04-14T13:44:12Z</time></trkpt><trkpt lat="44.1059966" lon="10.3330969"><ele>1021.0</ele><time>2026-04-14T13:44:13Z</time></trkpt><trkpt lat="44.1060672" lon="10.3330156"><ele>1019.0</ele><time>2026-04-14T13:44:14Z</time></trkpt><trkpt lat="44.1061535" lon="10.3329548"><ele>1017.0</ele><time>2026-04-14T13:44:14.999Z</time></trkpt><trkpt lat="44.1062474" lon="10.3329329"><ele>1014.2</ele><time>2026-04-14T13:44:16Z</time></trkpt><trkpt lat="44.1063467" lon="10.3329397"><ele>1011.4000000000001</ele><time>2026-04-14T13:44:16.999Z</time></trkpt><trkpt lat="44.1064429" lon="10.3329591"><ele>1008.5999999999999</ele><time>2026-04-14T13:44:18Z</time></trkpt><trkpt lat="44.1065436" lon="10.3329742"><ele>1005.8</ele><time>2026-04-14T13:44:18.999Z</time></trkpt><trkpt lat="44.1066417" lon="10.3329616"><ele>1003.0</ele><time>2026-04-14T13:44:20Z</time></trkpt><trkpt lat="44.106745" lon="10.332926"><ele>1002.5999999999999</ele><time>2026-04-14T13:44:21Z</time></trkpt><trkpt lat="44.1068429" lon="10.3328915"><ele>1002.1999999999999</ele><time>2026-04-14T13:44:22Z</time></trkpt><trkpt lat="44.1069497" lon="10.3328796"><ele>1001.8</ele><time>2026-04-14T13:44:22.999Z</time></trkpt><trkpt lat="44.1070509" lon="10.332925"><ele>1001.4</ele><time>2026-04-14T13:44:24Z</time></trkpt><trkpt lat="44.1071458" lon="10.3329982"><ele>1001.0</ele><time>2026-04-14T13:44:24.999Z</time></trkpt><trkpt lat="44.1072405" lon="10.333075"><ele>1002.75</ele><time>2026-04-14T13:44:26Z</time></trkpt><trkpt lat="44.1073427" lon="10.333136"><ele>1004.5</ele><time>2026-04-14T13:44:27Z</time></trkpt><trkpt lat="44.1074467" lon="10.3331848"><ele>1006.25</ele><time>2026-04-14T13:44:28Z</time></trkpt><trkpt lat="44.1075601" lon="10.3332245"><ele>1008.0</ele><time>2026-04-14T13:44:29Z</time></trkpt><trkpt lat="44.1076764" lon="10.3332585"><ele>1008.0</ele><time>2026-04-14T13:44:30Z</time></trkpt><trkpt lat="44.1077953" lon="10.333282"><ele>1008.0</ele><time>2026-04-14T13:44:31Z</time></trkpt><trkpt lat="44.1079103" lon="10.3333105"><ele>1008.0</ele><time>2026-04-14T13:44:32Z</time></trkpt><trkpt lat="44.1080563" lon="10.3333331"><ele>1008.0</ele><time>2026-04-14T13:44:32.999Z</time></trkpt><trkpt lat="44.1081602" lon="10.3333555"><ele>1006.5</ele><time>2026-04-14T13:44:34Z</time></trkpt><trkpt lat="44.1082842" lon="10.3333425"><ele>1005.0</ele><time>2026-04-14T13:44:35Z</time></trkpt><trkpt lat="44.1084066" lon="10.3333155"><ele>1003.5</ele><time>2026-04-14T13:44:35.999Z</time></trkpt><trkpt lat="44.1085253" lon="10.3332739"><ele>1002.0</ele><time>2026-04-14T13:44:36.999Z</time></trkpt><trkpt lat="44.1086398" lon="10.333229"><ele>1002.0</ele><time>2026-04-14T13:44:37.999Z</time></trkpt><trkpt lat="44.1087554" lon="10.333177"><ele>1002.0</ele><time>2026-04-14T13:44:38.999Z</time></trkpt><trkpt lat="44.1088758" lon="10.3331324"><ele>1002.0</ele><time>2026-04-14T13:44:40Z</time></trkpt><trkpt lat="44.1089952" lon="10.3330766"><ele>1002.0</ele><time>2026-04-14T13:44:40.999Z</time></trkpt><trkpt lat="44.1090912" lon="10.3330281"><ele>998.5</ele><time>2026-04-14T13:44:41.999Z</time></trkpt><trkpt lat="44.1092178" lon="10.3329717"><ele>995.0</ele><time>2026-04-14T13:44:42.999Z</time></trkpt><trkpt lat="44.1093273" lon="10.3329219"><ele>991.5</ele><time>2026-04-14T13:44:44Z</time></trkpt><trkpt lat="44.1094265" lon="10.3328733"><ele>988.0</ele><time>2026-04-14T13:44:45Z</time></trkpt><trkpt lat="44.1095205" lon="10.3328215"><ele>988.0</ele><time>2026-04-14T13:44:46Z</time></trkpt><trkpt lat="44.1096039" lon="10.3327693"><ele>988.0</ele><time>2026-04-14T13:44:47Z</time></trkpt><trkpt lat="44.1096896" lon="10.332718"><ele>988.0</ele><time>2026-04-14T13:44:47.999Z</time></trkpt><trkpt lat="44.1097729" lon="10.3326547"><ele>988.0</ele><time>2026-04-14T13:44:49Z</time></trkpt><trkpt lat="44.1098496" lon="10.3325902"><ele>988.0</ele><time>2026-04-14T13:44:50Z</time></trkpt><trkpt lat="44.1099343" lon="10.3325263"><ele>989.2</ele><time>2026-04-14T13:44:50.999Z</time></trkpt><trkpt lat="44.1100182" lon="10.3324589"><ele>990.4</ele><time>2026-04-14T13:44:52Z</time></trkpt><trkpt lat="44.1101069" lon="10.3324058"><ele>991.6000000000001</ele><time>2026-04-14T13:44:53Z</time></trkpt><trkpt lat="44.1101989" lon="10.3323561"><ele>992.8000000000001</ele><time>2026-04-14T13:44:54Z</time></trkpt><trkpt lat="44.1103001" lon="10.3323142"><ele>994.0</ele><time>2026-04-14T13:44:55Z</time></trkpt><trkpt lat="44.1103951" lon="10.3322894"><ele>994.0</ele><time>2026-04-14T13:44:56Z</time></trkpt><trkpt lat="44.1104969" lon="10.3322654"><ele>994.0000000000001</ele><time>2026-04-14T13:44:56.999Z</time></trkpt><trkpt lat="44.1105856" lon="10.332243"><ele>994.0000000000001</ele><time>2026-04-14T13:44:58Z</time></trkpt><trkpt lat="44.1106807" lon="10.3322019"><ele>994.0</ele><time>2026-04-14T13:44:59Z</time></trkpt><trkpt lat="44.110773" lon="10.332142"><ele>994.0</ele><time>2026-04-14T13:45:00Z</time></trkpt><trkpt lat="44.110848" lon="10.3320624"><ele>992.8000000000001</ele><time>2026-04-14T13:45:00.999Z</time></trkpt><trkpt lat="44.1109088" lon="10.3319461"><ele>991.6000000000001</ele><time>2026-04-14T13:45:02Z</time></trkpt><trkpt lat="44.1109557" lon="10.3318115"><ele>990.4</ele><time>2026-04-14T13:45:03Z</time></trkpt><trkpt lat="44.1109867" lon="10.3316694"><ele>989.2</ele><time>2026-04-14T13:45:03.999Z</time></trkpt><trkpt lat="44.1110267" lon="10.331539"><ele>988.0</ele><time>2026-04-14T13:45:05Z</time></trkpt><trkpt lat="44.1111022" lon="10.3314294"><ele>987.9999999999999</ele><time>2026-04-14T13:45:06Z</time></trkpt><trkpt lat="44.1111707" lon="10.331336"><ele>988.0</ele><time>2026-04-14T13:45:07Z</time></trkpt><trkpt lat="44.1112364" lon="10.3312756"><ele>988.0</ele><time>2026-04-14T13:45:07.999Z</time></trkpt><trkpt lat="44.1113247" lon="10.3312897"><ele>988.0</ele><time>2026-04-14T13:45:09Z</time></trkpt><trkpt lat="44.1114009" lon="10.3313245"><ele>987.9999999999999</ele><time>2026-04-14T13:45:09.999Z</time></trkpt><trkpt lat="44.1114794" lon="10.3313925"><ele>988.0</ele><time>2026-04-14T13:45:11Z</time></trkpt><trkpt lat="44.1115534" lon="10.3314842"><ele>987.0</ele><time>2026-04-14T13:45:12Z</time></trkpt><trkpt lat="44.1116344" lon="10.3315625"><ele>986.0</ele><time>2026-04-14T13:45:13Z</time></trkpt><trkpt lat="44.1117303" lon="10.3316171"><ele>985.0</ele><time>2026-04-14T13:45:13.999Z</time></trkpt><trkpt lat="44.1118365" lon="10.3316471"><ele>984.0</ele><time>2026-04-14T13:45:15Z</time></trkpt><trkpt lat="44.1119459" lon="10.3316657"><ele>983.0</ele><time>2026-04-14T13:45:16Z</time></trkpt><trkpt lat="44.1120547" lon="10.3316714"><ele>983.0</ele><time>2026-04-14T13:45:16.999Z</time></trkpt><trkpt lat="44.1121594" lon="10.3316411"><ele>983.0</ele><time>2026-04-14T13:45:18Z</time></trkpt><trkpt lat="44.1122697" lon="10.3315881"><ele>983.0</ele><time>2026-04-14T13:45:18.999Z</time></trkpt><trkpt lat="44.1123722" lon="10.3315271"><ele>983.0</ele><time>2026-04-14T13:45:20Z</time></trkpt><trkpt lat="44.1124799" lon="10.3314592"><ele>982.2</ele><time>2026-04-14T13:45:21Z</time></trkpt><trkpt lat="44.1125779" lon="10.3314047"><ele>981.4</ele><time>2026-04-14T13:45:22Z</time></trkpt><trkpt lat="44.1126744" lon="10.3313488"><ele>980.6000000000001</ele><time>2026-04-14T13:45:22.999Z</time></trkpt><trkpt lat="44.1127641" lon="10.3313125"><ele>979.8000000000001</ele><time>2026-04-14T13:45:23.999Z</time></trkpt><trkpt lat="44.1128591" lon="10.3312909"><ele>979.0</ele><time>2026-04-14T13:45:24.999Z</time></trkpt><trkpt lat="44.1129521" lon="10.3313353"><ele>979.0</ele><time>2026-04-14T13:45:26Z</time></trkpt><trkpt lat="44.1130487" lon="10.3313738"><ele>979.0000000000001</ele><time>2026-04-14T13:45:27Z</time></trkpt><trkpt lat="44.1131455" lon="10.3314344"><ele>979.0000000000001</ele><time>2026-04-14T13:45:27.999Z</time></trkpt><trkpt lat="44.1132509" lon="10.3314942"><ele>979.0</ele><time>2026-04-14T13:45:29Z</time></trkpt><trkpt lat="44.1133453" lon="10.331555"><ele>979.0</ele><time>2026-04-14T13:45:30Z</time></trkpt><trkpt lat="44.1134351" lon="10.3315977"><ele>977.1666666666666</ele><time>2026-04-14T13:45:30.999Z</time></trkpt><trkpt lat="44.1135155" lon="10.3316223"><ele>975.3333333333333</ele><time>2026-04-14T13:45:32Z</time></trkpt><trkpt lat="44.1135923" lon="10.3316135"><ele>973.5</ele><time>2026-04-14T13:45:32.999Z</time></trkpt><trkpt lat="44.1136568" lon="10.3315578"><ele>971.6666666666667</ele><time>2026-04-14T13:45:34Z</time></trkpt><trkpt lat="44.1136949" lon="10.3314725"><ele>969.8333333333334</ele><time>2026-04-14T13:45:35Z</time></trkpt><trkpt lat="44.1137162" lon="10.3313796"><ele>968.0</ele><time>2026-04-14T13:45:36Z</time></trkpt><trkpt lat="44.1136743" lon="10.3312879"><ele>967.0000000000001</ele><time>2026-04-14T13:45:37Z</time></trkpt><trkpt lat="44.1136317" lon="10.3312034"><ele>966.0</ele><time>2026-04-14T13:45:37.999Z</time></trkpt><trkpt lat="44.1135739" lon="10.3311215"><ele>965.0</ele><time>2026-04-14T13:45:39Z</time></trkpt><trkpt lat="44.1135218" lon="10.3310299"><ele>964.0</ele><time>2026-04-14T13:45:39.999Z</time></trkpt><trkpt lat="44.1134629" lon="10.3309461"><ele>963.0000000000001</ele><time>2026-04-14T13:45:40.999Z</time></trkpt><trkpt lat="44.1134076" lon="10.3308607"><ele>962.0</ele><time>2026-04-14T13:45:42Z</time></trkpt><trkpt lat="44.1133563" lon="10.3307735"><ele>962.0</ele><time>2026-04-14T13:45:43Z</time></trkpt><trkpt lat="44.1133131" lon="10.3306978"><ele>962.0</ele><time>2026-04-14T13:45:43.999Z</time></trkpt><trkpt lat="44.1132429" lon="10.3305978"><ele>962.0</ele><time>2026-04-14T13:45:45Z</time></trkpt><trkpt lat="44.1131806" lon="10.3304835"><ele>962.0</ele><time>2026-04-14T13:45:46Z</time></trkpt><trkpt lat="44.1131143" lon="10.3303836"><ele>962.0</ele><time>2026-04-14T13:45:47Z</time></trkpt><trkpt lat="44.1130622" lon="10.3302891"><ele>961.8</ele><time>2026-04-14T13:45:47.999Z</time></trkpt><trkpt lat="44.1129931" lon="10.330202"><ele>961.6</ele><time>2026-04-14T13:45:48.999Z</time></trkpt><trkpt lat="44.112924" lon="10.3300983"><ele>961.3999999999999</ele><time>2026-04-14T13:45:50Z</time></trkpt><trkpt lat="44.1128619" lon="10.3299865"><ele>961.1999999999999</ele><time>2026-04-14T13:45:51Z</time></trkpt><trkpt lat="44.1127914" lon="10.3298666"><ele>961.0</ele><time>2026-04-14T13:45:51.999Z</time></trkpt><trkpt lat="44.1127448" lon="10.3297421"><ele>958.1999999999999</ele><time>2026-04-14T13:45:53Z</time></trkpt><trkpt lat="44.1126972" lon="10.3296076"><ele>955.3999999999999</ele><time>2026-04-14T13:45:53.999Z</time></trkpt><trkpt lat="44.1126675" lon="10.3294784"><ele>952.6</ele><time>2026-04-14T13:45:55Z</time></trkpt><trkpt lat="44.1126452" lon="10.3293427"><ele>949.8</ele><time>2026-04-14T13:45:56Z</time></trkpt><trkpt lat="44.1126067" lon="10.3292102"><ele>947.0</ele><time>2026-04-14T13:45:57Z</time></trkpt><trkpt lat="44.1125582" lon="10.3291092"><ele>947.0000000000001</ele><time>2026-04-14T13:45:58Z</time></trkpt><trkpt lat="44.1124848" lon="10.3290296"><ele>947.0</ele><time>2026-04-14T13:45:59Z</time></trkpt><trkpt lat="44.1124022" lon="10.329003"><ele>947.0</ele><time>2026-04-14T13:46:00Z</time></trkpt><trkpt lat="44.1123173" lon="10.3289985"><ele>947.0</ele><time>2026-04-14T13:46:01Z</time></trkpt><trkpt lat="44.1122279" lon="10.3289984"><ele>947.0000000000001</ele><time>2026-04-14T13:46:02Z</time></trkpt><trkpt lat="44.1121307" lon="10.3289995"><ele>947.0</ele><time>2026-04-14T13:46:03Z</time></trkpt><trkpt lat="44.1120452" lon="10.3289959"><ele>947.0</ele><time>2026-04-14T13:46:04Z</time></trkpt><trkpt lat="44.1119675" lon="10.3289886"><ele>947.0</ele><time>2026-04-14T13:46:04.999Z</time></trkpt><trkpt lat="44.1118946" lon="10.3288828"><ele>947.0</ele><time>2026-04-14T13:46:06.999Z</time></trkpt><trkpt lat="44.1118868" lon="10.3287327"><ele>947.0</ele><time>2026-04-14T13:46:09Z</time></trkpt><trkpt lat="44.1119997" lon="10.3286405"><ele>947.0</ele><time>2026-04-14T13:46:10.999Z</time></trkpt><trkpt lat="44.1120934" lon="10.3286309"><ele>944.4000000000001</ele><time>2026-04-14T13:46:12Z</time></trkpt><trkpt lat="44.1122432" lon="10.3286392"><ele>941.8000000000001</ele><time>2026-04-14T13:46:13.999Z</time></trkpt><trkpt lat="44.112323" lon="10.3286494"><ele>939.2</ele><time>2026-04-14T13:46:14.999Z</time></trkpt><trkpt lat="44.112415" lon="10.3286545"><ele>936.6</ele><time>2026-04-14T13:46:16Z</time></trkpt><trkpt lat="44.1125158" lon="10.3286536"><ele>934.0</ele><time>2026-04-14T13:46:16.999Z</time></trkpt><trkpt lat="44.1126086" lon="10.328652"><ele>934.0</ele><time>2026-04-14T13:46:18Z</time></trkpt><trkpt lat="44.1126975" lon="10.32866"><ele>934.0000000000001</ele><time>2026-04-14T13:46:19Z</time></trkpt><trkpt lat="44.1127903" lon="10.3286785"><ele>934.0000000000001</ele><time>2026-04-14T13:46:20Z</time></trkpt><trkpt lat="44.1128809" lon="10.3287094"><ele>934.0</ele><time>2026-04-14T13:46:20.999Z</time></trkpt><trkpt lat="44.1129648" lon="10.3287477"><ele>934.0</ele><time>2026-04-14T13:46:21.999Z</time></trkpt><trkpt lat="44.1130596" lon="10.3287626"><ele>934.0</ele><time>2026-04-14T13:46:23Z</time></trkpt><trkpt lat="44.113147" lon="10.3287584"><ele>934.0000000000001</ele><time>2026-04-14T13:46:24Z</time></trkpt><trkpt lat="44.1132319" lon="10.3287347"><ele>934.0000000000001</ele><time>2026-04-14T13:46:24.999Z</time></trkpt><trkpt lat="44.1133274" lon="10.3286934"><ele>934.0</ele><time>2026-04-14T13:46:25.999Z</time></trkpt><trkpt lat="44.1134351" lon="10.3286964"><ele>934.0</ele><time>2026-04-14T13:46:26.999Z</time></trkpt><trkpt lat="44.1135286" lon="10.3287563"><ele>934.8000000000001</ele><time>2026-04-14T13:46:28Z</time></trkpt><trkpt lat="44.1136056" lon="10.3288341"><ele>935.6000000000001</ele><time>2026-04-14T13:46:29Z</time></trkpt><trkpt lat="44.1136747" lon="10.3289282"><ele>936.4</ele><time>2026-04-14T13:46:29.999Z</time></trkpt><trkpt lat="44.1137528" lon="10.3290243"><ele>937.2</ele><time>2026-04-14T13:46:31Z</time></trkpt><trkpt lat="44.1138238" lon="10.3291223"><ele>938.0</ele><time>2026-04-14T13:46:32Z</time></trkpt><trkpt lat="44.1139011" lon="10.3292221"><ele>938.0</ele><time>2026-04-14T13:46:33Z</time></trkpt><trkpt lat="44.1139824" lon="10.329317"><ele>938.0</ele><time>2026-04-14T13:46:34Z</time></trkpt><trkpt lat="44.1140696" lon="10.3294031"><ele>938.0</ele><time>2026-04-14T13:46:35Z</time></trkpt><trkpt lat="44.1141716" lon="10.3294697"><ele>938.0</ele><time>2026-04-14T13:46:35.999Z</time></trkpt><trkpt lat="44.1142719" lon="10.3295213"><ele>938.0</ele><time>2026-04-14T13:46:37Z</time></trkpt><trkpt lat="44.1143681" lon="10.3295829"><ele>937.25</ele><time>2026-04-14T13:46:38Z</time></trkpt><trkpt lat="44.1144636" lon="10.3296756"><ele>936.5</ele><time>2026-04-14T13:46:38.999Z</time></trkpt><trkpt lat="44.1145525" lon="10.3297739"><ele>935.75</ele><time>2026-04-14T13:46:40Z</time></trkpt><trkpt lat="44.1146161" lon="10.3298962"><ele>935.0</ele><time>2026-04-14T13:46:40.999Z</time></trkpt><trkpt lat="44.1146927" lon="10.3300189"><ele>935.0</ele><time>2026-04-14T13:46:42Z</time></trkpt><trkpt lat="44.11475" lon="10.3301486"><ele>935.0</ele><time>2026-04-14T13:46:42.999Z</time></trkpt><trkpt lat="44.1147854" lon="10.3303037"><ele>935.0</ele><time>2026-04-14T13:46:44Z</time></trkpt><trkpt lat="44.1148181" lon="10.3304539"><ele>935.0</ele><time>2026-04-14T13:46:45Z</time></trkpt><trkpt lat="44.1148352" lon="10.3305785"><ele>935.0</ele><time>2026-04-14T13:46:45.999Z</time></trkpt><trkpt lat="44.1148637" lon="10.3306793"><ele>933.6</ele><time>2026-04-14T13:46:46.999Z</time></trkpt><trkpt lat="44.1148902" lon="10.33078"><ele>932.2</ele><time>2026-04-14T13:46:48Z</time></trkpt><trkpt lat="44.1149728" lon="10.3308188"><ele>930.8</ele><time>2026-04-14T13:46:49Z</time></trkpt><trkpt lat="44.1150789" lon="10.3307897"><ele>929.4</ele><time>2026-04-14T13:46:51Z</time></trkpt><trkpt lat="44.1151579" lon="10.3306569"><ele>928.0</ele><time>2026-04-14T13:46:52.999Z</time></trkpt><trkpt lat="44.1152278" lon="10.3305316"><ele>926.4</ele><time>2026-04-14T13:46:54.999Z</time></trkpt><trkpt lat="44.1152983" lon="10.330429"><ele>924.8</ele><time>2026-04-14T13:46:57Z</time></trkpt><trkpt lat="44.115383" lon="10.3303745"><ele>923.2</ele><time>2026-04-14T13:46:58.999Z</time></trkpt><trkpt lat="44.1154725" lon="10.330298"><ele>921.6</ele><time>2026-04-14T13:47:00.999Z</time></trkpt><trkpt lat="44.1155486" lon="10.330232"><ele>920.0</ele><time>2026-04-14T13:47:03Z</time></trkpt><trkpt lat="44.1156318" lon="10.3301936"><ele>920.0000000000001</ele><time>2026-04-14T13:47:04.999Z</time></trkpt><trkpt lat="44.1157189" lon="10.3302061"><ele>920.0</ele><time>2026-04-14T13:47:07Z</time></trkpt><trkpt lat="44.1157986" lon="10.3302392"><ele>920.0</ele><time>2026-04-14T13:47:09Z</time></trkpt><trkpt lat="44.1158782" lon="10.3302742"><ele>920.0</ele><time>2026-04-14T13:47:11Z</time></trkpt><trkpt lat="44.1159649" lon="10.3303113"><ele>920.0000000000001</ele><time>2026-04-14T13:47:12.999Z</time></trkpt><trkpt lat="44.1160475" lon="10.3303459"><ele>920.0</ele><time>2026-04-14T13:47:14.999Z</time></trkpt><trkpt lat="44.1161271" lon="10.3303832"><ele>919.3333333333334</ele><time>2026-04-14T13:47:17Z</time></trkpt><trkpt lat="44.1162029" lon="10.3304428"><ele>918.6666666666667</ele><time>2026-04-14T13:47:18.999Z</time></trkpt><trkpt lat="44.1162662" lon="10.3305189"><ele>918.0</ele><time>2026-04-14T13:47:21Z</time></trkpt><trkpt lat="44.1163287" lon="10.3305723"><ele>917.3333333333333</ele><time>2026-04-14T13:47:22.999Z</time></trkpt><trkpt lat="44.1164077" lon="10.3305706"><ele>916.6666666666666</ele><time>2026-04-14T13:47:25Z</time></trkpt><trkpt lat="44.1164641" lon="10.3304901"><ele>916.0</ele><time>2026-04-14T13:47:26.999Z</time></trkpt><trkpt lat="44.1164634" lon="10.3303748"><ele>915.9999999999999</ele><time>2026-04-14T13:47:29Z</time></trkpt><trkpt lat="44.1164463" lon="10.3302822"><ele>916.0</ele><time>2026-04-14T13:47:31Z</time></trkpt><trkpt lat="44.1164233" lon="10.3301959"><ele>916.0</ele><time>2026-04-14T13:47:33Z</time></trkpt><trkpt lat="44.1164146" lon="10.3300815"><ele>916.0</ele><time>2026-04-14T13:47:35Z</time></trkpt><trkpt lat="44.1164397" lon="10.3299698"><ele>915.9999999999999</ele><time>2026-04-14T13:47:36.999Z</time></trkpt><trkpt lat="44.1165088" lon="10.3298671"><ele>916.0</ele><time>2026-04-14T13:47:39Z</time></trkpt><trkpt lat="44.1166022" lon="10.3297989"><ele>914.6666666666666</ele><time>2026-04-14T13:47:41Z</time></trkpt><trkpt lat="44.1167036" lon="10.3297209"><ele>913.3333333333333</ele><time>2026-04-14T13:47:43Z</time></trkpt><trkpt lat="44.1167646" lon="10.3296774"><ele>912.0</ele><time>2026-04-14T13:47:44Z</time></trkpt><trkpt lat="44.1168278" lon="10.3296357"><ele>910.6666666666667</ele><time>2026-04-14T13:47:45Z</time></trkpt><trkpt lat="44.1168968" lon="10.3295932"><ele>909.3333333333334</ele><time>2026-04-14T13:47:46Z</time></trkpt><trkpt lat="44.1169651" lon="10.3295359"><ele>908.0</ele><time>2026-04-14T13:47:47Z</time></trkpt><trkpt lat="44.1170371" lon="10.3294844"><ele>908.0</ele><time>2026-04-14T13:47:48Z</time></trkpt><trkpt lat="44.1171101" lon="10.329426"><ele>908.0</ele><time>2026-04-14T13:47:49Z</time></trkpt><trkpt lat="44.117187" lon="10.329372"><ele>908.0</ele><time>2026-04-14T13:47:50Z</time></trkpt><trkpt lat="44.1172712" lon="10.3293088"><ele>908.0</ele><time>2026-04-14T13:47:51Z</time></trkpt><trkpt lat="44.1173555" lon="10.3292455"><ele>908.0</ele><time>2026-04-14T13:47:52Z</time></trkpt><trkpt lat="44.1174449" lon="10.3291802"><ele>908.2</ele><time>2026-04-14T13:47:53Z</time></trkpt><trkpt lat="44.1175353" lon="10.329107"><ele>908.4</ele><time>2026-04-14T13:47:54Z</time></trkpt><trkpt lat="44.1176299" lon="10.3290239"><ele>908.6000000000001</ele><time>2026-04-14T13:47:55Z</time></trkpt><trkpt lat="44.1177248" lon="10.3289299"><ele>908.8000000000001</ele><time>2026-04-14T13:47:55.999Z</time></trkpt><trkpt lat="44.117815" lon="10.3288343"><ele>909.0</ele><time>2026-04-14T13:47:57Z</time></trkpt><trkpt lat="44.117905" lon="10.3287377"><ele>907.6</ele><time>2026-04-14T13:47:57.999Z</time></trkpt><trkpt lat="44.1179879" lon="10.3286412"><ele>906.2</ele><time>2026-04-14T13:47:59Z</time></trkpt><trkpt lat="44.1180683" lon="10.3285461"><ele>904.8000000000001</ele><time>2026-04-14T13:48:00Z</time></trkpt><trkpt lat="44.1181486" lon="10.3284559"><ele>903.4000000000001</ele><time>2026-04-14T13:48:01Z</time></trkpt><trkpt lat="44.1182228" lon="10.3283756"><ele>902.0</ele><time>2026-04-14T13:48:02Z</time></trkpt><trkpt lat="44.1182915" lon="10.3282954"><ele>902.0000000000001</ele><time>2026-04-14T13:48:03Z</time></trkpt><trkpt lat="44.1183606" lon="10.3282218"><ele>902.0</ele><time>2026-04-14T13:48:04Z</time></trkpt><trkpt lat="44.118427" lon="10.3281499"><ele>902.0</ele><time>2026-04-14T13:48:05Z</time></trkpt><trkpt lat="44.1184912" lon="10.328077"><ele>902.0</ele><time>2026-04-14T13:48:06Z</time></trkpt><trkpt lat="44.118554" lon="10.3280022"><ele>902.0000000000001</ele><time>2026-04-14T13:48:06.999Z</time></trkpt><trkpt lat="44.1186165" lon="10.3279318"><ele>902.0</ele><time>2026-04-14T13:48:07.999Z</time></trkpt><trkpt lat="44.1186771" lon="10.3278659"><ele>900.4285714285714</ele><time>2026-04-14T13:48:09Z</time></trkpt><trkpt lat="44.1187375" lon="10.3278008"><ele>898.8571428571429</ele><time>2026-04-14T13:48:09.999Z</time></trkpt><trkpt lat="44.1187929" lon="10.327737"><ele>897.2857142857143</ele><time>2026-04-14T13:48:10.999Z</time></trkpt><trkpt lat="44.1188452" lon="10.3276705"><ele>895.7142857142858</ele><time>2026-04-14T13:48:12Z</time></trkpt><trkpt lat="44.1188979" lon="10.3276097"><ele>894.1428571428571</ele><time>2026-04-14T13:48:13Z</time></trkpt><trkpt lat="44.1189554" lon="10.3275463"><ele>892.5714285714287</ele><time>2026-04-14T13:48:14Z</time></trkpt><trkpt lat="44.1190071" lon="10.3274822"><ele>891.0</ele><time>2026-04-14T13:48:15Z</time></trkpt><trkpt lat="44.1190617" lon="10.3274161"><ele>890.5714285714287</ele><time>2026-04-14T13:48:15.999Z</time></trkpt><trkpt lat="44.119117" lon="10.3273492"><ele>890.1428571428571</ele><time>2026-04-14T13:48:17Z</time></trkpt><trkpt lat="44.1191666" lon="10.3272828"><ele>889.7142857142858</ele><time>2026-04-14T13:48:17.999Z</time></trkpt><trkpt lat="44.1192189" lon="10.3272227"><ele>889.2857142857143</ele><time>2026-04-14T13:48:19Z</time></trkpt><trkpt lat="44.1192734" lon="10.3271665"><ele>888.8571428571429</ele><time>2026-04-14T13:48:19.999Z</time></trkpt><trkpt lat="44.1193265" lon="10.3271065"><ele>888.4285714285714</ele><time>2026-04-14T13:48:21Z</time></trkpt><trkpt lat="44.1193747" lon="10.327048"><ele>888.0</ele><time>2026-04-14T13:48:22Z</time></trkpt><trkpt lat="44.119472" lon="10.3269369"><ele>888.0</ele><time>2026-04-14T13:48:24Z</time></trkpt><trkpt lat="44.1195215" lon="10.3268807"><ele>888.0</ele><time>2026-04-14T13:48:25Z</time></trkpt><trkpt lat="44.1195711" lon="10.3268249"><ele>888.0</ele><time>2026-04-14T13:48:26Z</time></trkpt><trkpt lat="44.1196223" lon="10.3267686"><ele>888.0</ele><time>2026-04-14T13:48:27Z</time></trkpt><trkpt lat="44.1197124" lon="10.326658"><ele>888.0</ele><time>2026-04-14T13:48:29Z</time></trkpt><trkpt lat="44.1197995" lon="10.3265489"><ele>888.0</ele><time>2026-04-14T13:48:31Z</time></trkpt><trkpt lat="44.119884" lon="10.3264388"><ele>889.0</ele><time>2026-04-14T13:48:33Z</time></trkpt><trkpt lat="44.1199554" lon="10.3262964"><ele>890.0</ele><time>2026-04-14T13:48:35Z</time></trkpt><trkpt lat="44.1199828" lon="10.3262037"><ele>891.0</ele><time>2026-04-14T13:48:36Z</time></trkpt><trkpt lat="44.1200196" lon="10.3261155"><ele>892.0</ele><time>2026-04-14T13:48:37Z</time></trkpt><trkpt lat="44.1200677" lon="10.326004"><ele>893.0</ele><time>2026-04-14T13:48:38Z</time></trkpt><trkpt lat="44.1201094" lon="10.3259113"><ele>894.0</ele><time>2026-04-14T13:48:39Z</time></trkpt><trkpt lat="44.1201539" lon="10.3258286"><ele>894.0</ele><time>2026-04-14T13:48:40Z</time></trkpt><trkpt lat="44.1201935" lon="10.3257489"><ele>894.0</ele><time>2026-04-14T13:48:40.999Z</time></trkpt><trkpt lat="44.120229" lon="10.3256718"><ele>894.0</ele><time>2026-04-14T13:48:42Z</time></trkpt><trkpt lat="44.1202899" lon="10.3255379"><ele>894.0</ele><time>2026-04-14T13:48:44Z</time></trkpt><trkpt lat="44.1203282" lon="10.3254343"><ele>894.0</ele><time>2026-04-14T13:48:45.999Z</time></trkpt><trkpt lat="44.1203652" lon="10.3253478"><ele>894.0</ele><time>2026-04-14T13:48:47.999Z</time></trkpt><trkpt lat="44.120423" lon="10.3252838"><ele>892.8333333333334</ele><time>2026-04-14T13:48:49.999Z</time></trkpt><trkpt lat="44.120486" lon="10.3252012"><ele>891.6666666666667</ele><time>2026-04-14T13:48:53Z</time></trkpt><trkpt lat="44.1205126" lon="10.3251161"><ele>890.5</ele><time>2026-04-14T13:48:55Z</time></trkpt><trkpt lat="44.1205464" lon="10.3250282"><ele>889.3333333333334</ele><time>2026-04-14T13:48:57Z</time></trkpt><trkpt lat="44.1205957" lon="10.32494"><ele>888.1666666666667</ele><time>2026-04-14T13:48:59Z</time></trkpt><trkpt lat="44.120632" lon="10.3248583"><ele>887.0</ele><time>2026-04-14T13:49:00.999Z</time></trkpt><trkpt lat="44.1206775" lon="10.3247495"><ele>887.9999999999999</ele><time>2026-04-14T13:49:03.999Z</time></trkpt><trkpt lat="44.1207289" lon="10.3246655"><ele>889.0</ele><time>2026-04-14T13:49:07Z</time></trkpt><trkpt lat="44.1207681" lon="10.3245827"><ele>890.0</ele><time>2026-04-14T13:49:10Z</time></trkpt><trkpt lat="44.1207982" lon="10.3244909"><ele>891.0</ele><time>2026-04-14T13:49:13Z</time></trkpt><trkpt lat="44.1208344" lon="10.3243975"><ele>892.0</ele><time>2026-04-14T13:49:16Z</time></trkpt><trkpt lat="44.1208592" lon="10.3243098"><ele>892.9999999999999</ele><time>2026-04-14T13:49:19.999Z</time></trkpt><trkpt lat="44.1209278" lon="10.324339"><ele>894.0</ele><time>2026-04-14T13:49:24.999Z</time></trkpt><trkpt lat="44.1210163" lon="10.3243304"><ele>894.0</ele><time>2026-04-14T13:49:28Z</time></trkpt><trkpt lat="44.121085" lon="10.3242651"><ele>894.0000000000001</ele><time>2026-04-14T13:49:29.999Z</time></trkpt><trkpt lat="44.1211727" lon="10.3241991"><ele>894.0000000000001</ele><time>2026-04-14T13:49:32Z</time></trkpt><trkpt lat="44.1212602" lon="10.3241347"><ele>894.0</ele><time>2026-04-14T13:49:33.999Z</time></trkpt><trkpt lat="44.121351" lon="10.3240778"><ele>894.0</ele><time>2026-04-14T13:49:36Z</time></trkpt><trkpt lat="44.1214356" lon="10.3240294"><ele>894.0</ele><time>2026-04-14T13:49:38Z</time></trkpt><trkpt lat="44.1215241" lon="10.3239667"><ele>894.0000000000001</ele><time>2026-04-14T13:49:40Z</time></trkpt><trkpt lat="44.1216043" lon="10.3238974"><ele>894.0000000000001</ele><time>2026-04-14T13:49:42Z</time></trkpt><trkpt lat="44.1216691" lon="10.3238056"><ele>894.0</ele><time>2026-04-14T13:49:44Z</time></trkpt><trkpt lat="44.1217125" lon="10.3236943"><ele>894.0</ele><time>2026-04-14T13:49:46Z</time></trkpt><trkpt lat="44.121738" lon="10.3235817"><ele>893.7142857142857</ele><time>2026-04-14T13:49:47.999Z</time></trkpt><trkpt lat="44.1217495" lon="10.3234869"><ele>893.4285714285714</ele><time>2026-04-14T13:49:50Z</time></trkpt><trkpt lat="44.1217495" lon="10.3233953"><ele>893.1428571428571</ele><time>2026-04-14T13:49:52Z</time></trkpt><trkpt lat="44.1217319" lon="10.323271"><ele>892.8571428571429</ele><time>2026-04-14T13:49:55Z</time></trkpt><trkpt lat="44.1217112" lon="10.3231826"><ele>892.5714285714286</ele><time>2026-04-14T13:49:57Z</time></trkpt><trkpt lat="44.1216692" lon="10.3230842"><ele>892.2857142857142</ele><time>2026-04-14T13:49:59.999Z</time></trkpt><trkpt lat="44.1216398" lon="10.3230055"><ele>892.0</ele><time>2026-04-14T13:50:03Z</time></trkpt><trkpt lat="44.1216019" lon="10.3229062"><ele>891.1666666666666</ele><time>2026-04-14T13:50:07Z</time></trkpt><trkpt lat="44.1215638" lon="10.3228169"><ele>890.3333333333333</ele><time>2026-04-14T13:50:11Z</time></trkpt><trkpt lat="44.1215624" lon="10.3227122"><ele>889.5</ele><time>2026-04-14T13:50:15Z</time></trkpt><trkpt lat="44.1216022" lon="10.3225864"><ele>888.6666666666667</ele><time>2026-04-14T13:50:17Z</time></trkpt><trkpt lat="44.1216517" lon="10.3224326"><ele>887.8333333333334</ele><time>2026-04-14T13:50:19Z</time></trkpt><trkpt lat="44.1216814" lon="10.3223458"><ele>887.0</ele><time>2026-04-14T13:50:20Z</time></trkpt><trkpt lat="44.1217196" lon="10.3222206"><ele>886.0000000000001</ele><time>2026-04-14T13:50:22Z</time></trkpt><trkpt lat="44.1217592" lon="10.3221019"><ele>885.0</ele><time>2026-04-14T13:50:25Z</time></trkpt><trkpt lat="44.1217545" lon="10.3219862"><ele>884.0</ele><time>2026-04-14T13:50:27.999Z</time></trkpt><trkpt lat="44.1217643" lon="10.3218861"><ele>883.0</ele><time>2026-04-14T13:50:31.999Z</time></trkpt><trkpt lat="44.1217499" lon="10.3217994"><ele>882.0000000000001</ele><time>2026-04-14T13:50:34Z</time></trkpt><trkpt lat="44.1217027" lon="10.3216503"><ele>881.0</ele><time>2026-04-14T13:50:36Z</time></trkpt><trkpt lat="44.1216762" lon="10.3215607"><ele>881.0000000000001</ele><time>2026-04-14T13:50:37Z</time></trkpt><trkpt lat="44.1216507" lon="10.3214672"><ele>881.0</ele><time>2026-04-14T13:50:37.999Z</time></trkpt><trkpt lat="44.1216232" lon="10.3213705"><ele>881.0</ele><time>2026-04-14T13:50:39Z</time></trkpt><trkpt lat="44.1216028" lon="10.3212673"><ele>881.0</ele><time>2026-04-14T13:50:40Z</time></trkpt><trkpt lat="44.1215794" lon="10.3211745"><ele>881.0000000000001</ele><time>2026-04-14T13:50:41Z</time></trkpt><trkpt lat="44.1215541" lon="10.321092"><ele>881.0</ele><time>2026-04-14T13:50:42Z</time></trkpt><trkpt lat="44.121485" lon="10.320943"><ele>876.0</ele><time>2026-04-14T13:50:43.999Z</time></trkpt><trkpt lat="44.1214271" lon="10.3208148"><ele>870.9999999999999</ele><time>2026-04-14T13:50:46Z</time></trkpt><trkpt lat="44.1213771" lon="10.320702"><ele>865.9999999999999</ele><time>2026-04-14T13:50:48Z</time></trkpt><trkpt lat="44.1213934" lon="10.3205542"><ele>861.0</ele><time>2026-04-14T13:50:50.999Z</time></trkpt><trkpt lat="44.1214539" lon="10.3204776"><ele>856.0</ele><time>2026-04-14T13:50:52.999Z</time></trkpt><trkpt lat="44.121524" lon="10.3204346"><ele>855.3333333333333</ele><time>2026-04-14T13:50:53.999Z</time></trkpt><trkpt lat="44.1216015" lon="10.3203942"><ele>854.6666666666666</ele><time>2026-04-14T13:50:54.999Z</time></trkpt><trkpt lat="44.1216846" lon="10.3203592"><ele>854.0</ele><time>2026-04-14T13:50:55.999Z</time></trkpt><trkpt lat="44.1217848" lon="10.3203234"><ele>853.3333333333333</ele><time>2026-04-14T13:50:57Z</time></trkpt><trkpt lat="44.1218635" lon="10.3202848"><ele>852.6666666666666</ele><time>2026-04-14T13:50:58Z</time></trkpt><trkpt lat="44.1219341" lon="10.3202438"><ele>852.0</ele><time>2026-04-14T13:50:59Z</time></trkpt><trkpt lat="44.1220019" lon="10.3202054"><ele>852.0</ele><time>2026-04-14T13:50:59.999Z</time></trkpt><trkpt lat="44.1220649" lon="10.3201881"><ele>852.0</ele><time>2026-04-14T13:51:01Z</time></trkpt><trkpt lat="44.1221339" lon="10.3201922"><ele>852.0</ele><time>2026-04-14T13:51:01.999Z</time></trkpt><trkpt lat="44.1222015" lon="10.3202071"><ele>852.0</ele><time>2026-04-14T13:51:03Z</time></trkpt><trkpt lat="44.1222999" lon="10.3202061"><ele>852.0</ele><time>2026-04-14T13:51:05Z</time></trkpt><trkpt lat="44.1223538" lon="10.3201515"><ele>852.0</ele><time>2026-04-14T13:51:07Z</time></trkpt><trkpt lat="44.1224139" lon="10.3200428"><ele>852.5</ele><time>2026-04-14T13:51:09Z</time></trkpt><trkpt lat="44.1224507" lon="10.3199623"><ele>853.0</ele><time>2026-04-14T13:51:10Z</time></trkpt><trkpt lat="44.1224915" lon="10.3198893"><ele>853.5</ele><time>2026-04-14T13:51:11Z</time></trkpt><trkpt lat="44.122536" lon="10.3198184"><ele>854.0</ele><time>2026-04-14T13:51:12Z</time></trkpt><trkpt lat="44.1225916" lon="10.3197366"><ele>854.5</ele><time>2026-04-14T13:51:13Z</time></trkpt><trkpt lat="44.1226592" lon="10.3196542"><ele>855.0</ele><time>2026-04-14T13:51:14Z</time></trkpt><trkpt lat="44.1227371" lon="10.3195593"><ele>852.1666666666666</ele><time>2026-04-14T13:51:15Z</time></trkpt><trkpt lat="44.1227989" lon="10.319452"><ele>849.3333333333333</ele><time>2026-04-14T13:51:16Z</time></trkpt><trkpt lat="44.1228447" lon="10.3193498"><ele>846.5</ele><time>2026-04-14T13:51:17Z</time></trkpt><trkpt lat="44.1228752" lon="10.3192399"><ele>843.6666666666666</ele><time>2026-04-14T13:51:18Z</time></trkpt><trkpt lat="44.1228917" lon="10.319124"><ele>840.8333333333333</ele><time>2026-04-14T13:51:19Z</time></trkpt><trkpt lat="44.1229014" lon="10.3190141"><ele>838.0</ele><time>2026-04-14T13:51:19.999Z</time></trkpt><trkpt lat="44.1229266" lon="10.3188987"><ele>834.5999999999999</ele><time>2026-04-14T13:51:21Z</time></trkpt><trkpt lat="44.1229504" lon="10.3187829"><ele>831.1999999999999</ele><time>2026-04-14T13:51:21.999Z</time></trkpt><trkpt lat="44.1229745" lon="10.3186621"><ele>827.8</ele><time>2026-04-14T13:51:22.999Z</time></trkpt><trkpt lat="44.1229941" lon="10.3185371"><ele>824.4</ele><time>2026-04-14T13:51:24Z</time></trkpt><trkpt lat="44.123016" lon="10.3184117"><ele>821.0</ele><time>2026-04-14T13:51:25Z</time></trkpt><trkpt lat="44.1230431" lon="10.3182834"><ele>821.0000000000001</ele><time>2026-04-14T13:51:26Z</time></trkpt><trkpt lat="44.1230773" lon="10.3181551"><ele>821.0</ele><time>2026-04-14T13:51:27Z</time></trkpt><trkpt lat="44.1231144" lon="10.3180598"><ele>821.0</ele><time>2026-04-14T13:51:28Z</time></trkpt><trkpt lat="44.123161" lon="10.3179815"><ele>821.0</ele><time>2026-04-14T13:51:29Z</time></trkpt><trkpt lat="44.1232178" lon="10.3179411"><ele>821.0000000000001</ele><time>2026-04-14T13:51:29.999Z</time></trkpt><trkpt lat="44.1232826" lon="10.3179275"><ele>821.0</ele><time>2026-04-14T13:51:31Z</time></trkpt><trkpt lat="44.1233573" lon="10.317929"><ele>821.3333333333334</ele><time>2026-04-14T13:51:31.999Z</time></trkpt><trkpt lat="44.1234266" lon="10.3179188"><ele>821.6666666666667</ele><time>2026-04-14T13:51:33Z</time></trkpt><trkpt lat="44.1234755" lon="10.3178532"><ele>822.0</ele><time>2026-04-14T13:51:33.999Z</time></trkpt><trkpt lat="44.1235352" lon="10.3178026"><ele>822.3333333333333</ele><time>2026-04-14T13:51:35Z</time></trkpt><trkpt lat="44.123565" lon="10.317697"><ele>822.6666666666666</ele><time>2026-04-14T13:51:36Z</time></trkpt><trkpt lat="44.1236017" lon="10.3176023"><ele>823.0</ele><time>2026-04-14T13:51:37Z</time></trkpt><trkpt lat="44.1236169" lon="10.3174862"><ele>822.9999999999999</ele><time>2026-04-14T13:51:38Z</time></trkpt><trkpt lat="44.1236271" lon="10.3173703"><ele>823.0</ele><time>2026-04-14T13:51:38.999Z</time></trkpt><trkpt lat="44.1236401" lon="10.3172524"><ele>823.0</ele><time>2026-04-14T13:51:39.999Z</time></trkpt><trkpt lat="44.1236793" lon="10.3171458"><ele>823.0</ele><time>2026-04-14T13:51:41Z</time></trkpt><trkpt lat="44.1237037" lon="10.3170317"><ele>822.9999999999999</ele><time>2026-04-14T13:51:42Z</time></trkpt><trkpt lat="44.1237291" lon="10.316923"><ele>823.0</ele><time>2026-04-14T13:51:43Z</time></trkpt><trkpt lat="44.1237605" lon="10.3168174"><ele>824.3333333333333</ele><time>2026-04-14T13:51:43.999Z</time></trkpt><trkpt lat="44.1237917" lon="10.316737"><ele>825.6666666666666</ele><time>2026-04-14T13:51:45Z</time></trkpt><trkpt lat="44.1238558" lon="10.3166262"><ele>827.0</ele><time>2026-04-14T13:51:47Z</time></trkpt><trkpt lat="44.1239129" lon="10.3165408"><ele>828.3333333333333</ele><time>2026-04-14T13:51:50Z</time></trkpt><trkpt lat="44.1239887" lon="10.3164904"><ele>829.6666666666666</ele><time>2026-04-14T13:51:53Z</time></trkpt><trkpt lat="44.1240759" lon="10.3164168"><ele>831.0</ele><time>2026-04-14T13:51:55.999Z</time></trkpt><trkpt lat="44.1241498" lon="10.3163372"><ele>824.6666666666666</ele><time>2026-04-14T13:51:58Z</time></trkpt><trkpt lat="44.1242193" lon="10.3162792"><ele>818.3333333333333</ele><time>2026-04-14T13:51:59.999Z</time></trkpt><trkpt lat="44.1242888" lon="10.3162034"><ele>812.0</ele><time>2026-04-14T13:52:01.999Z</time></trkpt><trkpt lat="44.1243312" lon="10.3161337"><ele>805.6666666666666</ele><time>2026-04-14T13:52:03Z</time></trkpt><trkpt lat="44.1243811" lon="10.3160442"><ele>799.3333333333333</ele><time>2026-04-14T13:52:04Z</time></trkpt><trkpt lat="44.1244279" lon="10.315974"><ele>793.0</ele><time>2026-04-14T13:52:04.999Z</time></trkpt><trkpt lat="44.1244674" lon="10.3159"><ele>792.9999999999999</ele><time>2026-04-14T13:52:05.999Z</time></trkpt><trkpt lat="44.1244944" lon="10.3157718"><ele>793.0</ele><time>2026-04-14T13:52:08Z</time></trkpt><trkpt lat="44.1245405" lon="10.3156278"><ele>793.0</ele><time>2026-04-14T13:52:10Z</time></trkpt><trkpt lat="44.1245812" lon="10.3155531"><ele>793.0</ele><time>2026-04-14T13:52:11Z</time></trkpt><trkpt lat="44.124623" lon="10.3154647"><ele>792.9999999999999</ele><time>2026-04-14T13:52:12Z</time></trkpt><trkpt lat="44.1246698" lon="10.3153752"><ele>793.0</ele><time>2026-04-14T13:52:13Z</time></trkpt><trkpt lat="44.1247263" lon="10.3152953"><ele>794.7142857142858</ele><time>2026-04-14T13:52:14Z</time></trkpt><trkpt lat="44.1247702" lon="10.3152224"><ele>796.4285714285714</ele><time>2026-04-14T13:52:15Z</time></trkpt><trkpt lat="44.1248147" lon="10.3151448"><ele>798.1428571428571</ele><time>2026-04-14T13:52:16Z</time></trkpt><trkpt lat="44.1248489" lon="10.3150694"><ele>799.8571428571429</ele><time>2026-04-14T13:52:17Z</time></trkpt><trkpt lat="44.1248956" lon="10.3149827"><ele>801.5714285714286</ele><time>2026-04-14T13:52:18Z</time></trkpt><trkpt lat="44.1249365" lon="10.3148908"><ele>803.2857142857143</ele><time>2026-04-14T13:52:18.999Z</time></trkpt><trkpt lat="44.124995" lon="10.3147948"><ele>805.0</ele><time>2026-04-14T13:52:20Z</time></trkpt><trkpt lat="44.1250504" lon="10.3146946"><ele>799.9999999999999</ele><time>2026-04-14T13:52:21Z</time></trkpt><trkpt lat="44.1251" lon="10.3145995"><ele>795.0</ele><time>2026-04-14T13:52:21.999Z</time></trkpt><trkpt lat="44.1251437" lon="10.3145094"><ele>790.0</ele><time>2026-04-14T13:52:23Z</time></trkpt><trkpt lat="44.1251684" lon="10.3144056"><ele>785.0</ele><time>2026-04-14T13:52:24Z</time></trkpt><trkpt lat="44.1251917" lon="10.3143188"><ele>779.9999999999999</ele><time>2026-04-14T13:52:25Z</time></trkpt><trkpt lat="44.1252347" lon="10.3141555"><ele>775.0</ele><time>2026-04-14T13:52:27Z</time></trkpt><trkpt lat="44.1252541" lon="10.3140264"><ele>774.9999999999999</ele><time>2026-04-14T13:52:29Z</time></trkpt><trkpt lat="44.1252636" lon="10.3139083"><ele>775.0</ele><time>2026-04-14T13:52:30.999Z</time></trkpt><trkpt lat="44.1252635" lon="10.3137981"><ele>775.0</ele><time>2026-04-14T13:52:33Z</time></trkpt><trkpt lat="44.1252766" lon="10.3136919"><ele>775.0</ele><time>2026-04-14T13:52:35Z</time></trkpt><trkpt lat="44.1253258" lon="10.3135862"><ele>774.9999999999999</ele><time>2026-04-14T13:52:36.999Z</time></trkpt><trkpt lat="44.1253733" lon="10.3135234"><ele>775.0</ele><time>2026-04-14T13:52:37.999Z</time></trkpt><trkpt lat="44.1254643" lon="10.3134038"><ele>771.4</ele><time>2026-04-14T13:52:40Z</time></trkpt><trkpt lat="44.1255447" lon="10.3132636"><ele>767.8</ele><time>2026-04-14T13:52:42Z</time></trkpt><trkpt lat="44.12559" lon="10.3131992"><ele>764.2</ele><time>2026-04-14T13:52:42.999Z</time></trkpt><trkpt lat="44.1256771" lon="10.3130784"><ele>760.6</ele><time>2026-04-14T13:52:45Z</time></trkpt><trkpt lat="44.1257538" lon="10.3129958"><ele>757.0</ele><time>2026-04-14T13:52:46.999Z</time></trkpt><trkpt lat="44.125794" lon="10.3129273"><ele>748.8</ele><time>2026-04-14T13:52:49Z</time></trkpt><trkpt lat="44.1257102" lon="10.3129342"><ele>740.6</ele><time>2026-04-14T13:52:54Z</time></trkpt><trkpt lat="44.1256096" lon="10.3129703"><ele>732.4</ele><time>2026-04-14T13:52:56Z</time></trkpt><trkpt lat="44.125524" lon="10.3129939"><ele>724.1999999999999</ele><time>2026-04-14T13:52:58Z</time></trkpt><trkpt lat="44.125438" lon="10.3130217"><ele>716.0</ele><time>2026-04-14T13:53:00Z</time></trkpt><trkpt lat="44.1253494" lon="10.3130156"><ele>716.0</ele><time>2026-04-14T13:53:02Z</time></trkpt><trkpt lat="44.1252509" lon="10.313026"><ele>716.0</ele><time>2026-04-14T13:53:04Z</time></trkpt><trkpt lat="44.1251458" lon="10.3130381"><ele>716.0</ele><time>2026-04-14T13:53:05.999Z</time></trkpt><trkpt lat="44.125041" lon="10.3130687"><ele>716.0</ele><time>2026-04-14T13:53:08Z</time></trkpt><trkpt lat="44.1249478" lon="10.3130976"><ele>716.0</ele><time>2026-04-14T13:53:09.999Z</time></trkpt><trkpt lat="44.124897" lon="10.3132039"><ele>716.0</ele><time>2026-04-14T13:53:12Z</time></trkpt><trkpt lat="44.12485" lon="10.3133356"><ele>716.0</ele><time>2026-04-14T13:53:14Z</time></trkpt><trkpt lat="44.1247962" lon="10.3133863"><ele>716.0</ele><time>2026-04-14T13:53:17Z</time></trkpt><trkpt lat="44.1247747" lon="10.3132876"><ele>716.0</ele><time>2026-04-14T13:53:21Z</time></trkpt><trkpt lat="44.1248194" lon="10.313157"><ele>716.0</ele><time>2026-04-14T13:53:24Z</time></trkpt><trkpt lat="44.1248624" lon="10.3130748"><ele>716.0</ele><time>2026-04-14T13:53:26Z</time></trkpt><trkpt lat="44.1249338" lon="10.312956"><ele>716.0</ele><time>2026-04-14T13:53:28Z</time></trkpt><trkpt lat="44.125" lon="10.3128611"><ele>716.0</ele><time>2026-04-14T13:53:30Z</time></trkpt><trkpt lat="44.1250809" lon="10.3127943"><ele>716.0</ele><time>2026-04-14T13:53:31.999Z</time></trkpt><trkpt lat="44.1251453" lon="10.3127382"><ele>716.0</ele><time>2026-04-14T13:53:33.999Z</time></trkpt><trkpt lat="44.1250822" lon="10.3126736"><ele>716.0</ele><time>2026-04-14T13:53:38Z</time></trkpt><trkpt lat="44.1250143" lon="10.3127062"><ele>716.0</ele><time>2026-04-14T13:53:40Z</time></trkpt><trkpt lat="44.1249468" lon="10.3127545"><ele>712.0</ele><time>2026-04-14T13:53:42Z</time></trkpt><trkpt lat="44.1248904" lon="10.3127972"><ele>708.0</ele><time>2026-04-14T13:53:44Z</time></trkpt><trkpt lat="44.1248143" lon="10.3128044"><ele>704.0</ele><time>2026-04-14T13:53:45Z</time></trkpt><trkpt lat="44.1247466" lon="10.3128242"><ele>700.0</ele><time>2026-04-14T13:53:46Z</time></trkpt><trkpt lat="44.1246538" lon="10.3128834"><ele>696.0</ele><time>2026-04-14T13:53:47.999Z</time></trkpt><trkpt lat="44.124578" lon="10.3129547"><ele>692.0</ele><time>2026-04-14T13:53:50Z</time></trkpt><trkpt lat="44.1245097" lon="10.3130788"><ele>692.0</ele><time>2026-04-14T13:53:52Z</time></trkpt><trkpt lat="44.1244546" lon="10.313142"><ele>692.0</ele><time>2026-04-14T13:53:52.999Z</time></trkpt><trkpt lat="44.1244346" lon="10.3132309"><ele>692.0</ele><time>2026-04-14T13:53:53.999Z</time></trkpt><trkpt lat="44.1244025" lon="10.3133343"><ele>692.0</ele><time>2026-04-14T13:53:54.999Z</time></trkpt><trkpt lat="44.1243788" lon="10.3134255"><ele>692.0</ele><time>2026-04-14T13:53:56Z</time></trkpt><trkpt lat="44.1243593" lon="10.3135146"><ele>692.0</ele><time>2026-04-14T13:53:57Z</time></trkpt><trkpt lat="44.124339" lon="10.3136082"><ele>692.0</ele><time>2026-04-14T13:53:57.999Z</time></trkpt><trkpt lat="44.1243103" lon="10.3136902"><ele>692.0</ele><time>2026-04-14T13:53:58.999Z</time></trkpt><trkpt lat="44.1242755" lon="10.313766"><ele>692.0</ele><time>2026-04-14T13:54:00Z</time></trkpt><trkpt lat="44.1242309" lon="10.313836"><ele>692.0</ele><time>2026-04-14T13:54:01Z</time></trkpt><trkpt lat="44.1241658" lon="10.3139038"><ele>692.0</ele><time>2026-04-14T13:54:01.999Z</time></trkpt><trkpt lat="44.1240994" lon="10.3139781"><ele>692.0</ele><time>2026-04-14T13:54:03Z</time></trkpt><trkpt lat="44.124025" lon="10.3140646"><ele>692.0</ele><time>2026-04-14T13:54:04Z</time></trkpt><trkpt lat="44.1239613" lon="10.314166"><ele>686.6</ele><time>2026-04-14T13:54:04.999Z</time></trkpt><trkpt lat="44.1238969" lon="10.3142736"><ele>681.2</ele><time>2026-04-14T13:54:05.999Z</time></trkpt><trkpt lat="44.1238254" lon="10.314373"><ele>675.8</ele><time>2026-04-14T13:54:06.999Z</time></trkpt><trkpt lat="44.1237743" lon="10.3144524"><ele>670.4</ele><time>2026-04-14T13:54:08Z</time></trkpt><trkpt lat="44.123718" lon="10.314517"><ele>665.0</ele><time>2026-04-14T13:54:09Z</time></trkpt><trkpt lat="44.1236327" lon="10.3146252"><ele>665.0</ele><time>2026-04-14T13:54:11Z</time></trkpt><trkpt lat="44.123554" lon="10.3147137"><ele>665.0</ele><time>2026-04-14T13:54:13Z</time></trkpt><trkpt lat="44.1234658" lon="10.3148092"><ele>665.0</ele><time>2026-04-14T13:54:14.999Z</time></trkpt><trkpt lat="44.1234103" lon="10.3148592"><ele>665.0</ele><time>2026-04-14T13:54:15.999Z</time></trkpt><trkpt lat="44.1233144" lon="10.3149285"><ele>665.0</ele><time>2026-04-14T13:54:18Z</time></trkpt><trkpt lat="44.1232242" lon="10.3149911"><ele>662.4</ele><time>2026-04-14T13:54:19.999Z</time></trkpt><trkpt lat="44.123132" lon="10.3150697"><ele>659.8</ele><time>2026-04-14T13:54:21.999Z</time></trkpt><trkpt lat="44.1230292" lon="10.315155"><ele>657.2</ele><time>2026-04-14T13:54:24Z</time></trkpt><trkpt lat="44.122937" lon="10.3152519"><ele>654.6</ele><time>2026-04-14T13:54:25.999Z</time></trkpt><trkpt lat="44.1228648" lon="10.3153265"><ele>652.0</ele><time>2026-04-14T13:54:27.999Z</time></trkpt><trkpt lat="44.1227981" lon="10.3153975"><ele>652.0</ele><time>2026-04-14T13:54:30Z</time></trkpt><trkpt lat="44.1227495" lon="10.3154814"><ele>652.0</ele><time>2026-04-14T13:54:32Z</time></trkpt><trkpt lat="44.1227108" lon="10.3155968"><ele>652.0</ele><time>2026-04-14T13:54:33.999Z</time></trkpt><trkpt lat="44.1227091" lon="10.315741"><ele>652.0</ele><time>2026-04-14T13:54:36Z</time></trkpt><trkpt lat="44.1227132" lon="10.3158326"><ele>652.0</ele><time>2026-04-14T13:54:38Z</time></trkpt><trkpt lat="44.1226703" lon="10.3159267"><ele>652.0</ele><time>2026-04-14T13:54:41Z</time></trkpt><trkpt lat="44.1226461" lon="10.3158435"><ele>652.0</ele><time>2026-04-14T13:56:57.999Z</time></trkpt><trkpt lat="44.1226297" lon="10.315729"><ele>652.0</ele><time>2026-04-14T13:57:02Z</time></trkpt><trkpt lat="44.1226087" lon="10.3156459"><ele>652.0</ele><time>2026-04-14T13:57:03.999Z</time></trkpt><trkpt lat="44.1225813" lon="10.3155536"><ele>652.0</ele><time>2026-04-14T13:57:05.999Z</time></trkpt><trkpt lat="44.1225699" lon="10.3154546"><ele>652.0</ele><time>2026-04-14T13:57:08Z</time></trkpt><trkpt lat="44.1225773" lon="10.315314"><ele>652.0</ele><time>2026-04-14T13:57:10Z</time></trkpt><trkpt lat="44.1226243" lon="10.3151796"><ele>652.0</ele><time>2026-04-14T13:57:12Z</time></trkpt><trkpt lat="44.1226498" lon="10.3150979"><ele>652.0</ele><time>2026-04-14T13:57:13Z</time></trkpt><trkpt lat="44.1226923" lon="10.3149467"><ele>652.0</ele><time>2026-04-14T13:57:15Z</time></trkpt><trkpt lat="44.1227328" lon="10.314795"><ele>652.0</ele><time>2026-04-14T13:57:16.999Z</time></trkpt><trkpt lat="44.1227566" lon="10.3147106"><ele>652.0</ele><time>2026-04-14T13:57:17.999Z</time></trkpt><trkpt lat="44.1227926" lon="10.3146167"><ele>652.0</ele><time>2026-04-14T13:57:19Z</time></trkpt><trkpt lat="44.1228304" lon="10.3145215"><ele>647.0</ele><time>2026-04-14T13:57:20Z</time></trkpt><trkpt lat="44.1228665" lon="10.3144319"><ele>642.0</ele><time>2026-04-14T13:57:20.999Z</time></trkpt><trkpt lat="44.1228966" lon="10.3143536"><ele>637.0</ele><time>2026-04-14T13:57:21.999Z</time></trkpt><trkpt lat="44.1229551" lon="10.3142037"><ele>632.0</ele><time>2026-04-14T13:57:24Z</time></trkpt><trkpt lat="44.1229874" lon="10.3141279"><ele>627.0</ele><time>2026-04-14T13:57:25Z</time></trkpt><trkpt lat="44.1230456" lon="10.3139793"><ele>622.0</ele><time>2026-04-14T13:57:27Z</time></trkpt><trkpt lat="44.1230714" lon="10.3138961"><ele>625.4</ele><time>2026-04-14T13:57:28Z</time></trkpt><trkpt lat="44.1231232" lon="10.3137422"><ele>628.8000000000001</ele><time>2026-04-14T13:57:29.999Z</time></trkpt><trkpt lat="44.1231783" lon="10.313609"><ele>632.2</ele><time>2026-04-14T13:57:32Z</time></trkpt><trkpt lat="44.1232308" lon="10.3134685"><ele>635.6</ele><time>2026-04-14T13:57:33.999Z</time></trkpt><trkpt lat="44.1232711" lon="10.313351"><ele>639.0</ele><time>2026-04-14T13:57:35.999Z</time></trkpt><trkpt lat="44.1233337" lon="10.3132743"><ele>639.0</ele><time>2026-04-14T13:57:37.999Z</time></trkpt><trkpt lat="44.1234145" lon="10.3132086"><ele>639.0</ele><time>2026-04-14T13:57:40Z</time></trkpt><trkpt lat="44.123459" lon="10.3130943"><ele>639.0</ele><time>2026-04-14T13:57:42Z</time></trkpt><trkpt lat="44.1234427" lon="10.3129922"><ele>639.0</ele><time>2026-04-14T13:57:43.999Z</time></trkpt><trkpt lat="44.1234088" lon="10.3128885"><ele>639.0</ele><time>2026-04-14T13:57:46Z</time></trkpt><trkpt lat="44.123409" lon="10.31278"><ele>639.0</ele><time>2026-04-14T13:57:48Z</time></trkpt><trkpt lat="44.1234243" lon="10.3126524"><ele>635.1666666666666</ele><time>2026-04-14T13:57:50Z</time></trkpt><trkpt lat="44.1234412" lon="10.312504"><ele>631.3333333333334</ele><time>2026-04-14T13:57:52Z</time></trkpt><trkpt lat="44.1234554" lon="10.3123344"><ele>627.5</ele><time>2026-04-14T13:57:54Z</time></trkpt><trkpt lat="44.1234662" lon="10.312244"><ele>623.6666666666667</ele><time>2026-04-14T13:57:55Z</time></trkpt><trkpt lat="44.1234872" lon="10.3121359"><ele>619.8333333333334</ele><time>2026-04-14T13:57:56Z</time></trkpt><trkpt lat="44.1234959" lon="10.3120429"><ele>616.0</ele><time>2026-04-14T13:57:57Z</time></trkpt><trkpt lat="44.123508" lon="10.3119189"><ele>612.1666666666667</ele><time>2026-04-14T13:57:58Z</time></trkpt><trkpt lat="44.1235158" lon="10.3118076"><ele>608.3333333333334</ele><time>2026-04-14T13:57:59Z</time></trkpt><trkpt lat="44.1235292" lon="10.3117091"><ele>604.5</ele><time>2026-04-14T13:58:00Z</time></trkpt><trkpt lat="44.1235328" lon="10.3116124"><ele>600.6666666666666</ele><time>2026-04-14T13:58:01Z</time></trkpt><trkpt lat="44.1235618" lon="10.3114537"><ele>596.8333333333333</ele><time>2026-04-14T13:58:03Z</time></trkpt><trkpt lat="44.1236091" lon="10.311316"><ele>593.0</ele><time>2026-04-14T13:58:05Z</time></trkpt><trkpt lat="44.1236446" lon="10.3111696"><ele>590.0</ele><time>2026-04-14T13:58:06.999Z</time></trkpt><trkpt lat="44.1236702" lon="10.3110228"><ele>587.0</ele><time>2026-04-14T13:58:09Z</time></trkpt><trkpt lat="44.1236795" lon="10.3109"><ele>584.0</ele><time>2026-04-14T13:58:11Z</time></trkpt><trkpt lat="44.1237298" lon="10.3107824"><ele>581.0</ele><time>2026-04-14T13:58:13.999Z</time></trkpt><trkpt lat="44.1237444" lon="10.3106762"><ele>578.0</ele><time>2026-04-14T13:58:15.999Z</time></trkpt><trkpt lat="44.1237711" lon="10.3105347"><ele>576.0</ele><time>2026-04-14T13:58:18Z</time></trkpt><trkpt lat="44.1238254" lon="10.3104192"><ele>574.0</ele><time>2026-04-14T13:58:19.999Z</time></trkpt><trkpt lat="44.123916" lon="10.3103387"><ele>572.0</ele><time>2026-04-14T13:58:22Z</time></trkpt><trkpt lat="44.1240259" lon="10.3102987"><ele>570.0</ele><time>2026-04-14T13:58:24Z</time></trkpt><trkpt lat="44.1241072" lon="10.3102658"><ele>568.0</ele><time>2026-04-14T13:58:26Z</time></trkpt><trkpt lat="44.1241897" lon="10.3101885"><ele>569.1666666666667</ele><time>2026-04-14T13:58:27.999Z</time></trkpt><trkpt lat="44.1242665" lon="10.3100698"><ele>570.3333333333334</ele><time>2026-04-14T13:58:30Z</time></trkpt><trkpt lat="44.1242983" lon="10.3099701"><ele>571.5</ele><time>2026-04-14T13:58:31Z</time></trkpt><trkpt lat="44.1243288" lon="10.3098614"><ele>572.6666666666666</ele><time>2026-04-14T13:58:32Z</time></trkpt><trkpt lat="44.1243577" lon="10.309759"><ele>573.8333333333333</ele><time>2026-04-14T13:58:33Z</time></trkpt><trkpt lat="44.1243881" lon="10.3096627"><ele>575.0</ele><time>2026-04-14T13:58:33.999Z</time></trkpt><trkpt lat="44.1244302" lon="10.3095765"><ele>575.0</ele><time>2026-04-14T13:58:34.999Z</time></trkpt><trkpt lat="44.124454" lon="10.30948"><ele>575.0</ele><time>2026-04-14T13:58:36Z</time></trkpt><trkpt lat="44.124474" lon="10.3093891"><ele>575.0</ele><time>2026-04-14T13:58:37Z</time></trkpt><trkpt lat="44.1244837" lon="10.3092976"><ele>575.0</ele><time>2026-04-14T13:58:37.999Z</time></trkpt><trkpt lat="44.1244948" lon="10.3092046"><ele>575.0</ele><time>2026-04-14T13:58:38.999Z</time></trkpt><trkpt lat="44.124509" lon="10.3091172"><ele>575.0</ele><time>2026-04-14T13:58:39.999Z</time></trkpt><trkpt lat="44.1245617" lon="10.3089457"><ele>573.2857142857142</ele><time>2026-04-14T13:58:41.999Z</time></trkpt><trkpt lat="44.1245843" lon="10.3088524"><ele>571.5714285714286</ele><time>2026-04-14T13:58:43Z</time></trkpt><trkpt lat="44.124619" lon="10.3087617"><ele>569.8571428571429</ele><time>2026-04-14T13:58:44Z</time></trkpt><trkpt lat="44.1246483" lon="10.3086704"><ele>568.1428571428571</ele><time>2026-04-14T13:58:45Z</time></trkpt><trkpt lat="44.124673" lon="10.3085866"><ele>566.4285714285714</ele><time>2026-04-14T13:58:45.999Z</time></trkpt><trkpt lat="44.1247032" lon="10.3084767"><ele>564.7142857142857</ele><time>2026-04-14T13:58:48Z</time></trkpt><trkpt lat="44.1247311" lon="10.3083907"><ele>563.0</ele><time>2026-04-14T13:58:51.999Z</time></trkpt><trkpt lat="44.1247783" lon="10.3083288"><ele>563.0</ele><time>2026-04-14T13:58:57.999Z</time></trkpt><trkpt lat="44.1248436" lon="10.308271"><ele>563.0</ele><time>2026-04-14T13:59:03Z</time></trkpt><trkpt lat="44.1249001" lon="10.3082256"><ele>563.0</ele><time>2026-04-14T13:59:04.999Z</time></trkpt><trkpt lat="44.1249981" lon="10.3081873"><ele>563.0</ele><time>2026-04-14T13:59:07Z</time></trkpt><trkpt lat="44.1250823" lon="10.3081772"><ele>563.0</ele><time>2026-04-14T13:59:08.999Z</time></trkpt><trkpt lat="44.1251515" lon="10.3081792"><ele>563.0</ele><time>2026-04-14T13:59:11Z</time></trkpt><trkpt lat="44.1252197" lon="10.3081884"><ele>564.1666666666666</ele><time>2026-04-14T13:59:13.999Z</time></trkpt><trkpt lat="44.125285" lon="10.3081593"><ele>565.3333333333333</ele><time>2026-04-14T13:59:17Z</time></trkpt><trkpt lat="44.1253446" lon="10.3080861"><ele>566.5</ele><time>2026-04-14T13:59:21Z</time></trkpt><trkpt lat="44.1254131" lon="10.308023"><ele>567.6666666666666</ele><time>2026-04-14T13:59:25Z</time></trkpt><trkpt lat="44.1254721" lon="10.3079513"><ele>568.8333333333334</ele><time>2026-04-14T13:59:29Z</time></trkpt><trkpt lat="44.1255186" lon="10.3078656"><ele>570.0</ele><time>2026-04-14T13:59:32.999Z</time></trkpt><trkpt lat="44.1255567" lon="10.3077772"><ele>570.0</ele><time>2026-04-14T13:59:36.999Z</time></trkpt><trkpt lat="44.1255814" lon="10.3076892"><ele>570.0</ele><time>2026-04-14T13:59:39.999Z</time></trkpt><trkpt lat="44.1256134" lon="10.3076095"><ele>570.0</ele><time>2026-04-14T13:59:43Z</time></trkpt><trkpt lat="44.1256494" lon="10.3075179"><ele>570.0</ele><time>2026-04-14T13:59:47Z</time></trkpt><trkpt lat="44.1257074" lon="10.307439"><ele>570.0</ele><time>2026-04-14T13:59:51Z</time></trkpt><trkpt lat="44.1257651" lon="10.3073506"><ele>570.0</ele><time>2026-04-14T13:59:55Z</time></trkpt><trkpt lat="44.1258208" lon="10.3072864"><ele>570.0</ele><time>2026-04-14T13:59:57.999Z</time></trkpt><trkpt lat="44.1258644" lon="10.3071991"><ele>568.8333333333334</ele><time>2026-04-14T14:00:02Z</time></trkpt><trkpt lat="44.1259247" lon="10.307109"><ele>567.6666666666666</ele><time>2026-04-14T14:00:04.999Z</time></trkpt><trkpt lat="44.1259956" lon="10.3070674"><ele>566.5</ele><time>2026-04-14T14:00:08Z</time></trkpt><trkpt lat="44.1260582" lon="10.3070889"><ele>565.3333333333333</ele><time>2026-04-14T14:00:11Z</time></trkpt><trkpt lat="44.1261263" lon="10.3071377"><ele>564.1666666666666</ele><time>2026-04-14T14:00:14Z</time></trkpt><trkpt lat="44.1261934" lon="10.3072173"><ele>563.0</ele><time>2026-04-14T14:00:17Z</time></trkpt><trkpt lat="44.1262448" lon="10.3072879"><ele>568.0</ele><time>2026-04-14T14:00:19Z</time></trkpt><trkpt lat="44.1262907" lon="10.3073714"><ele>573.0</ele><time>2026-04-14T14:00:20.999Z</time></trkpt><trkpt lat="44.1263483" lon="10.3074544"><ele>578.0</ele><time>2026-04-14T14:00:23Z</time></trkpt><trkpt lat="44.1264186" lon="10.3074876"><ele>583.0</ele><time>2026-04-14T14:00:25Z</time></trkpt><trkpt lat="44.1265021" lon="10.3074714"><ele>588.0</ele><time>2026-04-14T14:00:27Z</time></trkpt><trkpt lat="44.1265825" lon="10.3074483"><ele>593.0</ele><time>2026-04-14T14:00:28.999Z</time></trkpt><trkpt lat="44.1266548" lon="10.3074374"><ele>593.6666666666666</ele><time>2026-04-14T14:00:31Z</time></trkpt><trkpt lat="44.1267204" lon="10.3074362"><ele>594.3333333333333</ele><time>2026-04-14T14:00:33Z</time></trkpt><trkpt lat="44.1267893" lon="10.3074168"><ele>595.0</ele><time>2026-04-14T14:00:35Z</time></trkpt><trkpt lat="44.1269112" lon="10.3074008"><ele>595.6666666666666</ele><time>2026-04-14T14:00:36.999Z</time></trkpt><trkpt lat="44.1269796" lon="10.3073896"><ele>596.3333333333334</ele><time>2026-04-14T14:00:38Z</time></trkpt><trkpt lat="44.1270882" lon="10.3073455"><ele>597.0</ele><time>2026-04-14T14:00:39.999Z</time></trkpt><trkpt lat="44.1271537" lon="10.3073224"><ele>597.0000000000001</ele><time>2026-04-14T14:00:42Z</time></trkpt><trkpt lat="44.1272135" lon="10.3072837"><ele>597.0</ele><time>2026-04-14T14:00:44Z</time></trkpt><trkpt lat="44.1272802" lon="10.3072641"><ele>597.0</ele><time>2026-04-14T14:00:45.999Z</time></trkpt><trkpt lat="44.1273555" lon="10.3072796"><ele>597.0</ele><time>2026-04-14T14:00:49Z</time></trkpt><trkpt lat="44.1274239" lon="10.3073213"><ele>597.0</ele><time>2026-04-14T14:00:52Z</time></trkpt><trkpt lat="44.1274811" lon="10.3073795"><ele>597.0000000000001</ele><time>2026-04-14T14:00:54.999Z</time></trkpt><trkpt lat="44.1275346" lon="10.3074585"><ele>597.0</ele><time>2026-04-14T14:00:57Z</time></trkpt><trkpt lat="44.1276045" lon="10.3075868"><ele>593.8000000000001</ele><time>2026-04-14T14:00:59Z</time></trkpt><trkpt lat="44.1276719" lon="10.3077215"><ele>590.6</ele><time>2026-04-14T14:01:01Z</time></trkpt><trkpt lat="44.1277459" lon="10.3077926"><ele>587.4000000000001</ele><time>2026-04-14T14:01:03Z</time></trkpt><trkpt lat="44.1278235" lon="10.3077955"><ele>584.2</ele><time>2026-04-14T14:01:05Z</time></trkpt><trkpt lat="44.1279139" lon="10.3077711"><ele>581.0</ele><time>2026-04-14T14:01:07Z</time></trkpt><trkpt lat="44.1280152" lon="10.3077564"><ele>581.0</ele><time>2026-04-14T14:01:08.999Z</time></trkpt><trkpt lat="44.1280842" lon="10.3077634"><ele>581.0</ele><time>2026-04-14T14:01:10Z</time></trkpt><trkpt lat="44.1281534" lon="10.307788"><ele>581.0</ele><time>2026-04-14T14:01:11Z</time></trkpt><trkpt lat="44.1282209" lon="10.307812"><ele>581.0</ele><time>2026-04-14T14:01:12Z</time></trkpt><trkpt lat="44.1282808" lon="10.307848"><ele>581.0</ele><time>2026-04-14T14:01:12.999Z</time></trkpt><trkpt lat="44.1283956" lon="10.3079345"><ele>581.0</ele><time>2026-04-14T14:01:15Z</time></trkpt><trkpt lat="44.1284472" lon="10.3080047"><ele>581.2</ele><time>2026-04-14T14:01:15.999Z</time></trkpt><trkpt lat="44.1285036" lon="10.3080894"><ele>581.4000000000001</ele><time>2026-04-14T14:01:16.999Z</time></trkpt><trkpt lat="44.1285599" lon="10.308183"><ele>581.6</ele><time>2026-04-14T14:01:18Z</time></trkpt><trkpt lat="44.1286216" lon="10.3082869"><ele>581.8000000000001</ele><time>2026-04-14T14:01:19Z</time></trkpt><trkpt lat="44.1286815" lon="10.3084009"><ele>582.0</ele><time>2026-04-14T14:01:19.999Z</time></trkpt><trkpt lat="44.128736" lon="10.3085069"><ele>582.0</ele><time>2026-04-14T14:01:21Z</time></trkpt><trkpt lat="44.1287841" lon="10.3086051"><ele>582.0</ele><time>2026-04-14T14:01:22Z</time></trkpt><trkpt lat="44.1288303" lon="10.3087015"><ele>582.0</ele><time>2026-04-14T14:01:23Z</time></trkpt><trkpt lat="44.1288734" lon="10.3087899"><ele>582.0</ele><time>2026-04-14T14:01:23.999Z</time></trkpt><trkpt lat="44.1288959" lon="10.3088793"><ele>582.0</ele><time>2026-04-14T14:01:25Z</time></trkpt><trkpt lat="44.1289146" lon="10.3089744"><ele>582.0</ele><time>2026-04-14T14:01:25.999Z</time></trkpt><trkpt lat="44.1289141" lon="10.3090814"><ele>586.1666666666666</ele><time>2026-04-14T14:01:26.999Z</time></trkpt><trkpt lat="44.1288929" lon="10.3092012"><ele>590.3333333333334</ele><time>2026-04-14T14:01:28Z</time></trkpt><trkpt lat="44.1288751" lon="10.3093083"><ele>594.5</ele><time>2026-04-14T14:01:29Z</time></trkpt><trkpt lat="44.1288637" lon="10.3094052"><ele>598.6666666666667</ele><time>2026-04-14T14:01:30Z</time></trkpt><trkpt lat="44.1288708" lon="10.3094956"><ele>602.8333333333334</ele><time>2026-04-14T14:01:31Z</time></trkpt><trkpt lat="44.1289287" lon="10.3096343"><ele>607.0</ele><time>2026-04-14T14:01:33Z</time></trkpt><trkpt lat="44.1290485" lon="10.3097259"><ele>597.6</ele><time>2026-04-14T14:01:34.999Z</time></trkpt><trkpt lat="44.1291332" lon="10.3097885"><ele>588.2</ele><time>2026-04-14T14:01:35.999Z</time></trkpt><trkpt lat="44.1292214" lon="10.3098733"><ele>578.8</ele><time>2026-04-14T14:01:37Z</time></trkpt><trkpt lat="44.1293056" lon="10.3099665"><ele>569.4</ele><time>2026-04-14T14:01:38Z</time></trkpt><trkpt lat="44.129382" lon="10.3100491"><ele>560.0</ele><time>2026-04-14T14:01:39Z</time></trkpt><trkpt lat="44.1294398" lon="10.3101246"><ele>560.0</ele><time>2026-04-14T14:01:40Z</time></trkpt><trkpt lat="44.1294899" lon="10.3102026"><ele>560.0</ele><time>2026-04-14T14:01:40.999Z</time></trkpt><trkpt lat="44.1295413" lon="10.31028"><ele>560.0</ele><time>2026-04-14T14:01:41.999Z</time></trkpt><trkpt lat="44.1295895" lon="10.3103516"><ele>560.0</ele><time>2026-04-14T14:01:42.999Z</time></trkpt><trkpt lat="44.1296276" lon="10.3104232"><ele>560.0</ele><time>2026-04-14T14:01:44Z</time></trkpt><trkpt lat="44.1296502" lon="10.310527"><ele>560.0</ele><time>2026-04-14T14:01:45Z</time></trkpt><trkpt lat="44.1296639" lon="10.3106144"><ele>560.0</ele><time>2026-04-14T14:01:46Z</time></trkpt><trkpt lat="44.1296939" lon="10.3107444"><ele>564.0</ele><time>2026-04-14T14:01:47.999Z</time></trkpt><trkpt lat="44.1297566" lon="10.310785"><ele>568.0</ele><time>2026-04-14T14:01:50Z</time></trkpt><trkpt lat="44.1298841" lon="10.3107559"><ele>572.0</ele><time>2026-04-14T14:01:52Z</time></trkpt><trkpt lat="44.1299479" lon="10.3107348"><ele>576.0</ele><time>2026-04-14T14:01:53Z</time></trkpt><trkpt lat="44.1300213" lon="10.3107131"><ele>580.0</ele><time>2026-04-14T14:01:54Z</time></trkpt><trkpt lat="44.1301026" lon="10.3107234"><ele>584.0</ele><time>2026-04-14T14:01:55Z</time></trkpt><trkpt lat="44.1302229" lon="10.3108058"><ele>571.4</ele><time>2026-04-14T14:01:57Z</time></trkpt><trkpt lat="44.1302945" lon="10.3108621"><ele>558.8</ele><time>2026-04-14T14:01:57.999Z</time></trkpt><trkpt lat="44.1303487" lon="10.3109328"><ele>546.2</ele><time>2026-04-14T14:01:59Z</time></trkpt><trkpt lat="44.1304024" lon="10.3111028"><ele>533.6</ele><time>2026-04-14T14:02:01Z</time></trkpt><trkpt lat="44.1304192" lon="10.3112296"><ele>521.0</ele><time>2026-04-14T14:02:01.999Z</time></trkpt><trkpt lat="44.1304452" lon="10.311358"><ele>525.6666666666666</ele><time>2026-04-14T14:02:03Z</time></trkpt><trkpt lat="44.1304727" lon="10.3114704"><ele>530.3333333333333</ele><time>2026-04-14T14:02:03.999Z</time></trkpt><trkpt lat="44.1305164" lon="10.3115834"><ele>535.0</ele><time>2026-04-14T14:02:05Z</time></trkpt><trkpt lat="44.13057" lon="10.3117002"><ele>539.6666666666666</ele><time>2026-04-14T14:02:05.999Z</time></trkpt><trkpt lat="44.1306234" lon="10.3118007"><ele>544.3333333333334</ele><time>2026-04-14T14:02:07Z</time></trkpt><trkpt lat="44.1306798" lon="10.3118837"><ele>549.0</ele><time>2026-04-14T14:02:08Z</time></trkpt><trkpt lat="44.1307319" lon="10.3119624"><ele>542.3333333333334</ele><time>2026-04-14T14:02:09Z</time></trkpt><trkpt lat="44.1307851" lon="10.3120242"><ele>535.6666666666666</ele><time>2026-04-14T14:02:10Z</time></trkpt><trkpt lat="44.1309022" lon="10.3120927"><ele>529.0</ele><time>2026-04-14T14:02:12Z</time></trkpt><trkpt lat="44.1309935" lon="10.3121494"><ele>522.3333333333333</ele><time>2026-04-14T14:02:14Z</time></trkpt><trkpt lat="44.1310434" lon="10.3122089"><ele>515.6666666666666</ele><time>2026-04-14T14:02:14.999Z</time></trkpt><trkpt lat="44.1310774" lon="10.3123001"><ele>509.0</ele><time>2026-04-14T14:02:16Z</time></trkpt><trkpt lat="44.13112" lon="10.3123975"><ele>509.0</ele><time>2026-04-14T14:02:17Z</time></trkpt><trkpt lat="44.1311644" lon="10.3125136"><ele>509.0</ele><time>2026-04-14T14:02:18Z</time></trkpt><trkpt lat="44.1312098" lon="10.31264"><ele>509.0</ele><time>2026-04-14T14:02:19Z</time></trkpt><trkpt lat="44.1312587" lon="10.3127636"><ele>509.0</ele><time>2026-04-14T14:02:20Z</time></trkpt><trkpt lat="44.1313034" lon="10.3128935"><ele>509.0</ele><time>2026-04-14T14:02:21Z</time></trkpt><trkpt lat="44.1313454" lon="10.3130288"><ele>514.75</ele><time>2026-04-14T14:02:21.999Z</time></trkpt><trkpt lat="44.1313852" lon="10.3131735"><ele>520.5</ele><time>2026-04-14T14:02:23Z</time></trkpt><trkpt lat="44.1314243" lon="10.3133271"><ele>526.25</ele><time>2026-04-14T14:02:24Z</time></trkpt><trkpt lat="44.1314595" lon="10.3134861"><ele>532.0</ele><time>2026-04-14T14:02:25Z</time></trkpt><trkpt lat="44.1315055" lon="10.3136542"><ele>532.0</ele><time>2026-04-14T14:02:25.999Z</time></trkpt><trkpt lat="44.1315493" lon="10.3138124"><ele>532.0</ele><time>2026-04-14T14:02:26.999Z</time></trkpt><trkpt lat="44.1315894" lon="10.3139603"><ele>532.0</ele><time>2026-04-14T14:02:27.999Z</time></trkpt><trkpt lat="44.1316328" lon="10.314099"><ele>532.0</ele><time>2026-04-14T14:02:29Z</time></trkpt><trkpt lat="44.1316743" lon="10.3142148"><ele>532.0</ele><time>2026-04-14T14:02:29.999Z</time></trkpt><trkpt lat="44.131713" lon="10.3143287"><ele>522.2</ele><time>2026-04-14T14:02:31Z</time></trkpt><trkpt lat="44.1317464" lon="10.3144494"><ele>512.4000000000001</ele><time>2026-04-14T14:02:32Z</time></trkpt><trkpt lat="44.1317761" lon="10.3145867"><ele>502.59999999999997</ele><time>2026-04-14T14:02:33Z</time></trkpt><trkpt lat="44.1317772" lon="10.3147633"><ele>492.79999999999995</ele><time>2026-04-14T14:02:33.999Z</time></trkpt><trkpt lat="44.1317968" lon="10.3149261"><ele>483.0</ele><time>2026-04-14T14:02:35Z</time></trkpt><trkpt lat="44.1318099" lon="10.315094"><ele>483.0</ele><time>2026-04-14T14:02:36Z</time></trkpt><trkpt lat="44.1318403" lon="10.3152553"><ele>483.0</ele><time>2026-04-14T14:02:37Z</time></trkpt><trkpt lat="44.1318771" lon="10.3154047"><ele>483.0</ele><time>2026-04-14T14:02:37.999Z</time></trkpt><trkpt lat="44.1319229" lon="10.3155401"><ele>483.0</ele><time>2026-04-14T14:02:39Z</time></trkpt><trkpt lat="44.1319836" lon="10.3156691"><ele>485.0</ele><time>2026-04-14T14:02:40Z</time></trkpt><trkpt lat="44.1320505" lon="10.3157637"><ele>487.0</ele><time>2026-04-14T14:02:40.999Z</time></trkpt><trkpt lat="44.1321115" lon="10.3158589"><ele>489.0</ele><time>2026-04-14T14:02:42Z</time></trkpt><trkpt lat="44.1321508" lon="10.3159582"><ele>491.0</ele><time>2026-04-14T14:02:43Z</time></trkpt><trkpt lat="44.1321773" lon="10.3160562"><ele>493.0</ele><time>2026-04-14T14:02:44Z</time></trkpt><trkpt lat="44.1322195" lon="10.3161483"><ele>495.0</ele><time>2026-04-14T14:02:45Z</time></trkpt><trkpt lat="44.1322644" lon="10.3162249"><ele>495.0</ele><time>2026-04-14T14:02:46Z</time></trkpt><trkpt lat="44.1323331" lon="10.3163124"><ele>495.0</ele><time>2026-04-14T14:02:47.999Z</time></trkpt><trkpt lat="44.1324093" lon="10.3163651"><ele>495.0</ele><time>2026-04-14T14:02:51Z</time></trkpt><trkpt lat="44.1324702" lon="10.3164224"><ele>495.0</ele><time>2026-04-14T14:02:54.999Z</time></trkpt><trkpt lat="44.1325325" lon="10.316483"><ele>495.0</ele><time>2026-04-14T14:02:58Z</time></trkpt><trkpt lat="44.1325885" lon="10.316542"><ele>495.0</ele><time>2026-04-14T14:03:01Z</time></trkpt><trkpt lat="44.1326435" lon="10.3166054"><ele>492.6666666666667</ele><time>2026-04-14T14:03:04Z</time></trkpt><trkpt lat="44.1326852" lon="10.3166954"><ele>490.33333333333337</ele><time>2026-04-14T14:03:08Z</time></trkpt><trkpt lat="44.1327452" lon="10.3167829"><ele>488.0</ele><time>2026-04-14T14:03:12Z</time></trkpt><trkpt lat="44.1327771" lon="10.3168663"><ele>485.6666666666667</ele><time>2026-04-14T14:03:15Z</time></trkpt><trkpt lat="44.1327983" lon="10.3169738"><ele>483.33333333333337</ele><time>2026-04-14T14:03:17.984Z</time></trkpt><trkpt lat="44.1327946" lon="10.3170804"><ele>481.0</ele><time>2026-04-14T14:03:21Z</time></trkpt><trkpt lat="44.1328207" lon="10.3171843"><ele>487.00000000000006</ele><time>2026-04-14T14:03:25.002Z</time></trkpt><trkpt lat="44.1328712" lon="10.3172833"><ele>493.0</ele><time>2026-04-14T14:03:29Z</time></trkpt><trkpt lat="44.1329217" lon="10.3173711"><ele>499.0</ele><time>2026-04-14T14:03:32Z</time></trkpt><trkpt lat="44.1329657" lon="10.3174517"><ele>505.0</ele><time>2026-04-14T14:03:34.999Z</time></trkpt><trkpt lat="44.1330171" lon="10.317542"><ele>511.00000000000006</ele><time>2026-04-14T14:03:38Z</time></trkpt><trkpt lat="44.1330583" lon="10.3176364"><ele>517.0</ele><time>2026-04-14T14:03:41Z</time></trkpt><trkpt lat="44.1331051" lon="10.3177465"><ele>517.0</ele><time>2026-04-14T14:03:43.999Z</time></trkpt><trkpt lat="44.1331373" lon="10.3178241"><ele>517.0</ele><time>2026-04-14T14:03:46Z</time></trkpt><trkpt lat="44.133179" lon="10.3179242"><ele>517.0</ele><time>2026-04-14T14:03:49Z</time></trkpt><trkpt lat="44.1332258" lon="10.3180119"><ele>517.0</ele><time>2026-04-14T14:03:52Z</time></trkpt><trkpt lat="44.1332754" lon="10.3180928"><ele>517.0</ele><time>2026-04-14T14:03:55Z</time></trkpt><trkpt lat="44.1333123" lon="10.3181705"><ele>517.0</ele><time>2026-04-14T14:03:58Z</time></trkpt><trkpt lat="44.1333558" lon="10.3182678"><ele>512.3333333333334</ele><time>2026-04-14T14:04:02Z</time></trkpt><trkpt lat="44.1334032" lon="10.3183523"><ele>507.6666666666667</ele><time>2026-04-14T14:04:06Z</time></trkpt><trkpt lat="44.1334426" lon="10.3184214"><ele>503.0</ele><time>2026-04-14T14:04:09Z</time></trkpt><trkpt lat="44.1334957" lon="10.3185195"><ele>498.33333333333337</ele><time>2026-04-14T14:04:12Z</time></trkpt><trkpt lat="44.1335539" lon="10.3186105"><ele>493.6666666666667</ele><time>2026-04-14T14:04:13.999Z</time></trkpt><trkpt lat="44.1336368" lon="10.3187191"><ele>489.0</ele><time>2026-04-14T14:04:16Z</time></trkpt><trkpt lat="44.1337415" lon="10.3188075"><ele>489.0</ele><time>2026-04-14T14:04:18Z</time></trkpt><trkpt lat="44.1338019" lon="10.3188463"><ele>489.0</ele><time>2026-04-14T14:04:18.999Z</time></trkpt><trkpt lat="44.1338622" lon="10.3188992"><ele>489.0</ele><time>2026-04-14T14:04:19.999Z</time></trkpt><trkpt lat="44.1339167" lon="10.318953"><ele>489.0</ele><time>2026-04-14T14:04:21Z</time></trkpt><trkpt lat="44.1339704" lon="10.3190442"><ele>489.0</ele><time>2026-04-14T14:04:21.999Z</time></trkpt><trkpt lat="44.1340149" lon="10.3191407"><ele>489.0</ele><time>2026-04-14T14:04:22.999Z</time></trkpt><trkpt lat="44.134052" lon="10.3192404"><ele>490.6666666666667</ele><time>2026-04-14T14:04:24Z</time></trkpt><trkpt lat="44.1340983" lon="10.319334"><ele>492.33333333333337</ele><time>2026-04-14T14:04:25Z</time></trkpt><trkpt lat="44.1341432" lon="10.3194277"><ele>494.0</ele><time>2026-04-14T14:04:26Z</time></trkpt><trkpt lat="44.1341911" lon="10.3195166"><ele>495.6666666666667</ele><time>2026-04-14T14:04:27Z</time></trkpt><trkpt lat="44.1342399" lon="10.3195921"><ele>497.33333333333337</ele><time>2026-04-14T14:04:27.999Z</time></trkpt><trkpt lat="44.1342897" lon="10.3196731"><ele>499.0</ele><time>2026-04-14T14:04:28.999Z</time></trkpt><trkpt lat="44.1343469" lon="10.3197458"><ele>499.00000000000006</ele><time>2026-04-14T14:04:29.999Z</time></trkpt><trkpt lat="44.1344066" lon="10.3198169"><ele>499.0</ele><time>2026-04-14T14:04:31Z</time></trkpt><trkpt lat="44.1344668" lon="10.319882"><ele>499.0</ele><time>2026-04-14T14:04:32Z</time></trkpt><trkpt lat="44.1345273" lon="10.3199453"><ele>499.0</ele><time>2026-04-14T14:04:32.999Z</time></trkpt><trkpt lat="44.1346026" lon="10.320057"><ele>499.00000000000006</ele><time>2026-04-14T14:04:34.999Z</time></trkpt><trkpt lat="44.1346845" lon="10.3201255"><ele>499.0</ele><time>2026-04-14T14:04:36.999Z</time></trkpt><trkpt lat="44.134746" lon="10.3201605"><ele>499.00000000000006</ele><time>2026-04-14T14:04:40Z</time></trkpt><trkpt lat="44.1348086" lon="10.3202247"><ele>499.0</ele><time>2026-04-14T14:04:46Z</time></trkpt><trkpt lat="44.1348799" lon="10.3202748"><ele>499.0</ele><time>2026-04-14T14:04:49.999Z</time></trkpt><trkpt lat="44.1349417" lon="10.3203489"><ele>499.0</ele><time>2026-04-14T14:04:54Z</time></trkpt><trkpt lat="44.1349806" lon="10.3204416"><ele>499.00000000000006</ele><time>2026-04-14T14:04:57Z</time></trkpt><trkpt lat="44.1349939" lon="10.3205547"><ele>499.0</ele><time>2026-04-14T14:04:59Z</time></trkpt><trkpt lat="44.1349971" lon="10.3206425"><ele>494.33333333333337</ele><time>2026-04-14T14:04:59.999Z</time></trkpt><trkpt lat="44.1349959" lon="10.3207327"><ele>489.6666666666667</ele><time>2026-04-14T14:05:01Z</time></trkpt><trkpt lat="44.1349902" lon="10.3208299"><ele>485.0</ele><time>2026-04-14T14:05:02Z</time></trkpt><trkpt lat="44.1349858" lon="10.3209535"><ele>480.33333333333337</ele><time>2026-04-14T14:05:02.999Z</time></trkpt><trkpt lat="44.1349919" lon="10.3210912"><ele>475.6666666666667</ele><time>2026-04-14T14:05:04Z</time></trkpt><trkpt lat="44.1350082" lon="10.3212286"><ele>471.0</ele><time>2026-04-14T14:05:04.999Z</time></trkpt><trkpt lat="44.1350283" lon="10.3213568"><ele>472.4</ele><time>2026-04-14T14:05:06Z</time></trkpt><trkpt lat="44.1350587" lon="10.3214798"><ele>473.8</ele><time>2026-04-14T14:05:07Z</time></trkpt><trkpt lat="44.1350959" lon="10.3215937"><ele>475.19999999999993</ele><time>2026-04-14T14:05:08Z</time></trkpt><trkpt lat="44.135124" lon="10.3217379"><ele>476.59999999999997</ele><time>2026-04-14T14:05:09Z</time></trkpt><trkpt lat="44.1351561" lon="10.3218785"><ele>478.0</ele><time>2026-04-14T14:05:10Z</time></trkpt><trkpt lat="44.1351944" lon="10.3220128"><ele>478.0</ele><time>2026-04-14T14:05:10.999Z</time></trkpt><trkpt lat="44.1352354" lon="10.3221511"><ele>477.99999999999994</ele><time>2026-04-14T14:05:12Z</time></trkpt><trkpt lat="44.1352814" lon="10.3222987"><ele>477.99999999999994</ele><time>2026-04-14T14:05:13Z</time></trkpt><trkpt lat="44.1352949" lon="10.3224556"><ele>478.0</ele><time>2026-04-14T14:05:14Z</time></trkpt><trkpt lat="44.1353219" lon="10.3226044"><ele>478.0</ele><time>2026-04-14T14:05:15Z</time></trkpt><trkpt lat="44.1353434" lon="10.3227443"><ele>478.0</ele><time>2026-04-14T14:05:15.999Z</time></trkpt><trkpt lat="44.1353325" lon="10.3228936"><ele>477.99999999999994</ele><time>2026-04-14T14:05:16.999Z</time></trkpt><trkpt lat="44.1353032" lon="10.323024"><ele>477.99999999999994</ele><time>2026-04-14T14:05:18Z</time></trkpt><trkpt lat="44.1352572" lon="10.3231357"><ele>478.0</ele><time>2026-04-14T14:05:19Z</time></trkpt><trkpt lat="44.1352142" lon="10.3232499"><ele>478.0</ele><time>2026-04-14T14:05:19.999Z</time></trkpt><trkpt lat="44.1351708" lon="10.323352"><ele>478.00000000000006</ele><time>2026-04-14T14:05:21Z</time></trkpt><trkpt lat="44.1351347" lon="10.3234526"><ele>478.0</ele><time>2026-04-14T14:05:22Z</time></trkpt><trkpt lat="44.1351084" lon="10.3235627"><ele>478.0</ele><time>2026-04-14T14:05:23Z</time></trkpt><trkpt lat="44.1350942" lon="10.3236697"><ele>478.0</ele><time>2026-04-14T14:05:24Z</time></trkpt><trkpt lat="44.1350872" lon="10.3237663"><ele>478.00000000000006</ele><time>2026-04-14T14:05:25Z</time></trkpt><trkpt lat="44.1350997" lon="10.3238725"><ele>478.0</ele><time>2026-04-14T14:05:25.999Z</time></trkpt><trkpt lat="44.1351211" lon="10.3239668"><ele>479.2</ele><time>2026-04-14T14:05:27Z</time></trkpt><trkpt lat="44.1351521" lon="10.3240558"><ele>480.4</ele><time>2026-04-14T14:05:28Z</time></trkpt><trkpt lat="44.1351858" lon="10.3241337"><ele>481.59999999999997</ele><time>2026-04-14T14:05:29Z</time></trkpt><trkpt lat="44.1352502" lon="10.324271"><ele>482.79999999999995</ele><time>2026-04-14T14:05:31Z</time></trkpt><trkpt lat="44.1353073" lon="10.3244011"><ele>484.0</ele><time>2026-04-14T14:05:33Z</time></trkpt><trkpt lat="44.1353722" lon="10.3245111"><ele>484.0</ele><time>2026-04-14T14:05:35Z</time></trkpt><trkpt lat="44.1354208" lon="10.324631"><ele>484.0</ele><time>2026-04-14T14:05:36.999Z</time></trkpt><trkpt lat="44.1354494" lon="10.3247602"><ele>484.0</ele><time>2026-04-14T14:05:38.999Z</time></trkpt><trkpt lat="44.1354724" lon="10.3248803"><ele>484.0</ele><time>2026-04-14T14:05:41Z</time></trkpt><trkpt lat="44.1354938" lon="10.324989"><ele>484.0</ele><time>2026-04-14T14:05:43Z</time></trkpt><trkpt lat="44.1355325" lon="10.3251097"><ele>485.6666666666667</ele><time>2026-04-14T14:05:45Z</time></trkpt><trkpt lat="44.1355536" lon="10.3252312"><ele>487.33333333333337</ele><time>2026-04-14T14:05:46.999Z</time></trkpt><trkpt lat="44.1355799" lon="10.3253449"><ele>489.0</ele><time>2026-04-14T14:05:48.999Z</time></trkpt><trkpt lat="44.135608" lon="10.3254502"><ele>490.66666666666663</ele><time>2026-04-14T14:05:51Z</time></trkpt><trkpt lat="44.1356244" lon="10.3255669"><ele>492.3333333333333</ele><time>2026-04-14T14:05:53Z</time></trkpt><trkpt lat="44.1356202" lon="10.3256766"><ele>494.0</ele><time>2026-04-14T14:05:54.999Z</time></trkpt><trkpt lat="44.1355832" lon="10.3257939"><ele>495.6</ele><time>2026-04-14T14:05:57Z</time></trkpt><trkpt lat="44.1355143" lon="10.3258897"><ele>497.2</ele><time>2026-04-14T14:05:59Z</time></trkpt><trkpt lat="44.1354417" lon="10.3259786"><ele>498.80000000000007</ele><time>2026-04-14T14:06:00.999Z</time></trkpt><trkpt lat="44.1353852" lon="10.3260466"><ele>500.40000000000003</ele><time>2026-04-14T14:06:02.999Z</time></trkpt><trkpt lat="44.1353295" lon="10.326151"><ele>502.0</ele><time>2026-04-14T14:06:04.999Z</time></trkpt><trkpt lat="44.1352983" lon="10.3262708"><ele>502.0</ele><time>2026-04-14T14:06:07Z</time></trkpt><trkpt lat="44.1352814" lon="10.3263822"><ele>502.00000000000006</ele><time>2026-04-14T14:06:08.999Z</time></trkpt><trkpt lat="44.1352779" lon="10.3265101"><ele>502.00000000000006</ele><time>2026-04-14T14:06:11Z</time></trkpt><trkpt lat="44.1353126" lon="10.3266689"><ele>502.0</ele><time>2026-04-14T14:06:13Z</time></trkpt><trkpt lat="44.1353935" lon="10.3267391"><ele>502.0</ele><time>2026-04-14T14:06:14.999Z</time></trkpt><trkpt lat="44.1354871" lon="10.326754"><ele>501.8</ele><time>2026-04-14T14:06:17Z</time></trkpt><trkpt lat="44.1355828" lon="10.3267391"><ele>501.6</ele><time>2026-04-14T14:06:19Z</time></trkpt><trkpt lat="44.1356763" lon="10.3267131"><ele>501.40000000000003</ele><time>2026-04-14T14:06:20.999Z</time></trkpt><trkpt lat="44.1357815" lon="10.3266807"><ele>501.20000000000005</ele><time>2026-04-14T14:06:22.999Z</time></trkpt><trkpt lat="44.1358752" lon="10.32667"><ele>501.0</ele><time>2026-04-14T14:06:25Z</time></trkpt><trkpt lat="44.1359629" lon="10.3266939"><ele>493.8</ele><time>2026-04-14T14:06:27Z</time></trkpt><trkpt lat="44.1360591" lon="10.3267687"><ele>486.6</ele><time>2026-04-14T14:06:29Z</time></trkpt><trkpt lat="44.1361247" lon="10.3268632"><ele>479.4</ele><time>2026-04-14T14:06:31Z</time></trkpt><trkpt lat="44.1361636" lon="10.3269623"><ele>472.2</ele><time>2026-04-14T14:06:33Z</time></trkpt><trkpt lat="44.136188" lon="10.3270679"><ele>465.0</ele><time>2026-04-14T14:06:34.999Z</time></trkpt><trkpt lat="44.1362166" lon="10.3271788"><ele>467.6666666666667</ele><time>2026-04-14T14:06:37Z</time></trkpt><trkpt lat="44.136243" lon="10.327289"><ele>470.33333333333337</ele><time>2026-04-14T14:06:39Z</time></trkpt><trkpt lat="44.1362719" lon="10.3274057"><ele>473.0</ele><time>2026-04-14T14:06:40.999Z</time></trkpt><trkpt lat="44.1362996" lon="10.327529"><ele>475.6666666666667</ele><time>2026-04-14T14:06:43Z</time></trkpt><trkpt lat="44.1363323" lon="10.327652"><ele>478.33333333333337</ele><time>2026-04-14T14:06:45Z</time></trkpt><trkpt lat="44.1363397" lon="10.3277687"><ele>481.0</ele><time>2026-04-14T14:06:47Z</time></trkpt><trkpt lat="44.1363338" lon="10.3278895"><ele>481.00000000000006</ele><time>2026-04-14T14:06:48.999Z</time></trkpt><trkpt lat="44.1363151" lon="10.3280103"><ele>481.0</ele><time>2026-04-14T14:06:51Z</time></trkpt><trkpt lat="44.1362715" lon="10.3281394"><ele>481.0</ele><time>2026-04-14T14:06:53Z</time></trkpt><trkpt lat="44.1362206" lon="10.3282374"><ele>481.0</ele><time>2026-04-14T14:06:55Z</time></trkpt><trkpt lat="44.1361662" lon="10.3283263"><ele>481.00000000000006</ele><time>2026-04-14T14:06:57Z</time></trkpt><trkpt lat="44.1361216" lon="10.3284007"><ele>481.0</ele><time>2026-04-14T14:06:59Z</time></trkpt><trkpt lat="44.1360923" lon="10.3285141"><ele>481.4</ele><time>2026-04-14T14:07:01Z</time></trkpt><trkpt lat="44.1361034" lon="10.3286522"><ele>481.8</ele><time>2026-04-14T14:07:03Z</time></trkpt><trkpt lat="44.1361389" lon="10.3287773"><ele>482.19999999999993</ele><time>2026-04-14T14:07:04.999Z</time></trkpt><trkpt lat="44.1362025" lon="10.3288814"><ele>482.59999999999997</ele><time>2026-04-14T14:07:07Z</time></trkpt><trkpt lat="44.1362729" lon="10.3289697"><ele>483.0</ele><time>2026-04-14T14:07:08.999Z</time></trkpt><trkpt lat="44.1363395" lon="10.3290513"><ele>481.79999999999995</ele><time>2026-04-14T14:07:11Z</time></trkpt><trkpt lat="44.1364143" lon="10.3291226"><ele>480.59999999999997</ele><time>2026-04-14T14:07:12.999Z</time></trkpt><trkpt lat="44.1364879" lon="10.3291996"><ele>479.40000000000003</ele><time>2026-04-14T14:07:15Z</time></trkpt><trkpt lat="44.1365676" lon="10.3292791"><ele>478.20000000000005</ele><time>2026-04-14T14:07:16.999Z</time></trkpt><trkpt lat="44.1366361" lon="10.3293634"><ele>477.0</ele><time>2026-04-14T14:07:19Z</time></trkpt><trkpt lat="44.1367022" lon="10.3294635"><ele>476.6</ele><time>2026-04-14T14:07:21Z</time></trkpt><trkpt lat="44.1367711" lon="10.3295668"><ele>476.20000000000005</ele><time>2026-04-14T14:07:23Z</time></trkpt><trkpt lat="44.1368277" lon="10.3296756"><ele>475.8</ele><time>2026-04-14T14:07:25Z</time></trkpt><trkpt lat="44.136882" lon="10.3297887"><ele>475.4</ele><time>2026-04-14T14:07:27Z</time></trkpt><trkpt lat="44.136938" lon="10.3299065"><ele>475.0</ele><time>2026-04-14T14:07:29Z</time></trkpt><trkpt lat="44.1369795" lon="10.3300339"><ele>475.0</ele><time>2026-04-14T14:07:30.999Z</time></trkpt><trkpt lat="44.1370144" lon="10.3301594"><ele>475.0</ele><time>2026-04-14T14:07:32.999Z</time></trkpt><trkpt lat="44.1370487" lon="10.3302837"><ele>475.0</ele><time>2026-04-14T14:07:35Z</time></trkpt><trkpt lat="44.137067" lon="10.3304155"><ele>475.0</ele><time>2026-04-14T14:07:36.999Z</time></trkpt><trkpt lat="44.1370848" lon="10.3305471"><ele>475.0</ele><time>2026-04-14T14:07:38.999Z</time></trkpt><trkpt lat="44.1370953" lon="10.3306789"><ele>477.6</ele><time>2026-04-14T14:07:40.999Z</time></trkpt><trkpt lat="44.1370963" lon="10.3308066"><ele>480.2</ele><time>2026-04-14T14:07:42.999Z</time></trkpt><trkpt lat="44.1370832" lon="10.3309474"><ele>482.79999999999995</ele><time>2026-04-14T14:07:45Z</time></trkpt><trkpt lat="44.1370784" lon="10.3310861"><ele>485.4</ele><time>2026-04-14T14:07:46.999Z</time></trkpt><trkpt lat="44.137075" lon="10.3312203"><ele>488.0</ele><time>2026-04-14T14:07:49Z</time></trkpt><trkpt lat="44.1370766" lon="10.3313498"><ele>491.2</ele><time>2026-04-14T14:07:51Z</time></trkpt><trkpt lat="44.137087" lon="10.3314849"><ele>494.4</ele><time>2026-04-14T14:07:53Z</time></trkpt><trkpt lat="44.1371103" lon="10.3316162"><ele>497.59999999999997</ele><time>2026-04-14T14:07:55Z</time></trkpt><trkpt lat="44.1371461" lon="10.3317437"><ele>500.79999999999995</ele><time>2026-04-14T14:07:57Z</time></trkpt><trkpt lat="44.1371845" lon="10.3318625"><ele>504.0</ele><time>2026-04-14T14:07:59Z</time></trkpt><trkpt lat="44.1372367" lon="10.3319794"><ele>504.0</ele><time>2026-04-14T14:08:00.999Z</time></trkpt><trkpt lat="44.1372916" lon="10.3320963"><ele>504.0</ele><time>2026-04-14T14:08:02.999Z</time></trkpt><trkpt lat="44.1373465" lon="10.3322178"><ele>504.0</ele><time>2026-04-14T14:08:04.999Z</time></trkpt><trkpt lat="44.137406" lon="10.3323327"><ele>504.0</ele><time>2026-04-14T14:08:07Z</time></trkpt><trkpt lat="44.1374539" lon="10.3324504"><ele>504.0</ele><time>2026-04-14T14:08:09Z</time></trkpt><trkpt lat="44.137505" lon="10.3325655"><ele>502.0</ele><time>2026-04-14T14:08:11Z</time></trkpt><trkpt lat="44.1375493" lon="10.3326846"><ele>500.0</ele><time>2026-04-14T14:08:13Z</time></trkpt><trkpt lat="44.1376013" lon="10.3327977"><ele>498.0</ele><time>2026-04-14T14:08:15Z</time></trkpt><trkpt lat="44.1376515" lon="10.3329118"><ele>496.0</ele><time>2026-04-14T14:08:17Z</time></trkpt><trkpt lat="44.1376996" lon="10.3330214"><ele>494.0</ele><time>2026-04-14T14:08:19Z</time></trkpt><trkpt lat="44.1377505" lon="10.3331417"><ele>494.0</ele><time>2026-04-14T14:08:21Z</time></trkpt><trkpt lat="44.1377955" lon="10.3332564"><ele>494.0</ele><time>2026-04-14T14:08:23Z</time></trkpt><trkpt lat="44.137846" lon="10.3333704"><ele>494.0</ele><time>2026-04-14T14:08:25Z</time></trkpt><trkpt lat="44.1379028" lon="10.3334751"><ele>494.0</ele><time>2026-04-14T14:08:26.999Z</time></trkpt><trkpt lat="44.1379475" lon="10.3335873"><ele>494.0</ele><time>2026-04-14T14:08:28.999Z</time></trkpt><trkpt lat="44.1380006" lon="10.3336984"><ele>494.0</ele><time>2026-04-14T14:08:31Z</time></trkpt><trkpt lat="44.138037" lon="10.3338199"><ele>494.0</ele><time>2026-04-14T14:08:32.999Z</time></trkpt><trkpt lat="44.1380645" lon="10.3339454"><ele>494.0</ele><time>2026-04-14T14:08:35Z</time></trkpt><trkpt lat="44.138083" lon="10.3340693"><ele>494.0</ele><time>2026-04-14T14:08:36.999Z</time></trkpt><trkpt lat="44.1380903" lon="10.3342047"><ele>494.0</ele><time>2026-04-14T14:08:38.999Z</time></trkpt><trkpt lat="44.1380996" lon="10.3343304"><ele>497.2</ele><time>2026-04-14T14:08:41Z</time></trkpt><trkpt lat="44.1381211" lon="10.3344507"><ele>500.4</ele><time>2026-04-14T14:08:43Z</time></trkpt><trkpt lat="44.1381536" lon="10.3345743"><ele>503.6</ele><time>2026-04-14T14:08:45Z</time></trkpt><trkpt lat="44.138206" lon="10.334677"><ele>506.8</ele><time>2026-04-14T14:08:46.999Z</time></trkpt><trkpt lat="44.1382691" lon="10.3347769"><ele>510.0</ele><time>2026-04-14T14:08:48.999Z</time></trkpt><trkpt lat="44.1383346" lon="10.3348723"><ele>503.2</ele><time>2026-04-14T14:08:50.999Z</time></trkpt><trkpt lat="44.1384063" lon="10.3349618"><ele>496.4</ele><time>2026-04-14T14:08:53Z</time></trkpt><trkpt lat="44.138473" lon="10.335065"><ele>489.6</ele><time>2026-04-14T14:08:55Z</time></trkpt><trkpt lat="44.1385312" lon="10.3351732"><ele>482.8</ele><time>2026-04-14T14:08:56.999Z</time></trkpt><trkpt lat="44.1385816" lon="10.3352824"><ele>476.0</ele><time>2026-04-14T14:08:59Z</time></trkpt><trkpt lat="44.1386284" lon="10.3354002"><ele>476.0</ele><time>2026-04-14T14:09:00.999Z</time></trkpt><trkpt lat="44.1386751" lon="10.3355204"><ele>476.0</ele><time>2026-04-14T14:09:02.999Z</time></trkpt><trkpt lat="44.1387153" lon="10.335637"><ele>476.0</ele><time>2026-04-14T14:09:05Z</time></trkpt><trkpt lat="44.1387493" lon="10.3357542"><ele>476.0</ele><time>2026-04-14T14:09:07Z</time></trkpt><trkpt lat="44.1387812" lon="10.3358747"><ele>476.0</ele><time>2026-04-14T14:09:09Z</time></trkpt><trkpt lat="44.1388007" lon="10.3360082"><ele>480.6</ele><time>2026-04-14T14:09:11Z</time></trkpt><trkpt lat="44.1388192" lon="10.3361354"><ele>485.20000000000005</ele><time>2026-04-14T14:09:13Z</time></trkpt><trkpt lat="44.1388267" lon="10.3362689"><ele>489.79999999999995</ele><time>2026-04-14T14:09:15Z</time></trkpt><trkpt lat="44.1388316" lon="10.3364048"><ele>494.4</ele><time>2026-04-14T14:09:17Z</time></trkpt><trkpt lat="44.1388269" lon="10.3365414"><ele>499.0</ele><time>2026-04-14T14:09:18.999Z</time></trkpt><trkpt lat="44.138827" lon="10.3366634"><ele>500.4</ele><time>2026-04-14T14:09:21Z</time></trkpt><trkpt lat="44.1388207" lon="10.3367989"><ele>501.79999999999995</ele><time>2026-04-14T14:09:23Z</time></trkpt><trkpt lat="44.1388062" lon="10.3369359"><ele>503.20000000000005</ele><time>2026-04-14T14:09:25Z</time></trkpt><trkpt lat="44.1387915" lon="10.3370712"><ele>504.6</ele><time>2026-04-14T14:09:27Z</time></trkpt><trkpt lat="44.1387853" lon="10.3372058"><ele>506.0</ele><time>2026-04-14T14:09:28.999Z</time></trkpt><trkpt lat="44.1387771" lon="10.3373346"><ele>506.0</ele><time>2026-04-14T14:09:31Z</time></trkpt><trkpt lat="44.1387773" lon="10.3374709"><ele>506.0</ele><time>2026-04-14T14:09:33Z</time></trkpt><trkpt lat="44.1387639" lon="10.3376016"><ele>506.0</ele><time>2026-04-14T14:09:34.999Z</time></trkpt><trkpt lat="44.1387452" lon="10.3377404"><ele>506.0</ele><time>2026-04-14T14:09:37Z</time></trkpt><trkpt lat="44.1387223" lon="10.3378725"><ele>506.0</ele><time>2026-04-14T14:09:39Z</time></trkpt><trkpt lat="44.1386945" lon="10.337991"><ele>504.8333333333333</ele><time>2026-04-14T14:09:41Z</time></trkpt><trkpt lat="44.1386717" lon="10.3381164"><ele>503.66666666666663</ele><time>2026-04-14T14:09:42.999Z</time></trkpt><trkpt lat="44.1386636" lon="10.3382473"><ele>502.5</ele><time>2026-04-14T14:09:44.999Z</time></trkpt><trkpt lat="44.1386767" lon="10.3383726"><ele>501.33333333333337</ele><time>2026-04-14T14:09:47Z</time></trkpt><trkpt lat="44.1387053" lon="10.3384763"><ele>500.1666666666667</ele><time>2026-04-14T14:09:49Z</time></trkpt><trkpt lat="44.1387307" lon="10.3385694"><ele>499.0</ele><time>2026-04-14T14:09:51Z</time></trkpt><trkpt lat="44.1387672" lon="10.3386476"><ele>499.00000000000006</ele><time>2026-04-14T14:09:53Z</time></trkpt><trkpt lat="44.1388037" lon="10.3387275"><ele>499.0</ele><time>2026-04-14T14:09:55Z</time></trkpt><trkpt lat="44.1388439" lon="10.3388109"><ele>499.0</ele><time>2026-04-14T14:09:57Z</time></trkpt><trkpt lat="44.1388826" lon="10.338902"><ele>499.0</ele><time>2026-04-14T14:09:59Z</time></trkpt><trkpt lat="44.1389121" lon="10.3390019"><ele>499.00000000000006</ele><time>2026-04-14T14:10:00.999Z</time></trkpt><trkpt lat="44.1389324" lon="10.3391085"><ele>499.0</ele><time>2026-04-14T14:10:03Z</time></trkpt><trkpt lat="44.1389552" lon="10.3392173"><ele>501.33333333333337</ele><time>2026-04-14T14:10:05Z</time></trkpt><trkpt lat="44.1389795" lon="10.3393264"><ele>503.6666666666667</ele><time>2026-04-14T14:10:06.999Z</time></trkpt><trkpt lat="44.1390056" lon="10.3394361"><ele>506.0</ele><time>2026-04-14T14:10:09Z</time></trkpt><trkpt lat="44.1390246" lon="10.3395467"><ele>508.33333333333337</ele><time>2026-04-14T14:10:10.999Z</time></trkpt><trkpt lat="44.1390314" lon="10.339666"><ele>510.6666666666667</ele><time>2026-04-14T14:10:13Z</time></trkpt><trkpt lat="44.1390115" lon="10.3398012"><ele>513.0</ele><time>2026-04-14T14:10:15Z</time></trkpt><trkpt lat="44.1389899" lon="10.3399273"><ele>513.0</ele><time>2026-04-14T14:10:17Z</time></trkpt><trkpt lat="44.1389577" lon="10.3400374"><ele>513.0</ele><time>2026-04-14T14:10:19Z</time></trkpt><trkpt lat="44.1389128" lon="10.3401473"><ele>513.0</ele><time>2026-04-14T14:10:21Z</time></trkpt><trkpt lat="44.1388648" lon="10.3402562"><ele>513.0</ele><time>2026-04-14T14:10:22.999Z</time></trkpt><trkpt lat="44.1388063" lon="10.340348"><ele>513.0</ele><time>2026-04-14T14:10:25Z</time></trkpt><trkpt lat="44.1387507" lon="10.3404247"><ele>513.0</ele><time>2026-04-14T14:10:27Z</time></trkpt><trkpt lat="44.1386939" lon="10.3405056"><ele>509.0</ele><time>2026-04-14T14:10:28.999Z</time></trkpt><trkpt lat="44.1386319" lon="10.3406123"><ele>504.99999999999994</ele><time>2026-04-14T14:10:31Z</time></trkpt><trkpt lat="44.1385889" lon="10.3407472"><ele>500.99999999999994</ele><time>2026-04-14T14:10:32.999Z</time></trkpt><trkpt lat="44.1385778" lon="10.3408801"><ele>497.0</ele><time>2026-04-14T14:10:35Z</time></trkpt><trkpt lat="44.1385971" lon="10.3410035"><ele>493.0</ele><time>2026-04-14T14:10:36.999Z</time></trkpt><trkpt lat="44.1386408" lon="10.3411272"><ele>493.0</ele><time>2026-04-14T14:10:38.999Z</time></trkpt><trkpt lat="44.1386968" lon="10.3412361"><ele>492.99999999999994</ele><time>2026-04-14T14:10:40.999Z</time></trkpt><trkpt lat="44.1387554" lon="10.3413417"><ele>492.99999999999994</ele><time>2026-04-14T14:10:43Z</time></trkpt><trkpt lat="44.1388103" lon="10.3414421"><ele>493.0</ele><time>2026-04-14T14:10:44.999Z</time></trkpt><trkpt lat="44.1388656" lon="10.3415482"><ele>493.0</ele><time>2026-04-14T14:10:47Z</time></trkpt><trkpt lat="44.1389225" lon="10.3416555"><ele>492.00000000000006</ele><time>2026-04-14T14:10:48.999Z</time></trkpt><trkpt lat="44.1389864" lon="10.3417512"><ele>491.0</ele><time>2026-04-14T14:10:51Z</time></trkpt><trkpt lat="44.1390465" lon="10.3418441"><ele>490.0</ele><time>2026-04-14T14:10:52.999Z</time></trkpt><trkpt lat="44.1390941" lon="10.3419267"><ele>489.0</ele><time>2026-04-14T14:10:54.999Z</time></trkpt><trkpt lat="44.1391354" lon="10.3420002"><ele>488.00000000000006</ele><time>2026-04-14T14:10:57Z</time></trkpt><trkpt lat="44.1391705" lon="10.3420739"><ele>487.0</ele><time>2026-04-14T14:10:59Z</time></trkpt><trkpt lat="44.1392098" lon="10.3421666"><ele>484.20000000000005</ele><time>2026-04-14T14:11:01Z</time></trkpt><trkpt lat="44.1392417" lon="10.3422829"><ele>481.40000000000003</ele><time>2026-04-14T14:11:03Z</time></trkpt><trkpt lat="44.1392598" lon="10.3424225"><ele>478.59999999999997</ele><time>2026-04-14T14:11:04.999Z</time></trkpt><trkpt lat="44.1392686" lon="10.3425574"><ele>475.79999999999995</ele><time>2026-04-14T14:11:07Z</time></trkpt><trkpt lat="44.1392691" lon="10.3426975"><ele>473.0</ele><time>2026-04-14T14:11:09Z</time></trkpt><trkpt lat="44.1392572" lon="10.3428369"><ele>473.0</ele><time>2026-04-14T14:11:10.999Z</time></trkpt><trkpt lat="44.1392351" lon="10.3429629"><ele>472.99999999999994</ele><time>2026-04-14T14:11:12.999Z</time></trkpt><trkpt lat="44.1392068" lon="10.3430841"><ele>472.99999999999994</ele><time>2026-04-14T14:11:15Z</time></trkpt><trkpt lat="44.1391817" lon="10.3432064"><ele>473.0</ele><time>2026-04-14T14:11:17Z</time></trkpt><trkpt lat="44.13915" lon="10.3433149"><ele>473.0</ele><time>2026-04-14T14:11:18.999Z</time></trkpt><trkpt lat="44.1391098" lon="10.3434405"><ele>473.0</ele><time>2026-04-14T14:11:21Z</time></trkpt><trkpt lat="44.1390793" lon="10.343563"><ele>472.99999999999994</ele><time>2026-04-14T14:11:23Z</time></trkpt><trkpt lat="44.1390441" lon="10.3436857"><ele>472.99999999999994</ele><time>2026-04-14T14:11:24.999Z</time></trkpt><trkpt lat="44.1390174" lon="10.3438141"><ele>473.0</ele><time>2026-04-14T14:11:26.999Z</time></trkpt><trkpt lat="44.1389845" lon="10.3439529"><ele>473.0</ele><time>2026-04-14T14:11:29Z</time></trkpt><trkpt lat="44.1389506" lon="10.3440839"><ele>473.0</ele><time>2026-04-14T14:11:30.999Z</time></trkpt><trkpt lat="44.1389591" lon="10.3442241"><ele>472.99999999999994</ele><time>2026-04-14T14:11:33Z</time></trkpt><trkpt lat="44.1389892" lon="10.3443583"><ele>472.99999999999994</ele><time>2026-04-14T14:11:34.999Z</time></trkpt><trkpt lat="44.1390322" lon="10.3444697"><ele>473.0</ele><time>2026-04-14T14:11:37Z</time></trkpt><trkpt lat="44.1390906" lon="10.3445754"><ele>473.0</ele><time>2026-04-14T14:11:38.999Z</time></trkpt><trkpt lat="44.1391544" lon="10.3446715"><ele>473.79999999999995</ele><time>2026-04-14T14:11:41Z</time></trkpt><trkpt lat="44.1392131" lon="10.3447799"><ele>474.59999999999997</ele><time>2026-04-14T14:11:43Z</time></trkpt><trkpt lat="44.1392739" lon="10.3448853"><ele>475.40000000000003</ele><time>2026-04-14T14:11:44.999Z</time></trkpt><trkpt lat="44.1393328" lon="10.3449971"><ele>476.20000000000005</ele><time>2026-04-14T14:11:47Z</time></trkpt><trkpt lat="44.1393909" lon="10.3451035"><ele>477.0</ele><time>2026-04-14T14:11:48.999Z</time></trkpt><trkpt lat="44.1394417" lon="10.3452058"><ele>477.0</ele><time>2026-04-14T14:11:51Z</time></trkpt><trkpt lat="44.1394924" lon="10.3453047"><ele>477.0</ele><time>2026-04-14T14:11:53Z</time></trkpt><trkpt lat="44.139542" lon="10.3453993"><ele>477.0</ele><time>2026-04-14T14:11:55Z</time></trkpt><trkpt lat="44.1395968" lon="10.3454913"><ele>477.0</ele><time>2026-04-14T14:11:57Z</time></trkpt><trkpt lat="44.1396664" lon="10.3455725"><ele>477.0</ele><time>2026-04-14T14:11:59Z</time></trkpt><trkpt lat="44.1397435" lon="10.3456464"><ele>477.0</ele><time>2026-04-14T14:12:00.999Z</time></trkpt><trkpt lat="44.1398271" lon="10.3457001"><ele>477.8</ele><time>2026-04-14T14:12:02.999Z</time></trkpt><trkpt lat="44.1399154" lon="10.3457535"><ele>478.6</ele><time>2026-04-14T14:12:04.999Z</time></trkpt><trkpt lat="44.1400033" lon="10.3458069"><ele>479.40000000000003</ele><time>2026-04-14T14:12:06.999Z</time></trkpt><trkpt lat="44.140097" lon="10.3458572"><ele>480.20000000000005</ele><time>2026-04-14T14:12:09Z</time></trkpt><trkpt lat="44.1401957" lon="10.3459137"><ele>481.0</ele><time>2026-04-14T14:12:11Z</time></trkpt><trkpt lat="44.1403042" lon="10.3459717"><ele>481.0</ele><time>2026-04-14T14:12:13Z</time></trkpt><trkpt lat="44.1404052" lon="10.3460267"><ele>481.0</ele><time>2026-04-14T14:12:15Z</time></trkpt><trkpt lat="44.1404956" lon="10.3460915"><ele>481.0</ele><time>2026-04-14T14:12:17Z</time></trkpt><trkpt lat="44.1405786" lon="10.3461858"><ele>481.0</ele><time>2026-04-14T14:12:19Z</time></trkpt><trkpt lat="44.1406256" lon="10.3462445"><ele>481.0</ele><time>2026-04-14T14:12:20Z</time></trkpt><trkpt lat="44.1406941" lon="10.3463632"><ele>479.4</ele><time>2026-04-14T14:12:21.999Z</time></trkpt><trkpt lat="44.1407509" lon="10.34649"><ele>477.8</ele><time>2026-04-14T14:12:24Z</time></trkpt><trkpt lat="44.1408094" lon="10.3466155"><ele>476.19999999999993</ele><time>2026-04-14T14:12:25.999Z</time></trkpt><trkpt lat="44.140853" lon="10.3467403"><ele>474.59999999999997</ele><time>2026-04-14T14:12:28Z</time></trkpt><trkpt lat="44.1408977" lon="10.3468678"><ele>473.0</ele><time>2026-04-14T14:12:30Z</time></trkpt><trkpt lat="44.1409498" lon="10.3469861"><ele>472.99999999999994</ele><time>2026-04-14T14:12:32Z</time></trkpt><trkpt lat="44.1410047" lon="10.3470996"><ele>473.0</ele><time>2026-04-14T14:12:33.999Z</time></trkpt><trkpt lat="44.1410473" lon="10.3472205"><ele>473.0</ele><time>2026-04-14T14:12:35.999Z</time></trkpt><trkpt lat="44.141085" lon="10.3473309"><ele>473.0</ele><time>2026-04-14T14:12:38Z</time></trkpt><trkpt lat="44.1411254" lon="10.34743"><ele>472.99999999999994</ele><time>2026-04-14T14:12:39.999Z</time></trkpt><trkpt lat="44.1411594" lon="10.3475316"><ele>473.0</ele><time>2026-04-14T14:12:41.999Z</time></trkpt><trkpt lat="44.1411979" lon="10.3476338"><ele>476.3333333333333</ele><time>2026-04-14T14:12:44Z</time></trkpt><trkpt lat="44.1412401" lon="10.347741"><ele>479.66666666666663</ele><time>2026-04-14T14:12:45.999Z</time></trkpt><trkpt lat="44.1412909" lon="10.3478442"><ele>483.0</ele><time>2026-04-14T14:12:48Z</time></trkpt><trkpt lat="44.1413484" lon="10.3479416"><ele>486.33333333333337</ele><time>2026-04-14T14:12:50Z</time></trkpt><trkpt lat="44.1414096" lon="10.3480314"><ele>489.6666666666667</ele><time>2026-04-14T14:12:51.999Z</time></trkpt><trkpt lat="44.1414693" lon="10.3481174"><ele>493.0</ele><time>2026-04-14T14:12:53.999Z</time></trkpt><trkpt lat="44.1415292" lon="10.3482062"><ele>490.59999999999997</ele><time>2026-04-14T14:12:56Z</time></trkpt><trkpt lat="44.1415999" lon="10.3482982"><ele>488.19999999999993</ele><time>2026-04-14T14:12:58Z</time></trkpt><trkpt lat="44.1416645" lon="10.3484018"><ele>485.8</ele><time>2026-04-14T14:13:00Z</time></trkpt><trkpt lat="44.1417321" lon="10.3484978"><ele>483.4</ele><time>2026-04-14T14:13:02Z</time></trkpt><trkpt lat="44.1418154" lon="10.3485891"><ele>481.0</ele><time>2026-04-14T14:13:04Z</time></trkpt><trkpt lat="44.1418889" lon="10.3486878"><ele>481.0</ele><time>2026-04-14T14:13:06Z</time></trkpt><trkpt lat="44.1419536" lon="10.3487899"><ele>481.0</ele><time>2026-04-14T14:13:07.999Z</time></trkpt><trkpt lat="44.1420194" lon="10.3488907"><ele>481.0</ele><time>2026-04-14T14:13:10Z</time></trkpt><trkpt lat="44.1420794" lon="10.3489859"><ele>481.0</ele><time>2026-04-14T14:13:12Z</time></trkpt><trkpt lat="44.1421475" lon="10.3490831"><ele>481.0</ele><time>2026-04-14T14:13:14Z</time></trkpt><trkpt lat="44.1422116" lon="10.3491692"><ele>479.50000000000006</ele><time>2026-04-14T14:13:15.999Z</time></trkpt><trkpt lat="44.1422852" lon="10.3492406"><ele>478.0</ele><time>2026-04-14T14:13:18Z</time></trkpt><trkpt lat="44.1423594" lon="10.3492947"><ele>476.5</ele><time>2026-04-14T14:13:20Z</time></trkpt><trkpt lat="44.1424386" lon="10.3493474"><ele>475.0</ele><time>2026-04-14T14:13:22Z</time></trkpt><trkpt lat="44.1425318" lon="10.3493832"><ele>473.50000000000006</ele><time>2026-04-14T14:13:24Z</time></trkpt><trkpt lat="44.1426111" lon="10.3494219"><ele>472.0</ele><time>2026-04-14T14:13:25.999Z</time></trkpt><trkpt lat="44.1426948" lon="10.3494691"><ele>472.0</ele><time>2026-04-14T14:13:28Z</time></trkpt><trkpt lat="44.1427794" lon="10.349517"><ele>472.00000000000006</ele><time>2026-04-14T14:13:29.999Z</time></trkpt><trkpt lat="44.1428652" lon="10.3495675"><ele>472.00000000000006</ele><time>2026-04-14T14:13:32Z</time></trkpt><trkpt lat="44.1429435" lon="10.3496295"><ele>472.0</ele><time>2026-04-14T14:13:34Z</time></trkpt><trkpt lat="44.143026" lon="10.3496995"><ele>472.0</ele><time>2026-04-14T14:13:35.999Z</time></trkpt><trkpt lat="44.1431026" lon="10.3497639"><ele>471.83333333333337</ele><time>2026-04-14T14:13:38Z</time></trkpt><trkpt lat="44.143173" lon="10.3498332"><ele>471.6666666666667</ele><time>2026-04-14T14:13:40Z</time></trkpt><trkpt lat="44.1432525" lon="10.3498894"><ele>471.5</ele><time>2026-04-14T14:13:42Z</time></trkpt><trkpt lat="44.143324" lon="10.3499531"><ele>471.33333333333337</ele><time>2026-04-14T14:13:44Z</time></trkpt><trkpt lat="44.1433959" lon="10.3500128"><ele>471.1666666666667</ele><time>2026-04-14T14:13:46Z</time></trkpt><trkpt lat="44.1434666" lon="10.3500736"><ele>471.0</ele><time>2026-04-14T14:13:48Z</time></trkpt><trkpt lat="44.1435308" lon="10.3501393"><ele>471.0</ele><time>2026-04-14T14:13:49.999Z</time></trkpt><trkpt lat="44.1435926" lon="10.350203"><ele>471.0</ele><time>2026-04-14T14:13:52Z</time></trkpt><trkpt lat="44.1436537" lon="10.3502801"><ele>471.0</ele><time>2026-04-14T14:13:54Z</time></trkpt><trkpt lat="44.1437053" lon="10.3503622"><ele>471.0</ele><time>2026-04-14T14:13:55.999Z</time></trkpt><trkpt lat="44.1437564" lon="10.3504417"><ele>471.0</ele><time>2026-04-14T14:13:58Z</time></trkpt><trkpt lat="44.1438025" lon="10.3505242"><ele>471.0</ele><time>2026-04-14T14:14:00Z</time></trkpt><trkpt lat="44.1438386" lon="10.3505999"><ele>468.8333333333333</ele><time>2026-04-14T14:14:02Z</time></trkpt><trkpt lat="44.1438791" lon="10.3506799"><ele>466.66666666666663</ele><time>2026-04-14T14:14:03.999Z</time></trkpt><trkpt lat="44.1439205" lon="10.3507695"><ele>464.5</ele><time>2026-04-14T14:14:05.999Z</time></trkpt><trkpt lat="44.1439653" lon="10.3508696"><ele>462.3333333333333</ele><time>2026-04-14T14:14:08Z</time></trkpt><trkpt lat="44.1440034" lon="10.3509739"><ele>460.16666666666663</ele><time>2026-04-14T14:14:10Z</time></trkpt><trkpt lat="44.1440527" lon="10.3510748"><ele>458.0</ele><time>2026-04-14T14:14:11.999Z</time></trkpt><trkpt lat="44.1441084" lon="10.3511793"><ele>457.99999999999994</ele><time>2026-04-14T14:14:14Z</time></trkpt><trkpt lat="44.1441616" lon="10.3512748"><ele>458.0</ele><time>2026-04-14T14:14:16Z</time></trkpt><trkpt lat="44.1442202" lon="10.3513612"><ele>458.0</ele><time>2026-04-14T14:14:18Z</time></trkpt><trkpt lat="44.1442843" lon="10.3514413"><ele>458.0</ele><time>2026-04-14T14:14:19.999Z</time></trkpt><trkpt lat="44.1443462" lon="10.3515195"><ele>457.99999999999994</ele><time>2026-04-14T14:14:21.999Z</time></trkpt><trkpt lat="44.1444101" lon="10.3515975"><ele>458.0</ele><time>2026-04-14T14:14:24Z</time></trkpt><trkpt lat="44.1444928" lon="10.3516947"><ele>462.79999999999995</ele><time>2026-04-14T14:14:26Z</time></trkpt><trkpt lat="44.1445619" lon="10.3517843"><ele>467.59999999999997</ele><time>2026-04-14T14:14:28Z</time></trkpt><trkpt lat="44.1446255" lon="10.3518889"><ele>472.40000000000003</ele><time>2026-04-14T14:14:29.999Z</time></trkpt><trkpt lat="44.1446905" lon="10.3520011"><ele>477.20000000000005</ele><time>2026-04-14T14:14:31.999Z</time></trkpt><trkpt lat="44.1447489" lon="10.3521174"><ele>482.0</ele><time>2026-04-14T14:14:33.999Z</time></trkpt><trkpt lat="44.144803" lon="10.3522397"><ele>485.0</ele><time>2026-04-14T14:14:36Z</time></trkpt><trkpt lat="44.1448489" lon="10.3523599"><ele>488.00000000000006</ele><time>2026-04-14T14:14:37.999Z</time></trkpt><trkpt lat="44.1449074" lon="10.3524595"><ele>491.00000000000006</ele><time>2026-04-14T14:14:40Z</time></trkpt><trkpt lat="44.1449731" lon="10.3525259"><ele>494.0</ele><time>2026-04-14T14:14:42Z</time></trkpt><trkpt lat="44.1450564" lon="10.3525832"><ele>497.0</ele><time>2026-04-14T14:14:43.999Z</time></trkpt><trkpt lat="44.1451379" lon="10.3526413"><ele>490.99999999999994</ele><time>2026-04-14T14:14:45.999Z</time></trkpt><trkpt lat="44.1452208" lon="10.3526948"><ele>485.0</ele><time>2026-04-14T14:14:47.999Z</time></trkpt><trkpt lat="44.1452966" lon="10.3527485"><ele>479.0</ele><time>2026-04-14T14:14:49.999Z</time></trkpt><trkpt lat="44.1453683" lon="10.3528007"><ele>473.0</ele><time>2026-04-14T14:14:52Z</time></trkpt><trkpt lat="44.1454445" lon="10.3528569"><ele>466.99999999999994</ele><time>2026-04-14T14:14:54Z</time></trkpt><trkpt lat="44.1455233" lon="10.3529085"><ele>461.0</ele><time>2026-04-14T14:14:56Z</time></trkpt><trkpt lat="44.1455995" lon="10.3529592"><ele>460.99999999999994</ele><time>2026-04-14T14:14:57.999Z</time></trkpt><trkpt lat="44.1456758" lon="10.3530052"><ele>461.0</ele><time>2026-04-14T14:14:59.999Z</time></trkpt><trkpt lat="44.1457526" lon="10.3530493"><ele>461.0</ele><time>2026-04-14T14:15:02Z</time></trkpt><trkpt lat="44.1458334" lon="10.3530844"><ele>461.0</ele><time>2026-04-14T14:15:04Z</time></trkpt><trkpt lat="44.1459171" lon="10.3531112"><ele>460.99999999999994</ele><time>2026-04-14T14:15:06Z</time></trkpt><trkpt lat="44.145999" lon="10.3531404"><ele>461.0</ele><time>2026-04-14T14:15:07.999Z</time></trkpt><trkpt lat="44.146082" lon="10.3531707"><ele>461.4</ele><time>2026-04-14T14:15:09.999Z</time></trkpt><trkpt lat="44.1461637" lon="10.353198"><ele>461.8</ele><time>2026-04-14T14:15:11.999Z</time></trkpt><trkpt lat="44.1462463" lon="10.353225"><ele>462.19999999999993</ele><time>2026-04-14T14:15:14Z</time></trkpt><trkpt lat="44.1463347" lon="10.3532428"><ele>462.59999999999997</ele><time>2026-04-14T14:15:15.999Z</time></trkpt><trkpt lat="44.1464319" lon="10.3532328"><ele>463.0</ele><time>2026-04-14T14:15:18Z</time></trkpt><trkpt lat="44.1465406" lon="10.3532399"><ele>461.4</ele><time>2026-04-14T14:15:19.999Z</time></trkpt><trkpt lat="44.1466559" lon="10.3532826"><ele>459.79999999999995</ele><time>2026-04-14T14:15:21.999Z</time></trkpt><trkpt lat="44.1467566" lon="10.3533711"><ele>458.2</ele><time>2026-04-14T14:15:24Z</time></trkpt><trkpt lat="44.146822" lon="10.3534677"><ele>456.6</ele><time>2026-04-14T14:15:25.999Z</time></trkpt><trkpt lat="44.1468849" lon="10.3535037"><ele>455.0</ele><time>2026-04-14T14:15:28Z</time></trkpt><trkpt lat="44.1469622" lon="10.3535366"><ele>454.99999999999994</ele><time>2026-04-14T14:15:31.999Z</time></trkpt><trkpt lat="44.1470398" lon="10.3535564"><ele>455.0</ele><time>2026-04-14T14:15:34.999Z</time></trkpt><trkpt lat="44.1471237" lon="10.3535383"><ele>455.0</ele><time>2026-04-14T14:15:37.999Z</time></trkpt><trkpt lat="44.1471989" lon="10.3535125"><ele>455.0</ele><time>2026-04-14T14:15:40.999Z</time></trkpt><trkpt lat="44.1472844" lon="10.353464"><ele>454.99999999999994</ele><time>2026-04-14T14:15:44Z</time></trkpt><trkpt lat="44.1473788" lon="10.3534333"><ele>455.0</ele><time>2026-04-14T14:15:46.999Z</time></trkpt><trkpt lat="44.1474473" lon="10.3534367"><ele>455.0</ele><time>2026-04-14T14:15:49Z</time></trkpt><trkpt lat="44.1475107" lon="10.3534341"><ele>455.0</ele><time>2026-04-14T14:15:50.999Z</time></trkpt><trkpt lat="44.1475761" lon="10.3534307"><ele>455.0</ele><time>2026-04-14T14:15:53Z</time></trkpt><trkpt lat="44.1476405" lon="10.3534388"><ele>455.0</ele><time>2026-04-14T14:15:54.999Z</time></trkpt><trkpt lat="44.1477059" lon="10.3534642"><ele>455.0</ele><time>2026-04-14T14:15:57Z</time></trkpt><trkpt lat="44.1478034" lon="10.3534997"><ele>455.0</ele><time>2026-04-14T14:16:00Z</time></trkpt><trkpt lat="44.1478678" lon="10.3535239"><ele>455.0</ele><time>2026-04-14T14:16:02Z</time></trkpt><trkpt lat="44.1479595" lon="10.3535747"><ele>455.0</ele><time>2026-04-14T14:16:05Z</time></trkpt><trkpt lat="44.1480139" lon="10.3536342"><ele>455.0</ele><time>2026-04-14T14:16:06.999Z</time></trkpt><trkpt lat="44.1480323" lon="10.3537627"><ele>455.0</ele><time>2026-04-14T14:16:09.999Z</time></trkpt><trkpt lat="44.1480066" lon="10.3538643"><ele>455.0</ele><time>2026-04-14T14:16:12Z</time></trkpt><trkpt lat="44.1479222" lon="10.3539376"><ele>455.0</ele><time>2026-04-14T14:16:14Z</time></trkpt><trkpt lat="44.1477886" lon="10.35392"><ele>454.3333333333333</ele><time>2026-04-14T14:16:16Z</time></trkpt><trkpt lat="44.1477125" lon="10.3539135"><ele>453.66666666666663</ele><time>2026-04-14T14:16:17Z</time></trkpt><trkpt lat="44.147632" lon="10.353904"><ele>453.0</ele><time>2026-04-14T14:16:18Z</time></trkpt><trkpt lat="44.1475515" lon="10.3539036"><ele>452.33333333333337</ele><time>2026-04-14T14:16:19Z</time></trkpt><trkpt lat="44.1474846" lon="10.3539166"><ele>451.6666666666667</ele><time>2026-04-14T14:16:20Z</time></trkpt><trkpt lat="44.1473765" lon="10.3539648"><ele>451.0</ele><time>2026-04-14T14:16:22Z</time></trkpt><trkpt lat="44.1472898" lon="10.3540219"><ele>451.0</ele><time>2026-04-14T14:16:24Z</time></trkpt><trkpt lat="44.1472122" lon="10.3540753"><ele>451.0</ele><time>2026-04-14T14:16:26Z</time></trkpt><trkpt lat="44.1471477" lon="10.3541222"><ele>451.0</ele><time>2026-04-14T14:16:28Z</time></trkpt><trkpt lat="44.1470674" lon="10.3541878"><ele>451.0</ele><time>2026-04-14T14:16:31Z</time></trkpt><trkpt lat="44.1469907" lon="10.3542402"><ele>451.0</ele><time>2026-04-14T14:16:32.999Z</time></trkpt><trkpt lat="44.1468957" lon="10.3543235"><ele>451.0</ele><time>2026-04-14T14:16:35Z</time></trkpt><trkpt lat="44.1467924" lon="10.3544136"><ele>451.0</ele><time>2026-04-14T14:16:36.999Z</time></trkpt><trkpt lat="44.1466833" lon="10.3545148"><ele>451.0</ele><time>2026-04-14T14:16:39Z</time></trkpt><trkpt lat="44.1466205" lon="10.3545704"><ele>451.0</ele><time>2026-04-14T14:16:40Z</time></trkpt><trkpt lat="44.1465705" lon="10.3546418"><ele>451.0</ele><time>2026-04-14T14:16:40.999Z</time></trkpt><trkpt lat="44.1465276" lon="10.3547279"><ele>451.33333333333337</ele><time>2026-04-14T14:16:42Z</time></trkpt><trkpt lat="44.14649" lon="10.3548282"><ele>451.6666666666667</ele><time>2026-04-14T14:16:43Z</time></trkpt><trkpt lat="44.146451" lon="10.3549332"><ele>452.0</ele><time>2026-04-14T14:16:44Z</time></trkpt><trkpt lat="44.146414" lon="10.355036"><ele>452.33333333333337</ele><time>2026-04-14T14:16:44.999Z</time></trkpt><trkpt lat="44.1463726" lon="10.3551478"><ele>452.6666666666667</ele><time>2026-04-14T14:16:46Z</time></trkpt><trkpt lat="44.1463283" lon="10.3552617"><ele>453.0</ele><time>2026-04-14T14:16:47Z</time></trkpt><trkpt lat="44.1462831" lon="10.3553751"><ele>453.0</ele><time>2026-04-14T14:16:48Z</time></trkpt><trkpt lat="44.1462277" lon="10.3554837"><ele>452.99999999999994</ele><time>2026-04-14T14:16:48.999Z</time></trkpt><trkpt lat="44.146173" lon="10.3555927"><ele>452.99999999999994</ele><time>2026-04-14T14:16:50Z</time></trkpt><trkpt lat="44.1461159" lon="10.3556989"><ele>453.0</ele><time>2026-04-14T14:16:50.999Z</time></trkpt><trkpt lat="44.1460594" lon="10.3557976"><ele>453.0</ele><time>2026-04-14T14:16:51.999Z</time></trkpt><trkpt lat="44.146001" lon="10.3559061"><ele>451.4</ele><time>2026-04-14T14:16:52.999Z</time></trkpt><trkpt lat="44.1459377" lon="10.356009"><ele>449.79999999999995</ele><time>2026-04-14T14:16:54Z</time></trkpt><trkpt lat="44.145882" lon="10.3561235"><ele>448.2</ele><time>2026-04-14T14:16:55Z</time></trkpt><trkpt lat="44.145822" lon="10.3562411"><ele>446.6</ele><time>2026-04-14T14:16:56Z</time></trkpt><trkpt lat="44.1457636" lon="10.356366"><ele>445.0</ele><time>2026-04-14T14:16:57Z</time></trkpt><trkpt lat="44.1456957" lon="10.3564839"><ele>445.0</ele><time>2026-04-14T14:16:58Z</time></trkpt><trkpt lat="44.1456164" lon="10.3565716"><ele>445.0</ele><time>2026-04-14T14:16:58.999Z</time></trkpt><trkpt lat="44.1455242" lon="10.3566339"><ele>445.0</ele><time>2026-04-14T14:17:00Z</time></trkpt><trkpt lat="44.1454206" lon="10.3566613"><ele>445.0</ele><time>2026-04-14T14:17:01Z</time></trkpt><trkpt lat="44.145315" lon="10.3566593"><ele>445.0</ele><time>2026-04-14T14:17:01.999Z</time></trkpt><trkpt lat="44.1452056" lon="10.3566797"><ele>445.0</ele><time>2026-04-14T14:17:03Z</time></trkpt><trkpt lat="44.1451034" lon="10.3567404"><ele>445.0</ele><time>2026-04-14T14:17:03.999Z</time></trkpt><trkpt lat="44.1450277" lon="10.3568473"><ele>445.0</ele><time>2026-04-14T14:17:05Z</time></trkpt><trkpt lat="44.1449515" lon="10.356965"><ele>445.0</ele><time>2026-04-14T14:17:06Z</time></trkpt><trkpt lat="44.1449065" lon="10.3570961"><ele>445.0</ele><time>2026-04-14T14:17:06.999Z</time></trkpt><trkpt lat="44.1448471" lon="10.3572304"><ele>444.75</ele><time>2026-04-14T14:17:08Z</time></trkpt><trkpt lat="44.1447915" lon="10.3573702"><ele>444.5</ele><time>2026-04-14T14:17:09Z</time></trkpt><trkpt lat="44.144733" lon="10.3575025"><ele>444.25</ele><time>2026-04-14T14:17:10Z</time></trkpt><trkpt lat="44.1446748" lon="10.3576429"><ele>444.0</ele><time>2026-04-14T14:17:10.999Z</time></trkpt><trkpt lat="44.1446102" lon="10.3577759"><ele>444.0</ele><time>2026-04-14T14:17:12Z</time></trkpt><trkpt lat="44.1445347" lon="10.3579098"><ele>444.0</ele><time>2026-04-14T14:17:13Z</time></trkpt><trkpt lat="44.1444515" lon="10.3580288"><ele>444.0</ele><time>2026-04-14T14:17:14Z</time></trkpt><trkpt lat="44.1443556" lon="10.3581392"><ele>444.0</ele><time>2026-04-14T14:17:15Z</time></trkpt><trkpt lat="44.1442552" lon="10.3582384"><ele>442.75</ele><time>2026-04-14T14:17:16Z</time></trkpt><trkpt lat="44.144155" lon="10.3583383"><ele>441.5</ele><time>2026-04-14T14:17:17Z</time></trkpt><trkpt lat="44.1440672" lon="10.3584405"><ele>440.25</ele><time>2026-04-14T14:17:18Z</time></trkpt><trkpt lat="44.1439831" lon="10.3585781"><ele>439.0</ele><time>2026-04-14T14:17:19Z</time></trkpt><trkpt lat="44.1439214" lon="10.3587113"><ele>439.0</ele><time>2026-04-14T14:17:20Z</time></trkpt><trkpt lat="44.1438701" lon="10.3588597"><ele>439.0</ele><time>2026-04-14T14:17:21Z</time></trkpt><trkpt lat="44.1438278" lon="10.3590232"><ele>439.0</ele><time>2026-04-14T14:17:22Z</time></trkpt><trkpt lat="44.1437846" lon="10.3591809"><ele>439.0</ele><time>2026-04-14T14:17:22.999Z</time></trkpt><trkpt lat="44.1437426" lon="10.3593487"><ele>435.5</ele><time>2026-04-14T14:17:24Z</time></trkpt><trkpt lat="44.1436951" lon="10.3595158"><ele>432.0</ele><time>2026-04-14T14:17:25Z</time></trkpt><trkpt lat="44.1436527" lon="10.3596746"><ele>428.5</ele><time>2026-04-14T14:17:26Z</time></trkpt><trkpt lat="44.1436095" lon="10.3598162"><ele>425.0</ele><time>2026-04-14T14:17:26.999Z</time></trkpt><trkpt lat="44.1435585" lon="10.3599338"><ele>426.3333333333333</ele><time>2026-04-14T14:17:28Z</time></trkpt><trkpt lat="44.1434902" lon="10.3600293"><ele>427.66666666666663</ele><time>2026-04-14T14:17:29Z</time></trkpt><trkpt lat="44.1434063" lon="10.360092"><ele>429.0</ele><time>2026-04-14T14:17:30Z</time></trkpt><trkpt lat="44.1433179" lon="10.3601168"><ele>430.33333333333337</ele><time>2026-04-14T14:17:30.999Z</time></trkpt><trkpt lat="44.1432348" lon="10.3601056"><ele>431.6666666666667</ele><time>2026-04-14T14:17:31.999Z</time></trkpt><trkpt lat="44.1431601" lon="10.360092"><ele>433.0</ele><time>2026-04-14T14:17:33Z</time></trkpt><trkpt lat="44.1430992" lon="10.3601352"><ele>433.00000000000006</ele><time>2026-04-14T14:17:33.999Z</time></trkpt><trkpt lat="44.1430544" lon="10.3602136"><ele>433.0</ele><time>2026-04-14T14:17:35Z</time></trkpt><trkpt lat="44.1430463" lon="10.3603035"><ele>433.0</ele><time>2026-04-14T14:17:36Z</time></trkpt><trkpt lat="44.1430658" lon="10.3603966"><ele>433.0</ele><time>2026-04-14T14:17:37Z</time></trkpt><trkpt lat="44.1430992" lon="10.3604963"><ele>433.00000000000006</ele><time>2026-04-14T14:17:38Z</time></trkpt><trkpt lat="44.1431169" lon="10.3606141"><ele>433.0</ele><time>2026-04-14T14:17:38.999Z</time></trkpt><trkpt lat="44.1430821" lon="10.3607381"><ele>430.79999999999995</ele><time>2026-04-14T14:17:39.999Z</time></trkpt><trkpt lat="44.1430495" lon="10.3608574"><ele>428.59999999999997</ele><time>2026-04-14T14:17:41Z</time></trkpt><trkpt lat="44.1429883" lon="10.3609735"><ele>426.4</ele><time>2026-04-14T14:17:41.999Z</time></trkpt><trkpt lat="44.1429236" lon="10.361092"><ele>424.20000000000005</ele><time>2026-04-14T14:17:43Z</time></trkpt><trkpt lat="44.1428557" lon="10.3612069"><ele>422.0</ele><time>2026-04-14T14:17:43.999Z</time></trkpt><trkpt lat="44.1427908" lon="10.3613233"><ele>416.25</ele><time>2026-04-14T14:17:45Z</time></trkpt><trkpt lat="44.142717" lon="10.3614604"><ele>410.5</ele><time>2026-04-14T14:17:46Z</time></trkpt><trkpt lat="44.1426493" lon="10.361593"><ele>404.75</ele><time>2026-04-14T14:17:47Z</time></trkpt><trkpt lat="44.1425569" lon="10.3617311"><ele>399.0</ele><time>2026-04-14T14:17:47.999Z</time></trkpt><trkpt lat="44.1424622" lon="10.36184"><ele>402.6</ele><time>2026-04-14T14:17:48.999Z</time></trkpt><trkpt lat="44.1423543" lon="10.3618335"><ele>406.2</ele><time>2026-04-14T14:17:50Z</time></trkpt><trkpt lat="44.1422458" lon="10.361831"><ele>409.8</ele><time>2026-04-14T14:17:51Z</time></trkpt><trkpt lat="44.1421395" lon="10.3618528"><ele>413.40000000000003</ele><time>2026-04-14T14:17:52Z</time></trkpt><trkpt lat="44.1420302" lon="10.3619049"><ele>417.0</ele><time>2026-04-14T14:17:53Z</time></trkpt><trkpt lat="44.1419372" lon="10.3619933"><ele>417.0</ele><time>2026-04-14T14:17:54Z</time></trkpt><trkpt lat="44.1418527" lon="10.3621094"><ele>417.0</ele><time>2026-04-14T14:17:55Z</time></trkpt><trkpt lat="44.1417849" lon="10.3622426"><ele>417.0</ele><time>2026-04-14T14:17:55.999Z</time></trkpt><trkpt lat="44.1417414" lon="10.3624067"><ele>417.0</ele><time>2026-04-14T14:17:56.999Z</time></trkpt><trkpt lat="44.1417329" lon="10.3625787"><ele>411.0</ele><time>2026-04-14T14:17:58Z</time></trkpt><trkpt lat="44.1417502" lon="10.362746"><ele>405.0</ele><time>2026-04-14T14:17:59Z</time></trkpt><trkpt lat="44.141759" lon="10.362915"><ele>399.0</ele><time>2026-04-14T14:18:00Z</time></trkpt><trkpt lat="44.1417341" lon="10.3630783"><ele>393.0</ele><time>2026-04-14T14:18:01Z</time></trkpt><trkpt lat="44.1416889" lon="10.3632278"><ele>390.25</ele><time>2026-04-14T14:18:01.999Z</time></trkpt><trkpt lat="44.1416222" lon="10.3633635"><ele>387.5</ele><time>2026-04-14T14:18:03Z</time></trkpt><trkpt lat="44.1415389" lon="10.363471"><ele>384.75</ele><time>2026-04-14T14:18:04Z</time></trkpt><trkpt lat="44.1414444" lon="10.3635717"><ele>382.0</ele><time>2026-04-14T14:18:05Z</time></trkpt><trkpt lat="44.1413527" lon="10.3636707"><ele>381.0</ele><time>2026-04-14T14:18:06Z</time></trkpt><trkpt lat="44.1412619" lon="10.3637673"><ele>380.0</ele><time>2026-04-14T14:18:07Z</time></trkpt><trkpt lat="44.141172" lon="10.3638684"><ele>379.0</ele><time>2026-04-14T14:18:08Z</time></trkpt><trkpt lat="44.1410811" lon="10.3639682"><ele>378.0</ele><time>2026-04-14T14:18:09Z</time></trkpt><trkpt lat="44.1409947" lon="10.3640682"><ele>378.0</ele><time>2026-04-14T14:18:10Z</time></trkpt><trkpt lat="44.1409107" lon="10.364169"><ele>378.0</ele><time>2026-04-14T14:18:10.999Z</time></trkpt><trkpt lat="44.1408244" lon="10.3642719"><ele>378.0</ele><time>2026-04-14T14:18:12Z</time></trkpt><trkpt lat="44.1407406" lon="10.3643812"><ele>378.0</ele><time>2026-04-14T14:18:13Z</time></trkpt><trkpt lat="44.1406513" lon="10.364484"><ele>377.2</ele><time>2026-04-14T14:18:14Z</time></trkpt><trkpt lat="44.1405672" lon="10.364578"><ele>376.4</ele><time>2026-04-14T14:18:15Z</time></trkpt><trkpt lat="44.1404798" lon="10.3646827"><ele>375.59999999999997</ele><time>2026-04-14T14:18:15.999Z</time></trkpt><trkpt lat="44.1403961" lon="10.3647843"><ele>374.79999999999995</ele><time>2026-04-14T14:18:16.999Z</time></trkpt><trkpt lat="44.1403129" lon="10.3648864"><ele>374.0</ele><time>2026-04-14T14:18:18Z</time></trkpt><trkpt lat="44.1402302" lon="10.3649938"><ele>374.0</ele><time>2026-04-14T14:18:18.999Z</time></trkpt><trkpt lat="44.1401478" lon="10.3650991"><ele>374.0</ele><time>2026-04-14T14:18:19.999Z</time></trkpt><trkpt lat="44.1400651" lon="10.3652034"><ele>374.0</ele><time>2026-04-14T14:18:20.999Z</time></trkpt><trkpt lat="44.1399815" lon="10.3653057"><ele>374.0</ele><time>2026-04-14T14:18:22Z</time></trkpt><trkpt lat="44.1398964" lon="10.3654002"><ele>374.0</ele><time>2026-04-14T14:18:22.999Z</time></trkpt><trkpt lat="44.139809" lon="10.3654764"><ele>373.6666666666667</ele><time>2026-04-14T14:18:24Z</time></trkpt><trkpt lat="44.139717" lon="10.3655457"><ele>373.33333333333337</ele><time>2026-04-14T14:18:24.999Z</time></trkpt><trkpt lat="44.1396313" lon="10.3655916"><ele>373.0</ele><time>2026-04-14T14:18:25.999Z</time></trkpt><trkpt lat="44.1395532" lon="10.3656205"><ele>372.6666666666667</ele><time>2026-04-14T14:18:26.999Z</time></trkpt><trkpt lat="44.1394801" lon="10.3656379"><ele>372.3333333333333</ele><time>2026-04-14T14:18:27.999Z</time></trkpt><trkpt lat="44.1394085" lon="10.3656503"><ele>372.0</ele><time>2026-04-14T14:18:29Z</time></trkpt><trkpt lat="44.1393472" lon="10.3656774"><ele>372.0</ele><time>2026-04-14T14:18:29.999Z</time></trkpt><trkpt lat="44.1392915" lon="10.36572"><ele>372.0</ele><time>2026-04-14T14:18:30.999Z</time></trkpt><trkpt lat="44.1392015" lon="10.3658231"><ele>372.0</ele><time>2026-04-14T14:18:33Z</time></trkpt><trkpt lat="44.1391254" lon="10.3659347"><ele>372.0</ele><time>2026-04-14T14:18:35Z</time></trkpt><trkpt lat="44.1390584" lon="10.3660475"><ele>372.0</ele><time>2026-04-14T14:18:37Z</time></trkpt><trkpt lat="44.1389968" lon="10.3661516"><ele>372.0</ele><time>2026-04-14T14:18:38.999Z</time></trkpt><trkpt lat="44.1389373" lon="10.3662391"><ele>372.0</ele><time>2026-04-14T14:18:41.107Z</time></trkpt><trkpt lat="44.1388758" lon="10.3663178"><ele>372.0</ele><time>2026-04-14T14:18:43Z</time></trkpt><trkpt lat="44.138809" lon="10.3664046"><ele>372.0</ele><time>2026-04-14T14:18:45Z</time></trkpt><trkpt lat="44.1387457" lon="10.3664873"><ele>372.0</ele><time>2026-04-14T14:18:46.999Z</time></trkpt><trkpt lat="44.1386815" lon="10.3665706"><ele>372.0</ele><time>2026-04-14T14:18:49Z</time></trkpt><trkpt lat="44.1386131" lon="10.3666522"><ele>372.0</ele><time>2026-04-14T14:18:50.999Z</time></trkpt><trkpt lat="44.1385466" lon="10.3667305"><ele>372.0</ele><time>2026-04-14T14:18:53Z</time></trkpt><trkpt lat="44.1384784" lon="10.3668141"><ele>372.0</ele><time>2026-04-14T14:18:54.999Z</time></trkpt><trkpt lat="44.1383932" lon="10.3668753"><ele>372.0</ele><time>2026-04-14T14:18:56.999Z</time></trkpt><trkpt lat="44.138297" lon="10.3669191"><ele>372.0</ele><time>2026-04-14T14:18:59Z</time></trkpt><trkpt lat="44.1381949" lon="10.3669331"><ele>373.3333333333333</ele><time>2026-04-14T14:19:01Z</time></trkpt><trkpt lat="44.1380901" lon="10.3669366"><ele>374.6666666666667</ele><time>2026-04-14T14:19:02.999Z</time></trkpt><trkpt lat="44.1379724" lon="10.3669476"><ele>376.0</ele><time>2026-04-14T14:19:05Z</time></trkpt><trkpt lat="44.13791" lon="10.3669679"><ele>377.33333333333337</ele><time>2026-04-14T14:19:05.999Z</time></trkpt><trkpt lat="44.1378435" lon="10.3670105"><ele>378.6666666666667</ele><time>2026-04-14T14:19:07Z</time></trkpt><trkpt lat="44.1377838" lon="10.3670596"><ele>380.0</ele><time>2026-04-14T14:19:08Z</time></trkpt><trkpt lat="44.137721" lon="10.3671274"><ele>379.1666666666667</ele><time>2026-04-14T14:19:08.999Z</time></trkpt><trkpt lat="44.1376606" lon="10.367202"><ele>378.33333333333337</ele><time>2026-04-14T14:19:10Z</time></trkpt><trkpt lat="44.1376042" lon="10.3672814"><ele>377.5</ele><time>2026-04-14T14:19:11Z</time></trkpt><trkpt lat="44.1375445" lon="10.3673572"><ele>376.6666666666667</ele><time>2026-04-14T14:19:12Z</time></trkpt><trkpt lat="44.1374809" lon="10.3674356"><ele>375.8333333333333</ele><time>2026-04-14T14:19:13Z</time></trkpt><trkpt lat="44.1374231" lon="10.3675114"><ele>375.0</ele><time>2026-04-14T14:19:13.999Z</time></trkpt><trkpt lat="44.1373559" lon="10.3675955"><ele>375.0</ele><time>2026-04-14T14:19:15Z</time></trkpt><trkpt lat="44.1372828" lon="10.3676764"><ele>375.0</ele><time>2026-04-14T14:19:16Z</time></trkpt><trkpt lat="44.1372037" lon="10.3677675"><ele>375.0</ele><time>2026-04-14T14:19:17Z</time></trkpt><trkpt lat="44.1371249" lon="10.3678549"><ele>375.0</ele><time>2026-04-14T14:19:18Z</time></trkpt><trkpt lat="44.1370444" lon="10.3679366"><ele>375.0</ele><time>2026-04-14T14:19:19Z</time></trkpt><trkpt lat="44.1369648" lon="10.3680223"><ele>372.6</ele><time>2026-04-14T14:19:20Z</time></trkpt><trkpt lat="44.136884" lon="10.3681089"><ele>370.2</ele><time>2026-04-14T14:19:20.999Z</time></trkpt><trkpt lat="44.1368091" lon="10.3682069"><ele>367.79999999999995</ele><time>2026-04-14T14:19:21.999Z</time></trkpt><trkpt lat="44.1367436" lon="10.3683155"><ele>365.4</ele><time>2026-04-14T14:19:23Z</time></trkpt><trkpt lat="44.1366963" lon="10.3684425"><ele>363.0</ele><time>2026-04-14T14:19:24Z</time></trkpt><trkpt lat="44.1366587" lon="10.3685759"><ele>363.0</ele><time>2026-04-14T14:19:25Z</time></trkpt><trkpt lat="44.1366222" lon="10.3687062"><ele>363.0</ele><time>2026-04-14T14:19:26Z</time></trkpt><trkpt lat="44.1365803" lon="10.3688253"><ele>363.0</ele><time>2026-04-14T14:19:26.999Z</time></trkpt><trkpt lat="44.1365404" lon="10.3689366"><ele>363.0</ele><time>2026-04-14T14:19:27.999Z</time></trkpt><trkpt lat="44.1364993" lon="10.3690507"><ele>363.0</ele><time>2026-04-14T14:19:29Z</time></trkpt><trkpt lat="44.1364405" lon="10.369152"><ele>362.4</ele><time>2026-04-14T14:19:30Z</time></trkpt><trkpt lat="44.1363625" lon="10.3692303"><ele>361.79999999999995</ele><time>2026-04-14T14:19:31Z</time></trkpt><trkpt lat="44.1362708" lon="10.3692686"><ele>361.2</ele><time>2026-04-14T14:19:32Z</time></trkpt><trkpt lat="44.1361772" lon="10.3692728"><ele>360.6</ele><time>2026-04-14T14:19:32.999Z</time></trkpt><trkpt lat="44.1360863" lon="10.3692773"><ele>360.0</ele><time>2026-04-14T14:19:34Z</time></trkpt><trkpt lat="44.1359997" lon="10.3692936"><ele>360.0</ele><time>2026-04-14T14:19:35Z</time></trkpt><trkpt lat="44.1359239" lon="10.369307"><ele>360.0</ele><time>2026-04-14T14:19:35.999Z</time></trkpt><trkpt lat="44.1358552" lon="10.3693633"><ele>360.0</ele><time>2026-04-14T14:19:37Z</time></trkpt><trkpt lat="44.13579" lon="10.3694261"><ele>360.0</ele><time>2026-04-14T14:19:38Z</time></trkpt><trkpt lat="44.1357291" lon="10.3694908"><ele>360.0</ele><time>2026-04-14T14:19:39Z</time></trkpt><trkpt lat="44.1356744" lon="10.3695553"><ele>360.0</ele><time>2026-04-14T14:19:40Z</time></trkpt><trkpt lat="44.1356201" lon="10.3696165"><ele>360.0</ele><time>2026-04-14T14:19:41Z</time></trkpt><trkpt lat="44.1355615" lon="10.3696681"><ele>360.0</ele><time>2026-04-14T14:19:41.999Z</time></trkpt><trkpt lat="44.135507" lon="10.3697126"><ele>360.0</ele><time>2026-04-14T14:19:42.999Z</time></trkpt><trkpt lat="44.1354523" lon="10.3697645"><ele>360.0</ele><time>2026-04-14T14:19:44Z</time></trkpt><trkpt lat="44.1353449" lon="10.3698556"><ele>360.0</ele><time>2026-04-14T14:19:45.999Z</time></trkpt><trkpt lat="44.1352424" lon="10.3699546"><ele>360.0</ele><time>2026-04-14T14:19:48Z</time></trkpt><trkpt lat="44.1351491" lon="10.3700596"><ele>360.0</ele><time>2026-04-14T14:19:50Z</time></trkpt><trkpt lat="44.1350566" lon="10.3701547"><ele>360.0</ele><time>2026-04-14T14:19:52Z</time></trkpt><trkpt lat="44.1350065" lon="10.37021"><ele>360.0</ele><time>2026-04-14T14:19:52.999Z</time></trkpt><trkpt lat="44.1349048" lon="10.3703013"><ele>360.0</ele><time>2026-04-14T14:19:55Z</time></trkpt><trkpt lat="44.1348514" lon="10.3703505"><ele>360.0</ele><time>2026-04-14T14:19:56Z</time></trkpt><trkpt lat="44.1347553" lon="10.3704388"><ele>360.25</ele><time>2026-04-14T14:19:58Z</time></trkpt><trkpt lat="44.1346589" lon="10.3705265"><ele>360.5</ele><time>2026-04-14T14:20:00Z</time></trkpt><trkpt lat="44.134563" lon="10.3706096"><ele>360.75</ele><time>2026-04-14T14:20:01.999Z</time></trkpt><trkpt lat="44.1344699" lon="10.3707027"><ele>361.0</ele><time>2026-04-14T14:20:04Z</time></trkpt><trkpt lat="44.1343897" lon="10.370817"><ele>361.0</ele><time>2026-04-14T14:20:06Z</time></trkpt><trkpt lat="44.1343228" lon="10.3709438"><ele>361.0</ele><time>2026-04-14T14:20:07.999Z</time></trkpt><trkpt lat="44.1342598" lon="10.3710797"><ele>361.0</ele><time>2026-04-14T14:20:10Z</time></trkpt><trkpt lat="44.1342055" lon="10.371197"><ele>361.0</ele><time>2026-04-14T14:20:12Z</time></trkpt><trkpt lat="44.1341605" lon="10.3713054"><ele>361.0</ele><time>2026-04-14T14:20:14Z</time></trkpt><trkpt lat="44.1341119" lon="10.3714038"><ele>360.5</ele><time>2026-04-14T14:20:16Z</time></trkpt><trkpt lat="44.1340634" lon="10.3715132"><ele>360.0</ele><time>2026-04-14T14:20:18Z</time></trkpt><trkpt lat="44.1340154" lon="10.3716179"><ele>359.5</ele><time>2026-04-14T14:20:20Z</time></trkpt><trkpt lat="44.1339704" lon="10.3717118"><ele>359.0</ele><time>2026-04-14T14:20:22Z</time></trkpt><trkpt lat="44.133925" lon="10.3718016"><ele>358.5</ele><time>2026-04-14T14:20:24Z</time></trkpt><trkpt lat="44.1338824" lon="10.371898"><ele>358.0</ele><time>2026-04-14T14:20:26Z</time></trkpt><trkpt lat="44.1338388" lon="10.3719935"><ele>359.16666666666663</ele><time>2026-04-14T14:20:28Z</time></trkpt><trkpt lat="44.1337911" lon="10.3720929"><ele>360.3333333333333</ele><time>2026-04-14T14:20:29.999Z</time></trkpt><trkpt lat="44.1337431" lon="10.37219"><ele>361.5</ele><time>2026-04-14T14:20:32Z</time></trkpt><trkpt lat="44.1336957" lon="10.3722863"><ele>362.6666666666667</ele><time>2026-04-14T14:20:34Z</time></trkpt><trkpt lat="44.1336381" lon="10.3723721"><ele>363.83333333333337</ele><time>2026-04-14T14:20:35.999Z</time></trkpt><trkpt lat="44.1335682" lon="10.372452"><ele>365.0</ele><time>2026-04-14T14:20:37.999Z</time></trkpt><trkpt lat="44.133495" lon="10.3725367"><ele>365.0</ele><time>2026-04-14T14:20:40Z</time></trkpt><trkpt lat="44.1334215" lon="10.3726364"><ele>365.0</ele><time>2026-04-14T14:20:41.999Z</time></trkpt><trkpt lat="44.1333542" lon="10.3727333"><ele>365.0</ele><time>2026-04-14T14:20:44Z</time></trkpt><trkpt lat="44.133288" lon="10.3728123"><ele>365.0</ele><time>2026-04-14T14:20:46Z</time></trkpt><trkpt lat="44.1332289" lon="10.372914"><ele>365.0</ele><time>2026-04-14T14:20:47.999Z</time></trkpt><trkpt lat="44.133181" lon="10.3730247"><ele>366.33333333333337</ele><time>2026-04-14T14:20:49.999Z</time></trkpt><trkpt lat="44.1331365" lon="10.3731441"><ele>367.6666666666667</ele><time>2026-04-14T14:20:51.999Z</time></trkpt><trkpt lat="44.1330993" lon="10.3732637"><ele>369.0</ele><time>2026-04-14T14:20:54Z</time></trkpt><trkpt lat="44.133066" lon="10.3733762"><ele>370.3333333333333</ele><time>2026-04-14T14:20:55.999Z</time></trkpt><trkpt lat="44.1330326" lon="10.3734857"><ele>371.66666666666663</ele><time>2026-04-14T14:20:58Z</time></trkpt><trkpt lat="44.1330041" lon="10.3735888"><ele>373.0</ele><time>2026-04-14T14:21:00Z</time></trkpt><trkpt lat="44.1329757" lon="10.3736742"><ele>373.0</ele><time>2026-04-14T14:21:01.999Z</time></trkpt><trkpt lat="44.1329298" lon="10.3737861"><ele>373.0</ele><time>2026-04-14T14:21:05Z</time></trkpt><trkpt lat="44.1328623" lon="10.373874"><ele>373.0</ele><time>2026-04-14T14:21:08Z</time></trkpt><trkpt lat="44.132785" lon="10.3739493"><ele>373.0</ele><time>2026-04-14T14:21:11Z</time></trkpt><trkpt lat="44.1327248" lon="10.3739903"><ele>373.0</ele><time>2026-04-14T14:21:13Z</time></trkpt><trkpt lat="44.1326608" lon="10.3740236"><ele>373.0</ele><time>2026-04-14T14:21:14.999Z</time></trkpt><trkpt lat="44.1325951" lon="10.3740543"><ele>373.7142857142857</ele><time>2026-04-14T14:21:17Z</time></trkpt><trkpt lat="44.1325312" lon="10.3740766"><ele>374.42857142857144</ele><time>2026-04-14T14:21:19Z</time></trkpt><trkpt lat="44.1324668" lon="10.3740928"><ele>375.1428571428571</ele><time>2026-04-14T14:21:20.999Z</time></trkpt><trkpt lat="44.1324014" lon="10.3741171"><ele>375.8571428571429</ele><time>2026-04-14T14:21:23Z</time></trkpt><trkpt lat="44.1323373" lon="10.3741429"><ele>376.57142857142856</ele><time>2026-04-14T14:21:24.999Z</time></trkpt><trkpt lat="44.1322734" lon="10.374164"><ele>377.2857142857143</ele><time>2026-04-14T14:21:27Z</time></trkpt><trkpt lat="44.1322072" lon="10.3741828"><ele>378.0</ele><time>2026-04-14T14:21:28.999Z</time></trkpt><trkpt lat="44.1321406" lon="10.3741989"><ele>378.0</ele><time>2026-04-14T14:21:30.999Z</time></trkpt><trkpt lat="44.1320727" lon="10.3742205"><ele>378.0</ele><time>2026-04-14T14:21:33Z</time></trkpt><trkpt lat="44.1320079" lon="10.3742531"><ele>378.0</ele><time>2026-04-14T14:21:34.999Z</time></trkpt><trkpt lat="44.1319479" lon="10.3742907"><ele>378.0</ele><time>2026-04-14T14:21:37Z</time></trkpt><trkpt lat="44.131872" lon="10.3743705"><ele>378.0</ele><time>2026-04-14T14:21:39.999Z</time></trkpt><trkpt lat="44.1318197" lon="10.3744432"><ele>378.0</ele><time>2026-04-14T14:21:41.999Z</time></trkpt><trkpt lat="44.1317704" lon="10.3745073"><ele>378.0</ele><time>2026-04-14T14:21:44Z</time></trkpt><trkpt lat="44.1317199" lon="10.374576"><ele>378.0</ele><time>2026-04-14T14:21:45.999Z</time></trkpt><trkpt lat="44.1316702" lon="10.3746451"><ele>378.0</ele><time>2026-04-14T14:21:48Z</time></trkpt><trkpt lat="44.1316175" lon="10.3747146"><ele>378.0</ele><time>2026-04-14T14:21:50Z</time></trkpt><trkpt lat="44.1315644" lon="10.3747872"><ele>378.0</ele><time>2026-04-14T14:21:52Z</time></trkpt><trkpt lat="44.131514" lon="10.3748577"><ele>378.0</ele><time>2026-04-14T14:21:54Z</time></trkpt><trkpt lat="44.1314629" lon="10.3749297"><ele>378.0</ele><time>2026-04-14T14:21:56Z</time></trkpt><trkpt lat="44.1314142" lon="10.3749998"><ele>378.0</ele><time>2026-04-14T14:21:58Z</time></trkpt><trkpt lat="44.1313664" lon="10.3750738"><ele>378.2857142857143</ele><time>2026-04-14T14:22:00Z</time></trkpt><trkpt lat="44.1313121" lon="10.3751412"><ele>378.57142857142856</ele><time>2026-04-14T14:22:02Z</time></trkpt><trkpt lat="44.1312581" lon="10.3752095"><ele>378.8571428571429</ele><time>2026-04-14T14:22:04Z</time></trkpt><trkpt lat="44.1312076" lon="10.3752819"><ele>379.1428571428571</ele><time>2026-04-14T14:22:06Z</time></trkpt><trkpt lat="44.1311591" lon="10.3753548"><ele>379.42857142857144</ele><time>2026-04-14T14:22:08Z</time></trkpt><trkpt lat="44.1311096" lon="10.3754325"><ele>379.7142857142857</ele><time>2026-04-14T14:22:09.999Z</time></trkpt><trkpt lat="44.1310621" lon="10.375509"><ele>380.0</ele><time>2026-04-14T14:22:12Z</time></trkpt><trkpt lat="44.1310138" lon="10.3755838"><ele>381.1666666666667</ele><time>2026-04-14T14:22:14Z</time></trkpt><trkpt lat="44.1309588" lon="10.3756627"><ele>382.33333333333337</ele><time>2026-04-14T14:22:16Z</time></trkpt><trkpt lat="44.130902" lon="10.3757376"><ele>383.5</ele><time>2026-04-14T14:22:18Z</time></trkpt><trkpt lat="44.130844" lon="10.3758104"><ele>384.6666666666667</ele><time>2026-04-14T14:22:20Z</time></trkpt><trkpt lat="44.1307835" lon="10.3758845"><ele>385.8333333333333</ele><time>2026-04-14T14:22:21.999Z</time></trkpt><trkpt lat="44.1307182" lon="10.3759563"><ele>387.0</ele><time>2026-04-14T14:22:23.999Z</time></trkpt><trkpt lat="44.1306547" lon="10.3760225"><ele>387.0</ele><time>2026-04-14T14:22:26Z</time></trkpt><trkpt lat="44.1305931" lon="10.3760807"><ele>387.0</ele><time>2026-04-14T14:22:28Z</time></trkpt><trkpt lat="44.1305354" lon="10.3761361"><ele>387.0</ele><time>2026-04-14T14:22:30Z</time></trkpt><trkpt lat="44.13047" lon="10.3761979"><ele>387.0</ele><time>2026-04-14T14:22:31.999Z</time></trkpt><trkpt lat="44.1304092" lon="10.3762521"><ele>387.0</ele><time>2026-04-14T14:22:34.012Z</time></trkpt><trkpt lat="44.1303518" lon="10.3762977"><ele>387.0</ele><time>2026-04-14T14:22:35.999Z</time></trkpt><trkpt lat="44.1302915" lon="10.3763296"><ele>387.0</ele><time>2026-04-14T14:22:38Z</time></trkpt><trkpt lat="44.1302335" lon="10.3763702"><ele>385.3333333333333</ele><time>2026-04-14T14:22:40.005Z</time></trkpt><trkpt lat="44.1301823" lon="10.3764258"><ele>383.6666666666667</ele><time>2026-04-14T14:22:42Z</time></trkpt><trkpt lat="44.1301413" lon="10.3765291"><ele>382.0</ele><time>2026-04-14T14:22:45Z</time></trkpt><trkpt lat="44.130107" lon="10.3766058"><ele>380.33333333333337</ele><time>2026-04-14T14:22:46.999Z</time></trkpt><trkpt lat="44.1300606" lon="10.3767191"><ele>378.6666666666667</ele><time>2026-04-14T14:22:49.999Z</time></trkpt><trkpt lat="44.1300219" lon="10.3768005"><ele>377.0</ele><time>2026-04-14T14:22:51.999Z</time></trkpt><trkpt lat="44.1299785" lon="10.3768935"><ele>377.0</ele><time>2026-04-14T14:22:53.999Z</time></trkpt><trkpt lat="44.1299322" lon="10.3770021"><ele>377.0</ele><time>2026-04-14T14:22:56Z</time></trkpt><trkpt lat="44.129873" lon="10.3771181"><ele>377.0</ele><time>2026-04-14T14:22:57.999Z</time></trkpt><trkpt lat="44.129804" lon="10.3772343"><ele>377.0</ele><time>2026-04-14T14:22:59.999Z</time></trkpt><trkpt lat="44.1297131" lon="10.3773336"><ele>377.0</ele><time>2026-04-14T14:23:02Z</time></trkpt><trkpt lat="44.1295975" lon="10.3773871"><ele>376.0</ele><time>2026-04-14T14:23:04Z</time></trkpt><trkpt lat="44.1295314" lon="10.3774"><ele>375.0</ele><time>2026-04-14T14:23:04.999Z</time></trkpt><trkpt lat="44.1294637" lon="10.3774086"><ele>374.0</ele><time>2026-04-14T14:23:05.999Z</time></trkpt><trkpt lat="44.1293989" lon="10.3774142"><ele>373.0</ele><time>2026-04-14T14:23:07Z</time></trkpt><trkpt lat="44.1293326" lon="10.3774237"><ele>372.0</ele><time>2026-04-14T14:23:07.999Z</time></trkpt><trkpt lat="44.1292096" lon="10.3774296"><ele>371.0</ele><time>2026-04-14T14:23:10Z</time></trkpt><trkpt lat="44.1290952" lon="10.3774663"><ele>373.20000000000005</ele><time>2026-04-14T14:23:12Z</time></trkpt><trkpt lat="44.129005" lon="10.3775444"><ele>375.40000000000003</ele><time>2026-04-14T14:23:14Z</time></trkpt><trkpt lat="44.1289701" lon="10.3776611"><ele>377.6</ele><time>2026-04-14T14:23:15.999Z</time></trkpt><trkpt lat="44.1289637" lon="10.3777952"><ele>379.8</ele><time>2026-04-14T14:23:17.999Z</time></trkpt><trkpt lat="44.1289879" lon="10.3779352"><ele>382.0</ele><time>2026-04-14T14:23:19.999Z</time></trkpt><trkpt lat="44.1290418" lon="10.3780543"><ele>379.8333333333333</ele><time>2026-04-14T14:23:22Z</time></trkpt><trkpt lat="44.1291214" lon="10.3781839"><ele>377.66666666666663</ele><time>2026-04-14T14:23:24Z</time></trkpt><trkpt lat="44.1291601" lon="10.3782588"><ele>375.5</ele><time>2026-04-14T14:23:25Z</time></trkpt><trkpt lat="44.1291968" lon="10.3783388"><ele>373.3333333333333</ele><time>2026-04-14T14:23:26Z</time></trkpt><trkpt lat="44.1292264" lon="10.3784266"><ele>371.1666666666667</ele><time>2026-04-14T14:23:26.999Z</time></trkpt><trkpt lat="44.1292536" lon="10.3785183"><ele>369.0</ele><time>2026-04-14T14:23:28Z</time></trkpt><trkpt lat="44.1292667" lon="10.378614"><ele>369.0</ele><time>2026-04-14T14:23:29Z</time></trkpt><trkpt lat="44.1292793" lon="10.3787126"><ele>369.0</ele><time>2026-04-14T14:23:30Z</time></trkpt><trkpt lat="44.1292832" lon="10.3788114"><ele>369.0</ele><time>2026-04-14T14:23:31Z</time></trkpt><trkpt lat="44.1292823" lon="10.3789034"><ele>369.0</ele><time>2026-04-14T14:23:32Z</time></trkpt><trkpt lat="44.1292793" lon="10.3789939"><ele>369.0</ele><time>2026-04-14T14:23:33Z</time></trkpt><trkpt lat="44.1292819" lon="10.3790863"><ele>369.0</ele><time>2026-04-14T14:23:33.999Z</time></trkpt><trkpt lat="44.1292933" lon="10.3792481"><ele>370.0</ele><time>2026-04-14T14:23:35.999Z</time></trkpt><trkpt lat="44.1293246" lon="10.3793903"><ele>371.0</ele><time>2026-04-14T14:23:37.999Z</time></trkpt><trkpt lat="44.1293493" lon="10.3795338"><ele>372.0</ele><time>2026-04-14T14:23:39.999Z</time></trkpt><trkpt lat="44.1293827" lon="10.3796713"><ele>373.0</ele><time>2026-04-14T14:23:42Z</time></trkpt><trkpt lat="44.1294211" lon="10.3798156"><ele>374.0</ele><time>2026-04-14T14:23:43.999Z</time></trkpt><trkpt lat="44.1294605" lon="10.3799624"><ele>374.6</ele><time>2026-04-14T14:23:46Z</time></trkpt><trkpt lat="44.1295058" lon="10.380111"><ele>375.2</ele><time>2026-04-14T14:23:48Z</time></trkpt><trkpt lat="44.1295755" lon="10.3802472"><ele>375.8</ele><time>2026-04-14T14:23:50Z</time></trkpt><trkpt lat="44.1296596" lon="10.380371"><ele>376.40000000000003</ele><time>2026-04-14T14:23:51.999Z</time></trkpt><trkpt lat="44.1297014" lon="10.3804382"><ele>377.0</ele><time>2026-04-14T14:23:53Z</time></trkpt><trkpt lat="44.1297446" lon="10.3805079"><ele>376.2857142857143</ele><time>2026-04-14T14:23:54Z</time></trkpt><trkpt lat="44.1297783" lon="10.3805885"><ele>375.57142857142856</ele><time>2026-04-14T14:23:55Z</time></trkpt><trkpt lat="44.1297963" lon="10.380675"><ele>374.8571428571429</ele><time>2026-04-14T14:23:55.999Z</time></trkpt><trkpt lat="44.1298042" lon="10.3807699"><ele>374.1428571428571</ele><time>2026-04-14T14:23:57Z</time></trkpt><trkpt lat="44.1297997" lon="10.3808631"><ele>373.42857142857144</ele><time>2026-04-14T14:23:58Z</time></trkpt><trkpt lat="44.1297861" lon="10.3809535"><ele>372.7142857142857</ele><time>2026-04-14T14:23:58.999Z</time></trkpt><trkpt lat="44.1297657" lon="10.3810403"><ele>372.0</ele><time>2026-04-14T14:24:00Z</time></trkpt><trkpt lat="44.1297437" lon="10.3811276"><ele>372.00000000000006</ele><time>2026-04-14T14:24:01Z</time></trkpt><trkpt lat="44.1297237" lon="10.3812167"><ele>372.0</ele><time>2026-04-14T14:24:02Z</time></trkpt><trkpt lat="44.1297054" lon="10.3813048"><ele>372.0</ele><time>2026-04-14T14:24:03Z</time></trkpt><trkpt lat="44.129685" lon="10.3813969"><ele>372.0</ele><time>2026-04-14T14:24:04Z</time></trkpt><trkpt lat="44.1296711" lon="10.3814926"><ele>372.0</ele><time>2026-04-14T14:24:05Z</time></trkpt><trkpt lat="44.1296533" lon="10.3815841"><ele>372.00000000000006</ele><time>2026-04-14T14:24:06Z</time></trkpt><trkpt lat="44.129634" lon="10.3816805"><ele>372.0</ele><time>2026-04-14T14:24:06.999Z</time></trkpt><trkpt lat="44.1296122" lon="10.3817716"><ele>371.00000000000006</ele><time>2026-04-14T14:24:08Z</time></trkpt><trkpt lat="44.1295888" lon="10.3818686"><ele>370.0</ele><time>2026-04-14T14:24:09Z</time></trkpt><trkpt lat="44.1295615" lon="10.3819636"><ele>369.0</ele><time>2026-04-14T14:24:09.999Z</time></trkpt><trkpt lat="44.1295347" lon="10.3820553"><ele>368.0</ele><time>2026-04-14T14:24:11Z</time></trkpt><trkpt lat="44.1295045" lon="10.3821446"><ele>367.0</ele><time>2026-04-14T14:24:12Z</time></trkpt><trkpt lat="44.1294673" lon="10.3822338"><ele>366.00000000000006</ele><time>2026-04-14T14:24:13Z</time></trkpt><trkpt lat="44.1294239" lon="10.3823115"><ele>365.0</ele><time>2026-04-14T14:24:14Z</time></trkpt><trkpt lat="44.1293758" lon="10.3823823"><ele>365.83333333333337</ele><time>2026-04-14T14:24:15Z</time></trkpt><trkpt lat="44.1293201" lon="10.3824475"><ele>366.6666666666667</ele><time>2026-04-14T14:24:16Z</time></trkpt><trkpt lat="44.1292665" lon="10.3825129"><ele>367.5</ele><time>2026-04-14T14:24:17Z</time></trkpt><trkpt lat="44.1292141" lon="10.3825725"><ele>368.3333333333333</ele><time>2026-04-14T14:24:18Z</time></trkpt><trkpt lat="44.1291619" lon="10.3826299"><ele>369.16666666666663</ele><time>2026-04-14T14:24:19Z</time></trkpt><trkpt lat="44.1290601" lon="10.3827417"><ele>370.0</ele><time>2026-04-14T14:24:21Z</time></trkpt><trkpt lat="44.1290105" lon="10.3828023"><ele>370.0</ele><time>2026-04-14T14:24:21.999Z</time></trkpt><trkpt lat="44.1289158" lon="10.3829077"><ele>370.0</ele><time>2026-04-14T14:24:24Z</time></trkpt><trkpt lat="44.1288257" lon="10.3830089"><ele>370.0</ele><time>2026-04-14T14:24:26Z</time></trkpt><trkpt lat="44.1287468" lon="10.3830984"><ele>370.0</ele><time>2026-04-14T14:24:28Z</time></trkpt><trkpt lat="44.1286804" lon="10.3831819"><ele>370.0</ele><time>2026-04-14T14:24:30Z</time></trkpt><trkpt lat="44.1286235" lon="10.383256"><ele>368.57142857142856</ele><time>2026-04-14T14:24:31.999Z</time></trkpt><trkpt lat="44.1285793" lon="10.3833199"><ele>367.1428571428571</ele><time>2026-04-14T14:24:34Z</time></trkpt><trkpt lat="44.1285319" lon="10.3833852"><ele>365.71428571428567</ele><time>2026-04-14T14:24:36Z</time></trkpt><trkpt lat="44.1284705" lon="10.3834819"><ele>364.2857142857143</ele><time>2026-04-14T14:24:39Z</time></trkpt><trkpt lat="44.1284262" lon="10.3835497"><ele>362.8571428571429</ele><time>2026-04-14T14:24:40.999Z</time></trkpt><trkpt lat="44.1283832" lon="10.3836257"><ele>361.4285714285714</ele><time>2026-04-14T14:24:42.999Z</time></trkpt><trkpt lat="44.1283382" lon="10.3837051"><ele>360.0</ele><time>2026-04-14T14:24:45Z</time></trkpt><trkpt lat="44.1282942" lon="10.383791"><ele>359.6666666666667</ele><time>2026-04-14T14:24:47Z</time></trkpt><trkpt lat="44.1282528" lon="10.3838829"><ele>359.3333333333333</ele><time>2026-04-14T14:24:49Z</time></trkpt><trkpt lat="44.1282098" lon="10.3839767"><ele>359.0</ele><time>2026-04-14T14:24:50.999Z</time></trkpt><trkpt lat="44.1281624" lon="10.3840656"><ele>358.66666666666663</ele><time>2026-04-14T14:24:53Z</time></trkpt><trkpt lat="44.1281" lon="10.3841409"><ele>358.3333333333333</ele><time>2026-04-14T14:24:55Z</time></trkpt><trkpt lat="44.1280327" lon="10.3842218"><ele>358.0</ele><time>2026-04-14T14:24:57Z</time></trkpt><trkpt lat="44.1279459" lon="10.3842904"><ele>358.0</ele><time>2026-04-14T14:24:59Z</time></trkpt><trkpt lat="44.1278364" lon="10.3843515"><ele>358.0</ele><time>2026-04-14T14:25:00.999Z</time></trkpt><trkpt lat="44.1277753" lon="10.3843739"><ele>358.0</ele><time>2026-04-14T14:25:02Z</time></trkpt><trkpt lat="44.1277068" lon="10.3843906"><ele>358.0</ele><time>2026-04-14T14:25:03Z</time></trkpt><trkpt lat="44.1276323" lon="10.3844144"><ele>358.0</ele><time>2026-04-14T14:25:04Z</time></trkpt><trkpt lat="44.1275576" lon="10.3844535"><ele>358.0</ele><time>2026-04-14T14:25:05Z</time></trkpt><trkpt lat="44.1274868" lon="10.3845062"><ele>358.0</ele><time>2026-04-14T14:25:05.999Z</time></trkpt><trkpt lat="44.1274167" lon="10.3845716"><ele>358.0</ele><time>2026-04-14T14:25:07Z</time></trkpt><trkpt lat="44.1273514" lon="10.3846447"><ele>358.0</ele><time>2026-04-14T14:25:08Z</time></trkpt><trkpt lat="44.1272886" lon="10.3847174"><ele>358.0</ele><time>2026-04-14T14:25:08.999Z</time></trkpt><trkpt lat="44.1272328" lon="10.3847952"><ele>358.0</ele><time>2026-04-14T14:25:10Z</time></trkpt><trkpt lat="44.1271824" lon="10.3848626"><ele>358.0</ele><time>2026-04-14T14:25:11Z</time></trkpt><trkpt lat="44.1271364" lon="10.3849227"><ele>358.59999999999997</ele><time>2026-04-14T14:25:12Z</time></trkpt><trkpt lat="44.1270563" lon="10.3850319"><ele>359.2</ele><time>2026-04-14T14:25:13.999Z</time></trkpt><trkpt lat="44.1269878" lon="10.3851376"><ele>359.8</ele><time>2026-04-14T14:25:16Z</time></trkpt><trkpt lat="44.1269332" lon="10.3852589"><ele>360.4</ele><time>2026-04-14T14:25:18Z</time></trkpt><trkpt lat="44.1268757" lon="10.3854076"><ele>361.0</ele><time>2026-04-14T14:25:19.999Z</time></trkpt><trkpt lat="44.1268453" lon="10.3854858"><ele>358.8333333333333</ele><time>2026-04-14T14:25:20.999Z</time></trkpt><trkpt lat="44.1268156" lon="10.3855713"><ele>356.66666666666663</ele><time>2026-04-14T14:25:22Z</time></trkpt><trkpt lat="44.1267801" lon="10.3856624"><ele>354.5</ele><time>2026-04-14T14:25:22.999Z</time></trkpt><trkpt lat="44.126738" lon="10.3857562"><ele>352.3333333333333</ele><time>2026-04-14T14:25:24Z</time></trkpt><trkpt lat="44.1266957" lon="10.3858524"><ele>350.1666666666667</ele><time>2026-04-14T14:25:25Z</time></trkpt><trkpt lat="44.1266516" lon="10.385965"><ele>348.0</ele><time>2026-04-14T14:25:25.999Z</time></trkpt><trkpt lat="44.1266044" lon="10.386076"><ele>347.79999999999995</ele><time>2026-04-14T14:25:27Z</time></trkpt><trkpt lat="44.1265474" lon="10.3861823"><ele>347.6</ele><time>2026-04-14T14:25:28Z</time></trkpt><trkpt lat="44.1264799" lon="10.3862848"><ele>347.4</ele><time>2026-04-14T14:25:29Z</time></trkpt><trkpt lat="44.1264065" lon="10.386387"><ele>347.20000000000005</ele><time>2026-04-14T14:25:29.999Z</time></trkpt><trkpt lat="44.1263284" lon="10.386476"><ele>347.0</ele><time>2026-04-14T14:25:31Z</time></trkpt><trkpt lat="44.1262429" lon="10.3865563"><ele>347.0</ele><time>2026-04-14T14:25:32Z</time></trkpt><trkpt lat="44.1261558" lon="10.3866295"><ele>347.0</ele><time>2026-04-14T14:25:33Z</time></trkpt><trkpt lat="44.1260675" lon="10.3867023"><ele>347.0</ele><time>2026-04-14T14:25:34Z</time></trkpt><trkpt lat="44.1259732" lon="10.3867675"><ele>347.0</ele><time>2026-04-14T14:25:35Z</time></trkpt><trkpt lat="44.1258782" lon="10.3868274"><ele>347.0</ele><time>2026-04-14T14:25:36Z</time></trkpt><trkpt lat="44.1257829" lon="10.3868955"><ele>346.20000000000005</ele><time>2026-04-14T14:25:37Z</time></trkpt><trkpt lat="44.1256894" lon="10.3869703"><ele>345.4</ele><time>2026-04-14T14:25:38Z</time></trkpt><trkpt lat="44.1255908" lon="10.3870325"><ele>344.6</ele><time>2026-04-14T14:25:39Z</time></trkpt><trkpt lat="44.12549" lon="10.3870829"><ele>343.79999999999995</ele><time>2026-04-14T14:25:40Z</time></trkpt><trkpt lat="44.1253847" lon="10.3871325"><ele>343.0</ele><time>2026-04-14T14:25:41Z</time></trkpt><trkpt lat="44.1252835" lon="10.3871822"><ele>343.0</ele><time>2026-04-14T14:25:42Z</time></trkpt><trkpt lat="44.1251852" lon="10.387243"><ele>343.0</ele><time>2026-04-14T14:25:43Z</time></trkpt><trkpt lat="44.1250924" lon="10.3873106"><ele>343.0</ele><time>2026-04-14T14:25:43.999Z</time></trkpt><trkpt lat="44.1250032" lon="10.3873867"><ele>343.0</ele><time>2026-04-14T14:25:45Z</time></trkpt><trkpt lat="44.1249213" lon="10.387466"><ele>343.0</ele><time>2026-04-14T14:25:45.999Z</time></trkpt><trkpt lat="44.1248464" lon="10.3875407"><ele>345.8333333333333</ele><time>2026-04-14T14:25:47Z</time></trkpt><trkpt lat="44.124777" lon="10.3876198"><ele>348.66666666666663</ele><time>2026-04-14T14:25:47.999Z</time></trkpt><trkpt lat="44.1247163" lon="10.3877044"><ele>351.5</ele><time>2026-04-14T14:25:48.999Z</time></trkpt><trkpt lat="44.1246713" lon="10.3878018"><ele>354.3333333333333</ele><time>2026-04-14T14:25:49.999Z</time></trkpt><trkpt lat="44.1246403" lon="10.387896"><ele>357.1666666666667</ele><time>2026-04-14T14:25:51Z</time></trkpt><trkpt lat="44.1246171" lon="10.3880011"><ele>360.0</ele><time>2026-04-14T14:25:52Z</time></trkpt><trkpt lat="44.1245975" lon="10.3880861"><ele>360.0</ele><time>2026-04-14T14:25:53Z</time></trkpt><trkpt lat="44.1245606" lon="10.3882281"><ele>360.0</ele><time>2026-04-14T14:25:54.999Z</time></trkpt><trkpt lat="44.1245319" lon="10.388345"><ele>360.0</ele><time>2026-04-14T14:25:57Z</time></trkpt><trkpt lat="44.1245098" lon="10.3884474"><ele>360.0</ele><time>2026-04-14T14:25:59Z</time></trkpt><trkpt lat="44.1244828" lon="10.388547"><ele>360.0</ele><time>2026-04-14T14:26:01Z</time></trkpt><trkpt lat="44.1244491" lon="10.3886675"><ele>360.0</ele><time>2026-04-14T14:26:03.999Z</time></trkpt><trkpt lat="44.1244221" lon="10.3887546"><ele>359.4285714285714</ele><time>2026-04-14T14:26:06Z</time></trkpt><trkpt lat="44.1244039" lon="10.3888468"><ele>358.8571428571429</ele><time>2026-04-14T14:26:08Z</time></trkpt><trkpt lat="44.1243881" lon="10.3889409"><ele>358.2857142857143</ele><time>2026-04-14T14:26:10Z</time></trkpt><trkpt lat="44.1243778" lon="10.3890353"><ele>357.71428571428567</ele><time>2026-04-14T14:26:12Z</time></trkpt><trkpt lat="44.1243658" lon="10.3891262"><ele>357.1428571428571</ele><time>2026-04-14T14:26:13.999Z</time></trkpt><trkpt lat="44.1243602" lon="10.3892152"><ele>356.57142857142856</ele><time>2026-04-14T14:26:16Z</time></trkpt><trkpt lat="44.1243493" lon="10.3893458"><ele>356.0</ele><time>2026-04-14T14:26:18.999Z</time></trkpt><trkpt lat="44.1243384" lon="10.389443"><ele>355.99999999999994</ele><time>2026-04-14T14:26:20.999Z</time></trkpt><trkpt lat="44.1243203" lon="10.3895397"><ele>356.0</ele><time>2026-04-14T14:26:23Z</time></trkpt><trkpt lat="44.1242952" lon="10.3896322"><ele>356.0</ele><time>2026-04-14T14:26:25Z</time></trkpt><trkpt lat="44.1242564" lon="10.3897157"><ele>356.0</ele><time>2026-04-14T14:26:27Z</time></trkpt><trkpt lat="44.1242077" lon="10.3897927"><ele>356.0</ele><time>2026-04-14T14:26:29Z</time></trkpt><trkpt lat="44.1241577" lon="10.3898589"><ele>355.99999999999994</ele><time>2026-04-14T14:26:31Z</time></trkpt><trkpt lat="44.1241019" lon="10.3899222"><ele>356.0</ele><time>2026-04-14T14:26:33Z</time></trkpt><trkpt lat="44.1240493" lon="10.3899902"><ele>356.2857142857143</ele><time>2026-04-14T14:26:35Z</time></trkpt><trkpt lat="44.1239981" lon="10.3900538"><ele>356.57142857142856</ele><time>2026-04-14T14:26:37Z</time></trkpt><trkpt lat="44.123949" lon="10.3901164"><ele>356.8571428571429</ele><time>2026-04-14T14:26:39Z</time></trkpt><trkpt lat="44.1239054" lon="10.3901861"><ele>357.1428571428571</ele><time>2026-04-14T14:26:41Z</time></trkpt><trkpt lat="44.123873" lon="10.3902644"><ele>357.42857142857144</ele><time>2026-04-14T14:26:43Z</time></trkpt><trkpt lat="44.1238506" lon="10.3903563"><ele>357.7142857142857</ele><time>2026-04-14T14:26:44.999Z</time></trkpt><trkpt lat="44.1238447" lon="10.3904522"><ele>358.0</ele><time>2026-04-14T14:26:47Z</time></trkpt><trkpt lat="44.1238502" lon="10.3905461"><ele>358.00000000000006</ele><time>2026-04-14T14:26:48.999Z</time></trkpt><trkpt lat="44.1238621" lon="10.3906375"><ele>358.0</ele><time>2026-04-14T14:26:51Z</time></trkpt><trkpt lat="44.1238828" lon="10.3907242"><ele>358.0</ele><time>2026-04-14T14:26:53Z</time></trkpt><trkpt lat="44.1239065" lon="10.3908107"><ele>358.0</ele><time>2026-04-14T14:26:54.999Z</time></trkpt><trkpt lat="44.1239324" lon="10.3908974"><ele>358.0</ele><time>2026-04-14T14:26:57Z</time></trkpt><trkpt lat="44.1239595" lon="10.3909865"><ele>358.00000000000006</ele><time>2026-04-14T14:26:58.999Z</time></trkpt><trkpt lat="44.1239857" lon="10.3910772"><ele>358.0</ele><time>2026-04-14T14:27:01Z</time></trkpt><trkpt lat="44.1240174" lon="10.3911637"><ele>358.00000000000006</ele><time>2026-04-14T14:27:03Z</time></trkpt><trkpt lat="44.124048" lon="10.391248"><ele>358.0</ele><time>2026-04-14T14:27:05Z</time></trkpt><trkpt lat="44.1240817" lon="10.3913262"><ele>358.0</ele><time>2026-04-14T14:27:07Z</time></trkpt><trkpt lat="44.124121" lon="10.3913988"><ele>358.0</ele><time>2026-04-14T14:27:09Z</time></trkpt><trkpt lat="44.1241685" lon="10.3914658"><ele>358.0</ele><time>2026-04-14T14:27:10.999Z</time></trkpt><trkpt lat="44.1242143" lon="10.3915335"><ele>358.00000000000006</ele><time>2026-04-14T14:27:12.999Z</time></trkpt><trkpt lat="44.1242591" lon="10.3915986"><ele>358.0</ele><time>2026-04-14T14:27:15Z</time></trkpt><trkpt lat="44.1243215" lon="10.3916968"><ele>357.59999999999997</ele><time>2026-04-14T14:27:18Z</time></trkpt><trkpt lat="44.1243822" lon="10.3917881"><ele>357.2</ele><time>2026-04-14T14:27:21Z</time></trkpt><trkpt lat="44.1244354" lon="10.3918819"><ele>356.8</ele><time>2026-04-14T14:27:24Z</time></trkpt><trkpt lat="44.1244735" lon="10.3919749"><ele>356.4</ele><time>2026-04-14T14:27:25.999Z</time></trkpt><trkpt lat="44.1244807" lon="10.3921082"><ele>356.0</ele><time>2026-04-14T14:27:27.999Z</time></trkpt><trkpt lat="44.1244126" lon="10.392229"><ele>354.0</ele><time>2026-04-14T14:27:30Z</time></trkpt><trkpt lat="44.1242923" lon="10.3922812"><ele>352.0</ele><time>2026-04-14T14:27:32Z</time></trkpt><trkpt lat="44.1242244" lon="10.3922805"><ele>350.0</ele><time>2026-04-14T14:27:32.999Z</time></trkpt><trkpt lat="44.1241568" lon="10.3922682"><ele>348.0</ele><time>2026-04-14T14:27:33.999Z</time></trkpt><trkpt lat="44.1240851" lon="10.3922596"><ele>346.0</ele><time>2026-04-14T14:27:35Z</time></trkpt><trkpt lat="44.1240096" lon="10.3922484"><ele>344.0</ele><time>2026-04-14T14:27:35.999Z</time></trkpt><trkpt lat="44.1239322" lon="10.3922377"><ele>343.1666666666667</ele><time>2026-04-14T14:27:37Z</time></trkpt><trkpt lat="44.1238523" lon="10.3922252"><ele>342.33333333333337</ele><time>2026-04-14T14:27:37.999Z</time></trkpt><trkpt lat="44.1237706" lon="10.3922124"><ele>341.5</ele><time>2026-04-14T14:27:39Z</time></trkpt><trkpt lat="44.1236884" lon="10.3922014"><ele>340.6666666666667</ele><time>2026-04-14T14:27:40Z</time></trkpt><trkpt lat="44.1235978" lon="10.3921954"><ele>339.8333333333333</ele><time>2026-04-14T14:27:40.999Z</time></trkpt><trkpt lat="44.1235107" lon="10.3921884"><ele>339.0</ele><time>2026-04-14T14:27:42Z</time></trkpt><trkpt lat="44.1234232" lon="10.3921673"><ele>341.0</ele><time>2026-04-14T14:27:42.999Z</time></trkpt><trkpt lat="44.1233393" lon="10.3921199"><ele>343.0</ele><time>2026-04-14T14:27:44Z</time></trkpt><trkpt lat="44.1232652" lon="10.3920556"><ele>345.0</ele><time>2026-04-14T14:27:45Z</time></trkpt><trkpt lat="44.1231893" lon="10.3919881"><ele>347.0</ele><time>2026-04-14T14:27:46Z</time></trkpt><trkpt lat="44.123111" lon="10.3919324"><ele>349.0</ele><time>2026-04-14T14:27:47Z</time></trkpt><trkpt lat="44.123025" lon="10.3919093"><ele>351.0</ele><time>2026-04-14T14:27:48Z</time></trkpt><trkpt lat="44.1229418" lon="10.3919052"><ele>351.0</ele><time>2026-04-14T14:27:49Z</time></trkpt><trkpt lat="44.1228567" lon="10.391923"><ele>351.0</ele><time>2026-04-14T14:27:50Z</time></trkpt><trkpt lat="44.1227789" lon="10.391944"><ele>351.0</ele><time>2026-04-14T14:27:50.999Z</time></trkpt><trkpt lat="44.1226946" lon="10.3919829"><ele>351.0</ele><time>2026-04-14T14:27:51.999Z</time></trkpt><trkpt lat="44.1226141" lon="10.3920345"><ele>351.0</ele><time>2026-04-14T14:27:53Z</time></trkpt><trkpt lat="44.1225365" lon="10.3921123"><ele>351.0</ele><time>2026-04-14T14:27:54Z</time></trkpt><trkpt lat="44.1224663" lon="10.3921961"><ele>350.4</ele><time>2026-04-14T14:27:54.999Z</time></trkpt><trkpt lat="44.1223962" lon="10.3923057"><ele>349.8</ele><time>2026-04-14T14:27:55.999Z</time></trkpt><trkpt lat="44.1223293" lon="10.3924174"><ele>349.2</ele><time>2026-04-14T14:27:56.999Z</time></trkpt><trkpt lat="44.1222637" lon="10.3925251"><ele>348.59999999999997</ele><time>2026-04-14T14:27:57.999Z</time></trkpt><trkpt lat="44.122199" lon="10.3926458"><ele>348.0</ele><time>2026-04-14T14:27:59Z</time></trkpt><trkpt lat="44.1221362" lon="10.3927472"><ele>348.0</ele><time>2026-04-14T14:27:59.999Z</time></trkpt><trkpt lat="44.1220716" lon="10.3928516"><ele>348.0</ele><time>2026-04-14T14:28:00.999Z</time></trkpt><trkpt lat="44.1220048" lon="10.3929506"><ele>348.0</ele><time>2026-04-14T14:28:02Z</time></trkpt><trkpt lat="44.1219391" lon="10.393054"><ele>348.0</ele><time>2026-04-14T14:28:03Z</time></trkpt><trkpt lat="44.1218669" lon="10.3931483"><ele>348.0</ele><time>2026-04-14T14:28:04Z</time></trkpt><trkpt lat="44.1217802" lon="10.3932289"><ele>347.0</ele><time>2026-04-14T14:28:05Z</time></trkpt><trkpt lat="44.1216899" lon="10.3933096"><ele>346.0</ele><time>2026-04-14T14:28:06Z</time></trkpt><trkpt lat="44.1215984" lon="10.3933923"><ele>345.0</ele><time>2026-04-14T14:28:07Z</time></trkpt><trkpt lat="44.121505" lon="10.3934758"><ele>344.0</ele><time>2026-04-14T14:28:07.999Z</time></trkpt><trkpt lat="44.1214042" lon="10.3935677"><ele>343.0</ele><time>2026-04-14T14:28:09Z</time></trkpt><trkpt lat="44.1212995" lon="10.3936504"><ele>343.0</ele><time>2026-04-14T14:28:10Z</time></trkpt><trkpt lat="44.1211902" lon="10.3937315"><ele>343.0</ele><time>2026-04-14T14:28:11Z</time></trkpt><trkpt lat="44.1210759" lon="10.3937944"><ele>343.0</ele><time>2026-04-14T14:28:11.999Z</time></trkpt><trkpt lat="44.1209576" lon="10.3938382"><ele>343.0</ele><time>2026-04-14T14:28:13Z</time></trkpt><trkpt lat="44.120839" lon="10.3938633"><ele>341.75</ele><time>2026-04-14T14:28:14Z</time></trkpt><trkpt lat="44.120721" lon="10.3938556"><ele>340.5</ele><time>2026-04-14T14:28:15Z</time></trkpt><trkpt lat="44.1206033" lon="10.3938327"><ele>339.25</ele><time>2026-04-14T14:28:16Z</time></trkpt><trkpt lat="44.1204905" lon="10.3937892"><ele>338.0</ele><time>2026-04-14T14:28:16.999Z</time></trkpt><trkpt lat="44.1203809" lon="10.393748"><ele>338.0</ele><time>2026-04-14T14:28:17.999Z</time></trkpt><trkpt lat="44.1202712" lon="10.393704"><ele>338.0</ele><time>2026-04-14T14:28:19Z</time></trkpt><trkpt lat="44.1201572" lon="10.3936629"><ele>338.0</ele><time>2026-04-14T14:28:19.999Z</time></trkpt><trkpt lat="44.1200468" lon="10.3936139"><ele>338.0</ele><time>2026-04-14T14:28:21Z</time></trkpt><trkpt lat="44.1199542" lon="10.3935717"><ele>338.0</ele><time>2026-04-14T14:28:22Z</time></trkpt><trkpt lat="44.1198575" lon="10.3935315"><ele>337.5</ele><time>2026-04-14T14:28:23Z</time></trkpt><trkpt lat="44.1197642" lon="10.3934976"><ele>337.0</ele><time>2026-04-14T14:28:23.999Z</time></trkpt><trkpt lat="44.1196763" lon="10.393506"><ele>336.5</ele><time>2026-04-14T14:28:25Z</time></trkpt><trkpt lat="44.1195957" lon="10.393546"><ele>336.0</ele><time>2026-04-14T14:28:26Z</time></trkpt><trkpt lat="44.1195142" lon="10.3936004"><ele>335.5</ele><time>2026-04-14T14:28:27Z</time></trkpt><trkpt lat="44.1194351" lon="10.393655"><ele>335.0</ele><time>2026-04-14T14:28:27.999Z</time></trkpt><trkpt lat="44.1193547" lon="10.3937102"><ele>335.0</ele><time>2026-04-14T14:28:29Z</time></trkpt><trkpt lat="44.1192736" lon="10.3937585"><ele>335.0</ele><time>2026-04-14T14:28:29.999Z</time></trkpt><trkpt lat="44.11919" lon="10.3938119"><ele>335.0</ele><time>2026-04-14T14:28:31Z</time></trkpt><trkpt lat="44.1191142" lon="10.3938713"><ele>335.0</ele><time>2026-04-14T14:28:32Z</time></trkpt><trkpt lat="44.1190447" lon="10.3939492"><ele>335.0</ele><time>2026-04-14T14:28:33Z</time></trkpt><trkpt lat="44.1189825" lon="10.394036"><ele>335.0</ele><time>2026-04-14T14:28:34Z</time></trkpt><trkpt lat="44.1189237" lon="10.3941327"><ele>332.1666666666667</ele><time>2026-04-14T14:28:34.999Z</time></trkpt><trkpt lat="44.1188743" lon="10.394238"><ele>329.33333333333337</ele><time>2026-04-14T14:28:35.999Z</time></trkpt><trkpt lat="44.1188235" lon="10.3943396"><ele>326.5</ele><time>2026-04-14T14:28:37Z</time></trkpt><trkpt lat="44.1187796" lon="10.3944486"><ele>323.6666666666667</ele><time>2026-04-14T14:28:38Z</time></trkpt><trkpt lat="44.1187388" lon="10.3945637"><ele>320.8333333333333</ele><time>2026-04-14T14:28:39Z</time></trkpt><trkpt lat="44.1186887" lon="10.394665"><ele>318.0</ele><time>2026-04-14T14:28:40Z</time></trkpt><trkpt lat="44.1186374" lon="10.3947618"><ele>317.4</ele><time>2026-04-14T14:28:41Z</time></trkpt><trkpt lat="44.1185671" lon="10.3948415"><ele>316.8</ele><time>2026-04-14T14:28:42Z</time></trkpt><trkpt lat="44.1184799" lon="10.394898"><ele>316.2</ele><time>2026-04-14T14:28:42.999Z</time></trkpt><trkpt lat="44.1183825" lon="10.3949238"><ele>315.6</ele><time>2026-04-14T14:28:43.999Z</time></trkpt><trkpt lat="44.1182824" lon="10.3949068"><ele>315.0</ele><time>2026-04-14T14:28:44.999Z</time></trkpt><trkpt lat="44.1181868" lon="10.394851"><ele>316.4</ele><time>2026-04-14T14:28:46Z</time></trkpt><trkpt lat="44.1181002" lon="10.3947622"><ele>317.8</ele><time>2026-04-14T14:28:47Z</time></trkpt><trkpt lat="44.1180088" lon="10.3946843"><ele>319.20000000000005</ele><time>2026-04-14T14:28:48Z</time></trkpt><trkpt lat="44.1179088" lon="10.3946119"><ele>320.6</ele><time>2026-04-14T14:28:49Z</time></trkpt><trkpt lat="44.1178024" lon="10.3945958"><ele>322.0</ele><time>2026-04-14T14:28:49.999Z</time></trkpt><trkpt lat="44.1177001" lon="10.3946094"><ele>322.0</ele><time>2026-04-14T14:28:50.999Z</time></trkpt><trkpt lat="44.1176158" lon="10.3946589"><ele>322.0</ele><time>2026-04-14T14:28:52Z</time></trkpt><trkpt lat="44.1175522" lon="10.3947468"><ele>322.0</ele><time>2026-04-14T14:28:52.999Z</time></trkpt><trkpt lat="44.1175192" lon="10.394859"><ele>322.0</ele><time>2026-04-14T14:28:53.999Z</time></trkpt><trkpt lat="44.1175038" lon="10.3949751"><ele>322.0</ele><time>2026-04-14T14:28:55Z</time></trkpt><trkpt lat="44.1174956" lon="10.3950823"><ele>322.0</ele><time>2026-04-14T14:28:56Z</time></trkpt><trkpt lat="44.1174897" lon="10.3951844"><ele>322.0</ele><time>2026-04-14T14:28:57Z</time></trkpt><trkpt lat="44.1174836" lon="10.3952814"><ele>322.0</ele><time>2026-04-14T14:28:57.999Z</time></trkpt><trkpt lat="44.1174771" lon="10.3953763"><ele>322.0</ele><time>2026-04-14T14:28:58.999Z</time></trkpt><trkpt lat="44.1174549" lon="10.3955374"><ele>322.0</ele><time>2026-04-14T14:29:00.999Z</time></trkpt><trkpt lat="44.1174382" lon="10.3956717"><ele>322.0</ele><time>2026-04-14T14:29:03Z</time></trkpt><trkpt lat="44.1174295" lon="10.3957812"><ele>322.0</ele><time>2026-04-14T14:29:05Z</time></trkpt><trkpt lat="44.1174164" lon="10.395897"><ele>322.66666666666663</ele><time>2026-04-14T14:29:08Z</time></trkpt><trkpt lat="44.1173951" lon="10.3959994"><ele>323.3333333333333</ele><time>2026-04-14T14:29:12Z</time></trkpt><trkpt lat="44.1173806" lon="10.3961134"><ele>324.0</ele><time>2026-04-14T14:29:14.999Z</time></trkpt><trkpt lat="44.1173626" lon="10.3962348"><ele>324.6666666666667</ele><time>2026-04-14T14:29:18Z</time></trkpt><trkpt lat="44.1173393" lon="10.3963241"><ele>325.33333333333337</ele><time>2026-04-14T14:29:20Z</time></trkpt><trkpt lat="44.1173062" lon="10.3964011"><ele>326.0</ele><time>2026-04-14T14:29:21.999Z</time></trkpt><trkpt lat="44.1172559" lon="10.3964659"><ele>326.0</ele><time>2026-04-14T14:29:24Z</time></trkpt><trkpt lat="44.1171968" lon="10.3965106"><ele>326.0</ele><time>2026-04-14T14:29:26Z</time></trkpt><trkpt lat="44.1171336" lon="10.3965408"><ele>326.0</ele><time>2026-04-14T14:29:28Z</time></trkpt><trkpt lat="44.1170685" lon="10.3965678"><ele>326.0</ele><time>2026-04-14T14:29:30Z</time></trkpt><trkpt lat="44.1170014" lon="10.3966"><ele>326.0</ele><time>2026-04-14T14:29:32Z</time></trkpt><trkpt lat="44.1169384" lon="10.396634"><ele>326.0</ele><time>2026-04-14T14:29:33.999Z</time></trkpt><trkpt lat="44.1168794" lon="10.3966724"><ele>326.0</ele><time>2026-04-14T14:29:36Z</time></trkpt><trkpt lat="44.1168228" lon="10.3967207"><ele>326.0</ele><time>2026-04-14T14:29:37.999Z</time></trkpt><trkpt lat="44.116748" lon="10.396793"><ele>326.0</ele><time>2026-04-14T14:29:41Z</time></trkpt><trkpt lat="44.1166758" lon="10.3968673"><ele>326.0</ele><time>2026-04-14T14:29:44Z</time></trkpt><trkpt lat="44.1166234" lon="10.3969228"><ele>326.0</ele><time>2026-04-14T14:29:46Z</time></trkpt><trkpt lat="44.1165718" lon="10.3969761"><ele>326.0</ele><time>2026-04-14T14:29:48Z</time></trkpt><trkpt lat="44.1164984" lon="10.3970538"><ele>326.0</ele><time>2026-04-14T14:29:51Z</time></trkpt><trkpt lat="44.1164441" lon="10.3971132"><ele>325.0</ele><time>2026-04-14T14:29:52.999Z</time></trkpt><trkpt lat="44.1163847" lon="10.3971703"><ele>324.0</ele><time>2026-04-14T14:29:55Z</time></trkpt><trkpt lat="44.1163112" lon="10.397215"><ele>323.0</ele><time>2026-04-14T14:29:56.999Z</time></trkpt><trkpt lat="44.1162258" lon="10.3972298"><ele>322.0</ele><time>2026-04-14T14:29:59Z</time></trkpt><trkpt lat="44.1161359" lon="10.39721"><ele>321.0</ele><time>2026-04-14T14:30:01Z</time></trkpt><trkpt lat="44.1160466" lon="10.3971779"><ele>320.0</ele><time>2026-04-14T14:30:03Z</time></trkpt><trkpt lat="44.1159508" lon="10.3971589"><ele>320.0</ele><time>2026-04-14T14:30:05Z</time></trkpt><trkpt lat="44.1158593" lon="10.3971641"><ele>320.0</ele><time>2026-04-14T14:30:07Z</time></trkpt><trkpt lat="44.1157706" lon="10.397203"><ele>320.0</ele><time>2026-04-14T14:30:09Z</time></trkpt><trkpt lat="44.1156899" lon="10.3972791"><ele>320.0</ele><time>2026-04-14T14:30:10.999Z</time></trkpt><trkpt lat="44.115621" lon="10.397382"><ele>320.0</ele><time>2026-04-14T14:30:13Z</time></trkpt><trkpt lat="44.1155429" lon="10.3974892"><ele>325.75</ele><time>2026-04-14T14:30:14.999Z</time></trkpt><trkpt lat="44.1154591" lon="10.3976032"><ele>331.5</ele><time>2026-04-14T14:30:17Z</time></trkpt><trkpt lat="44.1153737" lon="10.3977289"><ele>337.25</ele><time>2026-04-14T14:30:19Z</time></trkpt><trkpt lat="44.1152854" lon="10.3978491"><ele>343.0</ele><time>2026-04-14T14:30:21Z</time></trkpt><trkpt lat="44.1151952" lon="10.3979704"><ele>341.85714285714283</ele><time>2026-04-14T14:30:23Z</time></trkpt><trkpt lat="44.1151507" lon="10.3980331"><ele>340.7142857142857</ele><time>2026-04-14T14:30:23.999Z</time></trkpt><trkpt lat="44.1151048" lon="10.3980959"><ele>339.57142857142856</ele><time>2026-04-14T14:30:25Z</time></trkpt><trkpt lat="44.1150584" lon="10.3981656"><ele>338.42857142857144</ele><time>2026-04-14T14:30:25.999Z</time></trkpt><trkpt lat="44.1150084" lon="10.3982319"><ele>337.2857142857143</ele><time>2026-04-14T14:30:27Z</time></trkpt><trkpt lat="44.1149603" lon="10.3983003"><ele>336.1428571428571</ele><time>2026-04-14T14:30:28Z</time></trkpt><trkpt lat="44.1149155" lon="10.3983635"><ele>335.0</ele><time>2026-04-14T14:30:28.999Z</time></trkpt><trkpt lat="44.1148661" lon="10.3984316"><ele>334.99999999999994</ele><time>2026-04-14T14:30:29.999Z</time></trkpt><trkpt lat="44.1148164" lon="10.3984932"><ele>335.0</ele><time>2026-04-14T14:30:31Z</time></trkpt><trkpt lat="44.1147729" lon="10.3985603"><ele>335.0</ele><time>2026-04-14T14:30:32Z</time></trkpt><trkpt lat="44.1147324" lon="10.3986381"><ele>335.0</ele><time>2026-04-14T14:30:32.999Z</time></trkpt><trkpt lat="44.1146936" lon="10.3987148"><ele>335.0</ele><time>2026-04-14T14:30:33.999Z</time></trkpt><trkpt lat="44.1146538" lon="10.3987912"><ele>334.99999999999994</ele><time>2026-04-14T14:30:34.999Z</time></trkpt><trkpt lat="44.1146136" lon="10.3988692"><ele>335.0</ele><time>2026-04-14T14:30:36Z</time></trkpt><trkpt lat="44.1145774" lon="10.3989474"><ele>332.5</ele><time>2026-04-14T14:30:37Z</time></trkpt><trkpt lat="44.114541" lon="10.399021"><ele>330.0</ele><time>2026-04-14T14:30:38Z</time></trkpt><trkpt lat="44.1145057" lon="10.3990963"><ele>327.5</ele><time>2026-04-14T14:30:39Z</time></trkpt><trkpt lat="44.1144617" lon="10.3991723"><ele>325.0</ele><time>2026-04-14T14:30:40Z</time></trkpt><trkpt lat="44.1143606" lon="10.3992924"><ele>322.5</ele><time>2026-04-14T14:30:42Z</time></trkpt><trkpt lat="44.1143007" lon="10.3993466"><ele>320.0</ele><time>2026-04-14T14:30:43Z</time></trkpt><trkpt lat="44.1142398" lon="10.3993882"><ele>320.0</ele><time>2026-04-14T14:30:43.999Z</time></trkpt><trkpt lat="44.1141781" lon="10.3994264"><ele>320.0</ele><time>2026-04-14T14:30:45Z</time></trkpt><trkpt lat="44.1141115" lon="10.3994543"><ele>320.0</ele><time>2026-04-14T14:30:45.999Z</time></trkpt><trkpt lat="44.114047" lon="10.3994804"><ele>320.0</ele><time>2026-04-14T14:30:47Z</time></trkpt><trkpt lat="44.1139821" lon="10.3995105"><ele>320.0</ele><time>2026-04-14T14:30:48Z</time></trkpt><trkpt lat="44.1138667" lon="10.3995794"><ele>320.0</ele><time>2026-04-14T14:30:50Z</time></trkpt><trkpt lat="44.113814" lon="10.3996295"><ele>320.0</ele><time>2026-04-14T14:30:51Z</time></trkpt><trkpt lat="44.1137711" lon="10.399699"><ele>320.0</ele><time>2026-04-14T14:30:52Z</time></trkpt><trkpt lat="44.1137399" lon="10.3997778"><ele>320.0</ele><time>2026-04-14T14:30:52.999Z</time></trkpt><trkpt lat="44.1137023" lon="10.3998623"><ele>320.0</ele><time>2026-04-14T14:30:54Z</time></trkpt><trkpt lat="44.1136666" lon="10.3999416"><ele>320.0</ele><time>2026-04-14T14:30:55Z</time></trkpt><trkpt lat="44.1136335" lon="10.4000201"><ele>320.0</ele><time>2026-04-14T14:30:55.999Z</time></trkpt><trkpt lat="44.1135993" lon="10.4000987"><ele>320.0</ele><time>2026-04-14T14:30:56.999Z</time></trkpt><trkpt lat="44.113568" lon="10.4001799"><ele>320.0</ele><time>2026-04-14T14:30:58Z</time></trkpt><trkpt lat="44.1135367" lon="10.4002651"><ele>320.0</ele><time>2026-04-14T14:30:59Z</time></trkpt><trkpt lat="44.1134999" lon="10.4003425"><ele>320.0</ele><time>2026-04-14T14:31:00Z</time></trkpt><trkpt lat="44.1134658" lon="10.4004221"><ele>320.0</ele><time>2026-04-14T14:31:01Z</time></trkpt><trkpt lat="44.113432" lon="10.4004963"><ele>320.0</ele><time>2026-04-14T14:31:01.999Z</time></trkpt><trkpt lat="44.1133955" lon="10.4005727"><ele>320.0</ele><time>2026-04-14T14:31:03Z</time></trkpt><trkpt lat="44.1133561" lon="10.4006484"><ele>320.0</ele><time>2026-04-14T14:31:04Z</time></trkpt><trkpt lat="44.1133168" lon="10.4007228"><ele>321.0</ele><time>2026-04-14T14:31:04.999Z</time></trkpt><trkpt lat="44.1132784" lon="10.4007949"><ele>322.0</ele><time>2026-04-14T14:31:05.999Z</time></trkpt><trkpt lat="44.1132424" lon="10.4008691"><ele>323.0</ele><time>2026-04-14T14:31:07Z</time></trkpt><trkpt lat="44.1131738" lon="10.4010226"><ele>324.0</ele><time>2026-04-14T14:31:09Z</time></trkpt><trkpt lat="44.1131345" lon="10.401092"><ele>325.0</ele><time>2026-04-14T14:31:10Z</time></trkpt><trkpt lat="44.113099" lon="10.4011753"><ele>326.0</ele><time>2026-04-14T14:31:11Z</time></trkpt><trkpt lat="44.1130642" lon="10.4012574"><ele>324.0</ele><time>2026-04-14T14:31:11.999Z</time></trkpt><trkpt lat="44.1130288" lon="10.4013329"><ele>322.0</ele><time>2026-04-14T14:31:13Z</time></trkpt><trkpt lat="44.1129945" lon="10.401417"><ele>320.0</ele><time>2026-04-14T14:31:14Z</time></trkpt><trkpt lat="44.1129601" lon="10.4015033"><ele>318.0</ele><time>2026-04-14T14:31:15Z</time></trkpt><trkpt lat="44.1129276" lon="10.4015867"><ele>316.0</ele><time>2026-04-14T14:31:16Z</time></trkpt><trkpt lat="44.1128945" lon="10.401662"><ele>314.0</ele><time>2026-04-14T14:31:17Z</time></trkpt><trkpt lat="44.1128549" lon="10.4017392"><ele>312.0</ele><time>2026-04-14T14:31:18Z</time></trkpt><trkpt lat="44.1128207" lon="10.4018171"><ele>312.0</ele><time>2026-04-14T14:31:19Z</time></trkpt><trkpt lat="44.1127895" lon="10.4018943"><ele>312.0</ele><time>2026-04-14T14:31:19.999Z</time></trkpt><trkpt lat="44.112757" lon="10.4019768"><ele>312.0</ele><time>2026-04-14T14:31:21Z</time></trkpt><trkpt lat="44.1127216" lon="10.4020531"><ele>312.0</ele><time>2026-04-14T14:31:21.999Z</time></trkpt><trkpt lat="44.1126837" lon="10.4021264"><ele>312.0</ele><time>2026-04-14T14:31:22.999Z</time></trkpt><trkpt lat="44.1126461" lon="10.4022034"><ele>312.0</ele><time>2026-04-14T14:31:24Z</time></trkpt><trkpt lat="44.112606" lon="10.4022713"><ele>312.0</ele><time>2026-04-14T14:31:24.999Z</time></trkpt><trkpt lat="44.1125154" lon="10.4023808"><ele>311.0</ele><time>2026-04-14T14:31:26.999Z</time></trkpt><trkpt lat="44.1124629" lon="10.4024382"><ele>310.0</ele><time>2026-04-14T14:31:27.999Z</time></trkpt><trkpt lat="44.1124104" lon="10.4024953"><ele>309.0</ele><time>2026-04-14T14:31:28.999Z</time></trkpt><trkpt lat="44.1123624" lon="10.4025539"><ele>308.0</ele><time>2026-04-14T14:31:30Z</time></trkpt><trkpt lat="44.1123094" lon="10.4026054"><ele>307.0</ele><time>2026-04-14T14:31:31Z</time></trkpt><trkpt lat="44.1122559" lon="10.4026571"><ele>306.0</ele><time>2026-04-14T14:31:31.999Z</time></trkpt><trkpt lat="44.1122023" lon="10.4027095"><ele>305.0</ele><time>2026-04-14T14:31:33Z</time></trkpt><trkpt lat="44.1121492" lon="10.4027591"><ele>305.1666666666667</ele><time>2026-04-14T14:31:34Z</time></trkpt><trkpt lat="44.1120948" lon="10.4028082"><ele>305.33333333333337</ele><time>2026-04-14T14:31:34.999Z</time></trkpt><trkpt lat="44.1120438" lon="10.4028608"><ele>305.5</ele><time>2026-04-14T14:31:36Z</time></trkpt><trkpt lat="44.1119893" lon="10.4029086"><ele>305.6666666666667</ele><time>2026-04-14T14:31:36.999Z</time></trkpt><trkpt lat="44.1118957" lon="10.4030102"><ele>305.8333333333333</ele><time>2026-04-14T14:31:39Z</time></trkpt><trkpt lat="44.111822" lon="10.4031248"><ele>306.0</ele><time>2026-04-14T14:31:41Z</time></trkpt><trkpt lat="44.1117705" lon="10.4032798"><ele>306.0</ele><time>2026-04-14T14:31:43Z</time></trkpt><trkpt lat="44.1117169" lon="10.4034314"><ele>306.0</ele><time>2026-04-14T14:31:45Z</time></trkpt><trkpt lat="44.1116933" lon="10.4035136"><ele>306.0</ele><time>2026-04-14T14:31:45.999Z</time></trkpt><trkpt lat="44.1116436" lon="10.4036742"><ele>306.0</ele><time>2026-04-14T14:31:48Z</time></trkpt><trkpt lat="44.1115944" lon="10.4038314"><ele>306.0</ele><time>2026-04-14T14:31:50Z</time></trkpt><trkpt lat="44.1115468" lon="10.4039823"><ele>307.25</ele><time>2026-04-14T14:31:52Z</time></trkpt><trkpt lat="44.1115019" lon="10.4041368"><ele>308.5</ele><time>2026-04-14T14:31:54Z</time></trkpt><trkpt lat="44.1114468" lon="10.4042921"><ele>309.75</ele><time>2026-04-14T14:31:56Z</time></trkpt><trkpt lat="44.1113932" lon="10.4044415"><ele>311.0</ele><time>2026-04-14T14:31:57.999Z</time></trkpt><trkpt lat="44.1113155" lon="10.4045744"><ele>309.8</ele><time>2026-04-14T14:31:59.999Z</time></trkpt><trkpt lat="44.111245" lon="10.4046914"><ele>308.6</ele><time>2026-04-14T14:32:01.999Z</time></trkpt><trkpt lat="44.1112156" lon="10.4048098"><ele>307.4</ele><time>2026-04-14T14:32:04Z</time></trkpt><trkpt lat="44.1112609" lon="10.4049418"><ele>306.2</ele><time>2026-04-14T14:32:05.999Z</time></trkpt><trkpt lat="44.1113606" lon="10.4050106"><ele>305.0</ele><time>2026-04-14T14:32:08Z</time></trkpt><trkpt lat="44.1114236" lon="10.405003"><ele>305.0</ele><time>2026-04-14T14:32:09Z</time></trkpt><trkpt lat="44.1114831" lon="10.4049679"><ele>305.0</ele><time>2026-04-14T14:32:10Z</time></trkpt><trkpt lat="44.1115369" lon="10.4049053"><ele>305.0</ele><time>2026-04-14T14:32:11Z</time></trkpt><trkpt lat="44.1115911" lon="10.4048369"><ele>305.0</ele><time>2026-04-14T14:32:11.999Z</time></trkpt><trkpt lat="44.1116363" lon="10.4047557"><ele>305.0</ele><time>2026-04-14T14:32:13Z</time></trkpt><trkpt lat="44.1116866" lon="10.4046781"><ele>305.0</ele><time>2026-04-14T14:32:14Z</time></trkpt><trkpt lat="44.1117392" lon="10.4046072"><ele>305.0</ele><time>2026-04-14T14:32:15Z</time></trkpt><trkpt lat="44.1117972" lon="10.4045364"><ele>303.6666666666667</ele><time>2026-04-14T14:32:15.999Z</time></trkpt><trkpt lat="44.1118567" lon="10.4044683"><ele>302.33333333333337</ele><time>2026-04-14T14:32:17Z</time></trkpt><trkpt lat="44.1119124" lon="10.4043977"><ele>301.0</ele><time>2026-04-14T14:32:18Z</time></trkpt><trkpt lat="44.1119771" lon="10.4043408"><ele>299.6666666666667</ele><time>2026-04-14T14:32:19Z</time></trkpt><trkpt lat="44.1120437" lon="10.4042729"><ele>298.3333333333333</ele><time>2026-04-14T14:32:19.999Z</time></trkpt><trkpt lat="44.1121098" lon="10.4042001"><ele>297.0</ele><time>2026-04-14T14:32:21Z</time></trkpt><trkpt lat="44.1121721" lon="10.4041244"><ele>297.0</ele><time>2026-04-14T14:32:22Z</time></trkpt><trkpt lat="44.1122381" lon="10.4040482"><ele>297.0</ele><time>2026-04-14T14:32:23Z</time></trkpt><trkpt lat="44.1123003" lon="10.4039649"><ele>297.0</ele><time>2026-04-14T14:32:24Z</time></trkpt><trkpt lat="44.1123665" lon="10.4038762"><ele>297.0</ele><time>2026-04-14T14:32:25Z</time></trkpt><trkpt lat="44.1124274" lon="10.4037791"><ele>297.0</ele><time>2026-04-14T14:32:26Z</time></trkpt><trkpt lat="44.1124867" lon="10.4036783"><ele>296.6</ele><time>2026-04-14T14:32:27Z</time></trkpt><trkpt lat="44.1125521" lon="10.4035727"><ele>296.2</ele><time>2026-04-14T14:32:27.999Z</time></trkpt><trkpt lat="44.1126206" lon="10.4034699"><ele>295.8</ele><time>2026-04-14T14:32:28.999Z</time></trkpt><trkpt lat="44.112693" lon="10.4033675"><ele>295.4</ele><time>2026-04-14T14:32:29.999Z</time></trkpt><trkpt lat="44.1127708" lon="10.4032675"><ele>295.0</ele><time>2026-04-14T14:32:31Z</time></trkpt><trkpt lat="44.1128541" lon="10.4031684"><ele>295.0</ele><time>2026-04-14T14:32:32Z</time></trkpt><trkpt lat="44.1129531" lon="10.4030809"><ele>295.0</ele><time>2026-04-14T14:32:32.999Z</time></trkpt><trkpt lat="44.1130585" lon="10.403008"><ele>295.0</ele><time>2026-04-14T14:32:34Z</time></trkpt><trkpt lat="44.1131748" lon="10.4029373"><ele>295.0</ele><time>2026-04-14T14:32:35Z</time></trkpt><trkpt lat="44.1132874" lon="10.402873"><ele>292.5</ele><time>2026-04-14T14:32:36Z</time></trkpt><trkpt lat="44.1133976" lon="10.4028153"><ele>290.0</ele><time>2026-04-14T14:32:37Z</time></trkpt><trkpt lat="44.1135103" lon="10.4027481"><ele>287.5</ele><time>2026-04-14T14:32:37.999Z</time></trkpt><trkpt lat="44.1136145" lon="10.4026692"><ele>285.0</ele><time>2026-04-14T14:32:39Z</time></trkpt><trkpt lat="44.1137163" lon="10.4025885"><ele>285.0</ele><time>2026-04-14T14:32:40Z</time></trkpt><trkpt lat="44.1138038" lon="10.4025276"><ele>285.0</ele><time>2026-04-14T14:32:40.999Z</time></trkpt><trkpt lat="44.113878" lon="10.4024894"><ele>285.0</ele><time>2026-04-14T14:32:41.999Z</time></trkpt><trkpt lat="44.1139459" lon="10.402462"><ele>285.0</ele><time>2026-04-14T14:32:42.999Z</time></trkpt><trkpt lat="44.1140092" lon="10.4024674"><ele>285.0</ele><time>2026-04-14T14:32:43.999Z</time></trkpt><trkpt lat="44.1140685" lon="10.402506"><ele>285.0</ele><time>2026-04-14T14:32:45Z</time></trkpt><trkpt lat="44.1141181" lon="10.4025622"><ele>285.0</ele><time>2026-04-14T14:32:46Z</time></trkpt><trkpt lat="44.1141604" lon="10.4026301"><ele>283.3333333333333</ele><time>2026-04-14T14:32:47Z</time></trkpt><trkpt lat="44.1141964" lon="10.4027027"><ele>281.6666666666667</ele><time>2026-04-14T14:32:47.999Z</time></trkpt><trkpt lat="44.1142308" lon="10.4027764"><ele>280.0</ele><time>2026-04-14T14:32:48.999Z</time></trkpt><trkpt lat="44.114321" lon="10.4028571"><ele>278.33333333333337</ele><time>2026-04-14T14:32:51Z</time></trkpt><trkpt lat="44.1144258" lon="10.4028347"><ele>276.6666666666667</ele><time>2026-04-14T14:32:53Z</time></trkpt><trkpt lat="44.1145079" lon="10.4027555"><ele>275.0</ele><time>2026-04-14T14:32:55Z</time></trkpt><trkpt lat="44.1145793" lon="10.4026832"><ele>275.0</ele><time>2026-04-14T14:32:56.999Z</time></trkpt><trkpt lat="44.1146293" lon="10.4026235"><ele>275.0</ele><time>2026-04-14T14:32:59Z</time></trkpt><trkpt lat="44.1146812" lon="10.4025707"><ele>275.0</ele><time>2026-04-14T14:33:01Z</time></trkpt><trkpt lat="44.1147482" lon="10.4025037"><ele>275.0</ele><time>2026-04-14T14:33:04Z</time></trkpt><trkpt lat="44.1148162" lon="10.402432"><ele>275.0</ele><time>2026-04-14T14:33:07Z</time></trkpt><trkpt lat="44.1148787" lon="10.4023642"><ele>275.0</ele><time>2026-04-14T14:33:10Z</time></trkpt><trkpt lat="44.1149466" lon="10.4023072"><ele>274.83333333333337</ele><time>2026-04-14T14:33:13Z</time></trkpt><trkpt lat="44.1150115" lon="10.402243"><ele>274.6666666666667</ele><time>2026-04-14T14:33:16Z</time></trkpt><trkpt lat="44.1150825" lon="10.4021801"><ele>274.5</ele><time>2026-04-14T14:33:19Z</time></trkpt><trkpt lat="44.1151605" lon="10.4021106"><ele>274.3333333333333</ele><time>2026-04-14T14:33:22Z</time></trkpt><trkpt lat="44.1152188" lon="10.4020572"><ele>274.16666666666663</ele><time>2026-04-14T14:33:23.999Z</time></trkpt><trkpt lat="44.1152747" lon="10.4019972"><ele>274.0</ele><time>2026-04-14T14:33:26Z</time></trkpt><trkpt lat="44.1153366" lon="10.4019294"><ele>274.66666666666663</ele><time>2026-04-14T14:33:28Z</time></trkpt><trkpt lat="44.1154036" lon="10.401855"><ele>275.3333333333333</ele><time>2026-04-14T14:33:30Z</time></trkpt><trkpt lat="44.1154721" lon="10.4017821"><ele>276.0</ele><time>2026-04-14T14:33:32Z</time></trkpt><trkpt lat="44.1155404" lon="10.4017104"><ele>276.6666666666667</ele><time>2026-04-14T14:33:34Z</time></trkpt><trkpt lat="44.115604" lon="10.4016371"><ele>277.33333333333337</ele><time>2026-04-14T14:33:36Z</time></trkpt><trkpt lat="44.1156665" lon="10.4015737"><ele>278.0</ele><time>2026-04-14T14:33:38Z</time></trkpt><trkpt lat="44.1157321" lon="10.4015161"><ele>277.83333333333337</ele><time>2026-04-14T14:33:40Z</time></trkpt><trkpt lat="44.115796" lon="10.4014663"><ele>277.6666666666667</ele><time>2026-04-14T14:33:41.999Z</time></trkpt><trkpt lat="44.1158574" lon="10.4014226"><ele>277.5</ele><time>2026-04-14T14:33:43.999Z</time></trkpt><trkpt lat="44.1159462" lon="10.401415"><ele>277.3333333333333</ele><time>2026-04-14T14:33:47Z</time></trkpt><trkpt lat="44.1160357" lon="10.4014424"><ele>277.16666666666663</ele><time>2026-04-14T14:33:50Z</time></trkpt><trkpt lat="44.1160894" lon="10.4014889"><ele>277.0</ele><time>2026-04-14T14:33:51.999Z</time></trkpt><trkpt lat="44.1161323" lon="10.4015556"><ele>277.0</ele><time>2026-04-14T14:33:54Z</time></trkpt><trkpt lat="44.116191" lon="10.4016558"><ele>277.0</ele><time>2026-04-14T14:33:57Z</time></trkpt><trkpt lat="44.1162385" lon="10.4017562"><ele>277.0</ele><time>2026-04-14T14:33:59.999Z</time></trkpt><trkpt lat="44.116287" lon="10.4018596"><ele>277.0</ele><time>2026-04-14T14:34:03Z</time></trkpt><trkpt lat="44.1163354" lon="10.4019527"><ele>277.0</ele><time>2026-04-14T14:34:06Z</time></trkpt><trkpt lat="44.116385" lon="10.402043"><ele>277.0</ele><time>2026-04-14T14:34:08.999Z</time></trkpt><trkpt lat="44.1164395" lon="10.4021371"><ele>277.0</ele><time>2026-04-14T14:34:11.999Z</time></trkpt><trkpt lat="44.1164963" lon="10.4022322"><ele>277.0</ele><time>2026-04-14T14:34:15Z</time></trkpt><trkpt lat="44.1165533" lon="10.4023216"><ele>277.0</ele><time>2026-04-14T14:34:17.999Z</time></trkpt><trkpt lat="44.1166084" lon="10.4024045"><ele>277.0</ele><time>2026-04-14T14:34:20.999Z</time></trkpt><trkpt lat="44.1166619" lon="10.4024868"><ele>277.0</ele><time>2026-04-14T14:34:24Z</time></trkpt><trkpt lat="44.1167128" lon="10.4025661"><ele>277.0</ele><time>2026-04-14T14:34:27Z</time></trkpt><trkpt lat="44.1167671" lon="10.4026489"><ele>277.0</ele><time>2026-04-14T14:34:30Z</time></trkpt><trkpt lat="44.1168233" lon="10.4027323"><ele>277.0</ele><time>2026-04-14T14:34:33Z</time></trkpt><trkpt lat="44.1168797" lon="10.402824"><ele>277.0</ele><time>2026-04-14T14:34:36Z</time></trkpt><trkpt lat="44.1169385" lon="10.4029148"><ele>277.0</ele><time>2026-04-14T14:34:38.999Z</time></trkpt><trkpt lat="44.116997" lon="10.4030078"><ele>277.0</ele><time>2026-04-14T14:34:42Z</time></trkpt><trkpt lat="44.1170551" lon="10.4030938"><ele>277.0</ele><time>2026-04-14T14:34:45Z</time></trkpt><trkpt lat="44.1171109" lon="10.4031779"><ele>276.8333333333333</ele><time>2026-04-14T14:34:48Z</time></trkpt><trkpt lat="44.1171645" lon="10.4032693"><ele>276.66666666666663</ele><time>2026-04-14T14:34:50.999Z</time></trkpt><trkpt lat="44.11722" lon="10.403354"><ele>276.5</ele><time>2026-04-14T14:34:54Z</time></trkpt><trkpt lat="44.1172757" lon="10.403444"><ele>276.3333333333333</ele><time>2026-04-14T14:34:57Z</time></trkpt><trkpt lat="44.1173328" lon="10.403536"><ele>276.1666666666667</ele><time>2026-04-14T14:34:59.999Z</time></trkpt><trkpt lat="44.1173897" lon="10.4036251"><ele>276.0</ele><time>2026-04-14T14:35:02.999Z</time></trkpt><trkpt lat="44.1174443" lon="10.4037127"><ele>276.0</ele><time>2026-04-14T14:35:05.999Z</time></trkpt><trkpt lat="44.1174965" lon="10.4037978"><ele>276.0</ele><time>2026-04-14T14:35:09Z</time></trkpt><trkpt lat="44.1175579" lon="10.4039021"><ele>276.0</ele><time>2026-04-14T14:35:11.999Z</time></trkpt><trkpt lat="44.1176084" lon="10.4039856"><ele>276.0</ele><time>2026-04-14T14:35:14Z</time></trkpt><trkpt lat="44.1176773" lon="10.4040781"><ele>276.0</ele><time>2026-04-14T14:35:16Z</time></trkpt><trkpt lat="44.1177526" lon="10.4041746"><ele>276.40000000000003</ele><time>2026-04-14T14:35:18Z</time></trkpt><trkpt lat="44.117821" lon="10.4042765"><ele>276.8</ele><time>2026-04-14T14:35:20Z</time></trkpt><trkpt lat="44.1178863" lon="10.4043757"><ele>277.20000000000005</ele><time>2026-04-14T14:35:21.999Z</time></trkpt><trkpt lat="44.1179429" lon="10.4044735"><ele>277.6</ele><time>2026-04-14T14:35:24Z</time></trkpt><trkpt lat="44.1180048" lon="10.4045617"><ele>278.0</ele><time>2026-04-14T14:35:26Z</time></trkpt><trkpt lat="44.1180594" lon="10.4046491"><ele>278.0</ele><time>2026-04-14T14:35:28Z</time></trkpt><trkpt lat="44.1181098" lon="10.404727"><ele>278.0</ele><time>2026-04-14T14:35:30Z</time></trkpt><trkpt lat="44.1181521" lon="10.4048032"><ele>278.0</ele><time>2026-04-14T14:35:32Z</time></trkpt><trkpt lat="44.1182167" lon="10.4048995"><ele>278.0</ele><time>2026-04-14T14:35:35Z</time></trkpt><trkpt lat="44.1182558" lon="10.4049704"><ele>278.0</ele><time>2026-04-14T14:35:36.999Z</time></trkpt><trkpt lat="44.1183006" lon="10.4050413"><ele>278.0</ele><time>2026-04-14T14:35:39Z</time></trkpt><trkpt lat="44.1183446" lon="10.4051059"><ele>278.0</ele><time>2026-04-14T14:35:40.999Z</time></trkpt><trkpt lat="44.1183869" lon="10.4051711"><ele>277.83333333333337</ele><time>2026-04-14T14:35:42.999Z</time></trkpt><trkpt lat="44.1184431" lon="10.4052593"><ele>277.6666666666667</ele><time>2026-04-14T14:35:46Z</time></trkpt><trkpt lat="44.1184984" lon="10.4053593"><ele>277.5</ele><time>2026-04-14T14:35:48.999Z</time></trkpt><trkpt lat="44.1185574" lon="10.4054571"><ele>277.3333333333333</ele><time>2026-04-14T14:35:52Z</time></trkpt><trkpt lat="44.118599" lon="10.405524"><ele>277.16666666666663</ele><time>2026-04-14T14:35:54Z</time></trkpt><trkpt lat="44.1186435" lon="10.4055988"><ele>277.0</ele><time>2026-04-14T14:35:55.999Z</time></trkpt><trkpt lat="44.1186884" lon="10.4056793"><ele>277.0</ele><time>2026-04-14T14:35:58Z</time></trkpt><trkpt lat="44.1187369" lon="10.4057551"><ele>277.0</ele><time>2026-04-14T14:36:00Z</time></trkpt><trkpt lat="44.1187806" lon="10.4058334"><ele>277.0</ele><time>2026-04-14T14:36:02Z</time></trkpt><trkpt lat="44.1188239" lon="10.4059076"><ele>277.0</ele><time>2026-04-14T14:36:04Z</time></trkpt><trkpt lat="44.1188677" lon="10.40598"><ele>277.0</ele><time>2026-04-14T14:36:06Z</time></trkpt><trkpt lat="44.1189035" lon="10.4060562"><ele>277.0</ele><time>2026-04-14T14:36:07.999Z</time></trkpt><trkpt lat="44.1189416" lon="10.4061317"><ele>277.0</ele><time>2026-04-14T14:36:09.999Z</time></trkpt><trkpt lat="44.1189849" lon="10.4062017"><ele>277.0</ele><time>2026-04-14T14:36:12Z</time></trkpt><trkpt lat="44.1190261" lon="10.4063046"><ele>277.0</ele><time>2026-04-14T14:36:15Z</time></trkpt><trkpt lat="44.1189838" lon="10.4064029"><ele>277.0</ele><time>2026-04-14T14:36:18Z</time></trkpt><trkpt lat="44.1189271" lon="10.4064553"><ele>277.0</ele><time>2026-04-14T14:36:20Z</time></trkpt><trkpt lat="44.118874" lon="10.4065064"><ele>277.0</ele><time>2026-04-14T14:36:22Z</time></trkpt><trkpt lat="44.1187961" lon="10.4065685"><ele>277.0</ele><time>2026-04-14T14:36:24.999Z</time></trkpt><trkpt lat="44.1187463" lon="10.4066225"><ele>276.7142857142857</ele><time>2026-04-14T14:36:27Z</time></trkpt><trkpt lat="44.1186902" lon="10.4066671"><ele>276.4285714285714</ele><time>2026-04-14T14:36:29Z</time></trkpt><trkpt lat="44.1186335" lon="10.4067208"><ele>276.1428571428571</ele><time>2026-04-14T14:36:30.999Z</time></trkpt><trkpt lat="44.1185755" lon="10.4067689"><ele>275.85714285714283</ele><time>2026-04-14T14:36:33Z</time></trkpt><trkpt lat="44.1185192" lon="10.4068191"><ele>275.57142857142856</ele><time>2026-04-14T14:36:35Z</time></trkpt><trkpt lat="44.1184578" lon="10.4068705"><ele>275.2857142857143</ele><time>2026-04-14T14:36:37Z</time></trkpt><trkpt lat="44.1183935" lon="10.406921"><ele>275.0</ele><time>2026-04-14T14:36:38.999Z</time></trkpt><trkpt lat="44.1183277" lon="10.4069759"><ele>275.0</ele><time>2026-04-14T14:36:40.999Z</time></trkpt><trkpt lat="44.1182649" lon="10.4070372"><ele>275.0</ele><time>2026-04-14T14:36:42.999Z</time></trkpt><trkpt lat="44.1182064" lon="10.4070958"><ele>275.0</ele><time>2026-04-14T14:36:45Z</time></trkpt><trkpt lat="44.1181516" lon="10.4071525"><ele>275.0</ele><time>2026-04-14T14:36:47Z</time></trkpt><trkpt lat="44.1180952" lon="10.4072059"><ele>275.0</ele><time>2026-04-14T14:36:48.999Z</time></trkpt><trkpt lat="44.1180366" lon="10.4072576"><ele>275.0</ele><time>2026-04-14T14:36:51Z</time></trkpt><trkpt lat="44.1179726" lon="10.4073192"><ele>275.0</ele><time>2026-04-14T14:36:53Z</time></trkpt><trkpt lat="44.1179011" lon="10.4073863"><ele>274.8</ele><time>2026-04-14T14:36:55Z</time></trkpt><trkpt lat="44.1178231" lon="10.4074653"><ele>274.6</ele><time>2026-04-14T14:36:57Z</time></trkpt><trkpt lat="44.1177456" lon="10.4075452"><ele>274.4</ele><time>2026-04-14T14:36:59Z</time></trkpt><trkpt lat="44.1176696" lon="10.4076224"><ele>274.2</ele><time>2026-04-14T14:37:01Z</time></trkpt><trkpt lat="44.117598" lon="10.4077049"><ele>274.0</ele><time>2026-04-14T14:37:03Z</time></trkpt><trkpt lat="44.1175294" lon="10.4077837"><ele>274.0</ele><time>2026-04-14T14:37:05Z</time></trkpt><trkpt lat="44.1174675" lon="10.4078552"><ele>274.0</ele><time>2026-04-14T14:37:07Z</time></trkpt><trkpt lat="44.1173995" lon="10.4079301"><ele>274.0</ele><time>2026-04-14T14:37:09Z</time></trkpt><trkpt lat="44.1173256" lon="10.4079984"><ele>274.0</ele><time>2026-04-14T14:37:10.999Z</time></trkpt><trkpt lat="44.1172566" lon="10.4080636"><ele>274.0</ele><time>2026-04-14T14:37:13Z</time></trkpt><trkpt lat="44.1171902" lon="10.4081216"><ele>274.0</ele><time>2026-04-14T14:37:15Z</time></trkpt><trkpt lat="44.1171217" lon="10.4081544"><ele>274.00000000000006</ele><time>2026-04-14T14:37:17Z</time></trkpt><trkpt lat="44.117053" lon="10.4081606"><ele>274.0</ele><time>2026-04-14T14:37:18.999Z</time></trkpt><trkpt lat="44.1169894" lon="10.4081569"><ele>274.0</ele><time>2026-04-14T14:37:20.999Z</time></trkpt><trkpt lat="44.116918" lon="10.4081739"><ele>274.0</ele><time>2026-04-14T14:37:23Z</time></trkpt><trkpt lat="44.1168573" lon="10.4082317"><ele>274.0</ele><time>2026-04-14T14:37:25Z</time></trkpt><trkpt lat="44.1167961" lon="10.4083161"><ele>274.00000000000006</ele><time>2026-04-14T14:37:26.999Z</time></trkpt><trkpt lat="44.1167428" lon="10.4083888"><ele>274.0</ele><time>2026-04-14T14:37:29Z</time></trkpt><trkpt lat="44.116676" lon="10.4084521"><ele>274.0</ele><time>2026-04-14T14:37:32Z</time></trkpt><trkpt lat="44.1166204" lon="10.4085093"><ele>274.0</ele><time>2026-04-14T14:37:35Z</time></trkpt><trkpt lat="44.1165571" lon="10.4085582"><ele>274.0</ele><time>2026-04-14T14:37:38Z</time></trkpt><trkpt lat="44.1164803" lon="10.4086052"><ele>274.0</ele><time>2026-04-14T14:37:40.999Z</time></trkpt><trkpt lat="44.1164072" lon="10.4086558"><ele>274.0</ele><time>2026-04-14T14:37:44Z</time></trkpt><trkpt lat="44.1163311" lon="10.4087042"><ele>274.0</ele><time>2026-04-14T14:37:47Z</time></trkpt><trkpt lat="44.1162536" lon="10.4087526"><ele>274.16666666666663</ele><time>2026-04-14T14:37:50Z</time></trkpt><trkpt lat="44.1161749" lon="10.4087947"><ele>274.3333333333333</ele><time>2026-04-14T14:37:52.999Z</time></trkpt><trkpt lat="44.1160921" lon="10.4088354"><ele>274.5</ele><time>2026-04-14T14:37:56Z</time></trkpt><trkpt lat="44.1160099" lon="10.4088647"><ele>274.6666666666667</ele><time>2026-04-14T14:37:58.999Z</time></trkpt><trkpt lat="44.1159279" lon="10.4088979"><ele>274.83333333333337</ele><time>2026-04-14T14:38:02Z</time></trkpt><trkpt lat="44.1158423" lon="10.4089212"><ele>275.0</ele><time>2026-04-14T14:38:04.999Z</time></trkpt><trkpt lat="44.1157574" lon="10.4089511"><ele>275.33333333333337</ele><time>2026-04-14T14:38:08Z</time></trkpt><trkpt lat="44.1156809" lon="10.4090108"><ele>275.6666666666667</ele><time>2026-04-14T14:38:11Z</time></trkpt><trkpt lat="44.1156115" lon="10.4090908"><ele>276.0</ele><time>2026-04-14T14:38:13.999Z</time></trkpt><trkpt lat="44.1155735" lon="10.4092119"><ele>276.3333333333333</ele><time>2026-04-14T14:38:16.999Z</time></trkpt><trkpt lat="44.1155639" lon="10.4093028"><ele>276.66666666666663</ele><time>2026-04-14T14:38:19Z</time></trkpt><trkpt lat="44.1155713" lon="10.4094163"><ele>277.0</ele><time>2026-04-14T14:38:22Z</time></trkpt><trkpt lat="44.1155963" lon="10.409504"><ele>277.0</ele><time>2026-04-14T14:38:25Z</time></trkpt><trkpt lat="44.1156326" lon="10.4095942"><ele>277.0</ele><time>2026-04-14T14:38:28Z</time></trkpt><trkpt lat="44.1156736" lon="10.4096998"><ele>277.0</ele><time>2026-04-14T14:38:31Z</time></trkpt><trkpt lat="44.1157157" lon="10.4098107"><ele>277.0</ele><time>2026-04-14T14:38:33.999Z</time></trkpt><trkpt lat="44.1157617" lon="10.4099199"><ele>277.0</ele><time>2026-04-14T14:38:36.999Z</time></trkpt><trkpt lat="44.115834" lon="10.409974"><ele>277.0</ele><time>2026-04-14T14:38:40Z</time></trkpt><trkpt lat="44.1159145" lon="10.4099944"><ele>278.66666666666663</ele><time>2026-04-14T14:38:42.999Z</time></trkpt><trkpt lat="44.1159973" lon="10.409989"><ele>280.3333333333333</ele><time>2026-04-14T14:38:46Z</time></trkpt><trkpt lat="44.1160779" lon="10.4099509"><ele>282.0</ele><time>2026-04-14T14:38:49Z</time></trkpt><trkpt lat="44.116161" lon="10.4098997"><ele>283.6666666666667</ele><time>2026-04-14T14:38:52Z</time></trkpt><trkpt lat="44.1162179" lon="10.4098581"><ele>285.33333333333337</ele><time>2026-04-14T14:38:54Z</time></trkpt><trkpt lat="44.1162802" lon="10.4098137"><ele>287.0</ele><time>2026-04-14T14:38:56Z</time></trkpt><trkpt lat="44.1163462" lon="10.4097916"><ele>287.0</ele><time>2026-04-14T14:38:57.999Z</time></trkpt><trkpt lat="44.1164124" lon="10.4098403"><ele>287.0</ele><time>2026-04-14T14:39:01Z</time></trkpt><trkpt lat="44.1164558" lon="10.4099084"><ele>287.0</ele><time>2026-04-14T14:39:03.999Z</time></trkpt><trkpt lat="44.1165157" lon="10.409976"><ele>287.0</ele><time>2026-04-14T14:39:06.999Z</time></trkpt><trkpt lat="44.116605" lon="10.4099688"><ele>287.0</ele><time>2026-04-14T14:39:10Z</time></trkpt><trkpt lat="44.1166686" lon="10.4099471"><ele>287.0</ele><time>2026-04-14T14:39:12Z</time></trkpt><trkpt lat="44.1167314" lon="10.4099378"><ele>287.0</ele><time>2026-04-14T14:39:13.999Z</time></trkpt><trkpt lat="44.116794" lon="10.4099215"><ele>287.6666666666667</ele><time>2026-04-14T14:39:16Z</time></trkpt><trkpt lat="44.1168555" lon="10.4098974"><ele>288.33333333333337</ele><time>2026-04-14T14:39:18Z</time></trkpt><trkpt lat="44.1169176" lon="10.4098762"><ele>289.0</ele><time>2026-04-14T14:39:19.999Z</time></trkpt><trkpt lat="44.1170082" lon="10.409844"><ele>289.6666666666667</ele><time>2026-04-14T14:39:23Z</time></trkpt><trkpt lat="44.1170711" lon="10.4098191"><ele>290.3333333333333</ele><time>2026-04-14T14:39:25Z</time></trkpt><trkpt lat="44.1171601" lon="10.4097926"><ele>291.0</ele><time>2026-04-14T14:39:28Z</time></trkpt><trkpt lat="44.1172499" lon="10.4097635"><ele>291.0</ele><time>2026-04-14T14:39:30.999Z</time></trkpt><trkpt lat="44.1173377" lon="10.4097346"><ele>291.0</ele><time>2026-04-14T14:39:34Z</time></trkpt><trkpt lat="44.1174249" lon="10.4097137"><ele>291.0</ele><time>2026-04-14T14:39:36.999Z</time></trkpt><trkpt lat="44.1175182" lon="10.4096944"><ele>291.0</ele><time>2026-04-14T14:39:40Z</time></trkpt><trkpt lat="44.1176054" lon="10.4096737"><ele>291.0</ele><time>2026-04-14T14:39:42.999Z</time></trkpt><trkpt lat="44.1176831" lon="10.4096512"><ele>291.0</ele><time>2026-04-14T14:39:45.999Z</time></trkpt><trkpt lat="44.1177481" lon="10.4096416"><ele>290.5</ele><time>2026-04-14T14:39:49Z</time></trkpt><trkpt lat="44.1178305" lon="10.4096389"><ele>290.0</ele><time>2026-04-14T14:39:53Z</time></trkpt><trkpt lat="44.1179086" lon="10.4096803"><ele>289.5</ele><time>2026-04-14T14:39:56.999Z</time></trkpt><trkpt lat="44.1179695" lon="10.4097284"><ele>289.0</ele><time>2026-04-14T14:40:00Z</time></trkpt><trkpt lat="44.1180331" lon="10.4097733"><ele>288.5</ele><time>2026-04-14T14:40:03Z</time></trkpt><trkpt lat="44.1180973" lon="10.4098217"><ele>288.0</ele><time>2026-04-14T14:40:07Z</time></trkpt><trkpt lat="44.1181612" lon="10.4098711"><ele>288.00000000000006</ele><time>2026-04-14T14:40:09.999Z</time></trkpt><trkpt lat="44.1182264" lon="10.4099456"><ele>288.0</ele><time>2026-04-14T14:40:14Z</time></trkpt><trkpt lat="44.1182682" lon="10.4100201"><ele>288.0</ele><time>2026-04-14T14:40:17Z</time></trkpt><trkpt lat="44.1182975" lon="10.4101159"><ele>288.0</ele><time>2026-04-14T14:40:20.999Z</time></trkpt><trkpt lat="44.1183123" lon="10.4102209"><ele>288.0</ele><time>2026-04-14T14:40:24.999Z</time></trkpt><trkpt lat="44.1183223" lon="10.4103089"><ele>288.00000000000006</ele><time>2026-04-14T14:40:28Z</time></trkpt><trkpt lat="44.118335" lon="10.4104083"><ele>288.0</ele><time>2026-04-14T14:40:32Z</time></trkpt><trkpt lat="44.1183535" lon="10.410495"><ele>290.42857142857144</ele><time>2026-04-14T14:40:35Z</time></trkpt><trkpt lat="44.1183744" lon="10.4105954"><ele>292.8571428571429</ele><time>2026-04-14T14:40:38Z</time></trkpt><trkpt lat="44.1184079" lon="10.4106853"><ele>295.28571428571433</ele><time>2026-04-14T14:40:40.999Z</time></trkpt><trkpt lat="44.1184516" lon="10.4107592"><ele>297.7142857142857</ele><time>2026-04-14T14:40:44Z</time></trkpt><trkpt lat="44.1185005" lon="10.4108258"><ele>300.1428571428571</ele><time>2026-04-14T14:40:47Z</time></trkpt><trkpt lat="44.1185498" lon="10.4108869"><ele>302.5714285714286</ele><time>2026-04-14T14:40:50Z</time></trkpt><trkpt lat="44.118604" lon="10.4109673"><ele>305.0</ele><time>2026-04-14T14:40:54Z</time></trkpt><trkpt lat="44.118657" lon="10.4110284"><ele>305.0</ele><time>2026-04-14T14:40:56.999Z</time></trkpt><trkpt lat="44.1187164" lon="10.411075"><ele>305.0</ele><time>2026-04-14T14:40:59.999Z</time></trkpt><trkpt lat="44.1187781" lon="10.4111073"><ele>305.0</ele><time>2026-04-14T14:41:03Z</time></trkpt><trkpt lat="44.1188432" lon="10.4111154"><ele>305.0</ele><time>2026-04-14T14:41:05.999Z</time></trkpt><trkpt lat="44.1189271" lon="10.411121"><ele>305.0</ele><time>2026-04-14T14:41:10Z</time></trkpt><trkpt lat="44.119005" lon="10.4111173"><ele>305.0</ele><time>2026-04-14T14:41:13.999Z</time></trkpt><trkpt lat="44.1190729" lon="10.4111111"><ele>305.0</ele><time>2026-04-14T14:41:17Z</time></trkpt><trkpt lat="44.1191566" lon="10.4111066"><ele>305.7142857142857</ele><time>2026-04-14T14:41:21Z</time></trkpt><trkpt lat="44.1192243" lon="10.4111101"><ele>306.4285714285714</ele><time>2026-04-14T14:41:24Z</time></trkpt><trkpt lat="44.11931" lon="10.4111011"><ele>307.1428571428571</ele><time>2026-04-14T14:41:28Z</time></trkpt><trkpt lat="44.119378" lon="10.411096"><ele>307.8571428571429</ele><time>2026-04-14T14:41:31Z</time></trkpt><trkpt lat="44.119457" lon="10.4111092"><ele>308.57142857142856</ele><time>2026-04-14T14:41:34.999Z</time></trkpt><trkpt lat="44.1195218" lon="10.4111102"><ele>309.2857142857143</ele><time>2026-04-14T14:41:38Z</time></trkpt><trkpt lat="44.1195861" lon="10.4111191"><ele>310.0</ele><time>2026-04-14T14:41:41Z</time></trkpt><trkpt lat="44.1196655" lon="10.411163"><ele>310.0</ele><time>2026-04-14T14:41:45Z</time></trkpt><trkpt lat="44.119722" lon="10.4112272"><ele>310.0</ele><time>2026-04-14T14:41:48Z</time></trkpt><trkpt lat="44.1197654" lon="10.411302"><ele>310.0</ele><time>2026-04-14T14:41:51Z</time></trkpt><trkpt lat="44.1197919" lon="10.411387"><ele>310.0</ele><time>2026-04-14T14:41:54Z</time></trkpt><trkpt lat="44.1198117" lon="10.4114797"><ele>310.0</ele><time>2026-04-14T14:41:57Z</time></trkpt><trkpt lat="44.1198236" lon="10.4115923"><ele>310.0</ele><time>2026-04-14T14:42:01Z</time></trkpt><trkpt lat="44.1198542" lon="10.411669"><ele>310.0</ele><time>2026-04-14T14:42:04Z</time></trkpt><trkpt lat="44.1199155" lon="10.4117104"><ele>311.7142857142857</ele><time>2026-04-14T14:42:07Z</time></trkpt><trkpt lat="44.1199888" lon="10.4116796"><ele>313.42857142857144</ele><time>2026-04-14T14:42:11Z</time></trkpt><trkpt lat="44.1200085" lon="10.4115887"><ele>315.1428571428571</ele><time>2026-04-14T14:42:13.999Z</time></trkpt><trkpt lat="44.1200153" lon="10.411487"><ele>316.8571428571429</ele><time>2026-04-14T14:42:17.999Z</time></trkpt><trkpt lat="44.1200018" lon="10.4113804"><ele>318.57142857142856</ele><time>2026-04-14T14:42:21.999Z</time></trkpt><trkpt lat="44.1199825" lon="10.4112929"><ele>320.2857142857143</ele><time>2026-04-14T14:42:25Z</time></trkpt><trkpt lat="44.1199536" lon="10.4112017"><ele>322.0</ele><time>2026-04-14T14:42:27.999Z</time></trkpt><trkpt lat="44.1199168" lon="10.411107"><ele>320.2857142857143</ele><time>2026-04-14T14:42:32Z</time></trkpt><trkpt lat="44.1198821" lon="10.4110299"><ele>318.57142857142856</ele><time>2026-04-14T14:42:35.015Z</time></trkpt><trkpt lat="44.119822" lon="10.4109532"><ele>316.8571428571429</ele><time>2026-04-14T14:42:39Z</time></trkpt><trkpt lat="44.1197572" lon="10.4108927"><ele>315.1428571428571</ele><time>2026-04-14T14:42:42.999Z</time></trkpt><trkpt lat="44.1196807" lon="10.4108778"><ele>313.42857142857144</ele><time>2026-04-14T14:42:46Z</time></trkpt><trkpt lat="44.1196088" lon="10.410872"><ele>311.7142857142857</ele><time>2026-04-14T14:42:49Z</time></trkpt><trkpt lat="44.1195387" lon="10.4108592"><ele>310.0</ele><time>2026-04-14T14:42:52Z</time></trkpt><trkpt lat="44.1194739" lon="10.4108409"><ele>310.0</ele><time>2026-04-14T14:42:54.999Z</time></trkpt><trkpt lat="44.119392" lon="10.410826"><ele>310.0</ele><time>2026-04-14T14:42:59Z</time></trkpt><trkpt lat="44.1193292" lon="10.4108083"><ele>310.0</ele><time>2026-04-14T14:43:02Z</time></trkpt><trkpt lat="44.1192633" lon="10.4107892"><ele>310.0</ele><time>2026-04-14T14:43:05Z</time></trkpt><trkpt lat="44.1192091" lon="10.4107406"><ele>310.0</ele><time>2026-04-14T14:43:08Z</time></trkpt><trkpt lat="44.1191719" lon="10.4106611"><ele>310.0</ele><time>2026-04-14T14:43:11Z</time></trkpt><trkpt lat="44.1191363" lon="10.410551"><ele>310.0</ele><time>2026-04-14T14:43:14Z</time></trkpt><trkpt lat="44.1191162" lon="10.410449"><ele>310.8333333333333</ele><time>2026-04-14T14:43:17Z</time></trkpt><trkpt lat="44.1191147" lon="10.4103306"><ele>311.66666666666663</ele><time>2026-04-14T14:43:19.999Z</time></trkpt><trkpt lat="44.1191418" lon="10.4102074"><ele>312.5</ele><time>2026-04-14T14:43:23Z</time></trkpt><trkpt lat="44.1191757" lon="10.4101313"><ele>313.3333333333333</ele><time>2026-04-14T14:43:25Z</time></trkpt><trkpt lat="44.1192222" lon="10.4100712"><ele>314.1666666666667</ele><time>2026-04-14T14:43:27Z</time></trkpt><trkpt lat="44.1192807" lon="10.4099951"><ele>315.0</ele><time>2026-04-14T14:43:29.932Z</time></trkpt><trkpt lat="44.1193384" lon="10.4099335"><ele>315.0</ele><time>2026-04-14T14:43:33Z</time></trkpt><trkpt lat="44.1194099" lon="10.4098773"><ele>315.0</ele><time>2026-04-14T14:43:36Z</time></trkpt><trkpt lat="44.1194905" lon="10.4098166"><ele>315.0</ele><time>2026-04-14T14:43:38.999Z</time></trkpt><trkpt lat="44.1195705" lon="10.4097537"><ele>315.0</ele><time>2026-04-14T14:43:42Z</time></trkpt><trkpt lat="44.1196523" lon="10.4096925"><ele>315.0</ele><time>2026-04-14T14:43:44.999Z</time></trkpt><trkpt lat="44.1197327" lon="10.4096352"><ele>315.0</ele><time>2026-04-14T14:43:47.999Z</time></trkpt><trkpt lat="44.1198129" lon="10.4095715"><ele>315.5</ele><time>2026-04-14T14:43:51Z</time></trkpt><trkpt lat="44.1198689" lon="10.4095306"><ele>316.0</ele><time>2026-04-14T14:43:53Z</time></trkpt><trkpt lat="44.1199247" lon="10.4094875"><ele>316.5</ele><time>2026-04-14T14:43:55Z</time></trkpt><trkpt lat="44.1199849" lon="10.4094453"><ele>317.0</ele><time>2026-04-14T14:43:57Z</time></trkpt><trkpt lat="44.1200639" lon="10.4093901"><ele>317.5</ele><time>2026-04-14T14:43:59.999Z</time></trkpt><trkpt lat="44.1201436" lon="10.4093282"><ele>318.0</ele><time>2026-04-14T14:44:02.999Z</time></trkpt><trkpt lat="44.120222" lon="10.409264"><ele>318.0</ele><time>2026-04-14T14:44:06Z</time></trkpt><trkpt lat="44.1203007" lon="10.409206"><ele>318.0</ele><time>2026-04-14T14:44:09Z</time></trkpt><trkpt lat="44.1203833" lon="10.4091516"><ele>318.0</ele><time>2026-04-14T14:44:12Z</time></trkpt><trkpt lat="44.1204621" lon="10.4091117"><ele>318.0</ele><time>2026-04-14T14:44:14.999Z</time></trkpt><trkpt lat="44.1205339" lon="10.4090879"><ele>318.0</ele><time>2026-04-14T14:44:17.999Z</time></trkpt><trkpt lat="44.1206112" lon="10.4090618"><ele>318.0</ele><time>2026-04-14T14:44:21Z</time></trkpt><trkpt lat="44.1206896" lon="10.4090608"><ele>319.5</ele><time>2026-04-14T14:44:23.999Z</time></trkpt><trkpt lat="44.1207768" lon="10.4090652"><ele>321.0</ele><time>2026-04-14T14:44:26.999Z</time></trkpt><trkpt lat="44.1208649" lon="10.4090749"><ele>322.5</ele><time>2026-04-14T14:44:29.999Z</time></trkpt><trkpt lat="44.1209482" lon="10.4090975"><ele>324.0</ele><time>2026-04-14T14:44:32.999Z</time></trkpt><trkpt lat="44.1210344" lon="10.4091155"><ele>325.5</ele><time>2026-04-14T14:44:36Z</time></trkpt><trkpt lat="44.1211169" lon="10.4091365"><ele>327.0</ele><time>2026-04-14T14:44:39Z</time></trkpt><trkpt lat="44.1212012" lon="10.4091555"><ele>327.0</ele><time>2026-04-14T14:44:41.999Z</time></trkpt><trkpt lat="44.1212913" lon="10.4091689"><ele>327.0</ele><time>2026-04-14T14:44:45Z</time></trkpt><trkpt lat="44.1213827" lon="10.4091761"><ele>327.0</ele><time>2026-04-14T14:44:48Z</time></trkpt><trkpt lat="44.121474" lon="10.4091824"><ele>327.0</ele><time>2026-04-14T14:44:50.999Z</time></trkpt><trkpt lat="44.1215656" lon="10.409185"><ele>327.0</ele><time>2026-04-14T14:44:53.999Z</time></trkpt><trkpt lat="44.1216564" lon="10.4091918"><ele>327.5</ele><time>2026-04-14T14:44:57Z</time></trkpt><trkpt lat="44.1217447" lon="10.4091984"><ele>328.0</ele><time>2026-04-14T14:45:00Z</time></trkpt><trkpt lat="44.1218341" lon="10.4092043"><ele>328.5</ele><time>2026-04-14T14:45:02.999Z</time></trkpt><trkpt lat="44.1219275" lon="10.4092214"><ele>329.0</ele><time>2026-04-14T14:45:05.999Z</time></trkpt><trkpt lat="44.1219942" lon="10.409233"><ele>329.5</ele><time>2026-04-14T14:45:07.999Z</time></trkpt><trkpt lat="44.1220614" lon="10.4092422"><ele>330.0</ele><time>2026-04-14T14:45:09.999Z</time></trkpt><trkpt lat="44.1221256" lon="10.4092523"><ele>330.00000000000006</ele><time>2026-04-14T14:45:12Z</time></trkpt><trkpt lat="44.1222186" lon="10.4092695"><ele>330.0</ele><time>2026-04-14T14:45:14.999Z</time></trkpt><trkpt lat="44.1223098" lon="10.409282"><ele>330.0</ele><time>2026-04-14T14:45:18Z</time></trkpt><trkpt lat="44.1223757" lon="10.4092886"><ele>330.0</ele><time>2026-04-14T14:45:20Z</time></trkpt><trkpt lat="44.122443" lon="10.4092962"><ele>330.0</ele><time>2026-04-14T14:45:22Z</time></trkpt><trkpt lat="44.1225059" lon="10.4093087"><ele>330.00000000000006</ele><time>2026-04-14T14:45:24Z</time></trkpt><trkpt lat="44.1225689" lon="10.4093167"><ele>330.0</ele><time>2026-04-14T14:45:25.999Z</time></trkpt><trkpt lat="44.1226621" lon="10.409334"><ele>330.42857142857144</ele><time>2026-04-14T14:45:28.999Z</time></trkpt><trkpt lat="44.1227275" lon="10.4093446"><ele>330.8571428571429</ele><time>2026-04-14T14:45:30.999Z</time></trkpt><trkpt lat="44.1227928" lon="10.4093533"><ele>331.28571428571433</ele><time>2026-04-14T14:45:32.999Z</time></trkpt><trkpt lat="44.1228582" lon="10.4093668"><ele>331.7142857142857</ele><time>2026-04-14T14:45:35Z</time></trkpt><trkpt lat="44.1229239" lon="10.4093768"><ele>332.1428571428571</ele><time>2026-04-14T14:45:36.999Z</time></trkpt><trkpt lat="44.1229855" lon="10.4093971"><ele>332.5714285714286</ele><time>2026-04-14T14:45:39Z</time></trkpt><trkpt lat="44.1230489" lon="10.409423"><ele>333.0</ele><time>2026-04-14T14:45:41Z</time></trkpt><trkpt lat="44.1231136" lon="10.4094458"><ele>333.0</ele><time>2026-04-14T14:45:43Z</time></trkpt><trkpt lat="44.1231782" lon="10.4094678"><ele>333.0</ele><time>2026-04-14T14:45:44.999Z</time></trkpt><trkpt lat="44.1232448" lon="10.4094907"><ele>333.0</ele><time>2026-04-14T14:45:47Z</time></trkpt><trkpt lat="44.1233089" lon="10.4095136"><ele>333.0</ele><time>2026-04-14T14:45:49Z</time></trkpt><trkpt lat="44.1233726" lon="10.4095363"><ele>333.0</ele><time>2026-04-14T14:45:51Z</time></trkpt><trkpt lat="44.1234363" lon="10.4095608"><ele>333.0</ele><time>2026-04-14T14:45:53Z</time></trkpt><trkpt lat="44.1235028" lon="10.4095828"><ele>333.0</ele><time>2026-04-14T14:45:55Z</time></trkpt><trkpt lat="44.1235686" lon="10.4096003"><ele>333.2857142857143</ele><time>2026-04-14T14:45:57Z</time></trkpt><trkpt lat="44.1236306" lon="10.4096209"><ele>333.57142857142856</ele><time>2026-04-14T14:45:59Z</time></trkpt><trkpt lat="44.1236948" lon="10.4096457"><ele>333.85714285714283</ele><time>2026-04-14T14:46:01Z</time></trkpt><trkpt lat="44.1237635" lon="10.4096611"><ele>334.1428571428571</ele><time>2026-04-14T14:46:03Z</time></trkpt><trkpt lat="44.1238302" lon="10.4096838"><ele>334.42857142857144</ele><time>2026-04-14T14:46:05Z</time></trkpt><trkpt lat="44.123901" lon="10.4097026"><ele>334.71428571428567</ele><time>2026-04-14T14:46:07Z</time></trkpt><trkpt lat="44.1239735" lon="10.4097228"><ele>335.0</ele><time>2026-04-14T14:46:09Z</time></trkpt><trkpt lat="44.1240392" lon="10.4097499"><ele>335.71428571428567</ele><time>2026-04-14T14:46:11Z</time></trkpt><trkpt lat="44.1241026" lon="10.4097763"><ele>336.42857142857144</ele><time>2026-04-14T14:46:13Z</time></trkpt><trkpt lat="44.1241639" lon="10.409809"><ele>337.1428571428571</ele><time>2026-04-14T14:46:15Z</time></trkpt><trkpt lat="44.1242272" lon="10.4098454"><ele>337.85714285714283</ele><time>2026-04-14T14:46:16.999Z</time></trkpt><trkpt lat="44.1242876" lon="10.4098776"><ele>338.57142857142856</ele><time>2026-04-14T14:46:18.999Z</time></trkpt><trkpt lat="44.1243686" lon="10.409932"><ele>339.2857142857143</ele><time>2026-04-14T14:46:22Z</time></trkpt><trkpt lat="44.124448" lon="10.409976"><ele>340.0</ele><time>2026-04-14T14:46:24.999Z</time></trkpt><trkpt lat="44.1245136" lon="10.4099984"><ele>340.0</ele><time>2026-04-14T14:46:28Z</time></trkpt><trkpt lat="44.1245955" lon="10.4100673"><ele>340.0</ele><time>2026-04-14T14:46:31Z</time></trkpt><trkpt lat="44.124654" lon="10.41016"><ele>340.0</ele><time>2026-04-14T14:46:33.999Z</time></trkpt><trkpt lat="44.1247054" lon="10.4102609"><ele>340.0</ele><time>2026-04-14T14:46:37Z</time></trkpt><trkpt lat="44.1247605" lon="10.4103658"><ele>340.0</ele><time>2026-04-14T14:46:39.999Z</time></trkpt><trkpt lat="44.1248125" lon="10.4104183"><ele>340.0</ele><time>2026-04-14T14:46:41.999Z</time></trkpt><trkpt lat="44.1248754" lon="10.4104464"><ele>340.5714285714286</ele><time>2026-04-14T14:46:44Z</time></trkpt><trkpt lat="44.1249407" lon="10.4104578"><ele>341.1428571428571</ele><time>2026-04-14T14:46:46Z</time></trkpt><trkpt lat="44.1250072" lon="10.4104373"><ele>341.7142857142857</ele><time>2026-04-14T14:46:48Z</time></trkpt><trkpt lat="44.1250742" lon="10.4104067"><ele>342.28571428571433</ele><time>2026-04-14T14:46:49.999Z</time></trkpt><trkpt lat="44.1251445" lon="10.4103871"><ele>342.8571428571429</ele><time>2026-04-14T14:46:52Z</time></trkpt><trkpt lat="44.1252154" lon="10.4103779"><ele>343.42857142857144</ele><time>2026-04-14T14:46:54Z</time></trkpt><trkpt lat="44.1252868" lon="10.4103918"><ele>344.0</ele><time>2026-04-14T14:46:56Z</time></trkpt><trkpt lat="44.1253537" lon="10.4104168"><ele>344.00000000000006</ele><time>2026-04-14T14:46:58Z</time></trkpt><trkpt lat="44.1254195" lon="10.4104481"><ele>344.0</ele><time>2026-04-14T14:46:59.999Z</time></trkpt><trkpt lat="44.1254829" lon="10.4104759"><ele>344.0</ele><time>2026-04-14T14:47:02Z</time></trkpt><trkpt lat="44.1255457" lon="10.4105024"><ele>344.0</ele><time>2026-04-14T14:47:04Z</time></trkpt><trkpt lat="44.1256093" lon="10.410533"><ele>344.0</ele><time>2026-04-14T14:47:06Z</time></trkpt><trkpt lat="44.1256702" lon="10.4105698"><ele>344.00000000000006</ele><time>2026-04-14T14:47:07.999Z</time></trkpt><trkpt lat="44.1257332" lon="10.4106007"><ele>344.0</ele><time>2026-04-14T14:47:10Z</time></trkpt><trkpt lat="44.1257961" lon="10.4106289"><ele>344.5714285714286</ele><time>2026-04-14T14:47:12Z</time></trkpt><trkpt lat="44.1258619" lon="10.4106543"><ele>345.14285714285717</ele><time>2026-04-14T14:47:13.999Z</time></trkpt><trkpt lat="44.1259271" lon="10.4106712"><ele>345.7142857142857</ele><time>2026-04-14T14:47:15.999Z</time></trkpt><trkpt lat="44.1259931" lon="10.4106917"><ele>346.28571428571433</ele><time>2026-04-14T14:47:18Z</time></trkpt><trkpt lat="44.1260616" lon="10.4107121"><ele>346.8571428571429</ele><time>2026-04-14T14:47:20Z</time></trkpt><trkpt lat="44.1261318" lon="10.4107306"><ele>347.42857142857144</ele><time>2026-04-14T14:47:22Z</time></trkpt><trkpt lat="44.1262007" lon="10.4107475"><ele>348.0</ele><time>2026-04-14T14:47:24Z</time></trkpt><trkpt lat="44.1262709" lon="10.4107671"><ele>348.0</ele><time>2026-04-14T14:47:26Z</time></trkpt><trkpt lat="44.1263395" lon="10.4107837"><ele>348.0</ele><time>2026-04-14T14:47:28Z</time></trkpt><trkpt lat="44.1264104" lon="10.4108059"><ele>348.0</ele><time>2026-04-14T14:47:30Z</time></trkpt><trkpt lat="44.1264843" lon="10.4108257"><ele>348.0</ele><time>2026-04-14T14:47:32Z</time></trkpt><trkpt lat="44.1265522" lon="10.4108452"><ele>348.0</ele><time>2026-04-14T14:47:34Z</time></trkpt><trkpt lat="44.1266186" lon="10.4108703"><ele>348.0</ele><time>2026-04-14T14:47:36Z</time></trkpt><trkpt lat="44.1266848" lon="10.4108948"><ele>348.0</ele><time>2026-04-14T14:47:38Z</time></trkpt><trkpt lat="44.1267498" lon="10.410921"><ele>348.1428571428571</ele><time>2026-04-14T14:47:39.999Z</time></trkpt><trkpt lat="44.1268173" lon="10.4109377"><ele>348.2857142857143</ele><time>2026-04-14T14:47:42Z</time></trkpt><trkpt lat="44.1268864" lon="10.4109522"><ele>348.42857142857144</ele><time>2026-04-14T14:47:44Z</time></trkpt><trkpt lat="44.1269561" lon="10.4109702"><ele>348.57142857142856</ele><time>2026-04-14T14:47:45.999Z</time></trkpt><trkpt lat="44.1270227" lon="10.4109877"><ele>348.7142857142857</ele><time>2026-04-14T14:47:47.999Z</time></trkpt><trkpt lat="44.1270928" lon="10.4110097"><ele>348.85714285714283</ele><time>2026-04-14T14:47:50Z</time></trkpt><trkpt lat="44.127166" lon="10.4110294"><ele>349.0</ele><time>2026-04-14T14:47:52Z</time></trkpt><trkpt lat="44.1272358" lon="10.4110507"><ele>348.99999999999994</ele><time>2026-04-14T14:47:54Z</time></trkpt><trkpt lat="44.1273031" lon="10.411076"><ele>349.0</ele><time>2026-04-14T14:47:56Z</time></trkpt><trkpt lat="44.1273672" lon="10.4111028"><ele>349.0</ele><time>2026-04-14T14:47:57.999Z</time></trkpt><trkpt lat="44.1274376" lon="10.4111325"><ele>349.0</ele><time>2026-04-14T14:48:00Z</time></trkpt><trkpt lat="44.1275047" lon="10.411165"><ele>349.0</ele><time>2026-04-14T14:48:02Z</time></trkpt><trkpt lat="44.1275732" lon="10.4111894"><ele>348.99999999999994</ele><time>2026-04-14T14:48:04Z</time></trkpt><trkpt lat="44.1276438" lon="10.4112088"><ele>349.0</ele><time>2026-04-14T14:48:06Z</time></trkpt><trkpt lat="44.1277162" lon="10.4112301"><ele>349.1428571428571</ele><time>2026-04-14T14:48:07.999Z</time></trkpt><trkpt lat="44.1277838" lon="10.4112493"><ele>349.2857142857143</ele><time>2026-04-14T14:48:10Z</time></trkpt><trkpt lat="44.1278516" lon="10.4112654"><ele>349.42857142857144</ele><time>2026-04-14T14:48:12Z</time></trkpt><trkpt lat="44.127915" lon="10.4112829"><ele>349.57142857142856</ele><time>2026-04-14T14:48:14Z</time></trkpt><trkpt lat="44.1279822" lon="10.4113026"><ele>349.7142857142857</ele><time>2026-04-14T14:48:15.999Z</time></trkpt><trkpt lat="44.1280491" lon="10.4113222"><ele>349.85714285714283</ele><time>2026-04-14T14:48:17.999Z</time></trkpt><trkpt lat="44.1281144" lon="10.4113431"><ele>350.0</ele><time>2026-04-14T14:48:20Z</time></trkpt><trkpt lat="44.1281816" lon="10.4113629"><ele>350.42857142857144</ele><time>2026-04-14T14:48:21.999Z</time></trkpt><trkpt lat="44.1282479" lon="10.4113885"><ele>350.8571428571429</ele><time>2026-04-14T14:48:24Z</time></trkpt><trkpt lat="44.128315" lon="10.4114167"><ele>351.2857142857143</ele><time>2026-04-14T14:48:26Z</time></trkpt><trkpt lat="44.1283804" lon="10.4114366"><ele>351.7142857142857</ele><time>2026-04-14T14:48:28Z</time></trkpt><trkpt lat="44.1284502" lon="10.4114429"><ele>352.14285714285717</ele><time>2026-04-14T14:48:29.999Z</time></trkpt><trkpt lat="44.1285218" lon="10.4114403"><ele>352.57142857142856</ele><time>2026-04-14T14:48:31.999Z</time></trkpt><trkpt lat="44.1285856" lon="10.4114373"><ele>353.0</ele><time>2026-04-14T14:48:34Z</time></trkpt><trkpt lat="44.128671" lon="10.411438"><ele>353.0</ele><time>2026-04-14T14:48:37Z</time></trkpt><trkpt lat="44.1287441" lon="10.4114529"><ele>353.0</ele><time>2026-04-14T14:48:38.999Z</time></trkpt><trkpt lat="44.1288066" lon="10.4114993"><ele>353.0</ele><time>2026-04-14T14:48:41Z</time></trkpt><trkpt lat="44.1288594" lon="10.4115666"><ele>353.0</ele><time>2026-04-14T14:48:43Z</time></trkpt><trkpt lat="44.1289267" lon="10.4116086"><ele>353.0</ele><time>2026-04-14T14:48:45Z</time></trkpt><trkpt lat="44.1289956" lon="10.4116389"><ele>353.0</ele><time>2026-04-14T14:48:47Z</time></trkpt><trkpt lat="44.129063" lon="10.4116626"><ele>353.0</ele><time>2026-04-14T14:48:49Z</time></trkpt><trkpt lat="44.1291295" lon="10.4116899"><ele>353.2857142857143</ele><time>2026-04-14T14:48:51Z</time></trkpt><trkpt lat="44.1291982" lon="10.4117088"><ele>353.5714285714286</ele><time>2026-04-14T14:48:53Z</time></trkpt><trkpt lat="44.1292677" lon="10.4117299"><ele>353.8571428571429</ele><time>2026-04-14T14:48:55Z</time></trkpt><trkpt lat="44.1293348" lon="10.4117551"><ele>354.1428571428571</ele><time>2026-04-14T14:48:57Z</time></trkpt><trkpt lat="44.1294057" lon="10.4117798"><ele>354.42857142857144</ele><time>2026-04-14T14:48:58.999Z</time></trkpt><trkpt lat="44.1294761" lon="10.4118038"><ele>354.7142857142857</ele><time>2026-04-14T14:49:01Z</time></trkpt><trkpt lat="44.1295476" lon="10.4118248"><ele>355.0</ele><time>2026-04-14T14:49:02.999Z</time></trkpt><trkpt lat="44.1296196" lon="10.4118478"><ele>355.0</ele><time>2026-04-14T14:49:05Z</time></trkpt><trkpt lat="44.1296869" lon="10.4118795"><ele>355.0</ele><time>2026-04-14T14:49:06.999Z</time></trkpt><trkpt lat="44.1297545" lon="10.4119162"><ele>355.0</ele><time>2026-04-14T14:49:09Z</time></trkpt><trkpt lat="44.1298257" lon="10.411957"><ele>355.0</ele><time>2026-04-14T14:49:11Z</time></trkpt><trkpt lat="44.1298981" lon="10.4120062"><ele>355.0</ele><time>2026-04-14T14:49:13Z</time></trkpt><trkpt lat="44.1299665" lon="10.4120443"><ele>355.0</ele><time>2026-04-14T14:49:15Z</time></trkpt><trkpt lat="44.1300284" lon="10.4120818"><ele>355.0</ele><time>2026-04-14T14:49:17Z</time></trkpt><trkpt lat="44.1300898" lon="10.4121196"><ele>356.1428571428571</ele><time>2026-04-14T14:49:19Z</time></trkpt><trkpt lat="44.1301461" lon="10.4121615"><ele>357.2857142857143</ele><time>2026-04-14T14:49:20.999Z</time></trkpt><trkpt lat="44.1302065" lon="10.4122069"><ele>358.42857142857144</ele><time>2026-04-14T14:49:22.999Z</time></trkpt><trkpt lat="44.1302724" lon="10.4122523"><ele>359.57142857142856</ele><time>2026-04-14T14:49:24.999Z</time></trkpt><trkpt lat="44.1303387" lon="10.4123003"><ele>360.7142857142857</ele><time>2026-04-14T14:49:27Z</time></trkpt><trkpt lat="44.1304048" lon="10.4123425"><ele>361.85714285714283</ele><time>2026-04-14T14:49:29Z</time></trkpt><trkpt lat="44.1304643" lon="10.4123874"><ele>363.0</ele><time>2026-04-14T14:49:30.999Z</time></trkpt><trkpt lat="44.130521" lon="10.4124327"><ele>362.99999999999994</ele><time>2026-04-14T14:49:33Z</time></trkpt><trkpt lat="44.1305821" lon="10.4124753"><ele>363.0</ele><time>2026-04-14T14:49:35Z</time></trkpt><trkpt lat="44.1306416" lon="10.4125243"><ele>363.0</ele><time>2026-04-14T14:49:37Z</time></trkpt><trkpt lat="44.1307049" lon="10.4125693"><ele>363.0</ele><time>2026-04-14T14:49:38.999Z</time></trkpt><trkpt lat="44.1307672" lon="10.4126124"><ele>363.0</ele><time>2026-04-14T14:49:41Z</time></trkpt><trkpt lat="44.1308293" lon="10.4126535"><ele>362.99999999999994</ele><time>2026-04-14T14:49:43Z</time></trkpt><trkpt lat="44.1308931" lon="10.4126941"><ele>363.0</ele><time>2026-04-14T14:49:44.999Z</time></trkpt><trkpt lat="44.1309533" lon="10.4127374"><ele>363.1428571428571</ele><time>2026-04-14T14:49:47Z</time></trkpt><trkpt lat="44.1310119" lon="10.4127802"><ele>363.2857142857143</ele><time>2026-04-14T14:49:49Z</time></trkpt><trkpt lat="44.1310719" lon="10.4128235"><ele>363.42857142857144</ele><time>2026-04-14T14:49:51Z</time></trkpt><trkpt lat="44.1311588" lon="10.4128782"><ele>363.57142857142856</ele><time>2026-04-14T14:49:54Z</time></trkpt><trkpt lat="44.1312224" lon="10.4129182"><ele>363.7142857142857</ele><time>2026-04-14T14:49:56Z</time></trkpt><trkpt lat="44.1312906" lon="10.4129583"><ele>363.85714285714283</ele><time>2026-04-14T14:49:58Z</time></trkpt><trkpt lat="44.1313473" lon="10.4130007"><ele>364.0</ele><time>2026-04-14T14:49:59.999Z</time></trkpt><trkpt lat="44.1314058" lon="10.4130452"><ele>364.2857142857143</ele><time>2026-04-14T14:50:01.999Z</time></trkpt><trkpt lat="44.1314644" lon="10.4130874"><ele>364.57142857142856</ele><time>2026-04-14T14:50:03.999Z</time></trkpt><trkpt lat="44.1315279" lon="10.413136"><ele>364.8571428571429</ele><time>2026-04-14T14:50:06Z</time></trkpt><trkpt lat="44.1315922" lon="10.4131703"><ele>365.1428571428571</ele><time>2026-04-14T14:50:08Z</time></trkpt><trkpt lat="44.131658" lon="10.4132002"><ele>365.42857142857144</ele><time>2026-04-14T14:50:09.999Z</time></trkpt><trkpt lat="44.1317222" lon="10.4132308"><ele>365.7142857142857</ele><time>2026-04-14T14:50:12Z</time></trkpt><trkpt lat="44.131787" lon="10.4132691"><ele>366.0</ele><time>2026-04-14T14:50:14Z</time></trkpt><trkpt lat="44.1318571" lon="10.4132948"><ele>366.2857142857143</ele><time>2026-04-14T14:50:16Z</time></trkpt><trkpt lat="44.1319258" lon="10.4133262"><ele>366.57142857142856</ele><time>2026-04-14T14:50:18Z</time></trkpt><trkpt lat="44.1319932" lon="10.4133564"><ele>366.8571428571429</ele><time>2026-04-14T14:50:20Z</time></trkpt><trkpt lat="44.1320649" lon="10.4133822"><ele>367.1428571428571</ele><time>2026-04-14T14:50:21.999Z</time></trkpt><trkpt lat="44.1321344" lon="10.4134145"><ele>367.4285714285714</ele><time>2026-04-14T14:50:24Z</time></trkpt><trkpt lat="44.1322063" lon="10.4134468"><ele>367.7142857142857</ele><time>2026-04-14T14:50:26Z</time></trkpt><trkpt lat="44.1322811" lon="10.4134808"><ele>368.0</ele><time>2026-04-14T14:50:28Z</time></trkpt><trkpt lat="44.132357" lon="10.4135116"><ele>368.83333333333337</ele><time>2026-04-14T14:50:30Z</time></trkpt><trkpt lat="44.1324319" lon="10.4135409"><ele>369.6666666666667</ele><time>2026-04-14T14:50:32Z</time></trkpt><trkpt lat="44.1325065" lon="10.4135694"><ele>370.5</ele><time>2026-04-14T14:50:34Z</time></trkpt><trkpt lat="44.132581" lon="10.4135992"><ele>371.3333333333333</ele><time>2026-04-14T14:50:36Z</time></trkpt><trkpt lat="44.1326562" lon="10.4136284"><ele>372.16666666666663</ele><time>2026-04-14T14:50:38Z</time></trkpt><trkpt lat="44.1327328" lon="10.4136609"><ele>373.0</ele><time>2026-04-14T14:50:40Z</time></trkpt><trkpt lat="44.1328113" lon="10.4136924"><ele>373.0</ele><time>2026-04-14T14:50:41.999Z</time></trkpt><trkpt lat="44.1328896" lon="10.4137246"><ele>373.0</ele><time>2026-04-14T14:50:44Z</time></trkpt><trkpt lat="44.13297" lon="10.4137534"><ele>373.0</ele><time>2026-04-14T14:50:45.999Z</time></trkpt><trkpt lat="44.1330376" lon="10.4137853"><ele>373.0</ele><time>2026-04-14T14:50:48Z</time></trkpt><trkpt lat="44.1331015" lon="10.4138107"><ele>373.0</ele><time>2026-04-14T14:50:49.999Z</time></trkpt><trkpt lat="44.1331882" lon="10.4138463"><ele>373.0</ele><time>2026-04-14T14:50:53Z</time></trkpt><trkpt lat="44.1332751" lon="10.4138803"><ele>373.8333333333333</ele><time>2026-04-14T14:50:56Z</time></trkpt><trkpt lat="44.1333584" lon="10.413927"><ele>374.66666666666663</ele><time>2026-04-14T14:50:59Z</time></trkpt><trkpt lat="44.1334411" lon="10.413989"><ele>375.5</ele><time>2026-04-14T14:51:02Z</time></trkpt><trkpt lat="44.1335174" lon="10.4140566"><ele>376.3333333333333</ele><time>2026-04-14T14:51:05Z</time></trkpt><trkpt lat="44.1335761" lon="10.4141057"><ele>377.1666666666667</ele><time>2026-04-14T14:51:06.999Z</time></trkpt><trkpt lat="44.1336337" lon="10.4141621"><ele>378.0</ele><time>2026-04-14T14:51:09Z</time></trkpt><trkpt lat="44.1336895" lon="10.4142075"><ele>378.0</ele><time>2026-04-14T14:51:10.999Z</time></trkpt><trkpt lat="44.1337451" lon="10.4142689"><ele>378.0</ele><time>2026-04-14T14:51:13Z</time></trkpt><trkpt lat="44.1337944" lon="10.4143249"><ele>378.0</ele><time>2026-04-14T14:51:14.999Z</time></trkpt><trkpt lat="44.1338507" lon="10.4143895"><ele>378.0</ele><time>2026-04-14T14:51:18Z</time></trkpt><trkpt lat="44.1339145" lon="10.414475"><ele>378.0</ele><time>2026-04-14T14:51:21Z</time></trkpt><trkpt lat="44.1339702" lon="10.4145541"><ele>378.0</ele><time>2026-04-14T14:51:24Z</time></trkpt><trkpt lat="44.1340306" lon="10.4146317"><ele>378.57142857142856</ele><time>2026-04-14T14:51:27Z</time></trkpt><trkpt lat="44.1341014" lon="10.4147142"><ele>379.1428571428571</ele><time>2026-04-14T14:51:30Z</time></trkpt><trkpt lat="44.1341537" lon="10.4147678"><ele>379.7142857142857</ele><time>2026-04-14T14:51:32Z</time></trkpt><trkpt lat="44.1342033" lon="10.4148249"><ele>380.2857142857143</ele><time>2026-04-14T14:51:33.999Z</time></trkpt><trkpt lat="44.1342558" lon="10.4148825"><ele>380.85714285714283</ele><time>2026-04-14T14:51:36Z</time></trkpt><trkpt lat="44.1343032" lon="10.4149405"><ele>381.42857142857144</ele><time>2026-04-14T14:51:38Z</time></trkpt><trkpt lat="44.1343496" lon="10.4150032"><ele>382.0</ele><time>2026-04-14T14:51:39.999Z</time></trkpt><trkpt lat="44.1344024" lon="10.4150601"><ele>382.0</ele><time>2026-04-14T14:51:41.999Z</time></trkpt><trkpt lat="44.1344577" lon="10.4151147"><ele>382.0</ele><time>2026-04-14T14:51:44Z</time></trkpt><trkpt lat="44.1345121" lon="10.4151677"><ele>382.0</ele><time>2026-04-14T14:51:46Z</time></trkpt><trkpt lat="44.1345619" lon="10.4152253"><ele>382.0</ele><time>2026-04-14T14:51:48Z</time></trkpt><trkpt lat="44.134615" lon="10.4152871"><ele>382.0</ele><time>2026-04-14T14:51:49.999Z</time></trkpt><trkpt lat="44.1346725" lon="10.4153471"><ele>382.0</ele><time>2026-04-14T14:51:52Z</time></trkpt><trkpt lat="44.134726" lon="10.4154037"><ele>382.0</ele><time>2026-04-14T14:51:54Z</time></trkpt><trkpt lat="44.1347783" lon="10.4154613"><ele>381.8571428571429</ele><time>2026-04-14T14:51:56Z</time></trkpt><trkpt lat="44.1348383" lon="10.4155102"><ele>381.71428571428567</ele><time>2026-04-14T14:51:58Z</time></trkpt><trkpt lat="44.1349019" lon="10.4155461"><ele>381.57142857142856</ele><time>2026-04-14T14:52:00Z</time></trkpt><trkpt lat="44.1349635" lon="10.4155809"><ele>381.42857142857144</ele><time>2026-04-14T14:52:02Z</time></trkpt><trkpt lat="44.1350294" lon="10.415613"><ele>381.28571428571433</ele><time>2026-04-14T14:52:04Z</time></trkpt><trkpt lat="44.1350957" lon="10.4156427"><ele>381.1428571428571</ele><time>2026-04-14T14:52:05.999Z</time></trkpt><trkpt lat="44.1351626" lon="10.4156767"><ele>381.0</ele><time>2026-04-14T14:52:08Z</time></trkpt><trkpt lat="44.1352289" lon="10.4157084"><ele>381.4285714285714</ele><time>2026-04-14T14:52:10Z</time></trkpt><trkpt lat="44.135299" lon="10.4157343"><ele>381.8571428571429</ele><time>2026-04-14T14:52:12Z</time></trkpt><trkpt lat="44.1353694" lon="10.4157695"><ele>382.2857142857143</ele><time>2026-04-14T14:52:14Z</time></trkpt><trkpt lat="44.1354385" lon="10.4158001"><ele>382.71428571428567</ele><time>2026-04-14T14:52:15.999Z</time></trkpt><trkpt lat="44.1355091" lon="10.4158283"><ele>383.1428571428571</ele><time>2026-04-14T14:52:17.999Z</time></trkpt><trkpt lat="44.135581" lon="10.4158633"><ele>383.57142857142856</ele><time>2026-04-14T14:52:19.999Z</time></trkpt><trkpt lat="44.1356523" lon="10.415898"><ele>384.0</ele><time>2026-04-14T14:52:22Z</time></trkpt><trkpt lat="44.1357251" lon="10.4159318"><ele>384.6666666666667</ele><time>2026-04-14T14:52:24Z</time></trkpt><trkpt lat="44.1357968" lon="10.4159671"><ele>385.33333333333337</ele><time>2026-04-14T14:52:26Z</time></trkpt><trkpt lat="44.1358704" lon="10.4159971"><ele>386.0</ele><time>2026-04-14T14:52:27.999Z</time></trkpt><trkpt lat="44.1359428" lon="10.4160252"><ele>386.6666666666667</ele><time>2026-04-14T14:52:30Z</time></trkpt><trkpt lat="44.1360111" lon="10.416053"><ele>387.33333333333337</ele><time>2026-04-14T14:52:32Z</time></trkpt><trkpt lat="44.1360901" lon="10.4160886"><ele>388.0</ele><time>2026-04-14T14:52:35Z</time></trkpt><trkpt lat="44.1361791" lon="10.4161391"><ele>388.0</ele><time>2026-04-14T14:52:38Z</time></trkpt><trkpt lat="44.1362408" lon="10.4161835"><ele>388.0</ele><time>2026-04-14T14:52:40Z</time></trkpt><trkpt lat="44.1363009" lon="10.4162313"><ele>388.0</ele><time>2026-04-14T14:52:42Z</time></trkpt><trkpt lat="44.136359" lon="10.4162838"><ele>388.0</ele><time>2026-04-14T14:52:43.999Z</time></trkpt><trkpt lat="44.1364182" lon="10.4163345"><ele>388.0</ele><time>2026-04-14T14:52:46Z</time></trkpt><trkpt lat="44.1364756" lon="10.416394"><ele>388.0</ele><time>2026-04-14T14:52:48Z</time></trkpt><trkpt lat="44.1365354" lon="10.4164538"><ele>388.0</ele><time>2026-04-14T14:52:49.999Z</time></trkpt><trkpt lat="44.1365964" lon="10.4165115"><ele>389.00000000000006</ele><time>2026-04-14T14:52:51.999Z</time></trkpt><trkpt lat="44.1366595" lon="10.4165685"><ele>390.0</ele><time>2026-04-14T14:52:54Z</time></trkpt><trkpt lat="44.1367199" lon="10.4166286"><ele>391.0</ele><time>2026-04-14T14:52:56Z</time></trkpt><trkpt lat="44.1367826" lon="10.4166887"><ele>392.0</ele><time>2026-04-14T14:52:58Z</time></trkpt><trkpt lat="44.1368437" lon="10.4167505"><ele>393.00000000000006</ele><time>2026-04-14T14:53:00Z</time></trkpt><trkpt lat="44.1369033" lon="10.4168176"><ele>394.0</ele><time>2026-04-14T14:53:02Z</time></trkpt><trkpt lat="44.1369648" lon="10.4168832"><ele>394.00000000000006</ele><time>2026-04-14T14:53:04Z</time></trkpt><trkpt lat="44.1370256" lon="10.4169502"><ele>394.0</ele><time>2026-04-14T14:53:06Z</time></trkpt><trkpt lat="44.1370855" lon="10.4170148"><ele>394.0</ele><time>2026-04-14T14:53:08Z</time></trkpt><trkpt lat="44.1371414" lon="10.4170859"><ele>394.0</ele><time>2026-04-14T14:53:10Z</time></trkpt><trkpt lat="44.1371991" lon="10.4171535"><ele>394.00000000000006</ele><time>2026-04-14T14:53:11.999Z</time></trkpt><trkpt lat="44.1372579" lon="10.4172142"><ele>394.0</ele><time>2026-04-14T14:53:14Z</time></trkpt><trkpt lat="44.1373135" lon="10.4172796"><ele>394.33333333333337</ele><time>2026-04-14T14:53:15.999Z</time></trkpt><trkpt lat="44.1373656" lon="10.4173394"><ele>394.6666666666667</ele><time>2026-04-14T14:53:18Z</time></trkpt><trkpt lat="44.137435" lon="10.4174104"><ele>395.0</ele><time>2026-04-14T14:53:20.999Z</time></trkpt><trkpt lat="44.137508" lon="10.4174829"><ele>395.33333333333337</ele><time>2026-04-14T14:53:24Z</time></trkpt><trkpt lat="44.1375837" lon="10.4175559"><ele>395.6666666666667</ele><time>2026-04-14T14:53:26.999Z</time></trkpt><trkpt lat="44.1376548" lon="10.4176326"><ele>396.0</ele><time>2026-04-14T14:53:30Z</time></trkpt><trkpt lat="44.137723" lon="10.4177061"><ele>396.6666666666667</ele><time>2026-04-14T14:53:33Z</time></trkpt><trkpt lat="44.1377896" lon="10.417772"><ele>397.33333333333337</ele><time>2026-04-14T14:53:36Z</time></trkpt><trkpt lat="44.1378508" lon="10.4178304"><ele>398.0</ele><time>2026-04-14T14:53:39Z</time></trkpt><trkpt lat="44.1379071" lon="10.417892"><ele>398.6666666666667</ele><time>2026-04-14T14:53:42Z</time></trkpt><trkpt lat="44.1379795" lon="10.4179666"><ele>399.33333333333337</ele><time>2026-04-14T14:53:45Z</time></trkpt><trkpt lat="44.1380467" lon="10.4180316"><ele>400.0</ele><time>2026-04-14T14:53:48Z</time></trkpt><trkpt lat="44.1381312" lon="10.4180895"><ele>400.6</ele><time>2026-04-14T14:53:51Z</time></trkpt><trkpt lat="44.1382045" lon="10.4181294"><ele>401.2</ele><time>2026-04-14T14:53:53Z</time></trkpt><trkpt lat="44.1382865" lon="10.418166"><ele>401.79999999999995</ele><time>2026-04-14T14:53:54.999Z</time></trkpt><trkpt lat="44.1383757" lon="10.4182043"><ele>402.4</ele><time>2026-04-14T14:53:57Z</time></trkpt><trkpt lat="44.1384719" lon="10.4182219"><ele>403.0</ele><time>2026-04-14T14:53:59Z</time></trkpt><trkpt lat="44.1385781" lon="10.4182249"><ele>403.00000000000006</ele><time>2026-04-14T14:54:01Z</time></trkpt><trkpt lat="44.1386908" lon="10.4182235"><ele>403.0</ele><time>2026-04-14T14:54:03Z</time></trkpt><trkpt lat="44.1387553" lon="10.4182178"><ele>403.0</ele><time>2026-04-14T14:54:04Z</time></trkpt><trkpt lat="44.1388803" lon="10.4182145"><ele>403.0</ele><time>2026-04-14T14:54:06Z</time></trkpt><trkpt lat="44.1389478" lon="10.4182076"><ele>403.00000000000006</ele><time>2026-04-14T14:54:06.999Z</time></trkpt><trkpt lat="44.1390157" lon="10.4182132"><ele>403.0</ele><time>2026-04-14T14:54:07.999Z</time></trkpt><trkpt lat="44.1390828" lon="10.4182223"><ele>402.0</ele><time>2026-04-14T14:54:09Z</time></trkpt><trkpt lat="44.1391521" lon="10.4182381"><ele>401.0</ele><time>2026-04-14T14:54:10Z</time></trkpt><trkpt lat="44.1392222" lon="10.4182502"><ele>400.0</ele><time>2026-04-14T14:54:11Z</time></trkpt><trkpt lat="44.1392937" lon="10.4182584"><ele>399.0</ele><time>2026-04-14T14:54:11.999Z</time></trkpt><trkpt lat="44.1393648" lon="10.4182569"><ele>398.0</ele><time>2026-04-14T14:54:13Z</time></trkpt><trkpt lat="44.139432" lon="10.4182579"><ele>397.0</ele><time>2026-04-14T14:54:14Z</time></trkpt><trkpt lat="44.1395024" lon="10.4182559"><ele>396.0</ele><time>2026-04-14T14:54:15Z</time></trkpt><trkpt lat="44.1395722" lon="10.4182474"><ele>396.0</ele><time>2026-04-14T14:54:15.999Z</time></trkpt><trkpt lat="44.1396433" lon="10.4182389"><ele>396.0</ele><time>2026-04-14T14:54:16.999Z</time></trkpt><trkpt lat="44.1397156" lon="10.4182331"><ele>396.0</ele><time>2026-04-14T14:54:18Z</time></trkpt><trkpt lat="44.139786" lon="10.4182222"><ele>396.0</ele><time>2026-04-14T14:54:18.999Z</time></trkpt><trkpt lat="44.1398581" lon="10.4182135"><ele>396.0</ele><time>2026-04-14T14:54:20Z</time></trkpt><trkpt lat="44.1399263" lon="10.418206"><ele>396.0</ele><time>2026-04-14T14:54:21Z</time></trkpt><trkpt lat="44.1399983" lon="10.4181968"><ele>396.0</ele><time>2026-04-14T14:54:21.999Z</time></trkpt><trkpt lat="44.1400689" lon="10.4181857"><ele>396.0</ele><time>2026-04-14T14:54:23Z</time></trkpt><trkpt lat="44.1401405" lon="10.4181662"><ele>396.0</ele><time>2026-04-14T14:54:24Z</time></trkpt><trkpt lat="44.1402079" lon="10.4181321"><ele>396.0</ele><time>2026-04-14T14:54:25Z</time></trkpt><trkpt lat="44.1402737" lon="10.4180792"><ele>396.0</ele><time>2026-04-14T14:54:26Z</time></trkpt><trkpt lat="44.1403263" lon="10.4180128"><ele>396.0</ele><time>2026-04-14T14:54:27Z</time></trkpt><trkpt lat="44.1403709" lon="10.4179282"><ele>396.0</ele><time>2026-04-14T14:54:28Z</time></trkpt><trkpt lat="44.1404051" lon="10.4178359"><ele>396.0</ele><time>2026-04-14T14:54:29Z</time></trkpt><trkpt lat="44.1404282" lon="10.4177334"><ele>394.14285714285717</ele><time>2026-04-14T14:54:30Z</time></trkpt><trkpt lat="44.140435" lon="10.4176257"><ele>392.2857142857143</ele><time>2026-04-14T14:54:30.999Z</time></trkpt><trkpt lat="44.1404484" lon="10.4175271"><ele>390.42857142857144</ele><time>2026-04-14T14:54:31.999Z</time></trkpt><trkpt lat="44.140461" lon="10.4174295"><ele>388.57142857142856</ele><time>2026-04-14T14:54:32.999Z</time></trkpt><trkpt lat="44.1404724" lon="10.4173291"><ele>386.71428571428567</ele><time>2026-04-14T14:54:33.999Z</time></trkpt><trkpt lat="44.1404828" lon="10.4172325"><ele>384.85714285714283</ele><time>2026-04-14T14:54:35Z</time></trkpt><trkpt lat="44.1404927" lon="10.4171387"><ele>383.0</ele><time>2026-04-14T14:54:36Z</time></trkpt><trkpt lat="44.1405058" lon="10.4170487"><ele>382.0</ele><time>2026-04-14T14:54:37Z</time></trkpt><trkpt lat="44.1405166" lon="10.4169622"><ele>381.0</ele><time>2026-04-14T14:54:37.999Z</time></trkpt><trkpt lat="44.1405389" lon="10.4167998"><ele>380.0</ele><time>2026-04-14T14:54:39.999Z</time></trkpt><trkpt lat="44.1405577" lon="10.4166457"><ele>379.0</ele><time>2026-04-14T14:54:42Z</time></trkpt><trkpt lat="44.1405806" lon="10.4165034"><ele>378.0</ele><time>2026-04-14T14:54:44Z</time></trkpt><trkpt lat="44.1406032" lon="10.4163683"><ele>377.8333333333333</ele><time>2026-04-14T14:54:46Z</time></trkpt><trkpt lat="44.1406239" lon="10.4162358"><ele>377.6666666666667</ele><time>2026-04-14T14:54:48Z</time></trkpt><trkpt lat="44.1406448" lon="10.4161134"><ele>377.5</ele><time>2026-04-14T14:54:50Z</time></trkpt><trkpt lat="44.1406598" lon="10.4159999"><ele>377.33333333333337</ele><time>2026-04-14T14:54:52Z</time></trkpt><trkpt lat="44.1406779" lon="10.4159003"><ele>377.1666666666667</ele><time>2026-04-14T14:54:54Z</time></trkpt><trkpt lat="44.1406934" lon="10.4158027"><ele>377.0</ele><time>2026-04-14T14:54:56Z</time></trkpt><trkpt lat="44.1407085" lon="10.4156765"><ele>377.1428571428571</ele><time>2026-04-14T14:54:58.999Z</time></trkpt><trkpt lat="44.1407165" lon="10.415575"><ele>377.2857142857143</ele><time>2026-04-14T14:55:02Z</time></trkpt><trkpt lat="44.1407124" lon="10.4154782"><ele>377.42857142857144</ele><time>2026-04-14T14:55:04.999Z</time></trkpt><trkpt lat="44.1407228" lon="10.4153674"><ele>377.57142857142856</ele><time>2026-04-14T14:55:09Z</time></trkpt><trkpt lat="44.1407237" lon="10.4152767"><ele>377.7142857142857</ele><time>2026-04-14T14:55:12.999Z</time></trkpt><trkpt lat="44.1407214" lon="10.4151661"><ele>377.85714285714283</ele><time>2026-04-14T14:55:17Z</time></trkpt><trkpt lat="44.1407149" lon="10.4150742"><ele>378.0</ele><time>2026-04-14T14:55:20Z</time></trkpt><trkpt lat="44.140708" lon="10.4149846"><ele>378.0</ele><time>2026-04-14T14:55:22.999Z</time></trkpt><trkpt lat="44.1407028" lon="10.4148689"><ele>378.0</ele><time>2026-04-14T14:55:27Z</time></trkpt><trkpt lat="44.1406951" lon="10.414758"><ele>378.0</ele><time>2026-04-14T14:55:31Z</time></trkpt><trkpt lat="44.1406902" lon="10.4146474"><ele>378.0</ele><time>2026-04-14T14:55:34.999Z</time></trkpt><trkpt lat="44.1406825" lon="10.4145315"><ele>378.0</ele><time>2026-04-14T14:55:38.999Z</time></trkpt><trkpt lat="44.1406842" lon="10.4144174"><ele>378.0</ele><time>2026-04-14T14:55:42.999Z</time></trkpt><trkpt lat="44.1407005" lon="10.41433"><ele>380.14285714285717</ele><time>2026-04-14T14:55:45.999Z</time></trkpt><trkpt lat="44.1407502" lon="10.4142417"><ele>382.2857142857143</ele><time>2026-04-14T14:55:50Z</time></trkpt><trkpt lat="44.1408059" lon="10.4141976"><ele>384.42857142857144</ele><time>2026-04-14T14:55:52.999Z</time></trkpt><trkpt lat="44.1408692" lon="10.4141757"><ele>386.57142857142856</ele><time>2026-04-14T14:55:56Z</time></trkpt><trkpt lat="44.1409325" lon="10.414188"><ele>388.7142857142857</ele><time>2026-04-14T14:55:58.999Z</time></trkpt><trkpt lat="44.1410036" lon="10.4142462"><ele>390.8571428571429</ele><time>2026-04-14T14:56:02.999Z</time></trkpt><trkpt lat="44.1410371" lon="10.4143225"><ele>393.0</ele><time>2026-04-14T14:56:05.999Z</time></trkpt><trkpt lat="44.1410579" lon="10.4144361"><ele>393.00000000000006</ele><time>2026-04-14T14:56:09.999Z</time></trkpt><trkpt lat="44.1410618" lon="10.4145253"><ele>393.0</ele><time>2026-04-14T14:56:12.999Z</time></trkpt><trkpt lat="44.1410692" lon="10.4146146"><ele>393.0</ele><time>2026-04-14T14:56:16Z</time></trkpt><trkpt lat="44.1410919" lon="10.4147268"><ele>393.0</ele><time>2026-04-14T14:56:20Z</time></trkpt><trkpt lat="44.1411244" lon="10.4148024"><ele>393.0</ele><time>2026-04-14T14:56:22.999Z</time></trkpt><trkpt lat="44.1411858" lon="10.4148808"><ele>393.00000000000006</ele><time>2026-04-14T14:56:27Z</time></trkpt><trkpt lat="44.1412416" lon="10.4149267"><ele>393.0</ele><time>2026-04-14T14:56:30Z</time></trkpt><trkpt lat="44.1413224" lon="10.4149577"><ele>393.5714285714286</ele><time>2026-04-14T14:56:34Z</time></trkpt><trkpt lat="44.1413885" lon="10.4149588"><ele>394.14285714285717</ele><time>2026-04-14T14:56:37Z</time></trkpt><trkpt lat="44.1414537" lon="10.4149461"><ele>394.7142857142857</ele><time>2026-04-14T14:56:40Z</time></trkpt><trkpt lat="44.1415321" lon="10.4149216"><ele>395.28571428571433</ele><time>2026-04-14T14:56:43.999Z</time></trkpt><trkpt lat="44.1415956" lon="10.4149088"><ele>395.85714285714283</ele><time>2026-04-14T14:56:47Z</time></trkpt><trkpt lat="44.141658" lon="10.4148916"><ele>396.42857142857144</ele><time>2026-04-14T14:56:50Z</time></trkpt><trkpt lat="44.1417332" lon="10.4148792"><ele>397.0</ele><time>2026-04-14T14:56:54Z</time></trkpt><trkpt lat="44.1418049" lon="10.4148701"><ele>397.00000000000006</ele><time>2026-04-14T14:56:58Z</time></trkpt><trkpt lat="44.141873" lon="10.4148638"><ele>397.0</ele><time>2026-04-14T14:57:02Z</time></trkpt><trkpt lat="44.1419532" lon="10.4148686"><ele>397.0</ele><time>2026-04-14T14:57:06.999Z</time></trkpt><trkpt lat="44.1420343" lon="10.4148829"><ele>397.0</ele><time>2026-04-14T14:57:11Z</time></trkpt><trkpt lat="44.1421153" lon="10.4148856"><ele>397.00000000000006</ele><time>2026-04-14T14:57:14.999Z</time></trkpt><trkpt lat="44.1421811" lon="10.4148868"><ele>397.0</ele><time>2026-04-14T14:57:18Z</time></trkpt><trkpt lat="44.1422652" lon="10.4148838"><ele>397.0</ele><time>2026-04-14T14:57:22Z</time></trkpt><trkpt lat="44.1423306" lon="10.4148973"><ele>397.0</ele><time>2026-04-14T14:57:24.999Z</time></trkpt><trkpt lat="44.142398" lon="10.4149116"><ele>397.0</ele><time>2026-04-14T14:57:27.999Z</time></trkpt><trkpt lat="44.1424783" lon="10.4149267"><ele>397.0</ele><time>2026-04-14T14:57:32.001Z</time></trkpt><trkpt lat="44.1425432" lon="10.4149372"><ele>397.0</ele><time>2026-04-14T14:57:35Z</time></trkpt><trkpt lat="44.1426125" lon="10.41494"><ele>397.0</ele><time>2026-04-14T14:57:38Z</time></trkpt><trkpt lat="44.1426841" lon="10.4149437"><ele>397.0</ele><time>2026-04-14T14:57:41Z</time></trkpt><trkpt lat="44.1427538" lon="10.4149412"><ele>397.85714285714283</ele><time>2026-04-14T14:57:44Z</time></trkpt><trkpt lat="44.1428214" lon="10.4149345"><ele>398.71428571428567</ele><time>2026-04-14T14:57:46.999Z</time></trkpt><trkpt lat="44.1428995" lon="10.4149348"><ele>399.57142857142856</ele><time>2026-04-14T14:57:50Z</time></trkpt><trkpt lat="44.1429666" lon="10.4149171"><ele>400.42857142857144</ele><time>2026-04-14T14:57:53Z</time></trkpt><trkpt lat="44.1430335" lon="10.4148996"><ele>401.2857142857143</ele><time>2026-04-14T14:57:56Z</time></trkpt><trkpt lat="44.1431004" lon="10.414886"><ele>402.14285714285717</ele><time>2026-04-14T14:57:59Z</time></trkpt><trkpt lat="44.1431651" lon="10.414882"><ele>403.0</ele><time>2026-04-14T14:58:01.999Z</time></trkpt><trkpt lat="44.1432478" lon="10.4148847"><ele>404.7142857142857</ele><time>2026-04-14T14:58:05.999Z</time></trkpt><trkpt lat="44.1433289" lon="10.4149054"><ele>406.4285714285714</ele><time>2026-04-14T14:58:10Z</time></trkpt><trkpt lat="44.1433941" lon="10.41493"><ele>408.1428571428571</ele><time>2026-04-14T14:58:12.999Z</time></trkpt><trkpt lat="44.1434573" lon="10.4149506"><ele>409.8571428571429</ele><time>2026-04-14T14:58:16Z</time></trkpt><trkpt lat="44.1435388" lon="10.4149758"><ele>411.57142857142856</ele><time>2026-04-14T14:58:20Z</time></trkpt><trkpt lat="44.1436014" lon="10.4149929"><ele>413.2857142857143</ele><time>2026-04-14T14:58:23Z</time></trkpt><trkpt lat="44.1436664" lon="10.4150072"><ele>415.0</ele><time>2026-04-14T14:58:25.999Z</time></trkpt><trkpt lat="44.1437324" lon="10.4150346"><ele>415.0</ele><time>2026-04-14T14:58:29Z</time></trkpt><trkpt lat="44.1437966" lon="10.4150575"><ele>415.0</ele><time>2026-04-14T14:58:31.999Z</time></trkpt><trkpt lat="44.1438716" lon="10.4150923"><ele>415.0</ele><time>2026-04-14T14:58:36Z</time></trkpt><trkpt lat="44.1439486" lon="10.4151221"><ele>415.0</ele><time>2026-04-14T14:58:39.999Z</time></trkpt><trkpt lat="44.1440101" lon="10.4151416"><ele>415.0</ele><time>2026-04-14T14:58:42.999Z</time></trkpt><trkpt lat="44.1440915" lon="10.4151234"><ele>415.0</ele><time>2026-04-14T14:58:47Z</time></trkpt><trkpt lat="44.144144" lon="10.4150616"><ele>415.0</ele><time>2026-04-14T14:58:50Z</time></trkpt><trkpt lat="44.1441526" lon="10.4149681"><ele>415.00000000000006</ele><time>2026-04-14T14:58:52.999Z</time></trkpt><trkpt lat="44.1441293" lon="10.414871"><ele>415.0</ele><time>2026-04-14T14:58:57Z</time></trkpt><trkpt lat="44.1440663" lon="10.4148056"><ele>415.0</ele><time>2026-04-14T14:59:01Z</time></trkpt><trkpt lat="44.1439976" lon="10.4147549"><ele>415.0</ele><time>2026-04-14T14:59:05Z</time></trkpt><trkpt lat="44.143924" lon="10.4147191"><ele>415.00000000000006</ele><time>2026-04-14T14:59:09Z</time></trkpt><trkpt lat="44.1438431" lon="10.4147014"><ele>415.0</ele><time>2026-04-14T14:59:13Z</time></trkpt><trkpt lat="44.1437606" lon="10.4146857"><ele>415.0</ele><time>2026-04-14T14:59:16.999Z</time></trkpt><trkpt lat="44.1436976" lon="10.4146753"><ele>415.0</ele><time>2026-04-14T14:59:19.999Z</time></trkpt><trkpt lat="44.1436144" lon="10.4146643"><ele>415.0</ele><time>2026-04-14T14:59:23.999Z</time></trkpt><trkpt lat="44.1435517" lon="10.4146475"><ele>415.0</ele><time>2026-04-14T14:59:26.999Z</time></trkpt><trkpt lat="44.1434785" lon="10.4145941"><ele>415.0</ele><time>2026-04-14T14:59:31Z</time></trkpt><trkpt lat="44.1434386" lon="10.4145234"><ele>415.0</ele><time>2026-04-14T14:59:33.999Z</time></trkpt><trkpt lat="44.1434183" lon="10.4144381"><ele>415.0</ele><time>2026-04-14T14:59:37Z</time></trkpt><trkpt lat="44.1434152" lon="10.4143439"><ele>416.42857142857144</ele><time>2026-04-14T14:59:40Z</time></trkpt><trkpt lat="44.1434251" lon="10.4142476"><ele>417.8571428571429</ele><time>2026-04-14T14:59:43Z</time></trkpt><trkpt lat="44.1434265" lon="10.4141552"><ele>419.2857142857143</ele><time>2026-04-14T14:59:46Z</time></trkpt><trkpt lat="44.1434283" lon="10.4140388"><ele>420.7142857142857</ele><time>2026-04-14T14:59:49.999Z</time></trkpt><trkpt lat="44.1434321" lon="10.4139214"><ele>422.1428571428571</ele><time>2026-04-14T14:59:54Z</time></trkpt><trkpt lat="44.143436" lon="10.413833"><ele>423.57142857142856</ele><time>2026-04-14T14:59:57Z</time></trkpt><trkpt lat="44.1434273" lon="10.413746"><ele>425.0</ele><time>2026-04-14T15:00:00Z</time></trkpt><trkpt lat="44.1434093" lon="10.4136556"><ele>425.85714285714283</ele><time>2026-04-14T15:00:02.999Z</time></trkpt><trkpt lat="44.143389" lon="10.4135654"><ele>426.71428571428567</ele><time>2026-04-14T15:00:06Z</time></trkpt><trkpt lat="44.1433707" lon="10.4134755"><ele>427.57142857142856</ele><time>2026-04-14T15:00:09Z</time></trkpt><trkpt lat="44.1433506" lon="10.4133905"><ele>428.42857142857144</ele><time>2026-04-14T15:00:12Z</time></trkpt><trkpt lat="44.1433308" lon="10.4133044"><ele>429.2857142857143</ele><time>2026-04-14T15:00:15Z</time></trkpt><trkpt lat="44.1433131" lon="10.4132197"><ele>430.14285714285717</ele><time>2026-04-14T15:00:17.999Z</time></trkpt><trkpt lat="44.1432954" lon="10.4131316"><ele>431.0</ele><time>2026-04-14T15:00:21Z</time></trkpt><trkpt lat="44.1432653" lon="10.4130511"><ele>430.66666666666663</ele><time>2026-04-14T15:00:24Z</time></trkpt><trkpt lat="44.1432263" lon="10.4129563"><ele>430.3333333333333</ele><time>2026-04-14T15:00:28Z</time></trkpt><trkpt lat="44.1431537" lon="10.4128992"><ele>430.0</ele><time>2026-04-14T15:00:32Z</time></trkpt><trkpt lat="44.1430941" lon="10.4128687"><ele>429.66666666666663</ele><time>2026-04-14T15:00:34.999Z</time></trkpt><trkpt lat="44.1430133" lon="10.4128436"><ele>429.3333333333333</ele><time>2026-04-14T15:00:39Z</time></trkpt><trkpt lat="44.1429336" lon="10.4128328"><ele>429.0</ele><time>2026-04-14T15:00:43Z</time></trkpt><trkpt lat="44.1428703" lon="10.4128268"><ele>429.0</ele><time>2026-04-14T15:00:46Z</time></trkpt><trkpt lat="44.1428114" lon="10.4127947"><ele>429.0</ele><time>2026-04-14T15:00:49Z</time></trkpt><trkpt lat="44.1427538" lon="10.4127191"><ele>429.0</ele><time>2026-04-14T15:00:53Z</time></trkpt><trkpt lat="44.142736" lon="10.4126344"><ele>429.0</ele><time>2026-04-14T15:00:56Z</time></trkpt><trkpt lat="44.1427396" lon="10.4125411"><ele>429.0</ele><time>2026-04-14T15:00:58.999Z</time></trkpt><trkpt lat="44.142769" lon="10.4124563"><ele>429.0</ele><time>2026-04-14T15:01:02Z</time></trkpt><trkpt lat="44.1428145" lon="10.41239"><ele>429.0</ele><time>2026-04-14T15:01:04.999Z</time></trkpt><trkpt lat="44.1428891" lon="10.412338"><ele>429.0</ele><time>2026-04-14T15:01:09Z</time></trkpt><trkpt lat="44.142953" lon="10.4123099"><ele>429.0</ele><time>2026-04-14T15:01:12Z</time></trkpt><trkpt lat="44.1430158" lon="10.4122886"><ele>429.0</ele><time>2026-04-14T15:01:15Z</time></trkpt><trkpt lat="44.1430785" lon="10.4122642"><ele>429.0</ele><time>2026-04-14T15:01:18Z</time></trkpt><trkpt lat="44.1431378" lon="10.4122283"><ele>429.0</ele><time>2026-04-14T15:01:21Z</time></trkpt><trkpt lat="44.1432166" lon="10.4121903"><ele>429.0</ele><time>2026-04-14T15:01:25Z</time></trkpt><trkpt lat="44.1432958" lon="10.4121517"><ele>429.0</ele><time>2026-04-14T15:01:29Z</time></trkpt><trkpt lat="44.1433761" lon="10.4121284"><ele>430.57142857142856</ele><time>2026-04-14T15:01:32.999Z</time></trkpt><trkpt lat="44.1434391" lon="10.4121093"><ele>432.14285714285717</ele><time>2026-04-14T15:01:36Z</time></trkpt><trkpt lat="44.1435057" lon="10.4120975"><ele>433.71428571428567</ele><time>2026-04-14T15:01:39Z</time></trkpt><trkpt lat="44.1435794" lon="10.4120926"><ele>435.2857142857143</ele><time>2026-04-14T15:01:42Z</time></trkpt><trkpt lat="44.1436511" lon="10.4120731"><ele>436.85714285714283</ele><time>2026-04-14T15:01:45Z</time></trkpt><trkpt lat="44.1437171" lon="10.412036"><ele>438.4285714285714</ele><time>2026-04-14T15:01:47.999Z</time></trkpt><trkpt lat="44.1437738" lon="10.4119846"><ele>440.0</ele><time>2026-04-14T15:01:51Z</time></trkpt><trkpt lat="44.1438342" lon="10.4119278"><ele>439.99999999999994</ele><time>2026-04-14T15:01:54Z</time></trkpt><trkpt lat="44.1438795" lon="10.4118618"><ele>440.0</ele><time>2026-04-14T15:01:57Z</time></trkpt><trkpt lat="44.1439216" lon="10.4117904"><ele>440.0</ele><time>2026-04-14T15:02:00Z</time></trkpt><trkpt lat="44.1439708" lon="10.4116981"><ele>440.0</ele><time>2026-04-14T15:02:04Z</time></trkpt><trkpt lat="44.1440156" lon="10.4116107"><ele>439.99999999999994</ele><time>2026-04-14T15:02:08Z</time></trkpt><trkpt lat="44.1440354" lon="10.4115001"><ele>440.0</ele><time>2026-04-14T15:02:12.005Z</time></trkpt><trkpt lat="44.1440237" lon="10.4113849"><ele>441.16666666666663</ele><time>2026-04-14T15:02:16Z</time></trkpt><trkpt lat="44.1439947" lon="10.4112811"><ele>442.3333333333333</ele><time>2026-04-14T15:02:20Z</time></trkpt><trkpt lat="44.1439617" lon="10.4111835"><ele>443.5</ele><time>2026-04-14T15:02:24Z</time></trkpt><trkpt lat="44.1439074" lon="10.411097"><ele>444.66666666666663</ele><time>2026-04-14T15:02:28Z</time></trkpt><trkpt lat="44.1438556" lon="10.4110357"><ele>445.8333333333333</ele><time>2026-04-14T15:02:31.004Z</time></trkpt><trkpt lat="44.1437878" lon="10.4109799"><ele>447.0</ele><time>2026-04-14T15:02:35Z</time></trkpt><trkpt lat="44.1437256" lon="10.4109136"><ele>446.99999999999994</ele><time>2026-04-14T15:02:38.999Z</time></trkpt><trkpt lat="44.1436751" lon="10.4108596"><ele>447.0</ele><time>2026-04-14T15:02:42Z</time></trkpt><trkpt lat="44.1436189" lon="10.4108065"><ele>447.0</ele><time>2026-04-14T15:02:44.999Z</time></trkpt><trkpt lat="44.1435558" lon="10.4107306"><ele>447.0</ele><time>2026-04-14T15:02:48.999Z</time></trkpt><trkpt lat="44.1434893" lon="10.4106611"><ele>447.0</ele><time>2026-04-14T15:02:53Z</time></trkpt><trkpt lat="44.1434351" lon="10.4105785"><ele>446.99999999999994</ele><time>2026-04-14T15:02:56.999Z</time></trkpt><trkpt lat="44.1434171" lon="10.4104876"><ele>447.0</ele><time>2026-04-14T15:02:59.999Z</time></trkpt><trkpt lat="44.1434412" lon="10.4103901"><ele>447.4285714285714</ele><time>2026-04-14T15:03:03Z</time></trkpt><trkpt lat="44.1434919" lon="10.4103275"><ele>447.8571428571429</ele><time>2026-04-14T15:03:06Z</time></trkpt><trkpt lat="44.1435546" lon="10.4102971"><ele>448.28571428571433</ele><time>2026-04-14T15:03:09Z</time></trkpt><trkpt lat="44.1436151" lon="10.4102622"><ele>448.7142857142857</ele><time>2026-04-14T15:03:11.999Z</time></trkpt><trkpt lat="44.1436746" lon="10.4102318"><ele>449.14285714285717</ele><time>2026-04-14T15:03:14.999Z</time></trkpt><trkpt lat="44.1437385" lon="10.4102049"><ele>449.5714285714286</ele><time>2026-04-14T15:03:17.999Z</time></trkpt><trkpt lat="44.1437999" lon="10.4101695"><ele>450.00000000000006</ele><time>2026-04-14T15:03:20.999Z</time></trkpt><trkpt lat="44.1438643" lon="10.410135"><ele>450.00000000000006</ele><time>2026-04-14T15:03:23.999Z</time></trkpt><trkpt lat="44.1439268" lon="10.4101018"><ele>450.0</ele><time>2026-04-14T15:03:26.999Z</time></trkpt><trkpt lat="44.1439933" lon="10.410082"><ele>450.00000000000006</ele><time>2026-04-14T15:03:30Z</time></trkpt><trkpt lat="44.1440601" lon="10.4100777"><ele>450.00000000000006</ele><time>2026-04-14T15:03:33Z</time></trkpt><trkpt lat="44.144142" lon="10.4100818"><ele>450.0</ele><time>2026-04-14T15:03:37Z</time></trkpt><trkpt lat="44.1442167" lon="10.4101054"><ele>450.00000000000006</ele><time>2026-04-14T15:03:39.999Z</time></trkpt><trkpt lat="44.1442903" lon="10.4101396"><ele>450.00000000000006</ele><time>2026-04-14T15:03:42.999Z</time></trkpt><trkpt lat="44.1443554" lon="10.4101676"><ele>452.00000000000006</ele><time>2026-04-14T15:03:46Z</time></trkpt><trkpt lat="44.1444229" lon="10.4101868"><ele>454.0</ele><time>2026-04-14T15:03:49Z</time></trkpt><trkpt lat="44.1444925" lon="10.4102076"><ele>456.00000000000006</ele><time>2026-04-14T15:03:52Z</time></trkpt><trkpt lat="44.1445665" lon="10.410242"><ele>458.00000000000006</ele><time>2026-04-14T15:03:54.999Z</time></trkpt><trkpt lat="44.1446344" lon="10.4102664"><ele>460.0</ele><time>2026-04-14T15:03:58Z</time></trkpt><trkpt lat="44.144703" lon="10.4102903"><ele>462.00000000000006</ele><time>2026-04-14T15:04:01Z</time></trkpt><trkpt lat="44.1447757" lon="10.4103165"><ele>464.00000000000006</ele><time>2026-04-14T15:04:03.999Z</time></trkpt><trkpt lat="44.1448539" lon="10.4103457"><ele>465.16666666666663</ele><time>2026-04-14T15:04:06.999Z</time></trkpt><trkpt lat="44.1449311" lon="10.4103712"><ele>466.3333333333333</ele><time>2026-04-14T15:04:09.999Z</time></trkpt><trkpt lat="44.1450075" lon="10.4104032"><ele>467.5</ele><time>2026-04-14T15:04:12.999Z</time></trkpt><trkpt lat="44.1450827" lon="10.410431"><ele>468.66666666666663</ele><time>2026-04-14T15:04:15.999Z</time></trkpt><trkpt lat="44.1451582" lon="10.4104541"><ele>469.8333333333333</ele><time>2026-04-14T15:04:18.999Z</time></trkpt><trkpt lat="44.1452329" lon="10.4104831"><ele>471.0</ele><time>2026-04-14T15:04:22Z</time></trkpt><trkpt lat="44.1453066" lon="10.41051"><ele>471.3333333333333</ele><time>2026-04-14T15:04:24.999Z</time></trkpt><trkpt lat="44.1453803" lon="10.4105383"><ele>471.66666666666663</ele><time>2026-04-14T15:04:27.999Z</time></trkpt><trkpt lat="44.1454533" lon="10.4105568"><ele>472.0</ele><time>2026-04-14T15:04:31Z</time></trkpt><trkpt lat="44.1455309" lon="10.4105851"><ele>472.3333333333333</ele><time>2026-04-14T15:04:34Z</time></trkpt><trkpt lat="44.1456091" lon="10.4106051"><ele>472.66666666666663</ele><time>2026-04-14T15:04:36.999Z</time></trkpt><trkpt lat="44.145684" lon="10.4106348"><ele>473.0</ele><time>2026-04-14T15:04:40Z</time></trkpt><trkpt lat="44.1457568" lon="10.4106642"><ele>473.3333333333333</ele><time>2026-04-14T15:04:43Z</time></trkpt><trkpt lat="44.1458326" lon="10.4106884"><ele>473.66666666666663</ele><time>2026-04-14T15:04:45.999Z</time></trkpt><trkpt lat="44.1459107" lon="10.4107198"><ele>474.0</ele><time>2026-04-14T15:04:48.999Z</time></trkpt><trkpt lat="44.1459875" lon="10.4107524"><ele>474.33333333333337</ele><time>2026-04-14T15:04:52Z</time></trkpt><trkpt lat="44.1460655" lon="10.4107803"><ele>474.6666666666667</ele><time>2026-04-14T15:04:55Z</time></trkpt><trkpt lat="44.1461418" lon="10.4108078"><ele>475.0</ele><time>2026-04-14T15:04:57.999Z</time></trkpt><trkpt lat="44.1462134" lon="10.4108317"><ele>475.00000000000006</ele><time>2026-04-14T15:05:01Z</time></trkpt><trkpt lat="44.146287" lon="10.4108577"><ele>475.0</ele><time>2026-04-14T15:05:03.999Z</time></trkpt><trkpt lat="44.1463596" lon="10.4108869"><ele>475.0</ele><time>2026-04-14T15:05:07Z</time></trkpt><trkpt lat="44.1464359" lon="10.4109177"><ele>475.0</ele><time>2026-04-14T15:05:10Z</time></trkpt><trkpt lat="44.1465088" lon="10.4109538"><ele>475.00000000000006</ele><time>2026-04-14T15:05:13Z</time></trkpt><trkpt lat="44.1465783" lon="10.4110053"><ele>475.0</ele><time>2026-04-14T15:05:16Z</time></trkpt><trkpt lat="44.1466417" lon="10.4110757"><ele>475.83333333333337</ele><time>2026-04-14T15:05:19Z</time></trkpt><trkpt lat="44.1467011" lon="10.4111546"><ele>476.6666666666667</ele><time>2026-04-14T15:05:22Z</time></trkpt><trkpt lat="44.1467548" lon="10.4112356"><ele>477.5</ele><time>2026-04-14T15:05:25Z</time></trkpt><trkpt lat="44.1468093" lon="10.4113143"><ele>478.33333333333337</ele><time>2026-04-14T15:05:28Z</time></trkpt><trkpt lat="44.1468649" lon="10.4113976"><ele>479.1666666666667</ele><time>2026-04-14T15:05:30.999Z</time></trkpt><trkpt lat="44.1469215" lon="10.4114765"><ele>480.0</ele><time>2026-04-14T15:05:33.999Z</time></trkpt><trkpt lat="44.1469809" lon="10.4115563"><ele>481.1666666666667</ele><time>2026-04-14T15:05:36.999Z</time></trkpt><trkpt lat="44.147036" lon="10.4116344"><ele>482.33333333333337</ele><time>2026-04-14T15:05:40Z</time></trkpt><trkpt lat="44.1470903" lon="10.4117138"><ele>483.5</ele><time>2026-04-14T15:05:43Z</time></trkpt><trkpt lat="44.1471461" lon="10.4117924"><ele>484.6666666666667</ele><time>2026-04-14T15:05:45.999Z</time></trkpt><trkpt lat="44.1472016" lon="10.4118697"><ele>485.83333333333337</ele><time>2026-04-14T15:05:48.999Z</time></trkpt><trkpt lat="44.1472557" lon="10.4119494"><ele>487.0</ele><time>2026-04-14T15:05:51.999Z</time></trkpt><trkpt lat="44.1473064" lon="10.4120311"><ele>487.00000000000006</ele><time>2026-04-14T15:05:55Z</time></trkpt><trkpt lat="44.1473629" lon="10.4121066"><ele>487.0</ele><time>2026-04-14T15:05:57.999Z</time></trkpt><trkpt lat="44.1474162" lon="10.4121796"><ele>487.0</ele><time>2026-04-14T15:06:01Z</time></trkpt><trkpt lat="44.1474685" lon="10.4122529"><ele>487.0</ele><time>2026-04-14T15:06:04Z</time></trkpt><trkpt lat="44.14752" lon="10.4123283"><ele>487.00000000000006</ele><time>2026-04-14T15:06:07Z</time></trkpt><trkpt lat="44.1475721" lon="10.4124065"><ele>487.0</ele><time>2026-04-14T15:06:10Z</time></trkpt><trkpt lat="44.1476268" lon="10.4124833"><ele>487.6666666666667</ele><time>2026-04-14T15:06:13Z</time></trkpt><trkpt lat="44.1476809" lon="10.4125601"><ele>488.33333333333337</ele><time>2026-04-14T15:06:15.999Z</time></trkpt><trkpt lat="44.1477349" lon="10.4126376"><ele>489.0</ele><time>2026-04-14T15:06:19Z</time></trkpt><trkpt lat="44.1477879" lon="10.4127166"><ele>489.66666666666663</ele><time>2026-04-14T15:06:22Z</time></trkpt><trkpt lat="44.1478413" lon="10.4127951"><ele>490.3333333333333</ele><time>2026-04-14T15:06:25Z</time></trkpt><trkpt lat="44.1478974" lon="10.4128737"><ele>491.0</ele><time>2026-04-14T15:06:28Z</time></trkpt><trkpt lat="44.1479536" lon="10.4129555"><ele>491.0</ele><time>2026-04-14T15:06:30.999Z</time></trkpt><trkpt lat="44.1480014" lon="10.4130257"><ele>490.99999999999994</ele><time>2026-04-14T15:06:33.999Z</time></trkpt><trkpt lat="44.1480488" lon="10.4130894"><ele>491.0</ele><time>2026-04-14T15:06:36.999Z</time></trkpt><trkpt lat="44.1481054" lon="10.4131491"><ele>491.0</ele><time>2026-04-14T15:06:39.999Z</time></trkpt><trkpt lat="44.1481757" lon="10.4131502"><ele>490.99999999999994</ele><time>2026-04-14T15:06:43Z</time></trkpt><trkpt lat="44.1482225" lon="10.4130682"><ele>491.0</ele><time>2026-04-14T15:06:46Z</time></trkpt><trkpt lat="44.1482243" lon="10.4129529"><ele>491.0</ele><time>2026-04-14T15:06:49Z</time></trkpt><trkpt lat="44.1482013" lon="10.4128443"><ele>490.99999999999994</ele><time>2026-04-14T15:06:52Z</time></trkpt><trkpt lat="44.1481781" lon="10.4127372"><ele>491.0</ele><time>2026-04-14T15:06:55Z</time></trkpt><trkpt lat="44.1481556" lon="10.4126282"><ele>491.0</ele><time>2026-04-14T15:06:58Z</time></trkpt><trkpt lat="44.1481366" lon="10.4125145"><ele>491.0</ele><time>2026-04-14T15:07:01Z</time></trkpt><trkpt lat="44.1481123" lon="10.4124061"><ele>490.99999999999994</ele><time>2026-04-14T15:07:03.999Z</time></trkpt><trkpt lat="44.1480959" lon="10.4122946"><ele>491.0</ele><time>2026-04-14T15:07:07Z</time></trkpt><trkpt lat="44.1480791" lon="10.412181"><ele>490.8333333333333</ele><time>2026-04-14T15:07:10Z</time></trkpt><trkpt lat="44.1480582" lon="10.4120688"><ele>490.66666666666663</ele><time>2026-04-14T15:07:13Z</time></trkpt><trkpt lat="44.1480381" lon="10.411957"><ele>490.5</ele><time>2026-04-14T15:07:15.999Z</time></trkpt><trkpt lat="44.1480148" lon="10.4118458"><ele>490.33333333333337</ele><time>2026-04-14T15:07:18.999Z</time></trkpt><trkpt lat="44.1479912" lon="10.4117347"><ele>490.1666666666667</ele><time>2026-04-14T15:07:22Z</time></trkpt><trkpt lat="44.1479775" lon="10.4116151"><ele>490.0</ele><time>2026-04-14T15:07:25Z</time></trkpt><trkpt lat="44.1479718" lon="10.4115268"><ele>490.00000000000006</ele><time>2026-04-14T15:07:28Z</time></trkpt><trkpt lat="44.1479504" lon="10.4114196"><ele>490.0</ele><time>2026-04-14T15:07:31Z</time></trkpt><trkpt lat="44.1479339" lon="10.4113171"><ele>490.0</ele><time>2026-04-14T15:07:34Z</time></trkpt><trkpt lat="44.1479132" lon="10.4112159"><ele>490.0</ele><time>2026-04-14T15:07:37Z</time></trkpt><trkpt lat="44.1478901" lon="10.4111121"><ele>490.00000000000006</ele><time>2026-04-14T15:07:40Z</time></trkpt><trkpt lat="44.1478699" lon="10.4110068"><ele>490.0</ele><time>2026-04-14T15:07:42.999Z</time></trkpt><trkpt lat="44.1478535" lon="10.4108999"><ele>490.6666666666667</ele><time>2026-04-14T15:07:46Z</time></trkpt><trkpt lat="44.147837" lon="10.4107874"><ele>491.33333333333337</ele><time>2026-04-14T15:07:49Z</time></trkpt><trkpt lat="44.1478154" lon="10.4106789"><ele>492.0</ele><time>2026-04-14T15:07:51.999Z</time></trkpt><trkpt lat="44.1477979" lon="10.410568"><ele>492.66666666666663</ele><time>2026-04-14T15:07:54.999Z</time></trkpt><trkpt lat="44.1477769" lon="10.4104512"><ele>493.3333333333333</ele><time>2026-04-14T15:07:58Z</time></trkpt><trkpt lat="44.1477558" lon="10.4103291"><ele>494.0</ele><time>2026-04-14T15:08:01Z</time></trkpt><trkpt lat="44.1477427" lon="10.4102017"><ele>494.8333333333333</ele><time>2026-04-14T15:08:03.999Z</time></trkpt><trkpt lat="44.1477312" lon="10.4100962"><ele>495.66666666666663</ele><time>2026-04-14T15:08:06Z</time></trkpt><trkpt lat="44.1477116" lon="10.4099646"><ele>496.5</ele><time>2026-04-14T15:08:09.015Z</time></trkpt><trkpt lat="44.1476853" lon="10.4098552"><ele>497.33333333333337</ele><time>2026-04-14T15:08:11.999Z</time></trkpt><trkpt lat="44.1476575" lon="10.4097301"><ele>498.1666666666667</ele><time>2026-04-14T15:08:15.009Z</time></trkpt><trkpt lat="44.1476474" lon="10.409608"><ele>499.0</ele><time>2026-04-14T15:08:17.999Z</time></trkpt><trkpt lat="44.1476428" lon="10.4095196"><ele>500.6666666666667</ele><time>2026-04-14T15:08:20Z</time></trkpt><trkpt lat="44.1476315" lon="10.4094332"><ele>502.33333333333337</ele><time>2026-04-14T15:08:22Z</time></trkpt><trkpt lat="44.147619" lon="10.4093176"><ele>504.0</ele><time>2026-04-14T15:08:24.999Z</time></trkpt><trkpt lat="44.1475877" lon="10.4092064"><ele>505.66666666666663</ele><time>2026-04-14T15:08:28Z</time></trkpt><trkpt lat="44.1475744" lon="10.4090832"><ele>507.3333333333333</ele><time>2026-04-14T15:08:31Z</time></trkpt><trkpt lat="44.1475607" lon="10.408958"><ele>509.0</ele><time>2026-04-14T15:08:34Z</time></trkpt><trkpt lat="44.1475427" lon="10.4088334"><ele>510.16666666666663</ele><time>2026-04-14T15:08:37Z</time></trkpt><trkpt lat="44.1475191" lon="10.4087078"><ele>511.3333333333333</ele><time>2026-04-14T15:08:39.999Z</time></trkpt><trkpt lat="44.1474989" lon="10.4085835"><ele>512.5</ele><time>2026-04-14T15:08:43Z</time></trkpt><trkpt lat="44.1474687" lon="10.4084608"><ele>513.6666666666666</ele><time>2026-04-14T15:08:46Z</time></trkpt><trkpt lat="44.1474213" lon="10.408347"><ele>514.8333333333334</ele><time>2026-04-14T15:08:49Z</time></trkpt><trkpt lat="44.1473814" lon="10.4082721"><ele>516.0</ele><time>2026-04-14T15:08:51Z</time></trkpt><trkpt lat="44.1473385" lon="10.4082011"><ele>514.6666666666666</ele><time>2026-04-14T15:08:53Z</time></trkpt><trkpt lat="44.1472715" lon="10.4081096"><ele>513.3333333333334</ele><time>2026-04-14T15:08:56Z</time></trkpt><trkpt lat="44.147216" lon="10.4080076"><ele>512.0</ele><time>2026-04-14T15:08:58.999Z</time></trkpt><trkpt lat="44.1472153" lon="10.407919"><ele>510.6666666666667</ele><time>2026-04-14T15:09:01Z</time></trkpt><trkpt lat="44.1472656" lon="10.4078511"><ele>509.33333333333337</ele><time>2026-04-14T15:09:03Z</time></trkpt><trkpt lat="44.1473257" lon="10.4078012"><ele>508.0</ele><time>2026-04-14T15:09:05Z</time></trkpt><trkpt lat="44.1473886" lon="10.4077632"><ele>508.0</ele><time>2026-04-14T15:09:07Z</time></trkpt><trkpt lat="44.1474588" lon="10.4077507"><ele>508.0</ele><time>2026-04-14T15:09:08.999Z</time></trkpt><trkpt lat="44.1475283" lon="10.4077519"><ele>508.0</ele><time>2026-04-14T15:09:10.999Z</time></trkpt><trkpt lat="44.1475961" lon="10.4077644"><ele>508.0</ele><time>2026-04-14T15:09:13Z</time></trkpt><trkpt lat="44.1476633" lon="10.4077834"><ele>508.0</ele><time>2026-04-14T15:09:15Z</time></trkpt><trkpt lat="44.1477329" lon="10.4078048"><ele>508.0</ele><time>2026-04-14T15:09:17Z</time></trkpt><trkpt lat="44.1478044" lon="10.4078272"><ele>508.0</ele><time>2026-04-14T15:09:19Z</time></trkpt><trkpt lat="44.1478707" lon="10.4078516"><ele>508.0</ele><time>2026-04-14T15:09:20.999Z</time></trkpt><trkpt lat="44.1479265" lon="10.4079055"><ele>508.0</ele><time>2026-04-14T15:09:22.999Z</time></trkpt><trkpt lat="44.1479649" lon="10.4079876"><ele>508.0</ele><time>2026-04-14T15:09:25Z</time></trkpt><trkpt lat="44.1479818" lon="10.408082"><ele>508.0</ele><time>2026-04-14T15:09:26.999Z</time></trkpt><trkpt lat="44.1479876" lon="10.4081765"><ele>508.0</ele><time>2026-04-14T15:09:28.999Z</time></trkpt><trkpt lat="44.1479952" lon="10.408275"><ele>508.0</ele><time>2026-04-14T15:09:31Z</time></trkpt><trkpt lat="44.1480018" lon="10.4083756"><ele>508.0</ele><time>2026-04-14T15:09:32.999Z</time></trkpt><trkpt lat="44.1480121" lon="10.4084755"><ele>508.14285714285717</ele><time>2026-04-14T15:09:35Z</time></trkpt><trkpt lat="44.148023" lon="10.4085672"><ele>508.2857142857142</ele><time>2026-04-14T15:09:37Z</time></trkpt><trkpt lat="44.1480341" lon="10.4086672"><ele>508.4285714285714</ele><time>2026-04-14T15:09:40Z</time></trkpt><trkpt lat="44.1480431" lon="10.4087662"><ele>508.57142857142856</ele><time>2026-04-14T15:09:42.999Z</time></trkpt><trkpt lat="44.1480549" lon="10.4088723"><ele>508.71428571428567</ele><time>2026-04-14T15:09:46Z</time></trkpt><trkpt lat="44.148063" lon="10.4089715"><ele>508.8571428571428</ele><time>2026-04-14T15:09:49Z</time></trkpt><trkpt lat="44.1480792" lon="10.4090637"><ele>508.99999999999994</ele><time>2026-04-14T15:09:52Z</time></trkpt><trkpt lat="44.1480838" lon="10.4091627"><ele>508.99999999999994</ele><time>2026-04-14T15:09:54.999Z</time></trkpt><trkpt lat="44.1480938" lon="10.4092618"><ele>509.0</ele><time>2026-04-14T15:09:57.999Z</time></trkpt><trkpt lat="44.1480995" lon="10.4093667"><ele>508.99999999999994</ele><time>2026-04-14T15:10:01Z</time></trkpt><trkpt lat="44.14811" lon="10.4094686"><ele>508.99999999999994</ele><time>2026-04-14T15:10:03.999Z</time></trkpt><trkpt lat="44.1481165" lon="10.4095723"><ele>509.0</ele><time>2026-04-14T15:10:07Z</time></trkpt><trkpt lat="44.1481298" lon="10.4096669"><ele>508.99999999999994</ele><time>2026-04-14T15:10:09.999Z</time></trkpt><trkpt lat="44.1481514" lon="10.4097666"><ele>508.99999999999994</ele><time>2026-04-14T15:10:13Z</time></trkpt><trkpt lat="44.1481674" lon="10.4098699"><ele>507.3333333333333</ele><time>2026-04-14T15:10:16Z</time></trkpt><trkpt lat="44.1481895" lon="10.409966"><ele>505.66666666666663</ele><time>2026-04-14T15:10:19Z</time></trkpt><trkpt lat="44.1482107" lon="10.4100643"><ele>504.0</ele><time>2026-04-14T15:10:21.999Z</time></trkpt><trkpt lat="44.1482338" lon="10.4101592"><ele>502.33333333333337</ele><time>2026-04-14T15:10:24.999Z</time></trkpt><trkpt lat="44.1482621" lon="10.4102576"><ele>500.6666666666667</ele><time>2026-04-14T15:10:28Z</time></trkpt><trkpt lat="44.1482939" lon="10.4103699"><ele>499.0</ele><time>2026-04-14T15:10:31Z</time></trkpt><trkpt lat="44.1483121" lon="10.4104879"><ele>503.33333333333337</ele><time>2026-04-14T15:10:34Z</time></trkpt><trkpt lat="44.1483454" lon="10.4105952"><ele>507.6666666666667</ele><time>2026-04-14T15:10:37Z</time></trkpt><trkpt lat="44.1483842" lon="10.4106992"><ele>512.0</ele><time>2026-04-14T15:10:40Z</time></trkpt><trkpt lat="44.1484215" lon="10.4108016"><ele>516.3333333333334</ele><time>2026-04-14T15:10:42.999Z</time></trkpt><trkpt lat="44.1484566" lon="10.4109018"><ele>520.6666666666666</ele><time>2026-04-14T15:10:46Z</time></trkpt><trkpt lat="44.1484877" lon="10.4110047"><ele>525.0</ele><time>2026-04-14T15:10:49Z</time></trkpt><trkpt lat="44.148526" lon="10.4111041"><ele>525.0</ele><time>2026-04-14T15:10:52Z</time></trkpt><trkpt lat="44.1485784" lon="10.4111935"><ele>525.0</ele><time>2026-04-14T15:10:54.999Z</time></trkpt><trkpt lat="44.1486312" lon="10.4112743"><ele>525.0</ele><time>2026-04-14T15:10:58Z</time></trkpt><trkpt lat="44.1486809" lon="10.4113529"><ele>525.0</ele><time>2026-04-14T15:11:01Z</time></trkpt><trkpt lat="44.1487451" lon="10.4114164"><ele>525.0</ele><time>2026-04-14T15:11:04Z</time></trkpt><trkpt lat="44.1488201" lon="10.4114571"><ele>525.0</ele><time>2026-04-14T15:11:06.999Z</time></trkpt><trkpt lat="44.1488999" lon="10.4114257"><ele>525.0</ele><time>2026-04-14T15:11:10Z</time></trkpt><trkpt lat="44.1489708" lon="10.4113569"><ele>525.0</ele><time>2026-04-14T15:11:13Z</time></trkpt><trkpt lat="44.1490388" lon="10.4112691"><ele>525.0</ele><time>2026-04-14T15:11:15.999Z</time></trkpt><trkpt lat="44.1490895" lon="10.4112118"><ele>525.0</ele><time>2026-04-14T15:11:18Z</time></trkpt><trkpt lat="44.1491508" lon="10.4111646"><ele>525.0</ele><time>2026-04-14T15:11:20Z</time></trkpt><trkpt lat="44.1492297" lon="10.4111369"><ele>525.0</ele><time>2026-04-14T15:11:22.999Z</time></trkpt><trkpt lat="44.1493115" lon="10.4111904"><ele>524.8333333333334</ele><time>2026-04-14T15:11:27Z</time></trkpt><trkpt lat="44.149392" lon="10.41124"><ele>524.6666666666666</ele><time>2026-04-14T15:11:29.999Z</time></trkpt><trkpt lat="44.1494577" lon="10.4112766"><ele>524.5</ele><time>2026-04-14T15:11:33Z</time></trkpt><trkpt lat="44.1495225" lon="10.4113081"><ele>524.3333333333333</ele><time>2026-04-14T15:11:36Z</time></trkpt><trkpt lat="44.1495956" lon="10.4113478"><ele>524.1666666666666</ele><time>2026-04-14T15:11:38.999Z</time></trkpt><trkpt lat="44.149666" lon="10.411381"><ele>524.0</ele><time>2026-04-14T15:11:42Z</time></trkpt><trkpt lat="44.1497318" lon="10.4114133"><ele>524.0</ele><time>2026-04-14T15:11:45Z</time></trkpt><trkpt lat="44.149802" lon="10.4114469"><ele>524.0</ele><time>2026-04-14T15:11:47.999Z</time></trkpt><trkpt lat="44.1498696" lon="10.4114795"><ele>524.0</ele><time>2026-04-14T15:11:51Z</time></trkpt><trkpt lat="44.1499381" lon="10.4115073"><ele>524.0</ele><time>2026-04-14T15:11:54Z</time></trkpt><trkpt lat="44.15001" lon="10.4115385"><ele>524.0</ele><time>2026-04-14T15:11:56.999Z</time></trkpt><trkpt lat="44.1500699" lon="10.4115686"><ele>524.0</ele><time>2026-04-14T15:11:58.999Z</time></trkpt><trkpt lat="44.1501282" lon="10.4116034"><ele>524.0</ele><time>2026-04-14T15:12:01Z</time></trkpt><trkpt lat="44.1502024" lon="10.4116455"><ele>525.0</ele><time>2026-04-14T15:12:04Z</time></trkpt><trkpt lat="44.1502766" lon="10.411687"><ele>526.0</ele><time>2026-04-14T15:12:07Z</time></trkpt><trkpt lat="44.1503547" lon="10.4117287"><ele>527.0</ele><time>2026-04-14T15:12:10Z</time></trkpt><trkpt lat="44.1504228" lon="10.4117566"><ele>528.0</ele><time>2026-04-14T15:12:13Z</time></trkpt><trkpt lat="44.1504956" lon="10.4117857"><ele>529.0</ele><time>2026-04-14T15:12:16Z</time></trkpt><trkpt lat="44.150568" lon="10.4118196"><ele>530.0</ele><time>2026-04-14T15:12:18.999Z</time></trkpt><trkpt lat="44.1506447" lon="10.4118386"><ele>530.1666666666666</ele><time>2026-04-14T15:12:21.999Z</time></trkpt><trkpt lat="44.1507243" lon="10.4118349"><ele>530.3333333333333</ele><time>2026-04-14T15:12:25Z</time></trkpt><trkpt lat="44.1508063" lon="10.4118209"><ele>530.5</ele><time>2026-04-14T15:12:27.999Z</time></trkpt><trkpt lat="44.1508939" lon="10.4118474"><ele>530.6666666666666</ele><time>2026-04-14T15:12:31Z</time></trkpt><trkpt lat="44.150952" lon="10.4118833"><ele>530.8333333333334</ele><time>2026-04-14T15:12:32.999Z</time></trkpt><trkpt lat="44.1510175" lon="10.4119211"><ele>531.0</ele><time>2026-04-14T15:12:35Z</time></trkpt><trkpt lat="44.1510704" lon="10.4119739"><ele>531.0</ele><time>2026-04-14T15:12:37Z</time></trkpt><trkpt lat="44.1510647" lon="10.4120728"><ele>531.0</ele><time>2026-04-14T15:12:40Z</time></trkpt><trkpt lat="44.150994" lon="10.4120846"><ele>531.0</ele><time>2026-04-14T15:12:44Z</time></trkpt><trkpt lat="44.1509271" lon="10.412114"><ele>531.0</ele><time>2026-04-14T15:12:49Z</time></trkpt><trkpt lat="44.1508631" lon="10.4121158"><ele>531.0</ele><time>2026-04-14T15:12:52Z</time></trkpt><trkpt lat="44.1508221" lon="10.4121915"><ele>531.0</ele><time>2026-04-14T15:12:54.999Z</time></trkpt><trkpt lat="44.1508109" lon="10.4123024"><ele>531.0</ele><time>2026-04-14T15:12:57.999Z</time></trkpt><trkpt lat="44.1507972" lon="10.4124067"><ele>531.0</ele><time>2026-04-14T15:13:01.999Z</time></trkpt><trkpt lat="44.1507888" lon="10.412499"><ele>531.0</ele><time>2026-04-14T15:13:17Z</time></trkpt><trkpt lat="44.150796" lon="10.4125922"><ele>531.0</ele><time>2026-04-14T15:13:36Z</time></trkpt><trkpt lat="44.1507558" lon="10.4125129"><ele>531.0</ele><time>2026-04-14T15:33:30Z</time></trkpt><trkpt lat="44.1507713" lon="10.4124163"><ele>531.0</ele><time>2026-04-14T15:33:33Z</time></trkpt><trkpt lat="44.1507982" lon="10.4123063"><ele>531.0</ele><time>2026-04-14T15:33:35.999Z</time></trkpt><trkpt lat="44.1508202" lon="10.4122023"><ele>531.0</ele><time>2026-04-14T15:33:39Z</time></trkpt><trkpt lat="44.150864" lon="10.4121347"><ele>531.0</ele><time>2026-04-14T15:33:41Z</time></trkpt><trkpt lat="44.1509301" lon="10.4121319"><ele>531.0</ele><time>2026-04-14T15:33:43Z</time></trkpt><trkpt lat="44.1510033" lon="10.4121549"><ele>531.0</ele><time>2026-04-14T15:33:45.999Z</time></trkpt><trkpt lat="44.1510701" lon="10.4121409"><ele>531.0</ele><time>2026-04-14T15:33:50Z</time></trkpt><trkpt lat="44.151036" lon="10.4120663"><ele>531.0</ele><time>2026-04-14T15:33:55Z</time></trkpt><trkpt lat="44.1509751" lon="10.4121062"><ele>531.0</ele><time>2026-04-14T15:33:58Z</time></trkpt><trkpt lat="44.1509142" lon="10.4121379"><ele>531.0</ele><time>2026-04-14T15:34:00.999Z</time></trkpt><trkpt lat="44.1508528" lon="10.4122021"><ele>546.0</ele><time>2026-04-14T15:34:03Z</time></trkpt><trkpt lat="44.1508185" lon="10.4123047"><ele>546.0</ele><time>2026-04-14T15:34:05Z</time></trkpt><trkpt lat="44.1507949" lon="10.4124251"><ele>546.0</ele><time>2026-04-14T15:34:08Z</time></trkpt><trkpt lat="44.1507781" lon="10.4125172"><ele>546.0</ele><time>2026-04-14T15:34:09.999Z</time></trkpt></trkseg></trk></gpx>